<?xml version="1.0" encoding="UTF-8" standalone="no" ?>
<gpx xmlns="http://www.topografix.com/GPX/1/1" xmlns:xsi="http://www.w3.org/2001/XMLSchema-instance" xsi:schemaLocation="http://www.topografix.com/GPX/1/1 http://www.topografix.com/GPX/1/1/gpx.xsd" version="1.1" creator="VisuGPX - https://www.visugpx.com">
  <metadata>
    <name>Saint-Guilhem-le-Désert, Aubrac, étape 17</name>
    <desc><![CDATA[De peu après Brion à peu après Graniboules.
Trace AlpineQuest 26/03/2022 07:55:06]]></desc>
  </metadata>
  <trk>
    <name><![CDATA[Mars 2022 J17]]></name>
    <desc><![CDATA[Trace AlpineQuest 26/03/2022 07:55:06]]></desc>
    <extensions>
      <line xmlns="http://www.topografix.com/GPX/gpx_style/0/2">
        <color>0000FF</color>
        <width>4</width>
      </line>
    </extensions>
    <trkseg>
      <trkpt lat="44.7548" lon="3.06082">
        <ele>1089.7</ele>
        <time>2022-03-26T06:55:06Z</time>
      </trkpt>
      <trkpt lat="44.75494" lon="3.06085">
        <ele>1086.9</ele>
        <time>2022-03-26T06:55:12Z</time>
      </trkpt>
      <trkpt lat="44.75497" lon="3.06077">
        <ele>1086.9</ele>
        <time>2022-03-26T06:55:50Z</time>
      </trkpt>
      <trkpt lat="44.75501" lon="3.06071">
        <ele>1086.6</ele>
        <time>2022-03-26T06:55:57Z</time>
      </trkpt>
      <trkpt lat="44.75503" lon="3.06061">
        <ele>1086.8</ele>
        <time>2022-03-26T06:56:03Z</time>
      </trkpt>
      <trkpt lat="44.75506" lon="3.06052">
        <ele>1086.8</ele>
        <time>2022-03-26T06:56:09Z</time>
      </trkpt>
      <trkpt lat="44.7551" lon="3.06043">
        <ele>1086.6</ele>
        <time>2022-03-26T06:56:16Z</time>
      </trkpt>
      <trkpt lat="44.75512" lon="3.06034">
        <ele>1086.7</ele>
        <time>2022-03-26T06:56:21Z</time>
      </trkpt>
      <trkpt lat="44.75515" lon="3.06024">
        <ele>1086.7</ele>
        <time>2022-03-26T06:56:26Z</time>
      </trkpt>
      <trkpt lat="44.75516" lon="3.06015">
        <ele>1087.1</ele>
        <time>2022-03-26T06:56:31Z</time>
      </trkpt>
      <trkpt lat="44.75515" lon="3.06004">
        <ele>1087.9</ele>
        <time>2022-03-26T06:56:37Z</time>
      </trkpt>
      <trkpt lat="44.75515" lon="3.05994">
        <ele>1087.9</ele>
        <time>2022-03-26T06:56:43Z</time>
      </trkpt>
      <trkpt lat="44.75515" lon="3.05985">
        <ele>1087.7</ele>
        <time>2022-03-26T06:56:48Z</time>
      </trkpt>
      <trkpt lat="44.75512" lon="3.05975">
        <ele>1087.9</ele>
        <time>2022-03-26T06:56:54Z</time>
      </trkpt>
      <trkpt lat="44.75509" lon="3.05965">
        <ele>1088.1</ele>
        <time>2022-03-26T06:57:00Z</time>
      </trkpt>
      <trkpt lat="44.75505" lon="3.05956">
        <ele>1088.6</ele>
        <time>2022-03-26T06:57:05Z</time>
      </trkpt>
      <trkpt lat="44.75502" lon="3.05947">
        <ele>1088.8</ele>
        <time>2022-03-26T06:57:11Z</time>
      </trkpt>
      <trkpt lat="44.75499" lon="3.05939">
        <ele>1089</ele>
        <time>2022-03-26T06:57:17Z</time>
      </trkpt>
      <trkpt lat="44.75497" lon="3.05929">
        <ele>1088.9</ele>
        <time>2022-03-26T06:57:26Z</time>
      </trkpt>
      <trkpt lat="44.75494" lon="3.0592">
        <ele>1089.1</ele>
        <time>2022-03-26T06:57:31Z</time>
      </trkpt>
      <trkpt lat="44.75491" lon="3.05911">
        <ele>1088.7</ele>
        <time>2022-03-26T06:57:36Z</time>
      </trkpt>
      <trkpt lat="44.75488" lon="3.05901">
        <ele>1087.9</ele>
        <time>2022-03-26T06:57:43Z</time>
      </trkpt>
      <trkpt lat="44.75485" lon="3.05893">
        <ele>1087.4</ele>
        <time>2022-03-26T06:57:49Z</time>
      </trkpt>
      <trkpt lat="44.75481" lon="3.05883">
        <ele>1086.7</ele>
        <time>2022-03-26T06:57:55Z</time>
      </trkpt>
      <trkpt lat="44.75476" lon="3.05875">
        <ele>1086.5</ele>
        <time>2022-03-26T06:58:01Z</time>
      </trkpt>
      <trkpt lat="44.75474" lon="3.05866">
        <ele>1085.6</ele>
        <time>2022-03-26T06:58:13Z</time>
      </trkpt>
      <trkpt lat="44.7548" lon="3.0587">
        <ele>1085.3</ele>
        <time>2022-03-26T06:58:25Z</time>
      </trkpt>
      <trkpt lat="44.75487" lon="3.05874">
        <ele>1084.7</ele>
        <time>2022-03-26T06:58:32Z</time>
      </trkpt>
      <trkpt lat="44.75494" lon="3.05877">
        <ele>1084.1</ele>
        <time>2022-03-26T06:58:37Z</time>
      </trkpt>
      <trkpt lat="44.75501" lon="3.05882">
        <ele>1083.7</ele>
        <time>2022-03-26T06:58:42Z</time>
      </trkpt>
      <trkpt lat="44.75508" lon="3.05886">
        <ele>1083.3</ele>
        <time>2022-03-26T06:58:47Z</time>
      </trkpt>
      <trkpt lat="44.75514" lon="3.0589">
        <ele>1082.9</ele>
        <time>2022-03-26T06:58:52Z</time>
      </trkpt>
      <trkpt lat="44.7552" lon="3.05895">
        <ele>1082.7</ele>
        <time>2022-03-26T06:58:57Z</time>
      </trkpt>
      <trkpt lat="44.75526" lon="3.059">
        <ele>1082.3</ele>
        <time>2022-03-26T06:59:10Z</time>
      </trkpt>
      <trkpt lat="44.75531" lon="3.05908">
        <ele>1082.4</ele>
        <time>2022-03-26T06:59:16Z</time>
      </trkpt>
      <trkpt lat="44.75535" lon="3.05915">
        <ele>1082.4</ele>
        <time>2022-03-26T06:59:25Z</time>
      </trkpt>
      <trkpt lat="44.75541" lon="3.0592">
        <ele>1081.7</ele>
        <time>2022-03-26T06:59:35Z</time>
      </trkpt>
      <trkpt lat="44.75546" lon="3.05926">
        <ele>1081</ele>
        <time>2022-03-26T06:59:40Z</time>
      </trkpt>
      <trkpt lat="44.75551" lon="3.05932">
        <ele>1080.3</ele>
        <time>2022-03-26T06:59:45Z</time>
      </trkpt>
      <trkpt lat="44.75557" lon="3.05939">
        <ele>1079.4</ele>
        <time>2022-03-26T06:59:53Z</time>
      </trkpt>
      <trkpt lat="44.75562" lon="3.05946">
        <ele>1078.6</ele>
        <time>2022-03-26T07:00:20Z</time>
      </trkpt>
      <trkpt lat="44.75567" lon="3.05953">
        <ele>1077.8</ele>
        <time>2022-03-26T07:02:00Z</time>
      </trkpt>
      <trkpt lat="44.75572" lon="3.0596">
        <ele>1077</ele>
        <time>2022-03-26T07:02:06Z</time>
      </trkpt>
      <trkpt lat="44.75578" lon="3.05967">
        <ele>1075.9</ele>
        <time>2022-03-26T07:02:11Z</time>
      </trkpt>
      <trkpt lat="44.75585" lon="3.05973">
        <ele>1074.8</ele>
        <time>2022-03-26T07:02:16Z</time>
      </trkpt>
      <trkpt lat="44.75594" lon="3.05965">
        <ele>1074</ele>
        <time>2022-03-26T07:02:21Z</time>
      </trkpt>
      <trkpt lat="44.75597" lon="3.05955">
        <ele>1073.7</ele>
        <time>2022-03-26T07:02:27Z</time>
      </trkpt>
      <trkpt lat="44.756" lon="3.05946">
        <ele>1073.5</ele>
        <time>2022-03-26T07:02:32Z</time>
      </trkpt>
      <trkpt lat="44.75606" lon="3.05941">
        <ele>1072.9</ele>
        <time>2022-03-26T07:02:37Z</time>
      </trkpt>
      <trkpt lat="44.7561" lon="3.05932">
        <ele>1072.6</ele>
        <time>2022-03-26T07:02:43Z</time>
      </trkpt>
      <trkpt lat="44.75615" lon="3.05926">
        <ele>1072.3</ele>
        <time>2022-03-26T07:02:50Z</time>
      </trkpt>
      <trkpt lat="44.7561" lon="3.05931">
        <ele>1072.6</ele>
        <time>2022-03-26T07:02:58Z</time>
      </trkpt>
      <trkpt lat="44.75603" lon="3.05938">
        <ele>1073.2</ele>
        <time>2022-03-26T07:03:03Z</time>
      </trkpt>
      <trkpt lat="44.75598" lon="3.05944">
        <ele>1073.7</ele>
        <time>2022-03-26T07:03:09Z</time>
      </trkpt>
      <trkpt lat="44.75594" lon="3.05957">
        <ele>1074</ele>
        <time>2022-03-26T07:03:14Z</time>
      </trkpt>
      <trkpt lat="44.75592" lon="3.05967">
        <ele>1074.1</ele>
        <time>2022-03-26T07:03:19Z</time>
      </trkpt>
      <trkpt lat="44.75593" lon="3.05978">
        <ele>1074</ele>
        <time>2022-03-26T07:03:25Z</time>
      </trkpt>
      <trkpt lat="44.75594" lon="3.05987">
        <ele>1073.9</ele>
        <time>2022-03-26T07:03:30Z</time>
      </trkpt>
      <trkpt lat="44.75598" lon="3.05997">
        <ele>1073.4</ele>
        <time>2022-03-26T07:05:01Z</time>
      </trkpt>
      <trkpt lat="44.75602" lon="3.06006">
        <ele>1072.6</ele>
        <time>2022-03-26T07:05:10Z</time>
      </trkpt>
      <trkpt lat="44.75607" lon="3.06014">
        <ele>1071.5</ele>
        <time>2022-03-26T07:05:15Z</time>
      </trkpt>
      <trkpt lat="44.75613" lon="3.06019">
        <ele>1070.5</ele>
        <time>2022-03-26T07:05:20Z</time>
      </trkpt>
      <trkpt lat="44.7562" lon="3.06023">
        <ele>1069.3</ele>
        <time>2022-03-26T07:05:25Z</time>
      </trkpt>
      <trkpt lat="44.75627" lon="3.06024">
        <ele>1068.4</ele>
        <time>2022-03-26T07:05:30Z</time>
      </trkpt>
      <trkpt lat="44.75633" lon="3.06027">
        <ele>1067.4</ele>
        <time>2022-03-26T07:06:25Z</time>
      </trkpt>
      <trkpt lat="44.75641" lon="3.0603">
        <ele>1066.1</ele>
        <time>2022-03-26T07:06:30Z</time>
      </trkpt>
      <trkpt lat="44.75649" lon="3.0603">
        <ele>1065</ele>
        <time>2022-03-26T07:06:35Z</time>
      </trkpt>
      <trkpt lat="44.75656" lon="3.0603">
        <ele>1064.1</ele>
        <time>2022-03-26T07:06:41Z</time>
      </trkpt>
      <trkpt lat="44.75664" lon="3.06029">
        <ele>1063.2</ele>
        <time>2022-03-26T07:06:46Z</time>
      </trkpt>
      <trkpt lat="44.75671" lon="3.06028">
        <ele>1062.8</ele>
        <time>2022-03-26T07:06:51Z</time>
      </trkpt>
      <trkpt lat="44.75681" lon="3.06029">
        <ele>1062.1</ele>
        <time>2022-03-26T07:06:56Z</time>
      </trkpt>
      <trkpt lat="44.75691" lon="3.0603">
        <ele>1061.5</ele>
        <time>2022-03-26T07:07:01Z</time>
      </trkpt>
      <trkpt lat="44.75698" lon="3.06028">
        <ele>1061.3</ele>
        <time>2022-03-26T07:07:06Z</time>
      </trkpt>
      <trkpt lat="44.75708" lon="3.06024">
        <ele>1061.2</ele>
        <time>2022-03-26T07:07:11Z</time>
      </trkpt>
      <trkpt lat="44.75716" lon="3.06021">
        <ele>1061.1</ele>
        <time>2022-03-26T07:07:16Z</time>
      </trkpt>
      <trkpt lat="44.75724" lon="3.06018">
        <ele>1060.9</ele>
        <time>2022-03-26T07:07:21Z</time>
      </trkpt>
      <trkpt lat="44.75731" lon="3.06013">
        <ele>1061</ele>
        <time>2022-03-26T07:07:26Z</time>
      </trkpt>
      <trkpt lat="44.75739" lon="3.06009">
        <ele>1060.9</ele>
        <time>2022-03-26T07:07:31Z</time>
      </trkpt>
      <trkpt lat="44.75747" lon="3.06006">
        <ele>1060.7</ele>
        <time>2022-03-26T07:07:36Z</time>
      </trkpt>
      <trkpt lat="44.75755" lon="3.06004">
        <ele>1060</ele>
        <time>2022-03-26T07:07:41Z</time>
      </trkpt>
      <trkpt lat="44.75763" lon="3.06004">
        <ele>1058.8</ele>
        <time>2022-03-26T07:07:46Z</time>
      </trkpt>
      <trkpt lat="44.75771" lon="3.06004">
        <ele>1057.7</ele>
        <time>2022-03-26T07:07:51Z</time>
      </trkpt>
      <trkpt lat="44.75779" lon="3.06008">
        <ele>1056.3</ele>
        <time>2022-03-26T07:07:56Z</time>
      </trkpt>
      <trkpt lat="44.75786" lon="3.06013">
        <ele>1055.1</ele>
        <time>2022-03-26T07:08:02Z</time>
      </trkpt>
      <trkpt lat="44.75791" lon="3.0602">
        <ele>1054</ele>
        <time>2022-03-26T07:08:07Z</time>
      </trkpt>
      <trkpt lat="44.75797" lon="3.06027">
        <ele>1052.9</ele>
        <time>2022-03-26T07:08:13Z</time>
      </trkpt>
      <trkpt lat="44.75801" lon="3.06036">
        <ele>1052</ele>
        <time>2022-03-26T07:08:18Z</time>
      </trkpt>
      <trkpt lat="44.75808" lon="3.06035">
        <ele>1051.2</ele>
        <time>2022-03-26T07:08:28Z</time>
      </trkpt>
      <trkpt lat="44.75814" lon="3.06028">
        <ele>1050.7</ele>
        <time>2022-03-26T07:12:20Z</time>
      </trkpt>
      <trkpt lat="44.75806" lon="3.06031">
        <ele>1051.6</ele>
        <time>2022-03-26T07:12:32Z</time>
      </trkpt>
      <trkpt lat="44.75809" lon="3.0604">
        <ele>1050.8</ele>
        <time>2022-03-26T07:13:38Z</time>
      </trkpt>
      <trkpt lat="44.75811" lon="3.0605">
        <ele>1050.2</ele>
        <time>2022-03-26T07:13:45Z</time>
      </trkpt>
      <trkpt lat="44.75816" lon="3.06057">
        <ele>1049.4</ele>
        <time>2022-03-26T07:13:51Z</time>
      </trkpt>
      <trkpt lat="44.7582" lon="3.06064">
        <ele>1048.8</ele>
        <time>2022-03-26T07:13:57Z</time>
      </trkpt>
      <trkpt lat="44.75827" lon="3.06072">
        <ele>1047.9</ele>
        <time>2022-03-26T07:15:30Z</time>
      </trkpt>
      <trkpt lat="44.75833" lon="3.06078">
        <ele>1047.2</ele>
        <time>2022-03-26T07:15:36Z</time>
      </trkpt>
      <trkpt lat="44.75839" lon="3.06079">
        <ele>1047.5</ele>
        <time>2022-03-26T07:15:41Z</time>
      </trkpt>
      <trkpt lat="44.75847" lon="3.06078">
        <ele>1048.2</ele>
        <time>2022-03-26T07:15:47Z</time>
      </trkpt>
      <trkpt lat="44.75854" lon="3.06078">
        <ele>1048.7</ele>
        <time>2022-03-26T07:15:53Z</time>
      </trkpt>
      <trkpt lat="44.75861" lon="3.06079">
        <ele>1049.3</ele>
        <time>2022-03-26T07:15:59Z</time>
      </trkpt>
      <trkpt lat="44.75869" lon="3.06079">
        <ele>1049.9</ele>
        <time>2022-03-26T07:16:04Z</time>
      </trkpt>
      <trkpt lat="44.75878" lon="3.06081">
        <ele>1050.7</ele>
        <time>2022-03-26T07:16:12Z</time>
      </trkpt>
      <trkpt lat="44.75886" lon="3.0608">
        <ele>1051.3</ele>
        <time>2022-03-26T07:16:17Z</time>
      </trkpt>
      <trkpt lat="44.75893" lon="3.06083">
        <ele>1052</ele>
        <time>2022-03-26T07:16:24Z</time>
      </trkpt>
      <trkpt lat="44.759" lon="3.06084">
        <ele>1052.7</ele>
        <time>2022-03-26T07:16:29Z</time>
      </trkpt>
      <trkpt lat="44.75907" lon="3.06085">
        <ele>1053.4</ele>
        <time>2022-03-26T07:16:34Z</time>
      </trkpt>
      <trkpt lat="44.75914" lon="3.06085">
        <ele>1054</ele>
        <time>2022-03-26T07:16:39Z</time>
      </trkpt>
      <trkpt lat="44.75921" lon="3.06088">
        <ele>1054.9</ele>
        <time>2022-03-26T07:16:44Z</time>
      </trkpt>
      <trkpt lat="44.75928" lon="3.06092">
        <ele>1055.8</ele>
        <time>2022-03-26T07:16:49Z</time>
      </trkpt>
      <trkpt lat="44.75936" lon="3.06093">
        <ele>1056.4</ele>
        <time>2022-03-26T07:16:55Z</time>
      </trkpt>
      <trkpt lat="44.75944" lon="3.06094">
        <ele>1057</ele>
        <time>2022-03-26T07:17:15Z</time>
      </trkpt>
      <trkpt lat="44.75952" lon="3.06095">
        <ele>1057.6</ele>
        <time>2022-03-26T07:17:20Z</time>
      </trkpt>
      <trkpt lat="44.75959" lon="3.06097">
        <ele>1058.3</ele>
        <time>2022-03-26T07:17:25Z</time>
      </trkpt>
      <trkpt lat="44.75966" lon="3.061">
        <ele>1059</ele>
        <time>2022-03-26T07:17:31Z</time>
      </trkpt>
      <trkpt lat="44.75972" lon="3.06106">
        <ele>1060.1</ele>
        <time>2022-03-26T07:17:37Z</time>
      </trkpt>
      <trkpt lat="44.75979" lon="3.06107">
        <ele>1060.7</ele>
        <time>2022-03-26T07:17:42Z</time>
      </trkpt>
      <trkpt lat="44.75987" lon="3.06107">
        <ele>1061.1</ele>
        <time>2022-03-26T07:17:47Z</time>
      </trkpt>
      <trkpt lat="44.75995" lon="3.06107">
        <ele>1061.6</ele>
        <time>2022-03-26T07:17:52Z</time>
      </trkpt>
      <trkpt lat="44.76003" lon="3.06109">
        <ele>1062.2</ele>
        <time>2022-03-26T07:17:59Z</time>
      </trkpt>
      <trkpt lat="44.76009" lon="3.06106">
        <ele>1062</ele>
        <time>2022-03-26T07:18:05Z</time>
      </trkpt>
      <trkpt lat="44.76017" lon="3.06102">
        <ele>1061.9</ele>
        <time>2022-03-26T07:18:10Z</time>
      </trkpt>
      <trkpt lat="44.76011" lon="3.06105">
        <ele>1062</ele>
        <time>2022-03-26T07:18:19Z</time>
      </trkpt>
      <trkpt lat="44.76022" lon="3.06107">
        <ele>1062.6</ele>
        <time>2022-03-26T07:18:25Z</time>
      </trkpt>
      <trkpt lat="44.76016" lon="3.06099">
        <ele>1061.5</ele>
        <time>2022-03-26T07:18:30Z</time>
      </trkpt>
      <trkpt lat="44.76022" lon="3.06104">
        <ele>1062.3</ele>
        <time>2022-03-26T07:18:44Z</time>
      </trkpt>
      <trkpt lat="44.7603" lon="3.06101">
        <ele>1062.2</ele>
        <time>2022-03-26T07:18:55Z</time>
      </trkpt>
      <trkpt lat="44.76035" lon="3.06094">
        <ele>1061.5</ele>
        <time>2022-03-26T07:19:01Z</time>
      </trkpt>
      <trkpt lat="44.76041" lon="3.06086">
        <ele>1060.8</ele>
        <time>2022-03-26T07:19:06Z</time>
      </trkpt>
      <trkpt lat="44.76033" lon="3.06086">
        <ele>1060.5</ele>
        <time>2022-03-26T07:23:11Z</time>
      </trkpt>
      <trkpt lat="44.76041" lon="3.06084">
        <ele>1060.6</ele>
        <time>2022-03-26T07:23:35Z</time>
      </trkpt>
      <trkpt lat="44.76041" lon="3.06074">
        <ele>1059.5</ele>
        <time>2022-03-26T07:27:34Z</time>
      </trkpt>
      <trkpt lat="44.76045" lon="3.06065">
        <ele>1058.8</ele>
        <time>2022-03-26T07:27:40Z</time>
      </trkpt>
      <trkpt lat="44.76049" lon="3.06056">
        <ele>1058.1</ele>
        <time>2022-03-26T07:27:47Z</time>
      </trkpt>
      <trkpt lat="44.76045" lon="3.06048">
        <ele>1057.1</ele>
        <time>2022-03-26T07:27:57Z</time>
      </trkpt>
      <trkpt lat="44.76044" lon="3.06038">
        <ele>1056</ele>
        <time>2022-03-26T07:28:05Z</time>
      </trkpt>
      <trkpt lat="44.76038" lon="3.06032">
        <ele>1055</ele>
        <time>2022-03-26T07:28:12Z</time>
      </trkpt>
      <trkpt lat="44.76034" lon="3.06025">
        <ele>1054</ele>
        <time>2022-03-26T07:28:19Z</time>
      </trkpt>
      <trkpt lat="44.76034" lon="3.06014">
        <ele>1052.8</ele>
        <time>2022-03-26T07:28:25Z</time>
      </trkpt>
      <trkpt lat="44.76032" lon="3.06005">
        <ele>1051.6</ele>
        <time>2022-03-26T07:28:30Z</time>
      </trkpt>
      <trkpt lat="44.7603" lon="3.05996">
        <ele>1050.6</ele>
        <time>2022-03-26T07:28:35Z</time>
      </trkpt>
      <trkpt lat="44.76033" lon="3.05987">
        <ele>1050.1</ele>
        <time>2022-03-26T07:28:50Z</time>
      </trkpt>
      <trkpt lat="44.76037" lon="3.05978">
        <ele>1049.7</ele>
        <time>2022-03-26T07:28:55Z</time>
      </trkpt>
      <trkpt lat="44.7604" lon="3.0597">
        <ele>1049.3</ele>
        <time>2022-03-26T07:29:00Z</time>
      </trkpt>
      <trkpt lat="44.76044" lon="3.05962">
        <ele>1049</ele>
        <time>2022-03-26T07:29:05Z</time>
      </trkpt>
      <trkpt lat="44.76048" lon="3.05952">
        <ele>1048.5</ele>
        <time>2022-03-26T07:29:10Z</time>
      </trkpt>
      <trkpt lat="44.7605" lon="3.05943">
        <ele>1047.9</ele>
        <time>2022-03-26T07:29:17Z</time>
      </trkpt>
      <trkpt lat="44.76056" lon="3.05934">
        <ele>1047.6</ele>
        <time>2022-03-26T07:29:39Z</time>
      </trkpt>
      <trkpt lat="44.76063" lon="3.05925">
        <ele>1047.3</ele>
        <time>2022-03-26T07:29:44Z</time>
      </trkpt>
      <trkpt lat="44.76067" lon="3.05917">
        <ele>1046.9</ele>
        <time>2022-03-26T07:29:50Z</time>
      </trkpt>
      <trkpt lat="44.76071" lon="3.05909">
        <ele>1046.7</ele>
        <time>2022-03-26T07:29:55Z</time>
      </trkpt>
      <trkpt lat="44.76077" lon="3.05903">
        <ele>1046.7</ele>
        <time>2022-03-26T07:30:00Z</time>
      </trkpt>
      <trkpt lat="44.76081" lon="3.05896">
        <ele>1046.4</ele>
        <time>2022-03-26T07:30:06Z</time>
      </trkpt>
      <trkpt lat="44.76086" lon="3.0589">
        <ele>1046.4</ele>
        <time>2022-03-26T07:30:11Z</time>
      </trkpt>
      <trkpt lat="44.7609" lon="3.0588">
        <ele>1046.2</ele>
        <time>2022-03-26T07:30:16Z</time>
      </trkpt>
      <trkpt lat="44.76096" lon="3.05873">
        <ele>1046.5</ele>
        <time>2022-03-26T07:30:21Z</time>
      </trkpt>
      <trkpt lat="44.761" lon="3.05865">
        <ele>1046.4</ele>
        <time>2022-03-26T07:30:26Z</time>
      </trkpt>
      <trkpt lat="44.76106" lon="3.05856">
        <ele>1046.5</ele>
        <time>2022-03-26T07:30:31Z</time>
      </trkpt>
      <trkpt lat="44.76112" lon="3.05849">
        <ele>1046.7</ele>
        <time>2022-03-26T07:30:36Z</time>
      </trkpt>
      <trkpt lat="44.76118" lon="3.05842">
        <ele>1046.9</ele>
        <time>2022-03-26T07:30:41Z</time>
      </trkpt>
      <trkpt lat="44.76125" lon="3.05836">
        <ele>1047.2</ele>
        <time>2022-03-26T07:30:46Z</time>
      </trkpt>
      <trkpt lat="44.76133" lon="3.05833">
        <ele>1048</ele>
        <time>2022-03-26T07:30:51Z</time>
      </trkpt>
      <trkpt lat="44.76142" lon="3.05831">
        <ele>1049</ele>
        <time>2022-03-26T07:30:56Z</time>
      </trkpt>
      <trkpt lat="44.76149" lon="3.05832">
        <ele>1049.9</ele>
        <time>2022-03-26T07:31:01Z</time>
      </trkpt>
      <trkpt lat="44.76159" lon="3.05832">
        <ele>1051.1</ele>
        <time>2022-03-26T07:31:06Z</time>
      </trkpt>
      <trkpt lat="44.76166" lon="3.05835">
        <ele>1052.1</ele>
        <time>2022-03-26T07:31:12Z</time>
      </trkpt>
      <trkpt lat="44.76173" lon="3.05835">
        <ele>1052.6</ele>
        <time>2022-03-26T07:31:17Z</time>
      </trkpt>
      <trkpt lat="44.76179" lon="3.05839">
        <ele>1053.5</ele>
        <time>2022-03-26T07:31:22Z</time>
      </trkpt>
      <trkpt lat="44.76188" lon="3.05842">
        <ele>1054.4</ele>
        <time>2022-03-26T07:31:27Z</time>
      </trkpt>
      <trkpt lat="44.76195" lon="3.05843">
        <ele>1055</ele>
        <time>2022-03-26T07:31:32Z</time>
      </trkpt>
      <trkpt lat="44.76202" lon="3.05844">
        <ele>1055.7</ele>
        <time>2022-03-26T07:31:37Z</time>
      </trkpt>
      <trkpt lat="44.7621" lon="3.05843">
        <ele>1056.2</ele>
        <time>2022-03-26T07:31:42Z</time>
      </trkpt>
      <trkpt lat="44.76218" lon="3.05843">
        <ele>1056.8</ele>
        <time>2022-03-26T07:31:47Z</time>
      </trkpt>
      <trkpt lat="44.76226" lon="3.05842">
        <ele>1057.3</ele>
        <time>2022-03-26T07:31:52Z</time>
      </trkpt>
      <trkpt lat="44.76234" lon="3.05844">
        <ele>1058.1</ele>
        <time>2022-03-26T07:31:57Z</time>
      </trkpt>
      <trkpt lat="44.76242" lon="3.05846">
        <ele>1058.9</ele>
        <time>2022-03-26T07:32:03Z</time>
      </trkpt>
      <trkpt lat="44.76251" lon="3.05848">
        <ele>1059.7</ele>
        <time>2022-03-26T07:32:08Z</time>
      </trkpt>
      <trkpt lat="44.7626" lon="3.05848">
        <ele>1059</ele>
        <time>2022-03-26T07:32:13Z</time>
      </trkpt>
      <trkpt lat="44.76268" lon="3.0585">
        <ele>1058.6</ele>
        <time>2022-03-26T07:32:18Z</time>
      </trkpt>
      <trkpt lat="44.76274" lon="3.05851">
        <ele>1058.3</ele>
        <time>2022-03-26T07:32:23Z</time>
      </trkpt>
      <trkpt lat="44.76282" lon="3.0585">
        <ele>1057.5</ele>
        <time>2022-03-26T07:32:28Z</time>
      </trkpt>
      <trkpt lat="44.76289" lon="3.05853">
        <ele>1057.3</ele>
        <time>2022-03-26T07:32:34Z</time>
      </trkpt>
      <trkpt lat="44.76296" lon="3.05854">
        <ele>1056.9</ele>
        <time>2022-03-26T07:32:41Z</time>
      </trkpt>
      <trkpt lat="44.76304" lon="3.05854">
        <ele>1056.3</ele>
        <time>2022-03-26T07:32:46Z</time>
      </trkpt>
      <trkpt lat="44.76311" lon="3.05852">
        <ele>1055.5</ele>
        <time>2022-03-26T07:32:51Z</time>
      </trkpt>
      <trkpt lat="44.76318" lon="3.05851">
        <ele>1054.9</ele>
        <time>2022-03-26T07:32:58Z</time>
      </trkpt>
      <trkpt lat="44.76322" lon="3.05843">
        <ele>1053.8</ele>
        <time>2022-03-26T07:33:03Z</time>
      </trkpt>
      <trkpt lat="44.76329" lon="3.05837">
        <ele>1052.7</ele>
        <time>2022-03-26T07:33:08Z</time>
      </trkpt>
      <trkpt lat="44.76335" lon="3.05831">
        <ele>1051.9</ele>
        <time>2022-03-26T07:33:14Z</time>
      </trkpt>
      <trkpt lat="44.76341" lon="3.05826">
        <ele>1051.2</ele>
        <time>2022-03-26T07:33:19Z</time>
      </trkpt>
      <trkpt lat="44.76348" lon="3.05823">
        <ele>1050.4</ele>
        <time>2022-03-26T07:33:24Z</time>
      </trkpt>
      <trkpt lat="44.76354" lon="3.0582">
        <ele>1049.7</ele>
        <time>2022-03-26T07:33:29Z</time>
      </trkpt>
      <trkpt lat="44.76362" lon="3.05818">
        <ele>1048.7</ele>
        <time>2022-03-26T07:33:34Z</time>
      </trkpt>
      <trkpt lat="44.7637" lon="3.05818">
        <ele>1047.7</ele>
        <time>2022-03-26T07:33:39Z</time>
      </trkpt>
      <trkpt lat="44.76377" lon="3.05817">
        <ele>1046.8</ele>
        <time>2022-03-26T07:33:44Z</time>
      </trkpt>
      <trkpt lat="44.76385" lon="3.05816">
        <ele>1045.8</ele>
        <time>2022-03-26T07:33:49Z</time>
      </trkpt>
      <trkpt lat="44.76393" lon="3.05811">
        <ele>1044.8</ele>
        <time>2022-03-26T07:33:54Z</time>
      </trkpt>
      <trkpt lat="44.76399" lon="3.05802">
        <ele>1044</ele>
        <time>2022-03-26T07:33:59Z</time>
      </trkpt>
      <trkpt lat="44.76402" lon="3.05794">
        <ele>1043.5</ele>
        <time>2022-03-26T07:34:04Z</time>
      </trkpt>
      <trkpt lat="44.76403" lon="3.05783">
        <ele>1043.3</ele>
        <time>2022-03-26T07:34:10Z</time>
      </trkpt>
      <trkpt lat="44.76401" lon="3.05772">
        <ele>1043.6</ele>
        <time>2022-03-26T07:34:15Z</time>
      </trkpt>
      <trkpt lat="44.76398" lon="3.05762">
        <ele>1044</ele>
        <time>2022-03-26T07:34:21Z</time>
      </trkpt>
      <trkpt lat="44.76394" lon="3.05753">
        <ele>1044.5</ele>
        <time>2022-03-26T07:34:26Z</time>
      </trkpt>
      <trkpt lat="44.76392" lon="3.05744">
        <ele>1045.3</ele>
        <time>2022-03-26T07:34:31Z</time>
      </trkpt>
      <trkpt lat="44.76388" lon="3.05736">
        <ele>1046.6</ele>
        <time>2022-03-26T07:34:36Z</time>
      </trkpt>
      <trkpt lat="44.76387" lon="3.05725">
        <ele>1047.7</ele>
        <time>2022-03-26T07:34:41Z</time>
      </trkpt>
      <trkpt lat="44.76389" lon="3.05711">
        <ele>1048.4</ele>
        <time>2022-03-26T07:34:46Z</time>
      </trkpt>
      <trkpt lat="44.76388" lon="3.057">
        <ele>1049.5</ele>
        <time>2022-03-26T07:34:52Z</time>
      </trkpt>
      <trkpt lat="44.7639" lon="3.05688">
        <ele>1050.1</ele>
        <time>2022-03-26T07:34:57Z</time>
      </trkpt>
      <trkpt lat="44.76391" lon="3.05678">
        <ele>1050.7</ele>
        <time>2022-03-26T07:35:02Z</time>
      </trkpt>
      <trkpt lat="44.76392" lon="3.05668">
        <ele>1051.2</ele>
        <time>2022-03-26T07:35:07Z</time>
      </trkpt>
      <trkpt lat="44.76393" lon="3.05657">
        <ele>1051.6</ele>
        <time>2022-03-26T07:35:12Z</time>
      </trkpt>
      <trkpt lat="44.76394" lon="3.05645">
        <ele>1052</ele>
        <time>2022-03-26T07:35:17Z</time>
      </trkpt>
      <trkpt lat="44.76393" lon="3.05636">
        <ele>1052.6</ele>
        <time>2022-03-26T07:35:25Z</time>
      </trkpt>
      <trkpt lat="44.76394" lon="3.05627">
        <ele>1052.9</ele>
        <time>2022-03-26T07:35:34Z</time>
      </trkpt>
      <trkpt lat="44.76394" lon="3.05617">
        <ele>1053.4</ele>
        <time>2022-03-26T07:35:40Z</time>
      </trkpt>
      <trkpt lat="44.76397" lon="3.05609">
        <ele>1053.5</ele>
        <time>2022-03-26T07:35:45Z</time>
      </trkpt>
      <trkpt lat="44.764" lon="3.05598">
        <ele>1053.7</ele>
        <time>2022-03-26T07:35:50Z</time>
      </trkpt>
      <trkpt lat="44.76405" lon="3.0559">
        <ele>1053.7</ele>
        <time>2022-03-26T07:35:55Z</time>
      </trkpt>
      <trkpt lat="44.7641" lon="3.05583">
        <ele>1053.6</ele>
        <time>2022-03-26T07:36:00Z</time>
      </trkpt>
      <trkpt lat="44.76415" lon="3.05576">
        <ele>1052.4</ele>
        <time>2022-03-26T07:36:05Z</time>
      </trkpt>
      <trkpt lat="44.76419" lon="3.05567">
        <ele>1050.7</ele>
        <time>2022-03-26T07:36:10Z</time>
      </trkpt>
      <trkpt lat="44.76425" lon="3.05562">
        <ele>1048.6</ele>
        <time>2022-03-26T07:36:15Z</time>
      </trkpt>
      <trkpt lat="44.76431" lon="3.05555">
        <ele>1046.5</ele>
        <time>2022-03-26T07:36:20Z</time>
      </trkpt>
      <trkpt lat="44.76437" lon="3.0555">
        <ele>1044.6</ele>
        <time>2022-03-26T07:36:25Z</time>
      </trkpt>
      <trkpt lat="44.76442" lon="3.05542">
        <ele>1042.8</ele>
        <time>2022-03-26T07:36:36Z</time>
      </trkpt>
      <trkpt lat="44.76448" lon="3.0554">
        <ele>1041.2</ele>
        <time>2022-03-26T07:37:19Z</time>
      </trkpt>
      <trkpt lat="44.76455" lon="3.05535">
        <ele>1039.3</ele>
        <time>2022-03-26T07:37:25Z</time>
      </trkpt>
      <trkpt lat="44.76461" lon="3.05529">
        <ele>1037.5</ele>
        <time>2022-03-26T07:37:30Z</time>
      </trkpt>
      <trkpt lat="44.76468" lon="3.05525">
        <ele>1035.7</ele>
        <time>2022-03-26T07:37:35Z</time>
      </trkpt>
      <trkpt lat="44.76475" lon="3.05523">
        <ele>1034.1</ele>
        <time>2022-03-26T07:37:41Z</time>
      </trkpt>
      <trkpt lat="44.76483" lon="3.05522">
        <ele>1032.4</ele>
        <time>2022-03-26T07:37:46Z</time>
      </trkpt>
      <trkpt lat="44.7649" lon="3.05525">
        <ele>1031</ele>
        <time>2022-03-26T07:37:51Z</time>
      </trkpt>
      <trkpt lat="44.76496" lon="3.05529">
        <ele>1029.9</ele>
        <time>2022-03-26T07:37:58Z</time>
      </trkpt>
      <trkpt lat="44.76504" lon="3.05531">
        <ele>1028.9</ele>
        <time>2022-03-26T07:38:03Z</time>
      </trkpt>
      <trkpt lat="44.7651" lon="3.05527">
        <ele>1028.5</ele>
        <time>2022-03-26T07:38:10Z</time>
      </trkpt>
      <trkpt lat="44.76516" lon="3.05521">
        <ele>1028</ele>
        <time>2022-03-26T07:38:18Z</time>
      </trkpt>
      <trkpt lat="44.76522" lon="3.05518">
        <ele>1027.6</ele>
        <time>2022-03-26T07:38:24Z</time>
      </trkpt>
      <trkpt lat="44.76529" lon="3.05517">
        <ele>1027.3</ele>
        <time>2022-03-26T07:38:31Z</time>
      </trkpt>
      <trkpt lat="44.76535" lon="3.05513">
        <ele>1026.9</ele>
        <time>2022-03-26T07:38:39Z</time>
      </trkpt>
      <trkpt lat="44.76542" lon="3.0551">
        <ele>1026.4</ele>
        <time>2022-03-26T07:39:01Z</time>
      </trkpt>
      <trkpt lat="44.76549" lon="3.05506">
        <ele>1025.9</ele>
        <time>2022-03-26T07:39:10Z</time>
      </trkpt>
      <trkpt lat="44.76555" lon="3.05504">
        <ele>1025.5</ele>
        <time>2022-03-26T07:39:16Z</time>
      </trkpt>
      <trkpt lat="44.76561" lon="3.055">
        <ele>1025.1</ele>
        <time>2022-03-26T07:39:21Z</time>
      </trkpt>
      <trkpt lat="44.76567" lon="3.05495">
        <ele>1024.9</ele>
        <time>2022-03-26T07:39:26Z</time>
      </trkpt>
      <trkpt lat="44.76573" lon="3.05491">
        <ele>1024.7</ele>
        <time>2022-03-26T07:39:32Z</time>
      </trkpt>
      <trkpt lat="44.7658" lon="3.05489">
        <ele>1024.4</ele>
        <time>2022-03-26T07:39:38Z</time>
      </trkpt>
      <trkpt lat="44.76587" lon="3.05487">
        <ele>1024.7</ele>
        <time>2022-03-26T07:39:44Z</time>
      </trkpt>
      <trkpt lat="44.76593" lon="3.05487">
        <ele>1025.4</ele>
        <time>2022-03-26T07:39:51Z</time>
      </trkpt>
      <trkpt lat="44.766" lon="3.05487">
        <ele>1026.2</ele>
        <time>2022-03-26T07:39:58Z</time>
      </trkpt>
      <trkpt lat="44.76606" lon="3.05488">
        <ele>1026.8</ele>
        <time>2022-03-26T07:40:04Z</time>
      </trkpt>
      <trkpt lat="44.76613" lon="3.05484">
        <ele>1027.6</ele>
        <time>2022-03-26T07:40:14Z</time>
      </trkpt>
      <trkpt lat="44.76617" lon="3.05475">
        <ele>1028</ele>
        <time>2022-03-26T07:40:23Z</time>
      </trkpt>
      <trkpt lat="44.7662" lon="3.05466">
        <ele>1028.3</ele>
        <time>2022-03-26T07:40:48Z</time>
      </trkpt>
      <trkpt lat="44.76624" lon="3.05458">
        <ele>1028.7</ele>
        <time>2022-03-26T07:40:53Z</time>
      </trkpt>
      <trkpt lat="44.76629" lon="3.05449">
        <ele>1029</ele>
        <time>2022-03-26T07:40:58Z</time>
      </trkpt>
      <trkpt lat="44.76633" lon="3.05441">
        <ele>1029.3</ele>
        <time>2022-03-26T07:41:03Z</time>
      </trkpt>
      <trkpt lat="44.76639" lon="3.05433">
        <ele>1029.6</ele>
        <time>2022-03-26T07:41:08Z</time>
      </trkpt>
      <trkpt lat="44.76644" lon="3.05424">
        <ele>1029.8</ele>
        <time>2022-03-26T07:41:13Z</time>
      </trkpt>
      <trkpt lat="44.76642" lon="3.05414">
        <ele>1029.6</ele>
        <time>2022-03-26T07:41:18Z</time>
      </trkpt>
      <trkpt lat="44.7664" lon="3.05404">
        <ele>1029.9</ele>
        <time>2022-03-26T07:41:23Z</time>
      </trkpt>
      <trkpt lat="44.76637" lon="3.05393">
        <ele>1030.2</ele>
        <time>2022-03-26T07:41:28Z</time>
      </trkpt>
      <trkpt lat="44.76634" lon="3.05383">
        <ele>1030.6</ele>
        <time>2022-03-26T07:41:33Z</time>
      </trkpt>
      <trkpt lat="44.76632" lon="3.05373">
        <ele>1031</ele>
        <time>2022-03-26T07:41:38Z</time>
      </trkpt>
      <trkpt lat="44.76629" lon="3.05363">
        <ele>1031.4</ele>
        <time>2022-03-26T07:41:44Z</time>
      </trkpt>
      <trkpt lat="44.76627" lon="3.05354">
        <ele>1031.9</ele>
        <time>2022-03-26T07:41:49Z</time>
      </trkpt>
      <trkpt lat="44.76623" lon="3.05344">
        <ele>1032.5</ele>
        <time>2022-03-26T07:41:54Z</time>
      </trkpt>
      <trkpt lat="44.76622" lon="3.05331">
        <ele>1033.1</ele>
        <time>2022-03-26T07:41:59Z</time>
      </trkpt>
      <trkpt lat="44.76621" lon="3.05321">
        <ele>1033.2</ele>
        <time>2022-03-26T07:42:05Z</time>
      </trkpt>
      <trkpt lat="44.76619" lon="3.0531">
        <ele>1033.3</ele>
        <time>2022-03-26T07:42:10Z</time>
      </trkpt>
      <trkpt lat="44.76621" lon="3.05301">
        <ele>1033.3</ele>
        <time>2022-03-26T07:42:15Z</time>
      </trkpt>
      <trkpt lat="44.76617" lon="3.05293">
        <ele>1033.5</ele>
        <time>2022-03-26T07:42:22Z</time>
      </trkpt>
      <trkpt lat="44.76618" lon="3.05284">
        <ele>1033.5</ele>
        <time>2022-03-26T07:42:27Z</time>
      </trkpt>
      <trkpt lat="44.7662" lon="3.05273">
        <ele>1033.5</ele>
        <time>2022-03-26T07:42:32Z</time>
      </trkpt>
      <trkpt lat="44.76621" lon="3.05262">
        <ele>1033.6</ele>
        <time>2022-03-26T07:42:37Z</time>
      </trkpt>
      <trkpt lat="44.76621" lon="3.05251">
        <ele>1033.6</ele>
        <time>2022-03-26T07:42:42Z</time>
      </trkpt>
      <trkpt lat="44.76619" lon="3.0524">
        <ele>1033.1</ele>
        <time>2022-03-26T07:42:47Z</time>
      </trkpt>
      <trkpt lat="44.76613" lon="3.05234">
        <ele>1033</ele>
        <time>2022-03-26T07:42:52Z</time>
      </trkpt>
      <trkpt lat="44.76608" lon="3.05226">
        <ele>1032.7</ele>
        <time>2022-03-26T07:42:57Z</time>
      </trkpt>
      <trkpt lat="44.76604" lon="3.05218">
        <ele>1032.3</ele>
        <time>2022-03-26T07:43:03Z</time>
      </trkpt>
      <trkpt lat="44.76598" lon="3.05211">
        <ele>1032.1</ele>
        <time>2022-03-26T07:43:09Z</time>
      </trkpt>
      <trkpt lat="44.76594" lon="3.05201">
        <ele>1031.7</ele>
        <time>2022-03-26T07:43:14Z</time>
      </trkpt>
      <trkpt lat="44.76588" lon="3.05193">
        <ele>1031.4</ele>
        <time>2022-03-26T07:43:19Z</time>
      </trkpt>
      <trkpt lat="44.76581" lon="3.05185">
        <ele>1031</ele>
        <time>2022-03-26T07:43:24Z</time>
      </trkpt>
      <trkpt lat="44.76576" lon="3.05177">
        <ele>1030.4</ele>
        <time>2022-03-26T07:43:29Z</time>
      </trkpt>
      <trkpt lat="44.76572" lon="3.05166">
        <ele>1029.5</ele>
        <time>2022-03-26T07:43:34Z</time>
      </trkpt>
      <trkpt lat="44.76566" lon="3.0516">
        <ele>1028.7</ele>
        <time>2022-03-26T07:43:39Z</time>
      </trkpt>
      <trkpt lat="44.76566" lon="3.05149">
        <ele>1027.5</ele>
        <time>2022-03-26T07:43:44Z</time>
      </trkpt>
      <trkpt lat="44.76573" lon="3.05143">
        <ele>1027.3</ele>
        <time>2022-03-26T07:44:05Z</time>
      </trkpt>
      <trkpt lat="44.76579" lon="3.0514">
        <ele>1027.2</ele>
        <time>2022-03-26T07:44:11Z</time>
      </trkpt>
      <trkpt lat="44.76587" lon="3.05136">
        <ele>1027.1</ele>
        <time>2022-03-26T07:44:17Z</time>
      </trkpt>
      <trkpt lat="44.76593" lon="3.05132">
        <ele>1026.7</ele>
        <time>2022-03-26T07:44:22Z</time>
      </trkpt>
      <trkpt lat="44.766" lon="3.05126">
        <ele>1026.3</ele>
        <time>2022-03-26T07:44:27Z</time>
      </trkpt>
      <trkpt lat="44.76607" lon="3.0512">
        <ele>1025.9</ele>
        <time>2022-03-26T07:44:32Z</time>
      </trkpt>
      <trkpt lat="44.76613" lon="3.05115">
        <ele>1025.7</ele>
        <time>2022-03-26T07:44:41Z</time>
      </trkpt>
      <trkpt lat="44.76619" lon="3.05112">
        <ele>1025.7</ele>
        <time>2022-03-26T07:44:47Z</time>
      </trkpt>
      <trkpt lat="44.76626" lon="3.05108">
        <ele>1025.7</ele>
        <time>2022-03-26T07:45:09Z</time>
      </trkpt>
      <trkpt lat="44.76634" lon="3.05104">
        <ele>1025.8</ele>
        <time>2022-03-26T07:45:14Z</time>
      </trkpt>
      <trkpt lat="44.76641" lon="3.05103">
        <ele>1026</ele>
        <time>2022-03-26T07:45:22Z</time>
      </trkpt>
      <trkpt lat="44.76647" lon="3.05094">
        <ele>1026.1</ele>
        <time>2022-03-26T07:45:48Z</time>
      </trkpt>
      <trkpt lat="44.76652" lon="3.05087">
        <ele>1026.2</ele>
        <time>2022-03-26T07:45:55Z</time>
      </trkpt>
      <trkpt lat="44.76657" lon="3.05079">
        <ele>1026.4</ele>
        <time>2022-03-26T07:46:00Z</time>
      </trkpt>
      <trkpt lat="44.76662" lon="3.05071">
        <ele>1026.7</ele>
        <time>2022-03-26T07:46:05Z</time>
      </trkpt>
      <trkpt lat="44.76668" lon="3.05063">
        <ele>1027</ele>
        <time>2022-03-26T07:46:10Z</time>
      </trkpt>
      <trkpt lat="44.76675" lon="3.05057">
        <ele>1027</ele>
        <time>2022-03-26T07:46:16Z</time>
      </trkpt>
      <trkpt lat="44.76679" lon="3.05049">
        <ele>1027.1</ele>
        <time>2022-03-26T07:46:22Z</time>
      </trkpt>
      <trkpt lat="44.76686" lon="3.05043">
        <ele>1027.2</ele>
        <time>2022-03-26T07:46:27Z</time>
      </trkpt>
      <trkpt lat="44.76693" lon="3.05038">
        <ele>1027.4</ele>
        <time>2022-03-26T07:46:32Z</time>
      </trkpt>
      <trkpt lat="44.767" lon="3.05035">
        <ele>1027.5</ele>
        <time>2022-03-26T07:47:14Z</time>
      </trkpt>
      <trkpt lat="44.76707" lon="3.05029">
        <ele>1027.8</ele>
        <time>2022-03-26T07:47:19Z</time>
      </trkpt>
      <trkpt lat="44.76713" lon="3.05025">
        <ele>1028</ele>
        <time>2022-03-26T07:47:24Z</time>
      </trkpt>
      <trkpt lat="44.76719" lon="3.0502">
        <ele>1028.3</ele>
        <time>2022-03-26T07:47:30Z</time>
      </trkpt>
      <trkpt lat="44.76725" lon="3.05013">
        <ele>1028.7</ele>
        <time>2022-03-26T07:47:35Z</time>
      </trkpt>
      <trkpt lat="44.76731" lon="3.05013">
        <ele>1028.8</ele>
        <time>2022-03-26T07:47:40Z</time>
      </trkpt>
      <trkpt lat="44.76739" lon="3.05009">
        <ele>1029.2</ele>
        <time>2022-03-26T07:47:45Z</time>
      </trkpt>
      <trkpt lat="44.76748" lon="3.05011">
        <ele>1029.4</ele>
        <time>2022-03-26T07:47:50Z</time>
      </trkpt>
      <trkpt lat="44.76757" lon="3.05008">
        <ele>1029.5</ele>
        <time>2022-03-26T07:47:55Z</time>
      </trkpt>
      <trkpt lat="44.76764" lon="3.05004">
        <ele>1029.5</ele>
        <time>2022-03-26T07:48:00Z</time>
      </trkpt>
      <trkpt lat="44.7677" lon="3.04998">
        <ele>1029.6</ele>
        <time>2022-03-26T07:48:05Z</time>
      </trkpt>
      <trkpt lat="44.76775" lon="3.04991">
        <ele>1029.8</ele>
        <time>2022-03-26T07:48:10Z</time>
      </trkpt>
      <trkpt lat="44.76781" lon="3.04984">
        <ele>1030</ele>
        <time>2022-03-26T07:48:15Z</time>
      </trkpt>
      <trkpt lat="44.76787" lon="3.04974">
        <ele>1030.5</ele>
        <time>2022-03-26T07:48:20Z</time>
      </trkpt>
      <trkpt lat="44.76791" lon="3.04965">
        <ele>1030.9</ele>
        <time>2022-03-26T07:48:25Z</time>
      </trkpt>
      <trkpt lat="44.76796" lon="3.04958">
        <ele>1031.2</ele>
        <time>2022-03-26T07:48:30Z</time>
      </trkpt>
      <trkpt lat="44.76802" lon="3.04952">
        <ele>1031.6</ele>
        <time>2022-03-26T07:48:35Z</time>
      </trkpt>
      <trkpt lat="44.76806" lon="3.04942">
        <ele>1032.1</ele>
        <time>2022-03-26T07:48:41Z</time>
      </trkpt>
      <trkpt lat="44.76811" lon="3.04935">
        <ele>1032.6</ele>
        <time>2022-03-26T07:48:46Z</time>
      </trkpt>
      <trkpt lat="44.76817" lon="3.04928">
        <ele>1033.1</ele>
        <time>2022-03-26T07:48:51Z</time>
      </trkpt>
      <trkpt lat="44.76822" lon="3.0492">
        <ele>1033.6</ele>
        <time>2022-03-26T07:48:56Z</time>
      </trkpt>
      <trkpt lat="44.76826" lon="3.0491">
        <ele>1033.9</ele>
        <time>2022-03-26T07:49:01Z</time>
      </trkpt>
      <trkpt lat="44.7683" lon="3.04901">
        <ele>1033.9</ele>
        <time>2022-03-26T07:49:06Z</time>
      </trkpt>
      <trkpt lat="44.76834" lon="3.04891">
        <ele>1033.9</ele>
        <time>2022-03-26T07:49:11Z</time>
      </trkpt>
      <trkpt lat="44.7684" lon="3.04883">
        <ele>1033.3</ele>
        <time>2022-03-26T07:49:16Z</time>
      </trkpt>
      <trkpt lat="44.76844" lon="3.04872">
        <ele>1032.9</ele>
        <time>2022-03-26T07:49:21Z</time>
      </trkpt>
      <trkpt lat="44.76847" lon="3.04862">
        <ele>1032.6</ele>
        <time>2022-03-26T07:49:26Z</time>
      </trkpt>
      <trkpt lat="44.7685" lon="3.04851">
        <ele>1032.3</ele>
        <time>2022-03-26T07:49:31Z</time>
      </trkpt>
      <trkpt lat="44.76854" lon="3.0484">
        <ele>1032</ele>
        <time>2022-03-26T07:49:36Z</time>
      </trkpt>
      <trkpt lat="44.76856" lon="3.04832">
        <ele>1031.7</ele>
        <time>2022-03-26T07:49:41Z</time>
      </trkpt>
      <trkpt lat="44.7686" lon="3.04823">
        <ele>1030.5</ele>
        <time>2022-03-26T07:49:46Z</time>
      </trkpt>
      <trkpt lat="44.76863" lon="3.04813">
        <ele>1029.4</ele>
        <time>2022-03-26T07:49:52Z</time>
      </trkpt>
      <trkpt lat="44.76866" lon="3.04802">
        <ele>1028.3</ele>
        <time>2022-03-26T07:49:57Z</time>
      </trkpt>
      <trkpt lat="44.76871" lon="3.04792">
        <ele>1027.2</ele>
        <time>2022-03-26T07:50:02Z</time>
      </trkpt>
      <trkpt lat="44.76878" lon="3.04783">
        <ele>1026.3</ele>
        <time>2022-03-26T07:50:07Z</time>
      </trkpt>
      <trkpt lat="44.76883" lon="3.04777">
        <ele>1025.7</ele>
        <time>2022-03-26T07:50:12Z</time>
      </trkpt>
      <trkpt lat="44.76887" lon="3.04769">
        <ele>1025.1</ele>
        <time>2022-03-26T07:50:17Z</time>
      </trkpt>
      <trkpt lat="44.76892" lon="3.04759">
        <ele>1024.5</ele>
        <time>2022-03-26T07:50:22Z</time>
      </trkpt>
      <trkpt lat="44.76895" lon="3.0475">
        <ele>1024</ele>
        <time>2022-03-26T07:50:27Z</time>
      </trkpt>
      <trkpt lat="44.76897" lon="3.0474">
        <ele>1022.5</ele>
        <time>2022-03-26T07:50:32Z</time>
      </trkpt>
      <trkpt lat="44.76905" lon="3.04733">
        <ele>1021.5</ele>
        <time>2022-03-26T07:50:37Z</time>
      </trkpt>
      <trkpt lat="44.76911" lon="3.04726">
        <ele>1020.5</ele>
        <time>2022-03-26T07:50:42Z</time>
      </trkpt>
      <trkpt lat="44.76917" lon="3.04719">
        <ele>1019.5</ele>
        <time>2022-03-26T07:50:47Z</time>
      </trkpt>
      <trkpt lat="44.76922" lon="3.04711">
        <ele>1018</ele>
        <time>2022-03-26T07:50:52Z</time>
      </trkpt>
      <trkpt lat="44.76927" lon="3.04703">
        <ele>1016.6</ele>
        <time>2022-03-26T07:50:57Z</time>
      </trkpt>
      <trkpt lat="44.76933" lon="3.04694">
        <ele>1015.1</ele>
        <time>2022-03-26T07:51:02Z</time>
      </trkpt>
      <trkpt lat="44.76937" lon="3.04686">
        <ele>1013.9</ele>
        <time>2022-03-26T07:51:07Z</time>
      </trkpt>
      <trkpt lat="44.76939" lon="3.04675">
        <ele>1012.5</ele>
        <time>2022-03-26T07:51:12Z</time>
      </trkpt>
      <trkpt lat="44.7694" lon="3.04665">
        <ele>1011.2</ele>
        <time>2022-03-26T07:51:18Z</time>
      </trkpt>
      <trkpt lat="44.76942" lon="3.04653">
        <ele>1009.8</ele>
        <time>2022-03-26T07:51:23Z</time>
      </trkpt>
      <trkpt lat="44.76951" lon="3.04652">
        <ele>1009.5</ele>
        <time>2022-03-26T07:51:35Z</time>
      </trkpt>
      <trkpt lat="44.76961" lon="3.04653">
        <ele>1009.4</ele>
        <time>2022-03-26T07:51:40Z</time>
      </trkpt>
      <trkpt lat="44.76968" lon="3.04655">
        <ele>1009.5</ele>
        <time>2022-03-26T07:51:45Z</time>
      </trkpt>
      <trkpt lat="44.76976" lon="3.04654">
        <ele>1009.2</ele>
        <time>2022-03-26T07:51:50Z</time>
      </trkpt>
      <trkpt lat="44.76984" lon="3.04653">
        <ele>1008.9</ele>
        <time>2022-03-26T07:51:56Z</time>
      </trkpt>
      <trkpt lat="44.76993" lon="3.04651">
        <ele>1008.5</ele>
        <time>2022-03-26T07:52:01Z</time>
      </trkpt>
      <trkpt lat="44.77" lon="3.04647">
        <ele>1007.9</ele>
        <time>2022-03-26T07:52:07Z</time>
      </trkpt>
      <trkpt lat="44.77007" lon="3.04644">
        <ele>1007.6</ele>
        <time>2022-03-26T07:52:12Z</time>
      </trkpt>
      <trkpt lat="44.77015" lon="3.0464">
        <ele>1007.2</ele>
        <time>2022-03-26T07:52:17Z</time>
      </trkpt>
      <trkpt lat="44.77022" lon="3.04638">
        <ele>1007</ele>
        <time>2022-03-26T07:52:22Z</time>
      </trkpt>
      <trkpt lat="44.7703" lon="3.04634">
        <ele>1006.6</ele>
        <time>2022-03-26T07:52:27Z</time>
      </trkpt>
      <trkpt lat="44.77037" lon="3.04631">
        <ele>1006.3</ele>
        <time>2022-03-26T07:52:32Z</time>
      </trkpt>
      <trkpt lat="44.77044" lon="3.0463">
        <ele>1006.3</ele>
        <time>2022-03-26T07:52:37Z</time>
      </trkpt>
      <trkpt lat="44.77053" lon="3.04626">
        <ele>1005.9</ele>
        <time>2022-03-26T07:52:42Z</time>
      </trkpt>
      <trkpt lat="44.7706" lon="3.04621">
        <ele>1005.5</ele>
        <time>2022-03-26T07:52:47Z</time>
      </trkpt>
      <trkpt lat="44.77067" lon="3.04618">
        <ele>1005.2</ele>
        <time>2022-03-26T07:52:52Z</time>
      </trkpt>
      <trkpt lat="44.77074" lon="3.04615">
        <ele>1005</ele>
        <time>2022-03-26T07:52:57Z</time>
      </trkpt>
      <trkpt lat="44.77083" lon="3.04611">
        <ele>1004.7</ele>
        <time>2022-03-26T07:53:02Z</time>
      </trkpt>
      <trkpt lat="44.77091" lon="3.04607">
        <ele>1004.6</ele>
        <time>2022-03-26T07:53:08Z</time>
      </trkpt>
      <trkpt lat="44.77098" lon="3.04605">
        <ele>1004.7</ele>
        <time>2022-03-26T07:53:13Z</time>
      </trkpt>
      <trkpt lat="44.77106" lon="3.04601">
        <ele>1004.7</ele>
        <time>2022-03-26T07:53:18Z</time>
      </trkpt>
      <trkpt lat="44.77113" lon="3.04598">
        <ele>1004.7</ele>
        <time>2022-03-26T07:53:23Z</time>
      </trkpt>
      <trkpt lat="44.7712" lon="3.04595">
        <ele>1004.6</ele>
        <time>2022-03-26T07:53:28Z</time>
      </trkpt>
      <trkpt lat="44.77128" lon="3.04592">
        <ele>1004.6</ele>
        <time>2022-03-26T07:53:33Z</time>
      </trkpt>
      <trkpt lat="44.77135" lon="3.04589">
        <ele>1004.5</ele>
        <time>2022-03-26T07:53:38Z</time>
      </trkpt>
      <trkpt lat="44.77143" lon="3.04585">
        <ele>1004.4</ele>
        <time>2022-03-26T07:53:43Z</time>
      </trkpt>
      <trkpt lat="44.77151" lon="3.04583">
        <ele>1004.4</ele>
        <time>2022-03-26T07:53:48Z</time>
      </trkpt>
      <trkpt lat="44.77158" lon="3.04581">
        <ele>1004.6</ele>
        <time>2022-03-26T07:53:53Z</time>
      </trkpt>
      <trkpt lat="44.77165" lon="3.04577">
        <ele>1004.6</ele>
        <time>2022-03-26T07:53:58Z</time>
      </trkpt>
      <trkpt lat="44.77172" lon="3.04574">
        <ele>1004.6</ele>
        <time>2022-03-26T07:54:03Z</time>
      </trkpt>
      <trkpt lat="44.7718" lon="3.0457">
        <ele>1004.7</ele>
        <time>2022-03-26T07:54:08Z</time>
      </trkpt>
      <trkpt lat="44.77186" lon="3.04566">
        <ele>1004.6</ele>
        <time>2022-03-26T07:54:13Z</time>
      </trkpt>
      <trkpt lat="44.77193" lon="3.04564">
        <ele>1004.7</ele>
        <time>2022-03-26T07:54:18Z</time>
      </trkpt>
      <trkpt lat="44.772" lon="3.04562">
        <ele>1004.8</ele>
        <time>2022-03-26T07:54:23Z</time>
      </trkpt>
      <trkpt lat="44.77208" lon="3.0456">
        <ele>1004.9</ele>
        <time>2022-03-26T07:54:28Z</time>
      </trkpt>
      <trkpt lat="44.77219" lon="3.04553">
        <ele>1004.8</ele>
        <time>2022-03-26T07:54:33Z</time>
      </trkpt>
      <trkpt lat="44.77226" lon="3.04551">
        <ele>1004.9</ele>
        <time>2022-03-26T07:54:38Z</time>
      </trkpt>
      <trkpt lat="44.77233" lon="3.04547">
        <ele>1004.9</ele>
        <time>2022-03-26T07:54:43Z</time>
      </trkpt>
      <trkpt lat="44.77241" lon="3.04545">
        <ele>1005</ele>
        <time>2022-03-26T07:54:48Z</time>
      </trkpt>
      <trkpt lat="44.77247" lon="3.04536">
        <ele>1004.5</ele>
        <time>2022-03-26T07:54:54Z</time>
      </trkpt>
      <trkpt lat="44.77254" lon="3.04535">
        <ele>1004.8</ele>
        <time>2022-03-26T07:54:59Z</time>
      </trkpt>
      <trkpt lat="44.77262" lon="3.0453">
        <ele>1005.1</ele>
        <time>2022-03-26T07:55:04Z</time>
      </trkpt>
      <trkpt lat="44.77268" lon="3.04523">
        <ele>1005.1</ele>
        <time>2022-03-26T07:55:09Z</time>
      </trkpt>
      <trkpt lat="44.77271" lon="3.04513">
        <ele>1004.5</ele>
        <time>2022-03-26T07:55:14Z</time>
      </trkpt>
      <trkpt lat="44.77276" lon="3.04506">
        <ele>1004.3</ele>
        <time>2022-03-26T07:55:28Z</time>
      </trkpt>
      <trkpt lat="44.77279" lon="3.04498">
        <ele>1004</ele>
        <time>2022-03-26T07:55:33Z</time>
      </trkpt>
      <trkpt lat="44.77286" lon="3.04495">
        <ele>1004.4</ele>
        <time>2022-03-26T07:55:40Z</time>
      </trkpt>
      <trkpt lat="44.7729" lon="3.04503">
        <ele>1005.1</ele>
        <time>2022-03-26T07:55:45Z</time>
      </trkpt>
      <trkpt lat="44.77293" lon="3.04488">
        <ele>1004.5</ele>
        <time>2022-03-26T07:55:50Z</time>
      </trkpt>
      <trkpt lat="44.77299" lon="3.04489">
        <ele>1005</ele>
        <time>2022-03-26T07:55:56Z</time>
      </trkpt>
      <trkpt lat="44.77306" lon="3.04488">
        <ele>1005.4</ele>
        <time>2022-03-26T07:56:01Z</time>
      </trkpt>
      <trkpt lat="44.77312" lon="3.04484">
        <ele>1005.6</ele>
        <time>2022-03-26T07:56:07Z</time>
      </trkpt>
      <trkpt lat="44.77311" lon="3.04474">
        <ele>1005</ele>
        <time>2022-03-26T07:56:16Z</time>
      </trkpt>
      <trkpt lat="44.77309" lon="3.04464">
        <ele>1004.3</ele>
        <time>2022-03-26T07:56:25Z</time>
      </trkpt>
      <trkpt lat="44.77305" lon="3.04455">
        <ele>1003.6</ele>
        <time>2022-03-26T07:56:30Z</time>
      </trkpt>
      <trkpt lat="44.77302" lon="3.04447">
        <ele>1003</ele>
        <time>2022-03-26T07:57:02Z</time>
      </trkpt>
      <trkpt lat="44.77296" lon="3.04441">
        <ele>1002.4</ele>
        <time>2022-03-26T07:57:17Z</time>
      </trkpt>
      <trkpt lat="44.77294" lon="3.04432">
        <ele>1001.9</ele>
        <time>2022-03-26T07:57:22Z</time>
      </trkpt>
      <trkpt lat="44.77291" lon="3.04423">
        <ele>1001.3</ele>
        <time>2022-03-26T07:57:28Z</time>
      </trkpt>
      <trkpt lat="44.77284" lon="3.0442">
        <ele>1000.8</ele>
        <time>2022-03-26T07:57:34Z</time>
      </trkpt>
      <trkpt lat="44.7729" lon="3.04425">
        <ele>1001.3</ele>
        <time>2022-03-26T07:57:54Z</time>
      </trkpt>
      <trkpt lat="44.77295" lon="3.04433">
        <ele>1002</ele>
        <time>2022-03-26T07:58:00Z</time>
      </trkpt>
      <trkpt lat="44.77301" lon="3.04438">
        <ele>1002.5</ele>
        <time>2022-03-26T07:58:07Z</time>
      </trkpt>
      <trkpt lat="44.77301" lon="3.04448">
        <ele>1003</ele>
        <time>2022-03-26T07:58:12Z</time>
      </trkpt>
      <trkpt lat="44.77305" lon="3.04457">
        <ele>1003.7</ele>
        <time>2022-03-26T07:58:17Z</time>
      </trkpt>
      <trkpt lat="44.7731" lon="3.04465">
        <ele>1004.5</ele>
        <time>2022-03-26T07:58:23Z</time>
      </trkpt>
      <trkpt lat="44.77311" lon="3.04475">
        <ele>1005.1</ele>
        <time>2022-03-26T07:58:29Z</time>
      </trkpt>
      <trkpt lat="44.77315" lon="3.04482">
        <ele>1005.7</ele>
        <time>2022-03-26T07:58:34Z</time>
      </trkpt>
      <trkpt lat="44.77317" lon="3.04492">
        <ele>1006.4</ele>
        <time>2022-03-26T07:58:39Z</time>
      </trkpt>
      <trkpt lat="44.77323" lon="3.04499">
        <ele>1007.2</ele>
        <time>2022-03-26T07:58:44Z</time>
      </trkpt>
      <trkpt lat="44.77326" lon="3.04508">
        <ele>1008.2</ele>
        <time>2022-03-26T07:58:50Z</time>
      </trkpt>
      <trkpt lat="44.77328" lon="3.04518">
        <ele>1009.3</ele>
        <time>2022-03-26T07:58:57Z</time>
      </trkpt>
      <trkpt lat="44.77328" lon="3.04531">
        <ele>1010.5</ele>
        <time>2022-03-26T07:59:44Z</time>
      </trkpt>
      <trkpt lat="44.77331" lon="3.04541">
        <ele>1011.7</ele>
        <time>2022-03-26T07:59:52Z</time>
      </trkpt>
      <trkpt lat="44.77333" lon="3.0455">
        <ele>1012.8</ele>
        <time>2022-03-26T07:59:58Z</time>
      </trkpt>
      <trkpt lat="44.77333" lon="3.0456">
        <ele>1013.7</ele>
        <time>2022-03-26T08:00:05Z</time>
      </trkpt>
      <trkpt lat="44.77333" lon="3.0457">
        <ele>1014.7</ele>
        <time>2022-03-26T08:00:11Z</time>
      </trkpt>
      <trkpt lat="44.77333" lon="3.0458">
        <ele>1015.6</ele>
        <time>2022-03-26T08:00:20Z</time>
      </trkpt>
      <trkpt lat="44.77328" lon="3.04586">
        <ele>1016</ele>
        <time>2022-03-26T08:00:26Z</time>
      </trkpt>
      <trkpt lat="44.77324" lon="3.04594">
        <ele>1017.2</ele>
        <time>2022-03-26T08:00:33Z</time>
      </trkpt>
      <trkpt lat="44.7732" lon="3.04603">
        <ele>1018.6</ele>
        <time>2022-03-26T08:00:43Z</time>
      </trkpt>
      <trkpt lat="44.77317" lon="3.04611">
        <ele>1019.8</ele>
        <time>2022-03-26T08:00:51Z</time>
      </trkpt>
      <trkpt lat="44.77315" lon="3.0462">
        <ele>1021.3</ele>
        <time>2022-03-26T08:00:59Z</time>
      </trkpt>
      <trkpt lat="44.77313" lon="3.0463">
        <ele>1023</ele>
        <time>2022-03-26T08:01:08Z</time>
      </trkpt>
      <trkpt lat="44.77308" lon="3.04636">
        <ele>1023.5</ele>
        <time>2022-03-26T08:01:17Z</time>
      </trkpt>
      <trkpt lat="44.77304" lon="3.04644">
        <ele>1024.5</ele>
        <time>2022-03-26T08:01:28Z</time>
      </trkpt>
      <trkpt lat="44.77298" lon="3.04651">
        <ele>1025</ele>
        <time>2022-03-26T08:01:36Z</time>
      </trkpt>
      <trkpt lat="44.77294" lon="3.04658">
        <ele>1025.8</ele>
        <time>2022-03-26T08:01:43Z</time>
      </trkpt>
      <trkpt lat="44.77287" lon="3.04665">
        <ele>1026</ele>
        <time>2022-03-26T08:02:07Z</time>
      </trkpt>
      <trkpt lat="44.7728" lon="3.04671">
        <ele>1026.2</ele>
        <time>2022-03-26T08:02:12Z</time>
      </trkpt>
      <trkpt lat="44.77275" lon="3.04677">
        <ele>1026.6</ele>
        <time>2022-03-26T08:02:17Z</time>
      </trkpt>
      <trkpt lat="44.77269" lon="3.04683">
        <ele>1026.9</ele>
        <time>2022-03-26T08:02:23Z</time>
      </trkpt>
      <trkpt lat="44.77262" lon="3.04688">
        <ele>1026.8</ele>
        <time>2022-03-26T08:02:28Z</time>
      </trkpt>
      <trkpt lat="44.77256" lon="3.04692">
        <ele>1026.7</ele>
        <time>2022-03-26T08:02:33Z</time>
      </trkpt>
      <trkpt lat="44.7725" lon="3.04698">
        <ele>1027</ele>
        <time>2022-03-26T08:02:38Z</time>
      </trkpt>
      <trkpt lat="44.77243" lon="3.04705">
        <ele>1027.9</ele>
        <time>2022-03-26T08:02:43Z</time>
      </trkpt>
      <trkpt lat="44.77236" lon="3.04704">
        <ele>1027.3</ele>
        <time>2022-03-26T08:02:56Z</time>
      </trkpt>
      <trkpt lat="44.77235" lon="3.04714">
        <ele>1029.1</ele>
        <time>2022-03-26T08:03:32Z</time>
      </trkpt>
      <trkpt lat="44.77231" lon="3.0472">
        <ele>1030</ele>
        <time>2022-03-26T08:03:37Z</time>
      </trkpt>
      <trkpt lat="44.77225" lon="3.04729">
        <ele>1031.2</ele>
        <time>2022-03-26T08:03:43Z</time>
      </trkpt>
      <trkpt lat="44.7722" lon="3.04736">
        <ele>1032.2</ele>
        <time>2022-03-26T08:03:50Z</time>
      </trkpt>
      <trkpt lat="44.77215" lon="3.04745">
        <ele>1033.5</ele>
        <time>2022-03-26T08:03:56Z</time>
      </trkpt>
      <trkpt lat="44.77211" lon="3.04752">
        <ele>1034.4</ele>
        <time>2022-03-26T08:04:01Z</time>
      </trkpt>
      <trkpt lat="44.77205" lon="3.04758">
        <ele>1034.7</ele>
        <time>2022-03-26T08:04:06Z</time>
      </trkpt>
      <trkpt lat="44.772" lon="3.04765">
        <ele>1035.1</ele>
        <time>2022-03-26T08:04:11Z</time>
      </trkpt>
      <trkpt lat="44.77196" lon="3.04772">
        <ele>1035.6</ele>
        <time>2022-03-26T08:04:16Z</time>
      </trkpt>
      <trkpt lat="44.77189" lon="3.04778">
        <ele>1035.7</ele>
        <time>2022-03-26T08:04:21Z</time>
      </trkpt>
      <trkpt lat="44.77184" lon="3.04786">
        <ele>1036.1</ele>
        <time>2022-03-26T08:04:27Z</time>
      </trkpt>
      <trkpt lat="44.77179" lon="3.04792">
        <ele>1036.2</ele>
        <time>2022-03-26T08:04:33Z</time>
      </trkpt>
      <trkpt lat="44.77173" lon="3.048">
        <ele>1036.4</ele>
        <time>2022-03-26T08:04:38Z</time>
      </trkpt>
      <trkpt lat="44.7717" lon="3.04809">
        <ele>1037</ele>
        <time>2022-03-26T08:04:45Z</time>
      </trkpt>
      <trkpt lat="44.77169" lon="3.04818">
        <ele>1037.8</ele>
        <time>2022-03-26T08:06:16Z</time>
      </trkpt>
      <trkpt lat="44.77168" lon="3.04829">
        <ele>1038.7</ele>
        <time>2022-03-26T08:06:22Z</time>
      </trkpt>
      <trkpt lat="44.77168" lon="3.04838">
        <ele>1039.4</ele>
        <time>2022-03-26T08:06:27Z</time>
      </trkpt>
      <trkpt lat="44.77166" lon="3.04848">
        <ele>1039.8</ele>
        <time>2022-03-26T08:06:34Z</time>
      </trkpt>
      <trkpt lat="44.77165" lon="3.04858">
        <ele>1040.2</ele>
        <time>2022-03-26T08:06:40Z</time>
      </trkpt>
      <trkpt lat="44.77165" lon="3.04868">
        <ele>1040.8</ele>
        <time>2022-03-26T08:06:46Z</time>
      </trkpt>
      <trkpt lat="44.77164" lon="3.04877">
        <ele>1041.2</ele>
        <time>2022-03-26T08:06:51Z</time>
      </trkpt>
      <trkpt lat="44.77164" lon="3.04887">
        <ele>1041.7</ele>
        <time>2022-03-26T08:06:56Z</time>
      </trkpt>
      <trkpt lat="44.77165" lon="3.04896">
        <ele>1042.5</ele>
        <time>2022-03-26T08:07:02Z</time>
      </trkpt>
      <trkpt lat="44.77167" lon="3.04905">
        <ele>1043.3</ele>
        <time>2022-03-26T08:07:08Z</time>
      </trkpt>
      <trkpt lat="44.77168" lon="3.04916">
        <ele>1044.1</ele>
        <time>2022-03-26T08:07:14Z</time>
      </trkpt>
      <trkpt lat="44.77171" lon="3.04925">
        <ele>1044.6</ele>
        <time>2022-03-26T08:07:19Z</time>
      </trkpt>
      <trkpt lat="44.77171" lon="3.04935">
        <ele>1044.7</ele>
        <time>2022-03-26T08:07:59Z</time>
      </trkpt>
      <trkpt lat="44.77172" lon="3.04944">
        <ele>1045</ele>
        <time>2022-03-26T08:08:04Z</time>
      </trkpt>
      <trkpt lat="44.77174" lon="3.04954">
        <ele>1045.3</ele>
        <time>2022-03-26T08:08:09Z</time>
      </trkpt>
      <trkpt lat="44.77176" lon="3.04964">
        <ele>1045.7</ele>
        <time>2022-03-26T08:08:14Z</time>
      </trkpt>
      <trkpt lat="44.77179" lon="3.04973">
        <ele>1046.2</ele>
        <time>2022-03-26T08:08:19Z</time>
      </trkpt>
      <trkpt lat="44.7718" lon="3.04983">
        <ele>1046.4</ele>
        <time>2022-03-26T08:09:19Z</time>
      </trkpt>
      <trkpt lat="44.77184" lon="3.04993">
        <ele>1047</ele>
        <time>2022-03-26T08:09:25Z</time>
      </trkpt>
      <trkpt lat="44.77186" lon="3.05003">
        <ele>1047.3</ele>
        <time>2022-03-26T08:09:30Z</time>
      </trkpt>
      <trkpt lat="44.77188" lon="3.05013">
        <ele>1047.6</ele>
        <time>2022-03-26T08:09:35Z</time>
      </trkpt>
      <trkpt lat="44.77189" lon="3.05025">
        <ele>1047.7</ele>
        <time>2022-03-26T08:09:40Z</time>
      </trkpt>
      <trkpt lat="44.77192" lon="3.05035">
        <ele>1048.1</ele>
        <time>2022-03-26T08:09:45Z</time>
      </trkpt>
      <trkpt lat="44.77196" lon="3.05045">
        <ele>1048.5</ele>
        <time>2022-03-26T08:09:51Z</time>
      </trkpt>
      <trkpt lat="44.772" lon="3.05055">
        <ele>1048.9</ele>
        <time>2022-03-26T08:09:56Z</time>
      </trkpt>
      <trkpt lat="44.77205" lon="3.05063">
        <ele>1049.3</ele>
        <time>2022-03-26T08:10:02Z</time>
      </trkpt>
      <trkpt lat="44.7721" lon="3.05073">
        <ele>1049.7</ele>
        <time>2022-03-26T08:10:07Z</time>
      </trkpt>
      <trkpt lat="44.77214" lon="3.05084">
        <ele>1050</ele>
        <time>2022-03-26T08:10:12Z</time>
      </trkpt>
      <trkpt lat="44.77218" lon="3.05094">
        <ele>1050.3</ele>
        <time>2022-03-26T08:10:17Z</time>
      </trkpt>
      <trkpt lat="44.77223" lon="3.05101">
        <ele>1050.7</ele>
        <time>2022-03-26T08:10:22Z</time>
      </trkpt>
      <trkpt lat="44.77228" lon="3.0511">
        <ele>1051</ele>
        <time>2022-03-26T08:10:27Z</time>
      </trkpt>
      <trkpt lat="44.77234" lon="3.05117">
        <ele>1051.4</ele>
        <time>2022-03-26T08:10:33Z</time>
      </trkpt>
      <trkpt lat="44.77242" lon="3.05121">
        <ele>1052</ele>
        <time>2022-03-26T08:10:38Z</time>
      </trkpt>
      <trkpt lat="44.77249" lon="3.05124">
        <ele>1052.4</ele>
        <time>2022-03-26T08:10:43Z</time>
      </trkpt>
      <trkpt lat="44.77255" lon="3.05126">
        <ele>1052.9</ele>
        <time>2022-03-26T08:10:48Z</time>
      </trkpt>
      <trkpt lat="44.77262" lon="3.0513">
        <ele>1053.4</ele>
        <time>2022-03-26T08:10:54Z</time>
      </trkpt>
      <trkpt lat="44.77269" lon="3.05133">
        <ele>1053.9</ele>
        <time>2022-03-26T08:10:59Z</time>
      </trkpt>
      <trkpt lat="44.77276" lon="3.05134">
        <ele>1054.4</ele>
        <time>2022-03-26T08:11:05Z</time>
      </trkpt>
      <trkpt lat="44.77283" lon="3.05132">
        <ele>1055.1</ele>
        <time>2022-03-26T08:11:11Z</time>
      </trkpt>
      <trkpt lat="44.77289" lon="3.05135">
        <ele>1055.4</ele>
        <time>2022-03-26T08:11:17Z</time>
      </trkpt>
      <trkpt lat="44.77296" lon="3.05139">
        <ele>1055.8</ele>
        <time>2022-03-26T08:11:24Z</time>
      </trkpt>
      <trkpt lat="44.77303" lon="3.05142">
        <ele>1056.2</ele>
        <time>2022-03-26T08:11:29Z</time>
      </trkpt>
      <trkpt lat="44.7731" lon="3.05149">
        <ele>1056.4</ele>
        <time>2022-03-26T08:11:35Z</time>
      </trkpt>
      <trkpt lat="44.77316" lon="3.05156">
        <ele>1056.5</ele>
        <time>2022-03-26T08:11:40Z</time>
      </trkpt>
      <trkpt lat="44.77323" lon="3.0516">
        <ele>1056.7</ele>
        <time>2022-03-26T08:11:45Z</time>
      </trkpt>
      <trkpt lat="44.77327" lon="3.05168">
        <ele>1056.7</ele>
        <time>2022-03-26T08:11:51Z</time>
      </trkpt>
      <trkpt lat="44.7733" lon="3.05178">
        <ele>1057.1</ele>
        <time>2022-03-26T08:11:56Z</time>
      </trkpt>
      <trkpt lat="44.77331" lon="3.05189">
        <ele>1057.4</ele>
        <time>2022-03-26T08:12:02Z</time>
      </trkpt>
      <trkpt lat="44.77331" lon="3.052">
        <ele>1057.7</ele>
        <time>2022-03-26T08:12:07Z</time>
      </trkpt>
      <trkpt lat="44.77331" lon="3.05211">
        <ele>1058</ele>
        <time>2022-03-26T08:12:12Z</time>
      </trkpt>
      <trkpt lat="44.77331" lon="3.05221">
        <ele>1058.2</ele>
        <time>2022-03-26T08:12:17Z</time>
      </trkpt>
      <trkpt lat="44.7733" lon="3.05232">
        <ele>1058.5</ele>
        <time>2022-03-26T08:12:22Z</time>
      </trkpt>
      <trkpt lat="44.7733" lon="3.05242">
        <ele>1058.7</ele>
        <time>2022-03-26T08:12:27Z</time>
      </trkpt>
      <trkpt lat="44.77327" lon="3.05254">
        <ele>1059.2</ele>
        <time>2022-03-26T08:12:33Z</time>
      </trkpt>
      <trkpt lat="44.77321" lon="3.0526">
        <ele>1059.5</ele>
        <time>2022-03-26T08:12:39Z</time>
      </trkpt>
      <trkpt lat="44.7732" lon="3.05271">
        <ele>1060.3</ele>
        <time>2022-03-26T08:12:45Z</time>
      </trkpt>
      <trkpt lat="44.77322" lon="3.0528">
        <ele>1061.1</ele>
        <time>2022-03-26T08:12:51Z</time>
      </trkpt>
      <trkpt lat="44.77325" lon="3.05289">
        <ele>1061.9</ele>
        <time>2022-03-26T08:12:58Z</time>
      </trkpt>
      <trkpt lat="44.77325" lon="3.05299">
        <ele>1062.7</ele>
        <time>2022-03-26T08:13:04Z</time>
      </trkpt>
      <trkpt lat="44.77327" lon="3.05309">
        <ele>1063.6</ele>
        <time>2022-03-26T08:13:11Z</time>
      </trkpt>
      <trkpt lat="44.77333" lon="3.05313">
        <ele>1064.3</ele>
        <time>2022-03-26T08:13:30Z</time>
      </trkpt>
      <trkpt lat="44.77337" lon="3.0532">
        <ele>1064.9</ele>
        <time>2022-03-26T08:13:37Z</time>
      </trkpt>
      <trkpt lat="44.7734" lon="3.0533">
        <ele>1065.7</ele>
        <time>2022-03-26T08:13:42Z</time>
      </trkpt>
      <trkpt lat="44.77341" lon="3.0534">
        <ele>1066.4</ele>
        <time>2022-03-26T08:13:49Z</time>
      </trkpt>
      <trkpt lat="44.77341" lon="3.0533">
        <ele>1065.7</ele>
        <time>2022-03-26T08:14:21Z</time>
      </trkpt>
      <trkpt lat="44.77348" lon="3.05328">
        <ele>1065.6</ele>
        <time>2022-03-26T08:14:31Z</time>
      </trkpt>
      <trkpt lat="44.77355" lon="3.05331">
        <ele>1065.8</ele>
        <time>2022-03-26T08:14:36Z</time>
      </trkpt>
      <trkpt lat="44.77361" lon="3.05336">
        <ele>1066.2</ele>
        <time>2022-03-26T08:14:42Z</time>
      </trkpt>
      <trkpt lat="44.77369" lon="3.0534">
        <ele>1066.4</ele>
        <time>2022-03-26T08:14:55Z</time>
      </trkpt>
      <trkpt lat="44.77375" lon="3.05346">
        <ele>1066.8</ele>
        <time>2022-03-26T08:15:00Z</time>
      </trkpt>
      <trkpt lat="44.77382" lon="3.05351">
        <ele>1067.2</ele>
        <time>2022-03-26T08:15:06Z</time>
      </trkpt>
      <trkpt lat="44.77388" lon="3.05357">
        <ele>1067.6</ele>
        <time>2022-03-26T08:15:11Z</time>
      </trkpt>
      <trkpt lat="44.77394" lon="3.05361">
        <ele>1067.9</ele>
        <time>2022-03-26T08:15:16Z</time>
      </trkpt>
      <trkpt lat="44.774" lon="3.05365">
        <ele>1068.2</ele>
        <time>2022-03-26T08:15:21Z</time>
      </trkpt>
      <trkpt lat="44.77407" lon="3.05368">
        <ele>1068.4</ele>
        <time>2022-03-26T08:15:26Z</time>
      </trkpt>
      <trkpt lat="44.77414" lon="3.05372">
        <ele>1068.8</ele>
        <time>2022-03-26T08:15:31Z</time>
      </trkpt>
      <trkpt lat="44.77422" lon="3.05372">
        <ele>1068.7</ele>
        <time>2022-03-26T08:15:37Z</time>
      </trkpt>
      <trkpt lat="44.77429" lon="3.05373">
        <ele>1068.6</ele>
        <time>2022-03-26T08:15:42Z</time>
      </trkpt>
      <trkpt lat="44.77436" lon="3.05373">
        <ele>1068.4</ele>
        <time>2022-03-26T08:15:47Z</time>
      </trkpt>
      <trkpt lat="44.77443" lon="3.05371">
        <ele>1068.1</ele>
        <time>2022-03-26T08:15:53Z</time>
      </trkpt>
      <trkpt lat="44.77451" lon="3.05371">
        <ele>1067.9</ele>
        <time>2022-03-26T08:15:59Z</time>
      </trkpt>
      <trkpt lat="44.77461" lon="3.05371">
        <ele>1067.6</ele>
        <time>2022-03-26T08:16:04Z</time>
      </trkpt>
      <trkpt lat="44.7747" lon="3.05372">
        <ele>1067.5</ele>
        <time>2022-03-26T08:16:09Z</time>
      </trkpt>
      <trkpt lat="44.77479" lon="3.05372">
        <ele>1067.3</ele>
        <time>2022-03-26T08:16:14Z</time>
      </trkpt>
      <trkpt lat="44.77485" lon="3.05373">
        <ele>1067.2</ele>
        <time>2022-03-26T08:16:19Z</time>
      </trkpt>
      <trkpt lat="44.77492" lon="3.05375">
        <ele>1067.2</ele>
        <time>2022-03-26T08:16:24Z</time>
      </trkpt>
      <trkpt lat="44.775" lon="3.05379">
        <ele>1067.3</ele>
        <time>2022-03-26T08:16:29Z</time>
      </trkpt>
      <trkpt lat="44.77508" lon="3.05381">
        <ele>1067.6</ele>
        <time>2022-03-26T08:16:34Z</time>
      </trkpt>
      <trkpt lat="44.77515" lon="3.05383">
        <ele>1067.9</ele>
        <time>2022-03-26T08:16:39Z</time>
      </trkpt>
      <trkpt lat="44.77522" lon="3.05389">
        <ele>1068.4</ele>
        <time>2022-03-26T08:16:45Z</time>
      </trkpt>
      <trkpt lat="44.7753" lon="3.05392">
        <ele>1068.8</ele>
        <time>2022-03-26T08:16:52Z</time>
      </trkpt>
      <trkpt lat="44.77537" lon="3.05393">
        <ele>1069</ele>
        <time>2022-03-26T08:16:57Z</time>
      </trkpt>
      <trkpt lat="44.77545" lon="3.05396">
        <ele>1069.3</ele>
        <time>2022-03-26T08:17:31Z</time>
      </trkpt>
      <trkpt lat="44.77553" lon="3.05399">
        <ele>1069.6</ele>
        <time>2022-03-26T08:17:36Z</time>
      </trkpt>
      <trkpt lat="44.7756" lon="3.05401">
        <ele>1069.9</ele>
        <time>2022-03-26T08:17:41Z</time>
      </trkpt>
      <trkpt lat="44.77567" lon="3.05402">
        <ele>1070</ele>
        <time>2022-03-26T08:17:46Z</time>
      </trkpt>
      <trkpt lat="44.77578" lon="3.05407">
        <ele>1070.5</ele>
        <time>2022-03-26T08:17:51Z</time>
      </trkpt>
      <trkpt lat="44.77586" lon="3.05408">
        <ele>1070.6</ele>
        <time>2022-03-26T08:17:57Z</time>
      </trkpt>
      <trkpt lat="44.77593" lon="3.05411">
        <ele>1070.6</ele>
        <time>2022-03-26T08:18:02Z</time>
      </trkpt>
      <trkpt lat="44.77601" lon="3.05412">
        <ele>1070.6</ele>
        <time>2022-03-26T08:18:07Z</time>
      </trkpt>
      <trkpt lat="44.7761" lon="3.05416">
        <ele>1070.7</ele>
        <time>2022-03-26T08:18:12Z</time>
      </trkpt>
      <trkpt lat="44.77617" lon="3.05417">
        <ele>1070.6</ele>
        <time>2022-03-26T08:18:17Z</time>
      </trkpt>
      <trkpt lat="44.77624" lon="3.05419">
        <ele>1070.5</ele>
        <time>2022-03-26T08:18:22Z</time>
      </trkpt>
      <trkpt lat="44.77631" lon="3.05421">
        <ele>1070.4</ele>
        <time>2022-03-26T08:18:27Z</time>
      </trkpt>
      <trkpt lat="44.77641" lon="3.05425">
        <ele>1070.3</ele>
        <time>2022-03-26T08:18:32Z</time>
      </trkpt>
      <trkpt lat="44.77649" lon="3.05426">
        <ele>1070.2</ele>
        <time>2022-03-26T08:18:37Z</time>
      </trkpt>
      <trkpt lat="44.77656" lon="3.05425">
        <ele>1070.1</ele>
        <time>2022-03-26T08:18:42Z</time>
      </trkpt>
      <trkpt lat="44.77665" lon="3.05426">
        <ele>1069.9</ele>
        <time>2022-03-26T08:18:47Z</time>
      </trkpt>
      <trkpt lat="44.77671" lon="3.05424">
        <ele>1069.6</ele>
        <time>2022-03-26T08:18:53Z</time>
      </trkpt>
      <trkpt lat="44.7768" lon="3.05421">
        <ele>1069.1</ele>
        <time>2022-03-26T08:18:58Z</time>
      </trkpt>
      <trkpt lat="44.77687" lon="3.05419">
        <ele>1068.7</ele>
        <time>2022-03-26T08:19:03Z</time>
      </trkpt>
      <trkpt lat="44.77695" lon="3.05417">
        <ele>1068.3</ele>
        <time>2022-03-26T08:19:08Z</time>
      </trkpt>
      <trkpt lat="44.77705" lon="3.05414">
        <ele>1067.6</ele>
        <time>2022-03-26T08:19:13Z</time>
      </trkpt>
      <trkpt lat="44.77712" lon="3.05412">
        <ele>1067.1</ele>
        <time>2022-03-26T08:19:18Z</time>
      </trkpt>
      <trkpt lat="44.7772" lon="3.05409">
        <ele>1066.6</ele>
        <time>2022-03-26T08:19:24Z</time>
      </trkpt>
      <trkpt lat="44.77729" lon="3.05409">
        <ele>1066.1</ele>
        <time>2022-03-26T08:19:29Z</time>
      </trkpt>
      <trkpt lat="44.77741" lon="3.05409">
        <ele>1065.3</ele>
        <time>2022-03-26T08:19:34Z</time>
      </trkpt>
      <trkpt lat="44.77748" lon="3.05408">
        <ele>1064.9</ele>
        <time>2022-03-26T08:19:40Z</time>
      </trkpt>
      <trkpt lat="44.77754" lon="3.05405">
        <ele>1064.6</ele>
        <time>2022-03-26T08:19:46Z</time>
      </trkpt>
      <trkpt lat="44.77761" lon="3.05402">
        <ele>1064.4</ele>
        <time>2022-03-26T08:19:51Z</time>
      </trkpt>
      <trkpt lat="44.77771" lon="3.05401">
        <ele>1064.1</ele>
        <time>2022-03-26T08:19:56Z</time>
      </trkpt>
      <trkpt lat="44.7778" lon="3.05399">
        <ele>1063.8</ele>
        <time>2022-03-26T08:20:01Z</time>
      </trkpt>
      <trkpt lat="44.77786" lon="3.05397">
        <ele>1063.6</ele>
        <time>2022-03-26T08:20:06Z</time>
      </trkpt>
      <trkpt lat="44.77793" lon="3.05397">
        <ele>1063.4</ele>
        <time>2022-03-26T08:20:31Z</time>
      </trkpt>
      <trkpt lat="44.77802" lon="3.05397">
        <ele>1063.1</ele>
        <time>2022-03-26T08:20:36Z</time>
      </trkpt>
      <trkpt lat="44.7781" lon="3.05396">
        <ele>1062.9</ele>
        <time>2022-03-26T08:20:42Z</time>
      </trkpt>
      <trkpt lat="44.77817" lon="3.05394">
        <ele>1062.6</ele>
        <time>2022-03-26T08:20:48Z</time>
      </trkpt>
      <trkpt lat="44.77825" lon="3.05392">
        <ele>1062.3</ele>
        <time>2022-03-26T08:20:53Z</time>
      </trkpt>
      <trkpt lat="44.77834" lon="3.05389">
        <ele>1062</ele>
        <time>2022-03-26T08:20:58Z</time>
      </trkpt>
      <trkpt lat="44.77841" lon="3.05385">
        <ele>1061.3</ele>
        <time>2022-03-26T08:21:03Z</time>
      </trkpt>
      <trkpt lat="44.77847" lon="3.05379">
        <ele>1060.7</ele>
        <time>2022-03-26T08:21:22Z</time>
      </trkpt>
      <trkpt lat="44.77853" lon="3.05372">
        <ele>1060.1</ele>
        <time>2022-03-26T08:21:33Z</time>
      </trkpt>
      <trkpt lat="44.77858" lon="3.05366">
        <ele>1059.6</ele>
        <time>2022-03-26T08:21:38Z</time>
      </trkpt>
      <trkpt lat="44.77864" lon="3.0536">
        <ele>1059</ele>
        <time>2022-03-26T08:21:43Z</time>
      </trkpt>
      <trkpt lat="44.77871" lon="3.0535">
        <ele>1058.2</ele>
        <time>2022-03-26T08:21:48Z</time>
      </trkpt>
      <trkpt lat="44.77873" lon="3.05341">
        <ele>1057.9</ele>
        <time>2022-03-26T08:22:19Z</time>
      </trkpt>
      <trkpt lat="44.77879" lon="3.05332">
        <ele>1057.1</ele>
        <time>2022-03-26T08:22:24Z</time>
      </trkpt>
      <trkpt lat="44.77883" lon="3.05323">
        <ele>1056</ele>
        <time>2022-03-26T08:22:29Z</time>
      </trkpt>
      <trkpt lat="44.77884" lon="3.05312">
        <ele>1054.9</ele>
        <time>2022-03-26T08:22:34Z</time>
      </trkpt>
      <trkpt lat="44.77889" lon="3.05304">
        <ele>1053.8</ele>
        <time>2022-03-26T08:22:39Z</time>
      </trkpt>
      <trkpt lat="44.77895" lon="3.05294">
        <ele>1052.6</ele>
        <time>2022-03-26T08:22:44Z</time>
      </trkpt>
      <trkpt lat="44.779" lon="3.05285">
        <ele>1051.6</ele>
        <time>2022-03-26T08:22:50Z</time>
      </trkpt>
      <trkpt lat="44.77907" lon="3.05278">
        <ele>1050.7</ele>
        <time>2022-03-26T08:22:55Z</time>
      </trkpt>
      <trkpt lat="44.77913" lon="3.05272">
        <ele>1050</ele>
        <time>2022-03-26T08:23:00Z</time>
      </trkpt>
      <trkpt lat="44.77921" lon="3.05267">
        <ele>1049.3</ele>
        <time>2022-03-26T08:23:05Z</time>
      </trkpt>
      <trkpt lat="44.77928" lon="3.05259">
        <ele>1048.4</ele>
        <time>2022-03-26T08:23:10Z</time>
      </trkpt>
      <trkpt lat="44.77934" lon="3.05252">
        <ele>1047.6</ele>
        <time>2022-03-26T08:23:15Z</time>
      </trkpt>
      <trkpt lat="44.7794" lon="3.05247">
        <ele>1046.8</ele>
        <time>2022-03-26T08:23:20Z</time>
      </trkpt>
      <trkpt lat="44.7795" lon="3.05245">
        <ele>1046.2</ele>
        <time>2022-03-26T08:23:25Z</time>
      </trkpt>
      <trkpt lat="44.77957" lon="3.05244">
        <ele>1045.8</ele>
        <time>2022-03-26T08:23:31Z</time>
      </trkpt>
      <trkpt lat="44.77965" lon="3.05245">
        <ele>1045.6</ele>
        <time>2022-03-26T08:23:38Z</time>
      </trkpt>
      <trkpt lat="44.77973" lon="3.05244">
        <ele>1045.1</ele>
        <time>2022-03-26T08:23:43Z</time>
      </trkpt>
      <trkpt lat="44.7798" lon="3.05246">
        <ele>1045.1</ele>
        <time>2022-03-26T08:23:48Z</time>
      </trkpt>
      <trkpt lat="44.77991" lon="3.05252">
        <ele>1045.6</ele>
        <time>2022-03-26T08:23:53Z</time>
      </trkpt>
      <trkpt lat="44.77997" lon="3.05256">
        <ele>1045.8</ele>
        <time>2022-03-26T08:23:58Z</time>
      </trkpt>
      <trkpt lat="44.78003" lon="3.05259">
        <ele>1045.8</ele>
        <time>2022-03-26T08:24:04Z</time>
      </trkpt>
      <trkpt lat="44.78009" lon="3.05264">
        <ele>1045.7</ele>
        <time>2022-03-26T08:24:09Z</time>
      </trkpt>
      <trkpt lat="44.78013" lon="3.05255">
        <ele>1044.3</ele>
        <time>2022-03-26T08:24:18Z</time>
      </trkpt>
      <trkpt lat="44.7802" lon="3.05253">
        <ele>1043.4</ele>
        <time>2022-03-26T08:24:25Z</time>
      </trkpt>
      <trkpt lat="44.78027" lon="3.05253">
        <ele>1042.7</ele>
        <time>2022-03-26T08:24:31Z</time>
      </trkpt>
      <trkpt lat="44.78033" lon="3.05256">
        <ele>1042.4</ele>
        <time>2022-03-26T08:24:38Z</time>
      </trkpt>
      <trkpt lat="44.78041" lon="3.05253">
        <ele>1041.3</ele>
        <time>2022-03-26T08:24:44Z</time>
      </trkpt>
      <trkpt lat="44.78049" lon="3.05252">
        <ele>1040.5</ele>
        <time>2022-03-26T08:24:49Z</time>
      </trkpt>
      <trkpt lat="44.78056" lon="3.05251">
        <ele>1039.7</ele>
        <time>2022-03-26T08:24:54Z</time>
      </trkpt>
      <trkpt lat="44.78063" lon="3.05252">
        <ele>1039.1</ele>
        <time>2022-03-26T08:24:59Z</time>
      </trkpt>
      <trkpt lat="44.7807" lon="3.05254">
        <ele>1038.5</ele>
        <time>2022-03-26T08:25:05Z</time>
      </trkpt>
      <trkpt lat="44.78076" lon="3.05263">
        <ele>1038.4</ele>
        <time>2022-03-26T08:25:10Z</time>
      </trkpt>
      <trkpt lat="44.78083" lon="3.0526">
        <ele>1037.5</ele>
        <time>2022-03-26T08:25:15Z</time>
      </trkpt>
      <trkpt lat="44.78088" lon="3.05266">
        <ele>1036.9</ele>
        <time>2022-03-26T08:25:23Z</time>
      </trkpt>
      <trkpt lat="44.78081" lon="3.05271">
        <ele>1038.3</ele>
        <time>2022-03-26T08:27:53Z</time>
      </trkpt>
      <trkpt lat="44.78093" lon="3.05267">
        <ele>1036</ele>
        <time>2022-03-26T08:28:03Z</time>
      </trkpt>
      <trkpt lat="44.78089" lon="3.05275">
        <ele>1037.1</ele>
        <time>2022-03-26T08:28:21Z</time>
      </trkpt>
      <trkpt lat="44.78093" lon="3.05284">
        <ele>1036.6</ele>
        <time>2022-03-26T08:28:27Z</time>
      </trkpt>
      <trkpt lat="44.78086" lon="3.05284">
        <ele>1038.1</ele>
        <time>2022-03-26T08:28:32Z</time>
      </trkpt>
      <trkpt lat="44.78073" lon="3.05296">
        <ele>1040.6</ele>
        <time>2022-03-26T08:28:37Z</time>
      </trkpt>
      <trkpt lat="44.78068" lon="3.05304">
        <ele>1041.8</ele>
        <time>2022-03-26T08:28:48Z</time>
      </trkpt>
      <trkpt lat="44.78065" lon="3.05312">
        <ele>1042.7</ele>
        <time>2022-03-26T08:28:53Z</time>
      </trkpt>
      <trkpt lat="44.78061" lon="3.05324">
        <ele>1044.1</ele>
        <time>2022-03-26T08:28:58Z</time>
      </trkpt>
      <trkpt lat="44.7806" lon="3.05333">
        <ele>1044.9</ele>
        <time>2022-03-26T08:29:03Z</time>
      </trkpt>
      <trkpt lat="44.78057" lon="3.05343">
        <ele>1044.8</ele>
        <time>2022-03-26T08:29:08Z</time>
      </trkpt>
      <trkpt lat="44.78055" lon="3.05353">
        <ele>1044.6</ele>
        <time>2022-03-26T08:29:13Z</time>
      </trkpt>
      <trkpt lat="44.78057" lon="3.05363">
        <ele>1043.6</ele>
        <time>2022-03-26T08:29:19Z</time>
      </trkpt>
      <trkpt lat="44.78053" lon="3.05374">
        <ele>1043.7</ele>
        <time>2022-03-26T08:29:24Z</time>
      </trkpt>
      <trkpt lat="44.78053" lon="3.05384">
        <ele>1043.1</ele>
        <time>2022-03-26T08:29:30Z</time>
      </trkpt>
      <trkpt lat="44.78054" lon="3.05396">
        <ele>1042.2</ele>
        <time>2022-03-26T08:29:35Z</time>
      </trkpt>
      <trkpt lat="44.78055" lon="3.05406">
        <ele>1041.4</ele>
        <time>2022-03-26T08:29:40Z</time>
      </trkpt>
      <trkpt lat="44.78056" lon="3.05416">
        <ele>1040.6</ele>
        <time>2022-03-26T08:29:46Z</time>
      </trkpt>
      <trkpt lat="44.78058" lon="3.05425">
        <ele>1039.5</ele>
        <time>2022-03-26T08:29:51Z</time>
      </trkpt>
      <trkpt lat="44.78061" lon="3.05435">
        <ele>1038.2</ele>
        <time>2022-03-26T08:29:56Z</time>
      </trkpt>
      <trkpt lat="44.78065" lon="3.05444">
        <ele>1037</ele>
        <time>2022-03-26T08:30:01Z</time>
      </trkpt>
      <trkpt lat="44.78071" lon="3.05448">
        <ele>1035.9</ele>
        <time>2022-03-26T08:30:06Z</time>
      </trkpt>
      <trkpt lat="44.78077" lon="3.05451">
        <ele>1035</ele>
        <time>2022-03-26T08:30:11Z</time>
      </trkpt>
      <trkpt lat="44.78084" lon="3.05455">
        <ele>1034</ele>
        <time>2022-03-26T08:30:16Z</time>
      </trkpt>
      <trkpt lat="44.78091" lon="3.05455">
        <ele>1033.6</ele>
        <time>2022-03-26T08:30:22Z</time>
      </trkpt>
      <trkpt lat="44.78098" lon="3.05453">
        <ele>1033</ele>
        <time>2022-03-26T08:30:27Z</time>
      </trkpt>
      <trkpt lat="44.78106" lon="3.05453">
        <ele>1032.5</ele>
        <time>2022-03-26T08:30:43Z</time>
      </trkpt>
      <trkpt lat="44.78114" lon="3.05453">
        <ele>1031.9</ele>
        <time>2022-03-26T08:30:52Z</time>
      </trkpt>
      <trkpt lat="44.78121" lon="3.05452">
        <ele>1031.3</ele>
        <time>2022-03-26T08:30:57Z</time>
      </trkpt>
      <trkpt lat="44.78129" lon="3.05453">
        <ele>1030.8</ele>
        <time>2022-03-26T08:31:02Z</time>
      </trkpt>
      <trkpt lat="44.78135" lon="3.05452">
        <ele>1030.2</ele>
        <time>2022-03-26T08:31:07Z</time>
      </trkpt>
      <trkpt lat="44.78142" lon="3.05453">
        <ele>1029.8</ele>
        <time>2022-03-26T08:31:12Z</time>
      </trkpt>
      <trkpt lat="44.7815" lon="3.05452">
        <ele>1029.1</ele>
        <time>2022-03-26T08:31:31Z</time>
      </trkpt>
      <trkpt lat="44.78157" lon="3.05452">
        <ele>1028.5</ele>
        <time>2022-03-26T08:31:37Z</time>
      </trkpt>
      <trkpt lat="44.78165" lon="3.05454">
        <ele>1028.3</ele>
        <time>2022-03-26T08:31:42Z</time>
      </trkpt>
      <trkpt lat="44.78171" lon="3.05454">
        <ele>1028.3</ele>
        <time>2022-03-26T08:31:47Z</time>
      </trkpt>
      <trkpt lat="44.78179" lon="3.05455">
        <ele>1028.9</ele>
        <time>2022-03-26T08:31:52Z</time>
      </trkpt>
      <trkpt lat="44.78186" lon="3.05456">
        <ele>1029.3</ele>
        <time>2022-03-26T08:31:57Z</time>
      </trkpt>
      <trkpt lat="44.78192" lon="3.05457">
        <ele>1029.8</ele>
        <time>2022-03-26T08:32:02Z</time>
      </trkpt>
      <trkpt lat="44.78199" lon="3.05458">
        <ele>1030.3</ele>
        <time>2022-03-26T08:32:08Z</time>
      </trkpt>
      <trkpt lat="44.78208" lon="3.05459">
        <ele>1030.9</ele>
        <time>2022-03-26T08:32:13Z</time>
      </trkpt>
      <trkpt lat="44.78216" lon="3.05459">
        <ele>1031.2</ele>
        <time>2022-03-26T08:32:18Z</time>
      </trkpt>
      <trkpt lat="44.78223" lon="3.0546">
        <ele>1031.7</ele>
        <time>2022-03-26T08:32:23Z</time>
      </trkpt>
      <trkpt lat="44.7823" lon="3.05461">
        <ele>1032.2</ele>
        <time>2022-03-26T08:32:28Z</time>
      </trkpt>
      <trkpt lat="44.78239" lon="3.05462">
        <ele>1032.9</ele>
        <time>2022-03-26T08:32:33Z</time>
      </trkpt>
      <trkpt lat="44.78246" lon="3.05461">
        <ele>1032.9</ele>
        <time>2022-03-26T08:32:38Z</time>
      </trkpt>
      <trkpt lat="44.78253" lon="3.05463">
        <ele>1033.6</ele>
        <time>2022-03-26T08:32:43Z</time>
      </trkpt>
      <trkpt lat="44.78259" lon="3.05466">
        <ele>1034.5</ele>
        <time>2022-03-26T08:32:55Z</time>
      </trkpt>
      <trkpt lat="44.78266" lon="3.0547">
        <ele>1035.5</ele>
        <time>2022-03-26T08:33:00Z</time>
      </trkpt>
      <trkpt lat="44.78272" lon="3.05472">
        <ele>1036.1</ele>
        <time>2022-03-26T08:33:05Z</time>
      </trkpt>
      <trkpt lat="44.78278" lon="3.05478">
        <ele>1037.4</ele>
        <time>2022-03-26T08:33:10Z</time>
      </trkpt>
      <trkpt lat="44.78284" lon="3.05484">
        <ele>1038.7</ele>
        <time>2022-03-26T08:33:16Z</time>
      </trkpt>
      <trkpt lat="44.78288" lon="3.05491">
        <ele>1040.2</ele>
        <time>2022-03-26T08:33:21Z</time>
      </trkpt>
      <trkpt lat="44.78292" lon="3.055">
        <ele>1042</ele>
        <time>2022-03-26T08:33:26Z</time>
      </trkpt>
      <trkpt lat="44.78292" lon="3.05509">
        <ele>1043.4</ele>
        <time>2022-03-26T08:33:53Z</time>
      </trkpt>
      <trkpt lat="44.78296" lon="3.05518">
        <ele>1044.8</ele>
        <time>2022-03-26T08:33:59Z</time>
      </trkpt>
      <trkpt lat="44.78298" lon="3.05528">
        <ele>1046.3</ele>
        <time>2022-03-26T08:34:05Z</time>
      </trkpt>
      <trkpt lat="44.783" lon="3.05538">
        <ele>1047.8</ele>
        <time>2022-03-26T08:34:11Z</time>
      </trkpt>
      <trkpt lat="44.78304" lon="3.05546">
        <ele>1049</ele>
        <time>2022-03-26T08:34:16Z</time>
      </trkpt>
      <trkpt lat="44.78304" lon="3.05557">
        <ele>1050.7</ele>
        <time>2022-03-26T08:34:22Z</time>
      </trkpt>
      <trkpt lat="44.78308" lon="3.05565">
        <ele>1051.8</ele>
        <time>2022-03-26T08:34:28Z</time>
      </trkpt>
      <trkpt lat="44.78305" lon="3.05573">
        <ele>1053.1</ele>
        <time>2022-03-26T08:34:36Z</time>
      </trkpt>
      <trkpt lat="44.78299" lon="3.05578">
        <ele>1054</ele>
        <time>2022-03-26T08:34:45Z</time>
      </trkpt>
      <trkpt lat="44.78292" lon="3.05576">
        <ele>1053.8</ele>
        <time>2022-03-26T08:34:54Z</time>
      </trkpt>
      <trkpt lat="44.78285" lon="3.05571">
        <ele>1053.2</ele>
        <time>2022-03-26T08:35:00Z</time>
      </trkpt>
      <trkpt lat="44.78279" lon="3.05567">
        <ele>1052.7</ele>
        <time>2022-03-26T08:35:08Z</time>
      </trkpt>
      <trkpt lat="44.78272" lon="3.05571">
        <ele>1053.5</ele>
        <time>2022-03-26T08:35:18Z</time>
      </trkpt>
      <trkpt lat="44.7827" lon="3.0558">
        <ele>1055</ele>
        <time>2022-03-26T08:35:26Z</time>
      </trkpt>
      <trkpt lat="44.78265" lon="3.05588">
        <ele>1056.4</ele>
        <time>2022-03-26T08:35:35Z</time>
      </trkpt>
      <trkpt lat="44.78261" lon="3.05596">
        <ele>1057.7</ele>
        <time>2022-03-26T08:35:42Z</time>
      </trkpt>
      <trkpt lat="44.78255" lon="3.05602">
        <ele>1058.8</ele>
        <time>2022-03-26T08:35:49Z</time>
      </trkpt>
      <trkpt lat="44.7825" lon="3.05608">
        <ele>1059.8</ele>
        <time>2022-03-26T08:35:56Z</time>
      </trkpt>
      <trkpt lat="44.78245" lon="3.05614">
        <ele>1060.7</ele>
        <time>2022-03-26T08:36:05Z</time>
      </trkpt>
      <trkpt lat="44.78239" lon="3.0562">
        <ele>1061.6</ele>
        <time>2022-03-26T08:36:13Z</time>
      </trkpt>
      <trkpt lat="44.78233" lon="3.05625">
        <ele>1062.3</ele>
        <time>2022-03-26T08:36:22Z</time>
      </trkpt>
      <trkpt lat="44.78227" lon="3.05631">
        <ele>1063.2</ele>
        <time>2022-03-26T08:36:31Z</time>
      </trkpt>
      <trkpt lat="44.78221" lon="3.05637">
        <ele>1064</ele>
        <time>2022-03-26T08:36:40Z</time>
      </trkpt>
      <trkpt lat="44.78216" lon="3.05643">
        <ele>1064.9</ele>
        <time>2022-03-26T08:36:48Z</time>
      </trkpt>
      <trkpt lat="44.78211" lon="3.0565">
        <ele>1065.9</ele>
        <time>2022-03-26T08:36:57Z</time>
      </trkpt>
      <trkpt lat="44.78206" lon="3.05656">
        <ele>1066.8</ele>
        <time>2022-03-26T08:37:06Z</time>
      </trkpt>
      <trkpt lat="44.78201" lon="3.05662">
        <ele>1067.7</ele>
        <time>2022-03-26T08:37:13Z</time>
      </trkpt>
      <trkpt lat="44.78197" lon="3.0567">
        <ele>1068.9</ele>
        <time>2022-03-26T08:37:28Z</time>
      </trkpt>
      <trkpt lat="44.78193" lon="3.05677">
        <ele>1070.1</ele>
        <time>2022-03-26T08:37:36Z</time>
      </trkpt>
      <trkpt lat="44.78188" lon="3.05684">
        <ele>1071.3</ele>
        <time>2022-03-26T08:37:44Z</time>
      </trkpt>
      <trkpt lat="44.78185" lon="3.05693">
        <ele>1072.9</ele>
        <time>2022-03-26T08:37:53Z</time>
      </trkpt>
      <trkpt lat="44.78182" lon="3.05702">
        <ele>1074.5</ele>
        <time>2022-03-26T08:38:03Z</time>
      </trkpt>
      <trkpt lat="44.78179" lon="3.05711">
        <ele>1076</ele>
        <time>2022-03-26T08:38:11Z</time>
      </trkpt>
      <trkpt lat="44.78176" lon="3.05721">
        <ele>1077.8</ele>
        <time>2022-03-26T08:38:20Z</time>
      </trkpt>
      <trkpt lat="44.78173" lon="3.05731">
        <ele>1079.6</ele>
        <time>2022-03-26T08:38:29Z</time>
      </trkpt>
      <trkpt lat="44.7817" lon="3.05739">
        <ele>1081</ele>
        <time>2022-03-26T08:38:38Z</time>
      </trkpt>
      <trkpt lat="44.78167" lon="3.05747">
        <ele>1082.5</ele>
        <time>2022-03-26T08:38:45Z</time>
      </trkpt>
      <trkpt lat="44.78164" lon="3.05756">
        <ele>1083.8</ele>
        <time>2022-03-26T08:38:53Z</time>
      </trkpt>
      <trkpt lat="44.78161" lon="3.05765">
        <ele>1085</ele>
        <time>2022-03-26T08:39:00Z</time>
      </trkpt>
      <trkpt lat="44.78158" lon="3.05774">
        <ele>1086.3</ele>
        <time>2022-03-26T08:39:08Z</time>
      </trkpt>
      <trkpt lat="44.78154" lon="3.05782">
        <ele>1087.3</ele>
        <time>2022-03-26T08:39:15Z</time>
      </trkpt>
      <trkpt lat="44.78148" lon="3.05789">
        <ele>1088</ele>
        <time>2022-03-26T08:39:24Z</time>
      </trkpt>
      <trkpt lat="44.78143" lon="3.05795">
        <ele>1088.6</ele>
        <time>2022-03-26T08:39:32Z</time>
      </trkpt>
      <trkpt lat="44.78138" lon="3.058">
        <ele>1089</ele>
        <time>2022-03-26T08:39:39Z</time>
      </trkpt>
      <trkpt lat="44.78131" lon="3.05803">
        <ele>1088.9</ele>
        <time>2022-03-26T08:39:44Z</time>
      </trkpt>
      <trkpt lat="44.78125" lon="3.05806">
        <ele>1088.9</ele>
        <time>2022-03-26T08:39:50Z</time>
      </trkpt>
      <trkpt lat="44.78119" lon="3.0581">
        <ele>1089.1</ele>
        <time>2022-03-26T08:39:55Z</time>
      </trkpt>
      <trkpt lat="44.78112" lon="3.05813">
        <ele>1089</ele>
        <time>2022-03-26T08:40:01Z</time>
      </trkpt>
      <trkpt lat="44.78105" lon="3.05815">
        <ele>1088.7</ele>
        <time>2022-03-26T08:40:07Z</time>
      </trkpt>
      <trkpt lat="44.78098" lon="3.05819">
        <ele>1088.8</ele>
        <time>2022-03-26T08:40:13Z</time>
      </trkpt>
      <trkpt lat="44.78092" lon="3.05825">
        <ele>1089.3</ele>
        <time>2022-03-26T08:40:19Z</time>
      </trkpt>
      <trkpt lat="44.78086" lon="3.05827">
        <ele>1089.2</ele>
        <time>2022-03-26T08:40:25Z</time>
      </trkpt>
      <trkpt lat="44.78078" lon="3.0583">
        <ele>1088.6</ele>
        <time>2022-03-26T08:40:31Z</time>
      </trkpt>
      <trkpt lat="44.78071" lon="3.05835">
        <ele>1088.3</ele>
        <time>2022-03-26T08:40:37Z</time>
      </trkpt>
      <trkpt lat="44.78064" lon="3.05838">
        <ele>1087.6</ele>
        <time>2022-03-26T08:40:46Z</time>
      </trkpt>
      <trkpt lat="44.78059" lon="3.05846">
        <ele>1087.9</ele>
        <time>2022-03-26T08:40:54Z</time>
      </trkpt>
      <trkpt lat="44.78059" lon="3.05857">
        <ele>1089.4</ele>
        <time>2022-03-26T08:41:02Z</time>
      </trkpt>
      <trkpt lat="44.7806" lon="3.05868">
        <ele>1091.1</ele>
        <time>2022-03-26T08:42:48Z</time>
      </trkpt>
      <trkpt lat="44.78062" lon="3.05878">
        <ele>1092.8</ele>
        <time>2022-03-26T08:42:57Z</time>
      </trkpt>
      <trkpt lat="44.78069" lon="3.05883">
        <ele>1094.7</ele>
        <time>2022-03-26T08:43:07Z</time>
      </trkpt>
      <trkpt lat="44.78077" lon="3.0588">
        <ele>1095.6</ele>
        <time>2022-03-26T08:43:12Z</time>
      </trkpt>
      <trkpt lat="44.78084" lon="3.05877">
        <ele>1096.4</ele>
        <time>2022-03-26T08:43:17Z</time>
      </trkpt>
      <trkpt lat="44.7809" lon="3.05872">
        <ele>1096.2</ele>
        <time>2022-03-26T08:43:26Z</time>
      </trkpt>
      <trkpt lat="44.78096" lon="3.05867">
        <ele>1096.1</ele>
        <time>2022-03-26T08:43:32Z</time>
      </trkpt>
      <trkpt lat="44.78103" lon="3.05863">
        <ele>1096.2</ele>
        <time>2022-03-26T08:43:38Z</time>
      </trkpt>
      <trkpt lat="44.78109" lon="3.05862">
        <ele>1096.6</ele>
        <time>2022-03-26T08:43:43Z</time>
      </trkpt>
      <trkpt lat="44.78115" lon="3.05856">
        <ele>1096.2</ele>
        <time>2022-03-26T08:43:50Z</time>
      </trkpt>
      <trkpt lat="44.78123" lon="3.05857">
        <ele>1097.1</ele>
        <time>2022-03-26T08:43:59Z</time>
      </trkpt>
      <trkpt lat="44.7813" lon="3.05858">
        <ele>1098</ele>
        <time>2022-03-26T08:44:04Z</time>
      </trkpt>
      <trkpt lat="44.78137" lon="3.05857">
        <ele>1098.5</ele>
        <time>2022-03-26T08:44:10Z</time>
      </trkpt>
      <trkpt lat="44.78145" lon="3.05853">
        <ele>1098.5</ele>
        <time>2022-03-26T08:44:15Z</time>
      </trkpt>
      <trkpt lat="44.78152" lon="3.05855">
        <ele>1099.5</ele>
        <time>2022-03-26T08:44:21Z</time>
      </trkpt>
      <trkpt lat="44.7816" lon="3.05857">
        <ele>1100.6</ele>
        <time>2022-03-26T08:44:27Z</time>
      </trkpt>
      <trkpt lat="44.78167" lon="3.05858">
        <ele>1101.4</ele>
        <time>2022-03-26T08:44:32Z</time>
      </trkpt>
      <trkpt lat="44.78174" lon="3.05863">
        <ele>1102.3</ele>
        <time>2022-03-26T08:44:37Z</time>
      </trkpt>
      <trkpt lat="44.78178" lon="3.05871">
        <ele>1103.6</ele>
        <time>2022-03-26T08:44:46Z</time>
      </trkpt>
      <trkpt lat="44.78183" lon="3.05879">
        <ele>1105</ele>
        <time>2022-03-26T08:45:03Z</time>
      </trkpt>
      <trkpt lat="44.78187" lon="3.05887">
        <ele>1106.4</ele>
        <time>2022-03-26T08:45:11Z</time>
      </trkpt>
      <trkpt lat="44.78192" lon="3.05893">
        <ele>1107.4</ele>
        <time>2022-03-26T08:45:22Z</time>
      </trkpt>
      <trkpt lat="44.78199" lon="3.05898">
        <ele>1108.3</ele>
        <time>2022-03-26T08:45:27Z</time>
      </trkpt>
      <trkpt lat="44.78204" lon="3.05904">
        <ele>1109.3</ele>
        <time>2022-03-26T08:45:33Z</time>
      </trkpt>
      <trkpt lat="44.78207" lon="3.05913">
        <ele>1110.9</ele>
        <time>2022-03-26T08:45:41Z</time>
      </trkpt>
      <trkpt lat="44.78206" lon="3.05922">
        <ele>1111.1</ele>
        <time>2022-03-26T08:45:51Z</time>
      </trkpt>
      <trkpt lat="44.78209" lon="3.05931">
        <ele>1110.5</ele>
        <time>2022-03-26T08:45:58Z</time>
      </trkpt>
      <trkpt lat="44.78212" lon="3.0594">
        <ele>1109.8</ele>
        <time>2022-03-26T08:46:08Z</time>
      </trkpt>
      <trkpt lat="44.78212" lon="3.0595">
        <ele>1109</ele>
        <time>2022-03-26T08:46:17Z</time>
      </trkpt>
      <trkpt lat="44.78207" lon="3.05956">
        <ele>1108.7</ele>
        <time>2022-03-26T08:46:24Z</time>
      </trkpt>
      <trkpt lat="44.78202" lon="3.05964">
        <ele>1108.3</ele>
        <time>2022-03-26T08:46:32Z</time>
      </trkpt>
      <trkpt lat="44.78205" lon="3.05973">
        <ele>1107.5</ele>
        <time>2022-03-26T08:46:57Z</time>
      </trkpt>
      <trkpt lat="44.78199" lon="3.05979">
        <ele>1107.3</ele>
        <time>2022-03-26T08:47:16Z</time>
      </trkpt>
      <trkpt lat="44.78194" lon="3.05974">
        <ele>1107.8</ele>
        <time>2022-03-26T08:47:27Z</time>
      </trkpt>
      <trkpt lat="44.78183" lon="3.0598">
        <ele>1107.7</ele>
        <time>2022-03-26T08:48:03Z</time>
      </trkpt>
      <trkpt lat="44.78178" lon="3.05986">
        <ele>1107.5</ele>
        <time>2022-03-26T08:48:29Z</time>
      </trkpt>
      <trkpt lat="44.78172" lon="3.05991">
        <ele>1107.4</ele>
        <time>2022-03-26T08:48:41Z</time>
      </trkpt>
      <trkpt lat="44.78167" lon="3.05998">
        <ele>1107.1</ele>
        <time>2022-03-26T08:48:53Z</time>
      </trkpt>
      <trkpt lat="44.78164" lon="3.06007">
        <ele>1105.8</ele>
        <time>2022-03-26T08:49:10Z</time>
      </trkpt>
      <trkpt lat="44.78171" lon="3.06009">
        <ele>1105.5</ele>
        <time>2022-03-26T08:49:31Z</time>
      </trkpt>
      <trkpt lat="44.78168" lon="3.06">
        <ele>1107</ele>
        <time>2022-03-26T08:49:43Z</time>
      </trkpt>
      <trkpt lat="44.78164" lon="3.06008">
        <ele>1105.6</ele>
        <time>2022-03-26T08:52:47Z</time>
      </trkpt>
      <trkpt lat="44.78157" lon="3.0601">
        <ele>1105</ele>
        <time>2022-03-26T08:52:52Z</time>
      </trkpt>
      <trkpt lat="44.7815" lon="3.06015">
        <ele>1103.9</ele>
        <time>2022-03-26T08:52:57Z</time>
      </trkpt>
      <trkpt lat="44.78143" lon="3.06016">
        <ele>1103.5</ele>
        <time>2022-03-26T08:53:02Z</time>
      </trkpt>
      <trkpt lat="44.78136" lon="3.06016">
        <ele>1103.2</ele>
        <time>2022-03-26T08:53:07Z</time>
      </trkpt>
      <trkpt lat="44.7813" lon="3.06015">
        <ele>1103.1</ele>
        <time>2022-03-26T08:53:13Z</time>
      </trkpt>
      <trkpt lat="44.78122" lon="3.06013">
        <ele>1103</ele>
        <time>2022-03-26T08:53:19Z</time>
      </trkpt>
      <trkpt lat="44.78114" lon="3.06015">
        <ele>1102.4</ele>
        <time>2022-03-26T08:53:25Z</time>
      </trkpt>
      <trkpt lat="44.78107" lon="3.06014">
        <ele>1102.2</ele>
        <time>2022-03-26T08:53:30Z</time>
      </trkpt>
      <trkpt lat="44.781" lon="3.06014">
        <ele>1101.9</ele>
        <time>2022-03-26T08:53:35Z</time>
      </trkpt>
      <trkpt lat="44.78093" lon="3.06017">
        <ele>1101.4</ele>
        <time>2022-03-26T08:53:40Z</time>
      </trkpt>
      <trkpt lat="44.78086" lon="3.06015">
        <ele>1101.2</ele>
        <time>2022-03-26T08:53:46Z</time>
      </trkpt>
      <trkpt lat="44.78078" lon="3.06011">
        <ele>1100.6</ele>
        <time>2022-03-26T08:53:52Z</time>
      </trkpt>
      <trkpt lat="44.78072" lon="3.06009">
        <ele>1100</ele>
        <time>2022-03-26T08:53:57Z</time>
      </trkpt>
      <trkpt lat="44.78065" lon="3.06007">
        <ele>1099.1</ele>
        <time>2022-03-26T08:54:03Z</time>
      </trkpt>
      <trkpt lat="44.78059" lon="3.06002">
        <ele>1098.4</ele>
        <time>2022-03-26T08:54:08Z</time>
      </trkpt>
      <trkpt lat="44.78052" lon="3.06">
        <ele>1097.5</ele>
        <time>2022-03-26T08:54:13Z</time>
      </trkpt>
      <trkpt lat="44.78046" lon="3.05998">
        <ele>1096.6</ele>
        <time>2022-03-26T08:54:18Z</time>
      </trkpt>
      <trkpt lat="44.78039" lon="3.05995">
        <ele>1095.5</ele>
        <time>2022-03-26T08:54:23Z</time>
      </trkpt>
      <trkpt lat="44.78033" lon="3.05991">
        <ele>1094.6</ele>
        <time>2022-03-26T08:54:28Z</time>
      </trkpt>
      <trkpt lat="44.78026" lon="3.05986">
        <ele>1093.4</ele>
        <time>2022-03-26T08:54:34Z</time>
      </trkpt>
      <trkpt lat="44.7802" lon="3.05981">
        <ele>1092.4</ele>
        <time>2022-03-26T08:54:53Z</time>
      </trkpt>
      <trkpt lat="44.78016" lon="3.05974">
        <ele>1091.5</ele>
        <time>2022-03-26T08:54:59Z</time>
      </trkpt>
      <trkpt lat="44.78011" lon="3.05967">
        <ele>1090.6</ele>
        <time>2022-03-26T08:55:06Z</time>
      </trkpt>
      <trkpt lat="44.78008" lon="3.05958">
        <ele>1089.8</ele>
        <time>2022-03-26T08:55:13Z</time>
      </trkpt>
      <trkpt lat="44.78007" lon="3.05947">
        <ele>1089.3</ele>
        <time>2022-03-26T08:55:20Z</time>
      </trkpt>
      <trkpt lat="44.78006" lon="3.05938">
        <ele>1088.8</ele>
        <time>2022-03-26T08:55:26Z</time>
      </trkpt>
      <trkpt lat="44.78006" lon="3.05928">
        <ele>1088.5</ele>
        <time>2022-03-26T08:55:31Z</time>
      </trkpt>
      <trkpt lat="44.78003" lon="3.05918">
        <ele>1087.6</ele>
        <time>2022-03-26T08:55:37Z</time>
      </trkpt>
      <trkpt lat="44.78002" lon="3.05909">
        <ele>1086.4</ele>
        <time>2022-03-26T08:55:42Z</time>
      </trkpt>
      <trkpt lat="44.78" lon="3.05899">
        <ele>1084.9</ele>
        <time>2022-03-26T08:55:51Z</time>
      </trkpt>
      <trkpt lat="44.77997" lon="3.05891">
        <ele>1083.2</ele>
        <time>2022-03-26T08:56:08Z</time>
      </trkpt>
      <trkpt lat="44.77998" lon="3.05881">
        <ele>1082.2</ele>
        <time>2022-03-26T08:56:15Z</time>
      </trkpt>
      <trkpt lat="44.78003" lon="3.05873">
        <ele>1082.3</ele>
        <time>2022-03-26T08:58:49Z</time>
      </trkpt>
      <trkpt lat="44.78009" lon="3.05868">
        <ele>1082.7</ele>
        <time>2022-03-26T08:58:54Z</time>
      </trkpt>
      <trkpt lat="44.78017" lon="3.05865">
        <ele>1083.6</ele>
        <time>2022-03-26T08:59:01Z</time>
      </trkpt>
      <trkpt lat="44.78025" lon="3.05866">
        <ele>1085.1</ele>
        <time>2022-03-26T08:59:09Z</time>
      </trkpt>
      <trkpt lat="44.7803" lon="3.05872">
        <ele>1086.7</ele>
        <time>2022-03-26T08:59:16Z</time>
      </trkpt>
      <trkpt lat="44.78031" lon="3.05881">
        <ele>1088</ele>
        <time>2022-03-26T08:59:25Z</time>
      </trkpt>
      <trkpt lat="44.78033" lon="3.0589">
        <ele>1089.5</ele>
        <time>2022-03-26T08:59:32Z</time>
      </trkpt>
      <trkpt lat="44.78033" lon="3.059">
        <ele>1090.8</ele>
        <time>2022-03-26T08:59:40Z</time>
      </trkpt>
      <trkpt lat="44.78026" lon="3.05899">
        <ele>1089.4</ele>
        <time>2022-03-26T08:59:47Z</time>
      </trkpt>
      <trkpt lat="44.78018" lon="3.05901">
        <ele>1088.3</ele>
        <time>2022-03-26T08:59:54Z</time>
      </trkpt>
      <trkpt lat="44.78018" lon="3.05911">
        <ele>1089.5</ele>
        <time>2022-03-26T09:00:00Z</time>
      </trkpt>
      <trkpt lat="44.78017" lon="3.05921">
        <ele>1090.2</ele>
        <time>2022-03-26T09:00:08Z</time>
      </trkpt>
      <trkpt lat="44.78019" lon="3.05931">
        <ele>1090.8</ele>
        <time>2022-03-26T09:00:19Z</time>
      </trkpt>
      <trkpt lat="44.78021" lon="3.0594">
        <ele>1091.4</ele>
        <time>2022-03-26T09:00:28Z</time>
      </trkpt>
      <trkpt lat="44.78034" lon="3.05947">
        <ele>1093.8</ele>
        <time>2022-03-26T09:01:03Z</time>
      </trkpt>
      <trkpt lat="44.7804" lon="3.0595">
        <ele>1094.8</ele>
        <time>2022-03-26T09:01:20Z</time>
      </trkpt>
      <trkpt lat="44.78047" lon="3.05951">
        <ele>1096</ele>
        <time>2022-03-26T09:01:35Z</time>
      </trkpt>
      <trkpt lat="44.78054" lon="3.05951">
        <ele>1097.2</ele>
        <time>2022-03-26T09:01:43Z</time>
      </trkpt>
      <trkpt lat="44.78061" lon="3.05953">
        <ele>1098.3</ele>
        <time>2022-03-26T09:01:52Z</time>
      </trkpt>
      <trkpt lat="44.78068" lon="3.05957">
        <ele>1099.5</ele>
        <time>2022-03-26T09:01:59Z</time>
      </trkpt>
      <trkpt lat="44.78075" lon="3.05958">
        <ele>1100.6</ele>
        <time>2022-03-26T09:02:06Z</time>
      </trkpt>
      <trkpt lat="44.78081" lon="3.05954">
        <ele>1101.6</ele>
        <time>2022-03-26T09:02:52Z</time>
      </trkpt>
      <trkpt lat="44.78086" lon="3.05946">
        <ele>1102.3</ele>
        <time>2022-03-26T09:03:01Z</time>
      </trkpt>
      <trkpt lat="44.78093" lon="3.05942">
        <ele>1103</ele>
        <time>2022-03-26T09:03:11Z</time>
      </trkpt>
      <trkpt lat="44.78101" lon="3.05938">
        <ele>1103.8</ele>
        <time>2022-03-26T09:03:16Z</time>
      </trkpt>
      <trkpt lat="44.78106" lon="3.05934">
        <ele>1104.4</ele>
        <time>2022-03-26T09:03:21Z</time>
      </trkpt>
      <trkpt lat="44.78113" lon="3.0593">
        <ele>1105.3</ele>
        <time>2022-03-26T09:03:29Z</time>
      </trkpt>
      <trkpt lat="44.78121" lon="3.05928">
        <ele>1106.2</ele>
        <time>2022-03-26T09:03:34Z</time>
      </trkpt>
      <trkpt lat="44.78127" lon="3.05925">
        <ele>1107</ele>
        <time>2022-03-26T09:03:40Z</time>
      </trkpt>
      <trkpt lat="44.78132" lon="3.05919">
        <ele>1107.8</ele>
        <time>2022-03-26T09:03:47Z</time>
      </trkpt>
      <trkpt lat="44.78133" lon="3.05908">
        <ele>1106.5</ele>
        <time>2022-03-26T09:03:54Z</time>
      </trkpt>
      <trkpt lat="44.78133" lon="3.05898">
        <ele>1104.9</ele>
        <time>2022-03-26T09:04:02Z</time>
      </trkpt>
      <trkpt lat="44.78135" lon="3.05909">
        <ele>1106.9</ele>
        <time>2022-03-26T09:06:20Z</time>
      </trkpt>
      <trkpt lat="44.7814" lon="3.05916">
        <ele>1108.7</ele>
        <time>2022-03-26T09:06:27Z</time>
      </trkpt>
      <trkpt lat="44.78141" lon="3.05926">
        <ele>1108.5</ele>
        <time>2022-03-26T09:06:33Z</time>
      </trkpt>
      <trkpt lat="44.7814" lon="3.05937">
        <ele>1108</ele>
        <time>2022-03-26T09:06:40Z</time>
      </trkpt>
      <trkpt lat="44.78134" lon="3.05944">
        <ele>1107.1</ele>
        <time>2022-03-26T09:06:49Z</time>
      </trkpt>
      <trkpt lat="44.78128" lon="3.05941">
        <ele>1106.6</ele>
        <time>2022-03-26T09:06:57Z</time>
      </trkpt>
      <trkpt lat="44.7812" lon="3.05942">
        <ele>1105.7</ele>
        <time>2022-03-26T09:07:04Z</time>
      </trkpt>
      <trkpt lat="44.78114" lon="3.05946">
        <ele>1105</ele>
        <time>2022-03-26T09:07:10Z</time>
      </trkpt>
      <trkpt lat="44.78107" lon="3.05946">
        <ele>1104.3</ele>
        <time>2022-03-26T09:07:17Z</time>
      </trkpt>
      <trkpt lat="44.781" lon="3.05949">
        <ele>1103.6</ele>
        <time>2022-03-26T09:07:23Z</time>
      </trkpt>
      <trkpt lat="44.78093" lon="3.05953">
        <ele>1102.9</ele>
        <time>2022-03-26T09:07:37Z</time>
      </trkpt>
      <trkpt lat="44.78086" lon="3.05956">
        <ele>1102.2</ele>
        <time>2022-03-26T09:07:46Z</time>
      </trkpt>
      <trkpt lat="44.78079" lon="3.05953">
        <ele>1101.3</ele>
        <time>2022-03-26T09:08:57Z</time>
      </trkpt>
      <trkpt lat="44.78072" lon="3.05954">
        <ele>1100.1</ele>
        <time>2022-03-26T09:09:03Z</time>
      </trkpt>
      <trkpt lat="44.78066" lon="3.05953">
        <ele>1099.2</ele>
        <time>2022-03-26T09:09:08Z</time>
      </trkpt>
      <trkpt lat="44.78058" lon="3.05952">
        <ele>1097.8</ele>
        <time>2022-03-26T09:09:14Z</time>
      </trkpt>
      <trkpt lat="44.78051" lon="3.05954">
        <ele>1096.7</ele>
        <time>2022-03-26T09:09:30Z</time>
      </trkpt>
      <trkpt lat="44.78045" lon="3.05951">
        <ele>1095.7</ele>
        <time>2022-03-26T09:09:41Z</time>
      </trkpt>
      <trkpt lat="44.78038" lon="3.05952">
        <ele>1094.5</ele>
        <time>2022-03-26T09:09:55Z</time>
      </trkpt>
      <trkpt lat="44.78032" lon="3.0595">
        <ele>1093.5</ele>
        <time>2022-03-26T09:10:05Z</time>
      </trkpt>
      <trkpt lat="44.78025" lon="3.05947">
        <ele>1092.3</ele>
        <time>2022-03-26T09:10:18Z</time>
      </trkpt>
      <trkpt lat="44.78019" lon="3.05944">
        <ele>1091.2</ele>
        <time>2022-03-26T09:10:30Z</time>
      </trkpt>
      <trkpt lat="44.78019" lon="3.05934">
        <ele>1090.9</ele>
        <time>2022-03-26T09:10:37Z</time>
      </trkpt>
      <trkpt lat="44.78018" lon="3.05924">
        <ele>1090.4</ele>
        <time>2022-03-26T09:10:44Z</time>
      </trkpt>
      <trkpt lat="44.7802" lon="3.05914">
        <ele>1090.3</ele>
        <time>2022-03-26T09:10:50Z</time>
      </trkpt>
      <trkpt lat="44.78024" lon="3.05907">
        <ele>1090.1</ele>
        <time>2022-03-26T09:10:59Z</time>
      </trkpt>
      <trkpt lat="44.78031" lon="3.05902">
        <ele>1090.7</ele>
        <time>2022-03-26T09:11:05Z</time>
      </trkpt>
      <trkpt lat="44.78033" lon="3.05892">
        <ele>1089.7</ele>
        <time>2022-03-26T09:11:10Z</time>
      </trkpt>
      <trkpt lat="44.78031" lon="3.05882">
        <ele>1088.1</ele>
        <time>2022-03-26T09:11:15Z</time>
      </trkpt>
      <trkpt lat="44.78031" lon="3.05873">
        <ele>1087</ele>
        <time>2022-03-26T09:11:20Z</time>
      </trkpt>
      <trkpt lat="44.78026" lon="3.05867">
        <ele>1085.3</ele>
        <time>2022-03-26T09:11:26Z</time>
      </trkpt>
      <trkpt lat="44.7802" lon="3.05863">
        <ele>1083.9</ele>
        <time>2022-03-26T09:11:32Z</time>
      </trkpt>
      <trkpt lat="44.78011" lon="3.05862">
        <ele>1082.2</ele>
        <time>2022-03-26T09:11:37Z</time>
      </trkpt>
      <trkpt lat="44.78004" lon="3.05864">
        <ele>1081.3</ele>
        <time>2022-03-26T09:11:42Z</time>
      </trkpt>
      <trkpt lat="44.77995" lon="3.05867">
        <ele>1079.9</ele>
        <time>2022-03-26T09:11:47Z</time>
      </trkpt>
      <trkpt lat="44.77989" lon="3.05871">
        <ele>1079</ele>
        <time>2022-03-26T09:11:52Z</time>
      </trkpt>
      <trkpt lat="44.77981" lon="3.05877">
        <ele>1077.8</ele>
        <time>2022-03-26T09:11:57Z</time>
      </trkpt>
      <trkpt lat="44.77975" lon="3.05883">
        <ele>1077</ele>
        <time>2022-03-26T09:12:02Z</time>
      </trkpt>
      <trkpt lat="44.77969" lon="3.05888">
        <ele>1076.1</ele>
        <time>2022-03-26T09:12:07Z</time>
      </trkpt>
      <trkpt lat="44.77963" lon="3.05897">
        <ele>1075.6</ele>
        <time>2022-03-26T09:12:13Z</time>
      </trkpt>
      <trkpt lat="44.77958" lon="3.05906">
        <ele>1075.3</ele>
        <time>2022-03-26T09:12:18Z</time>
      </trkpt>
      <trkpt lat="44.77953" lon="3.05914">
        <ele>1074.9</ele>
        <time>2022-03-26T09:12:24Z</time>
      </trkpt>
      <trkpt lat="44.77948" lon="3.05922">
        <ele>1074.3</ele>
        <time>2022-03-26T09:12:29Z</time>
      </trkpt>
      <trkpt lat="44.77942" lon="3.0593">
        <ele>1073.5</ele>
        <time>2022-03-26T09:12:34Z</time>
      </trkpt>
      <trkpt lat="44.77936" lon="3.05938">
        <ele>1072.8</ele>
        <time>2022-03-26T09:12:39Z</time>
      </trkpt>
      <trkpt lat="44.77929" lon="3.05947">
        <ele>1072.1</ele>
        <time>2022-03-26T09:12:44Z</time>
      </trkpt>
      <trkpt lat="44.77923" lon="3.05954">
        <ele>1071.4</ele>
        <time>2022-03-26T09:12:49Z</time>
      </trkpt>
      <trkpt lat="44.77919" lon="3.05962">
        <ele>1071.4</ele>
        <time>2022-03-26T09:12:54Z</time>
      </trkpt>
      <trkpt lat="44.77912" lon="3.05969">
        <ele>1071</ele>
        <time>2022-03-26T09:12:59Z</time>
      </trkpt>
      <trkpt lat="44.77908" lon="3.05976">
        <ele>1071.1</ele>
        <time>2022-03-26T09:13:04Z</time>
      </trkpt>
      <trkpt lat="44.77906" lon="3.05987">
        <ele>1072</ele>
        <time>2022-03-26T09:13:09Z</time>
      </trkpt>
      <trkpt lat="44.77904" lon="3.05998">
        <ele>1073</ele>
        <time>2022-03-26T09:13:14Z</time>
      </trkpt>
      <trkpt lat="44.77902" lon="3.06008">
        <ele>1073.7</ele>
        <time>2022-03-26T09:13:19Z</time>
      </trkpt>
      <trkpt lat="44.77898" lon="3.06018">
        <ele>1074.1</ele>
        <time>2022-03-26T09:13:24Z</time>
      </trkpt>
      <trkpt lat="44.77896" lon="3.06027">
        <ele>1074.7</ele>
        <time>2022-03-26T09:13:29Z</time>
      </trkpt>
      <trkpt lat="44.7789" lon="3.06037">
        <ele>1074.9</ele>
        <time>2022-03-26T09:13:34Z</time>
      </trkpt>
      <trkpt lat="44.77886" lon="3.06047">
        <ele>1075.3</ele>
        <time>2022-03-26T09:13:39Z</time>
      </trkpt>
      <trkpt lat="44.77881" lon="3.06053">
        <ele>1075.2</ele>
        <time>2022-03-26T09:13:45Z</time>
      </trkpt>
      <trkpt lat="44.77875" lon="3.06061">
        <ele>1075.2</ele>
        <time>2022-03-26T09:13:50Z</time>
      </trkpt>
      <trkpt lat="44.77865" lon="3.06071">
        <ele>1074.9</ele>
        <time>2022-03-26T09:13:55Z</time>
      </trkpt>
      <trkpt lat="44.77859" lon="3.06074">
        <ele>1074.4</ele>
        <time>2022-03-26T09:14:00Z</time>
      </trkpt>
      <trkpt lat="44.77851" lon="3.0608">
        <ele>1074</ele>
        <time>2022-03-26T09:14:05Z</time>
      </trkpt>
      <trkpt lat="44.77844" lon="3.06083">
        <ele>1073.4</ele>
        <time>2022-03-26T09:14:11Z</time>
      </trkpt>
      <trkpt lat="44.77836" lon="3.06088">
        <ele>1072.9</ele>
        <time>2022-03-26T09:14:16Z</time>
      </trkpt>
      <trkpt lat="44.77829" lon="3.06093">
        <ele>1072.7</ele>
        <time>2022-03-26T09:14:22Z</time>
      </trkpt>
      <trkpt lat="44.77824" lon="3.06103">
        <ele>1073.4</ele>
        <time>2022-03-26T09:14:27Z</time>
      </trkpt>
      <trkpt lat="44.77819" lon="3.06112">
        <ele>1074</ele>
        <time>2022-03-26T09:14:32Z</time>
      </trkpt>
      <trkpt lat="44.77817" lon="3.06121">
        <ele>1074.9</ele>
        <time>2022-03-26T09:14:37Z</time>
      </trkpt>
      <trkpt lat="44.77813" lon="3.06129">
        <ele>1075.4</ele>
        <time>2022-03-26T09:14:42Z</time>
      </trkpt>
      <trkpt lat="44.77807" lon="3.06136">
        <ele>1075.6</ele>
        <time>2022-03-26T09:14:47Z</time>
      </trkpt>
      <trkpt lat="44.778" lon="3.06142">
        <ele>1075.6</ele>
        <time>2022-03-26T09:14:52Z</time>
      </trkpt>
      <trkpt lat="44.77792" lon="3.06144">
        <ele>1075</ele>
        <time>2022-03-26T09:14:57Z</time>
      </trkpt>
      <trkpt lat="44.77783" lon="3.06144">
        <ele>1074</ele>
        <time>2022-03-26T09:15:02Z</time>
      </trkpt>
      <trkpt lat="44.77776" lon="3.06143">
        <ele>1073.2</ele>
        <time>2022-03-26T09:15:08Z</time>
      </trkpt>
      <trkpt lat="44.77769" lon="3.06142">
        <ele>1072.3</ele>
        <time>2022-03-26T09:15:13Z</time>
      </trkpt>
      <trkpt lat="44.77761" lon="3.06142">
        <ele>1071.5</ele>
        <time>2022-03-26T09:15:18Z</time>
      </trkpt>
      <trkpt lat="44.77755" lon="3.06144">
        <ele>1071.1</ele>
        <time>2022-03-26T09:15:23Z</time>
      </trkpt>
      <trkpt lat="44.77746" lon="3.06145">
        <ele>1070.6</ele>
        <time>2022-03-26T09:15:28Z</time>
      </trkpt>
      <trkpt lat="44.77738" lon="3.06144">
        <ele>1070.5</ele>
        <time>2022-03-26T09:15:33Z</time>
      </trkpt>
      <trkpt lat="44.77731" lon="3.06143">
        <ele>1070.3</ele>
        <time>2022-03-26T09:15:39Z</time>
      </trkpt>
      <trkpt lat="44.77724" lon="3.06144">
        <ele>1070.4</ele>
        <time>2022-03-26T09:15:44Z</time>
      </trkpt>
      <trkpt lat="44.77717" lon="3.06145">
        <ele>1070.5</ele>
        <time>2022-03-26T09:15:53Z</time>
      </trkpt>
      <trkpt lat="44.7771" lon="3.06147">
        <ele>1070.6</ele>
        <time>2022-03-26T09:15:59Z</time>
      </trkpt>
      <trkpt lat="44.77703" lon="3.06153">
        <ele>1071.1</ele>
        <time>2022-03-26T09:16:04Z</time>
      </trkpt>
      <trkpt lat="44.77696" lon="3.0616">
        <ele>1071.7</ele>
        <time>2022-03-26T09:16:09Z</time>
      </trkpt>
      <trkpt lat="44.77691" lon="3.06168">
        <ele>1072.3</ele>
        <time>2022-03-26T09:16:14Z</time>
      </trkpt>
      <trkpt lat="44.77688" lon="3.06178">
        <ele>1072.7</ele>
        <time>2022-03-26T09:16:20Z</time>
      </trkpt>
      <trkpt lat="44.77686" lon="3.06187">
        <ele>1073</ele>
        <time>2022-03-26T09:16:25Z</time>
      </trkpt>
      <trkpt lat="44.77682" lon="3.062">
        <ele>1073.5</ele>
        <time>2022-03-26T09:16:30Z</time>
      </trkpt>
      <trkpt lat="44.77679" lon="3.06213">
        <ele>1073.9</ele>
        <time>2022-03-26T09:16:35Z</time>
      </trkpt>
      <trkpt lat="44.77677" lon="3.06221">
        <ele>1074.2</ele>
        <time>2022-03-26T09:16:40Z</time>
      </trkpt>
      <trkpt lat="44.77676" lon="3.06231">
        <ele>1074.5</ele>
        <time>2022-03-26T09:16:46Z</time>
      </trkpt>
      <trkpt lat="44.77675" lon="3.06241">
        <ele>1074.9</ele>
        <time>2022-03-26T09:16:51Z</time>
      </trkpt>
      <trkpt lat="44.77672" lon="3.06251">
        <ele>1075.2</ele>
        <time>2022-03-26T09:16:57Z</time>
      </trkpt>
      <trkpt lat="44.77666" lon="3.06257">
        <ele>1075.2</ele>
        <time>2022-03-26T09:17:17Z</time>
      </trkpt>
      <trkpt lat="44.77661" lon="3.06262">
        <ele>1075.6</ele>
        <time>2022-03-26T09:17:22Z</time>
      </trkpt>
      <trkpt lat="44.77655" lon="3.06269">
        <ele>1076</ele>
        <time>2022-03-26T09:17:27Z</time>
      </trkpt>
      <trkpt lat="44.77648" lon="3.06273">
        <ele>1076.4</ele>
        <time>2022-03-26T09:17:33Z</time>
      </trkpt>
      <trkpt lat="44.77643" lon="3.06281">
        <ele>1076.9</ele>
        <time>2022-03-26T09:17:39Z</time>
      </trkpt>
      <trkpt lat="44.77645" lon="3.0629">
        <ele>1077</ele>
        <time>2022-03-26T09:17:46Z</time>
      </trkpt>
      <trkpt lat="44.77649" lon="3.06298">
        <ele>1077</ele>
        <time>2022-03-26T09:17:55Z</time>
      </trkpt>
      <trkpt lat="44.77654" lon="3.06303">
        <ele>1076.9</ele>
        <time>2022-03-26T09:18:01Z</time>
      </trkpt>
      <trkpt lat="44.7766" lon="3.0631">
        <ele>1076.8</ele>
        <time>2022-03-26T09:18:07Z</time>
      </trkpt>
      <trkpt lat="44.77665" lon="3.06317">
        <ele>1076.7</ele>
        <time>2022-03-26T09:18:13Z</time>
      </trkpt>
      <trkpt lat="44.7767" lon="3.06323">
        <ele>1076.9</ele>
        <time>2022-03-26T09:18:22Z</time>
      </trkpt>
      <trkpt lat="44.77671" lon="3.06332">
        <ele>1077.1</ele>
        <time>2022-03-26T09:18:41Z</time>
      </trkpt>
      <trkpt lat="44.77669" lon="3.06342">
        <ele>1077.6</ele>
        <time>2022-03-26T09:18:46Z</time>
      </trkpt>
      <trkpt lat="44.77666" lon="3.06351">
        <ele>1078.1</ele>
        <time>2022-03-26T09:18:51Z</time>
      </trkpt>
      <trkpt lat="44.77662" lon="3.0636">
        <ele>1078.8</ele>
        <time>2022-03-26T09:18:56Z</time>
      </trkpt>
      <trkpt lat="44.77656" lon="3.06366">
        <ele>1079.4</ele>
        <time>2022-03-26T09:19:01Z</time>
      </trkpt>
      <trkpt lat="44.7765" lon="3.06374">
        <ele>1080</ele>
        <time>2022-03-26T09:19:06Z</time>
      </trkpt>
      <trkpt lat="44.77643" lon="3.06377">
        <ele>1080.5</ele>
        <time>2022-03-26T09:19:11Z</time>
      </trkpt>
      <trkpt lat="44.77636" lon="3.06384">
        <ele>1081.1</ele>
        <time>2022-03-26T09:19:16Z</time>
      </trkpt>
      <trkpt lat="44.77629" lon="3.06389">
        <ele>1081.5</ele>
        <time>2022-03-26T09:19:22Z</time>
      </trkpt>
      <trkpt lat="44.77622" lon="3.06394">
        <ele>1082</ele>
        <time>2022-03-26T09:19:27Z</time>
      </trkpt>
      <trkpt lat="44.77617" lon="3.064">
        <ele>1082.4</ele>
        <time>2022-03-26T09:19:32Z</time>
      </trkpt>
      <trkpt lat="44.77611" lon="3.06407">
        <ele>1082.9</ele>
        <time>2022-03-26T09:19:37Z</time>
      </trkpt>
      <trkpt lat="44.77606" lon="3.06414">
        <ele>1083.3</ele>
        <time>2022-03-26T09:19:43Z</time>
      </trkpt>
      <trkpt lat="44.776" lon="3.0642">
        <ele>1083.8</ele>
        <time>2022-03-26T09:19:48Z</time>
      </trkpt>
      <trkpt lat="44.77593" lon="3.06427">
        <ele>1084.4</ele>
        <time>2022-03-26T09:19:53Z</time>
      </trkpt>
      <trkpt lat="44.77587" lon="3.06433">
        <ele>1084.9</ele>
        <time>2022-03-26T09:19:58Z</time>
      </trkpt>
      <trkpt lat="44.77582" lon="3.06441">
        <ele>1085.5</ele>
        <time>2022-03-26T09:20:04Z</time>
      </trkpt>
      <trkpt lat="44.77581" lon="3.0645">
        <ele>1086</ele>
        <time>2022-03-26T09:20:10Z</time>
      </trkpt>
      <trkpt lat="44.77582" lon="3.0646">
        <ele>1086.6</ele>
        <time>2022-03-26T09:20:16Z</time>
      </trkpt>
      <trkpt lat="44.77583" lon="3.06472">
        <ele>1087.3</ele>
        <time>2022-03-26T09:20:22Z</time>
      </trkpt>
      <trkpt lat="44.77582" lon="3.06483">
        <ele>1088</ele>
        <time>2022-03-26T09:20:27Z</time>
      </trkpt>
      <trkpt lat="44.77583" lon="3.06493">
        <ele>1088.6</ele>
        <time>2022-03-26T09:20:33Z</time>
      </trkpt>
      <trkpt lat="44.77584" lon="3.06503">
        <ele>1089.1</ele>
        <time>2022-03-26T09:20:39Z</time>
      </trkpt>
      <trkpt lat="44.77585" lon="3.06513">
        <ele>1089.3</ele>
        <time>2022-03-26T09:20:44Z</time>
      </trkpt>
      <trkpt lat="44.77584" lon="3.06523">
        <ele>1089.5</ele>
        <time>2022-03-26T09:20:49Z</time>
      </trkpt>
      <trkpt lat="44.77583" lon="3.06532">
        <ele>1089.8</ele>
        <time>2022-03-26T09:20:54Z</time>
      </trkpt>
      <trkpt lat="44.77581" lon="3.06541">
        <ele>1090</ele>
        <time>2022-03-26T09:20:59Z</time>
      </trkpt>
      <trkpt lat="44.77576" lon="3.0655">
        <ele>1090.2</ele>
        <time>2022-03-26T09:21:04Z</time>
      </trkpt>
      <trkpt lat="44.77572" lon="3.06558">
        <ele>1090.4</ele>
        <time>2022-03-26T09:21:10Z</time>
      </trkpt>
      <trkpt lat="44.77567" lon="3.06565">
        <ele>1090.5</ele>
        <time>2022-03-26T09:21:16Z</time>
      </trkpt>
      <trkpt lat="44.77563" lon="3.06574">
        <ele>1090.7</ele>
        <time>2022-03-26T09:21:22Z</time>
      </trkpt>
      <trkpt lat="44.77559" lon="3.06584">
        <ele>1091</ele>
        <time>2022-03-26T09:21:27Z</time>
      </trkpt>
      <trkpt lat="44.77556" lon="3.06592">
        <ele>1091.4</ele>
        <time>2022-03-26T09:21:32Z</time>
      </trkpt>
      <trkpt lat="44.77552" lon="3.06601">
        <ele>1091.8</ele>
        <time>2022-03-26T09:21:37Z</time>
      </trkpt>
      <trkpt lat="44.77549" lon="3.0661">
        <ele>1092.1</ele>
        <time>2022-03-26T09:21:42Z</time>
      </trkpt>
      <trkpt lat="44.77545" lon="3.06619">
        <ele>1092.5</ele>
        <time>2022-03-26T09:21:47Z</time>
      </trkpt>
      <trkpt lat="44.77541" lon="3.06626">
        <ele>1092.8</ele>
        <time>2022-03-26T09:21:52Z</time>
      </trkpt>
      <trkpt lat="44.77539" lon="3.06636">
        <ele>1093.2</ele>
        <time>2022-03-26T09:21:57Z</time>
      </trkpt>
      <trkpt lat="44.77535" lon="3.06644">
        <ele>1093.5</ele>
        <time>2022-03-26T09:22:02Z</time>
      </trkpt>
      <trkpt lat="44.77531" lon="3.06653">
        <ele>1093.8</ele>
        <time>2022-03-26T09:22:07Z</time>
      </trkpt>
      <trkpt lat="44.77526" lon="3.06662">
        <ele>1094.1</ele>
        <time>2022-03-26T09:22:13Z</time>
      </trkpt>
      <trkpt lat="44.77523" lon="3.06672">
        <ele>1094.6</ele>
        <time>2022-03-26T09:22:18Z</time>
      </trkpt>
      <trkpt lat="44.77519" lon="3.0668">
        <ele>1095.1</ele>
        <time>2022-03-26T09:22:23Z</time>
      </trkpt>
      <trkpt lat="44.77515" lon="3.06688">
        <ele>1095.6</ele>
        <time>2022-03-26T09:22:29Z</time>
      </trkpt>
      <trkpt lat="44.7751" lon="3.06697">
        <ele>1096.2</ele>
        <time>2022-03-26T09:22:36Z</time>
      </trkpt>
      <trkpt lat="44.77508" lon="3.06707">
        <ele>1096.9</ele>
        <time>2022-03-26T09:22:41Z</time>
      </trkpt>
      <trkpt lat="44.77504" lon="3.06715">
        <ele>1097.5</ele>
        <time>2022-03-26T09:22:46Z</time>
      </trkpt>
      <trkpt lat="44.77501" lon="3.06724">
        <ele>1098.1</ele>
        <time>2022-03-26T09:22:51Z</time>
      </trkpt>
      <trkpt lat="44.77498" lon="3.06733">
        <ele>1098.7</ele>
        <time>2022-03-26T09:22:56Z</time>
      </trkpt>
      <trkpt lat="44.77496" lon="3.06743">
        <ele>1099.3</ele>
        <time>2022-03-26T09:23:04Z</time>
      </trkpt>
      <trkpt lat="44.77492" lon="3.06753">
        <ele>1099.9</ele>
        <time>2022-03-26T09:23:31Z</time>
      </trkpt>
      <trkpt lat="44.77489" lon="3.06761">
        <ele>1100.5</ele>
        <time>2022-03-26T09:23:37Z</time>
      </trkpt>
      <trkpt lat="44.77485" lon="3.0677">
        <ele>1101.2</ele>
        <time>2022-03-26T09:23:42Z</time>
      </trkpt>
      <trkpt lat="44.77483" lon="3.06779">
        <ele>1102</ele>
        <time>2022-03-26T09:23:48Z</time>
      </trkpt>
      <trkpt lat="44.77479" lon="3.06789">
        <ele>1102.9</ele>
        <time>2022-03-26T09:23:55Z</time>
      </trkpt>
      <trkpt lat="44.77475" lon="3.06798">
        <ele>1103.6</ele>
        <time>2022-03-26T09:24:00Z</time>
      </trkpt>
      <trkpt lat="44.77472" lon="3.06807">
        <ele>1104.4</ele>
        <time>2022-03-26T09:24:05Z</time>
      </trkpt>
      <trkpt lat="44.77469" lon="3.06816">
        <ele>1105.1</ele>
        <time>2022-03-26T09:24:13Z</time>
      </trkpt>
      <trkpt lat="44.77467" lon="3.06828">
        <ele>1106.3</ele>
        <time>2022-03-26T09:24:18Z</time>
      </trkpt>
      <trkpt lat="44.77466" lon="3.06838">
        <ele>1107</ele>
        <time>2022-03-26T09:24:23Z</time>
      </trkpt>
      <trkpt lat="44.77463" lon="3.06848">
        <ele>1107.4</ele>
        <time>2022-03-26T09:24:28Z</time>
      </trkpt>
      <trkpt lat="44.77462" lon="3.06858">
        <ele>1107.8</ele>
        <time>2022-03-26T09:24:33Z</time>
      </trkpt>
      <trkpt lat="44.77461" lon="3.06868">
        <ele>1108.2</ele>
        <time>2022-03-26T09:24:39Z</time>
      </trkpt>
      <trkpt lat="44.77459" lon="3.06878">
        <ele>1108.7</ele>
        <time>2022-03-26T09:24:44Z</time>
      </trkpt>
      <trkpt lat="44.77457" lon="3.06887">
        <ele>1109</ele>
        <time>2022-03-26T09:24:49Z</time>
      </trkpt>
      <trkpt lat="44.77455" lon="3.06897">
        <ele>1109.5</ele>
        <time>2022-03-26T09:24:56Z</time>
      </trkpt>
      <trkpt lat="44.77452" lon="3.06907">
        <ele>1109.9</ele>
        <time>2022-03-26T09:25:01Z</time>
      </trkpt>
      <trkpt lat="44.77447" lon="3.06917">
        <ele>1110.4</ele>
        <time>2022-03-26T09:25:07Z</time>
      </trkpt>
      <trkpt lat="44.77443" lon="3.06926">
        <ele>1110.7</ele>
        <time>2022-03-26T09:25:12Z</time>
      </trkpt>
      <trkpt lat="44.77437" lon="3.06934">
        <ele>1111.1</ele>
        <time>2022-03-26T09:25:18Z</time>
      </trkpt>
      <trkpt lat="44.77433" lon="3.06942">
        <ele>1111.5</ele>
        <time>2022-03-26T09:25:23Z</time>
      </trkpt>
      <trkpt lat="44.77429" lon="3.0695">
        <ele>1111.9</ele>
        <time>2022-03-26T09:25:28Z</time>
      </trkpt>
      <trkpt lat="44.77426" lon="3.06958">
        <ele>1112.4</ele>
        <time>2022-03-26T09:25:33Z</time>
      </trkpt>
      <trkpt lat="44.77422" lon="3.06967">
        <ele>1112.9</ele>
        <time>2022-03-26T09:25:38Z</time>
      </trkpt>
      <trkpt lat="44.77419" lon="3.06974">
        <ele>1113.4</ele>
        <time>2022-03-26T09:25:43Z</time>
      </trkpt>
      <trkpt lat="44.77415" lon="3.06983">
        <ele>1113.8</ele>
        <time>2022-03-26T09:25:48Z</time>
      </trkpt>
      <trkpt lat="44.77412" lon="3.06992">
        <ele>1114</ele>
        <time>2022-03-26T09:25:53Z</time>
      </trkpt>
      <trkpt lat="44.77409" lon="3.06999">
        <ele>1114</ele>
        <time>2022-03-26T09:25:58Z</time>
      </trkpt>
      <trkpt lat="44.77406" lon="3.07008">
        <ele>1113.9</ele>
        <time>2022-03-26T09:26:03Z</time>
      </trkpt>
      <trkpt lat="44.77403" lon="3.07017">
        <ele>1113.8</ele>
        <time>2022-03-26T09:26:08Z</time>
      </trkpt>
      <trkpt lat="44.77399" lon="3.07028">
        <ele>1113.7</ele>
        <time>2022-03-26T09:26:13Z</time>
      </trkpt>
      <trkpt lat="44.77396" lon="3.07036">
        <ele>1113.6</ele>
        <time>2022-03-26T09:26:18Z</time>
      </trkpt>
      <trkpt lat="44.77393" lon="3.07045">
        <ele>1113.5</ele>
        <time>2022-03-26T09:26:23Z</time>
      </trkpt>
      <trkpt lat="44.77389" lon="3.07053">
        <ele>1113.4</ele>
        <time>2022-03-26T09:26:29Z</time>
      </trkpt>
      <trkpt lat="44.77386" lon="3.07063">
        <ele>1113.4</ele>
        <time>2022-03-26T09:26:34Z</time>
      </trkpt>
      <trkpt lat="44.77383" lon="3.07072">
        <ele>1113.4</ele>
        <time>2022-03-26T09:26:39Z</time>
      </trkpt>
      <trkpt lat="44.7738" lon="3.07081">
        <ele>1113.4</ele>
        <time>2022-03-26T09:26:45Z</time>
      </trkpt>
      <trkpt lat="44.77376" lon="3.0709">
        <ele>1113.4</ele>
        <time>2022-03-26T09:26:50Z</time>
      </trkpt>
      <trkpt lat="44.77374" lon="3.07098">
        <ele>1113.6</ele>
        <time>2022-03-26T09:26:55Z</time>
      </trkpt>
      <trkpt lat="44.77371" lon="3.07107">
        <ele>1113.8</ele>
        <time>2022-03-26T09:27:00Z</time>
      </trkpt>
      <trkpt lat="44.7737" lon="3.07117">
        <ele>1114.2</ele>
        <time>2022-03-26T09:27:05Z</time>
      </trkpt>
      <trkpt lat="44.77368" lon="3.07126">
        <ele>1114.5</ele>
        <time>2022-03-26T09:27:10Z</time>
      </trkpt>
      <trkpt lat="44.77366" lon="3.07137">
        <ele>1114.9</ele>
        <time>2022-03-26T09:27:16Z</time>
      </trkpt>
      <trkpt lat="44.77365" lon="3.07147">
        <ele>1115.3</ele>
        <time>2022-03-26T09:27:21Z</time>
      </trkpt>
      <trkpt lat="44.77362" lon="3.07156">
        <ele>1115.5</ele>
        <time>2022-03-26T09:27:26Z</time>
      </trkpt>
      <trkpt lat="44.7736" lon="3.07166">
        <ele>1115.9</ele>
        <time>2022-03-26T09:27:32Z</time>
      </trkpt>
      <trkpt lat="44.77357" lon="3.07178">
        <ele>1116.9</ele>
        <time>2022-03-26T09:27:37Z</time>
      </trkpt>
      <trkpt lat="44.77354" lon="3.07187">
        <ele>1117.7</ele>
        <time>2022-03-26T09:27:42Z</time>
      </trkpt>
      <trkpt lat="44.7735" lon="3.07196">
        <ele>1118.6</ele>
        <time>2022-03-26T09:27:47Z</time>
      </trkpt>
      <trkpt lat="44.77347" lon="3.07205">
        <ele>1119.5</ele>
        <time>2022-03-26T09:27:52Z</time>
      </trkpt>
      <trkpt lat="44.77342" lon="3.07211">
        <ele>1120.1</ele>
        <time>2022-03-26T09:27:57Z</time>
      </trkpt>
      <trkpt lat="44.77335" lon="3.07214">
        <ele>1120.3</ele>
        <time>2022-03-26T09:28:09Z</time>
      </trkpt>
      <trkpt lat="44.77332" lon="3.07223">
        <ele>1121.4</ele>
        <time>2022-03-26T09:28:15Z</time>
      </trkpt>
      <trkpt lat="44.77327" lon="3.0723">
        <ele>1122.3</ele>
        <time>2022-03-26T09:28:20Z</time>
      </trkpt>
      <trkpt lat="44.77324" lon="3.07238">
        <ele>1123.2</ele>
        <time>2022-03-26T09:28:25Z</time>
      </trkpt>
      <trkpt lat="44.7732" lon="3.07247">
        <ele>1124.3</ele>
        <time>2022-03-26T09:28:32Z</time>
      </trkpt>
      <trkpt lat="44.77316" lon="3.07256">
        <ele>1125</ele>
        <time>2022-03-26T09:28:39Z</time>
      </trkpt>
      <trkpt lat="44.77311" lon="3.07266">
        <ele>1125.6</ele>
        <time>2022-03-26T09:28:44Z</time>
      </trkpt>
      <trkpt lat="44.77306" lon="3.07273">
        <ele>1126.1</ele>
        <time>2022-03-26T09:28:49Z</time>
      </trkpt>
      <trkpt lat="44.77302" lon="3.07282">
        <ele>1126.7</ele>
        <time>2022-03-26T09:29:08Z</time>
      </trkpt>
      <trkpt lat="44.77298" lon="3.0729">
        <ele>1127.4</ele>
        <time>2022-03-26T09:29:13Z</time>
      </trkpt>
      <trkpt lat="44.77292" lon="3.07298">
        <ele>1128</ele>
        <time>2022-03-26T09:29:19Z</time>
      </trkpt>
      <trkpt lat="44.77287" lon="3.07304">
        <ele>1128.6</ele>
        <time>2022-03-26T09:29:24Z</time>
      </trkpt>
      <trkpt lat="44.77281" lon="3.0731">
        <ele>1129.2</ele>
        <time>2022-03-26T09:29:29Z</time>
      </trkpt>
      <trkpt lat="44.77275" lon="3.07319">
        <ele>1130.1</ele>
        <time>2022-03-26T09:29:34Z</time>
      </trkpt>
      <trkpt lat="44.7727" lon="3.07325">
        <ele>1130.7</ele>
        <time>2022-03-26T09:29:40Z</time>
      </trkpt>
      <trkpt lat="44.77264" lon="3.07332">
        <ele>1131.5</ele>
        <time>2022-03-26T09:29:45Z</time>
      </trkpt>
      <trkpt lat="44.7726" lon="3.07339">
        <ele>1131.8</ele>
        <time>2022-03-26T09:29:51Z</time>
      </trkpt>
      <trkpt lat="44.77254" lon="3.07348">
        <ele>1132.1</ele>
        <time>2022-03-26T09:29:57Z</time>
      </trkpt>
      <trkpt lat="44.77248" lon="3.07354">
        <ele>1132.1</ele>
        <time>2022-03-26T09:30:03Z</time>
      </trkpt>
      <trkpt lat="44.77244" lon="3.07364">
        <ele>1131.9</ele>
        <time>2022-03-26T09:30:08Z</time>
      </trkpt>
      <trkpt lat="44.7724" lon="3.07373">
        <ele>1131.7</ele>
        <time>2022-03-26T09:30:13Z</time>
      </trkpt>
      <trkpt lat="44.77236" lon="3.07381">
        <ele>1131.4</ele>
        <time>2022-03-26T09:30:18Z</time>
      </trkpt>
      <trkpt lat="44.77232" lon="3.0739">
        <ele>1131.1</ele>
        <time>2022-03-26T09:30:23Z</time>
      </trkpt>
      <trkpt lat="44.77229" lon="3.07399">
        <ele>1130.8</ele>
        <time>2022-03-26T09:30:28Z</time>
      </trkpt>
      <trkpt lat="44.77226" lon="3.07408">
        <ele>1130.5</ele>
        <time>2022-03-26T09:30:33Z</time>
      </trkpt>
      <trkpt lat="44.77222" lon="3.07416">
        <ele>1130</ele>
        <time>2022-03-26T09:30:38Z</time>
      </trkpt>
      <trkpt lat="44.77221" lon="3.07426">
        <ele>1129.8</ele>
        <time>2022-03-26T09:30:43Z</time>
      </trkpt>
      <trkpt lat="44.7722" lon="3.07436">
        <ele>1129.5</ele>
        <time>2022-03-26T09:30:50Z</time>
      </trkpt>
      <trkpt lat="44.77225" lon="3.07442">
        <ele>1130</ele>
        <time>2022-03-26T09:31:24Z</time>
      </trkpt>
      <trkpt lat="44.77224" lon="3.07455">
        <ele>1129.7</ele>
        <time>2022-03-26T09:31:29Z</time>
      </trkpt>
      <trkpt lat="44.77224" lon="3.07465">
        <ele>1129.6</ele>
        <time>2022-03-26T09:31:34Z</time>
      </trkpt>
      <trkpt lat="44.77224" lon="3.07475">
        <ele>1129.4</ele>
        <time>2022-03-26T09:31:39Z</time>
      </trkpt>
      <trkpt lat="44.77228" lon="3.07485">
        <ele>1129.6</ele>
        <time>2022-03-26T09:31:45Z</time>
      </trkpt>
      <trkpt lat="44.77229" lon="3.07494">
        <ele>1129.6</ele>
        <time>2022-03-26T09:31:50Z</time>
      </trkpt>
      <trkpt lat="44.7723" lon="3.07505">
        <ele>1129.6</ele>
        <time>2022-03-26T09:31:55Z</time>
      </trkpt>
      <trkpt lat="44.77233" lon="3.07514">
        <ele>1130</ele>
        <time>2022-03-26T09:32:02Z</time>
      </trkpt>
      <trkpt lat="44.77235" lon="3.07528">
        <ele>1130.4</ele>
        <time>2022-03-26T09:32:07Z</time>
      </trkpt>
      <trkpt lat="44.77235" lon="3.07538">
        <ele>1130.5</ele>
        <time>2022-03-26T09:32:12Z</time>
      </trkpt>
      <trkpt lat="44.77237" lon="3.07549">
        <ele>1130.8</ele>
        <time>2022-03-26T09:32:17Z</time>
      </trkpt>
      <trkpt lat="44.77239" lon="3.07559">
        <ele>1131.1</ele>
        <time>2022-03-26T09:32:22Z</time>
      </trkpt>
      <trkpt lat="44.77242" lon="3.07567">
        <ele>1131.4</ele>
        <time>2022-03-26T09:32:27Z</time>
      </trkpt>
      <trkpt lat="44.77243" lon="3.07582">
        <ele>1131.6</ele>
        <time>2022-03-26T09:32:32Z</time>
      </trkpt>
      <trkpt lat="44.77248" lon="3.07591">
        <ele>1132.2</ele>
        <time>2022-03-26T09:32:37Z</time>
      </trkpt>
      <trkpt lat="44.77248" lon="3.07603">
        <ele>1132.6</ele>
        <time>2022-03-26T09:32:42Z</time>
      </trkpt>
      <trkpt lat="44.77251" lon="3.07611">
        <ele>1133.1</ele>
        <time>2022-03-26T09:32:47Z</time>
      </trkpt>
      <trkpt lat="44.77253" lon="3.07624">
        <ele>1133.8</ele>
        <time>2022-03-26T09:32:52Z</time>
      </trkpt>
      <trkpt lat="44.77254" lon="3.07633">
        <ele>1134.2</ele>
        <time>2022-03-26T09:32:57Z</time>
      </trkpt>
      <trkpt lat="44.77257" lon="3.07644">
        <ele>1134.9</ele>
        <time>2022-03-26T09:33:02Z</time>
      </trkpt>
      <trkpt lat="44.77257" lon="3.07654">
        <ele>1135.2</ele>
        <time>2022-03-26T09:33:07Z</time>
      </trkpt>
      <trkpt lat="44.7726" lon="3.07663">
        <ele>1135.8</ele>
        <time>2022-03-26T09:33:13Z</time>
      </trkpt>
      <trkpt lat="44.77261" lon="3.07673">
        <ele>1136.2</ele>
        <time>2022-03-26T09:33:18Z</time>
      </trkpt>
      <trkpt lat="44.77263" lon="3.07684">
        <ele>1136.6</ele>
        <time>2022-03-26T09:33:23Z</time>
      </trkpt>
      <trkpt lat="44.77266" lon="3.07694">
        <ele>1137.1</ele>
        <time>2022-03-26T09:33:28Z</time>
      </trkpt>
      <trkpt lat="44.77266" lon="3.07704">
        <ele>1137.3</ele>
        <time>2022-03-26T09:33:33Z</time>
      </trkpt>
      <trkpt lat="44.77267" lon="3.07714">
        <ele>1137.5</ele>
        <time>2022-03-26T09:33:38Z</time>
      </trkpt>
      <trkpt lat="44.77268" lon="3.07725">
        <ele>1137.8</ele>
        <time>2022-03-26T09:33:43Z</time>
      </trkpt>
      <trkpt lat="44.77272" lon="3.07733">
        <ele>1138.3</ele>
        <time>2022-03-26T09:33:49Z</time>
      </trkpt>
      <trkpt lat="44.77273" lon="3.07743">
        <ele>1138.5</ele>
        <time>2022-03-26T09:33:55Z</time>
      </trkpt>
      <trkpt lat="44.77275" lon="3.07753">
        <ele>1138.9</ele>
        <time>2022-03-26T09:34:00Z</time>
      </trkpt>
      <trkpt lat="44.77276" lon="3.07762">
        <ele>1139.1</ele>
        <time>2022-03-26T09:34:05Z</time>
      </trkpt>
      <trkpt lat="44.7728" lon="3.0777">
        <ele>1139.6</ele>
        <time>2022-03-26T09:34:10Z</time>
      </trkpt>
      <trkpt lat="44.7728" lon="3.0778">
        <ele>1139.8</ele>
        <time>2022-03-26T09:34:15Z</time>
      </trkpt>
      <trkpt lat="44.77282" lon="3.07791">
        <ele>1140.2</ele>
        <time>2022-03-26T09:34:20Z</time>
      </trkpt>
      <trkpt lat="44.77283" lon="3.078">
        <ele>1140.5</ele>
        <time>2022-03-26T09:34:25Z</time>
      </trkpt>
      <trkpt lat="44.77282" lon="3.0781">
        <ele>1140.6</ele>
        <time>2022-03-26T09:34:30Z</time>
      </trkpt>
      <trkpt lat="44.77285" lon="3.07819">
        <ele>1141</ele>
        <time>2022-03-26T09:34:52Z</time>
      </trkpt>
      <trkpt lat="44.77288" lon="3.07827">
        <ele>1141.5</ele>
        <time>2022-03-26T09:34:58Z</time>
      </trkpt>
      <trkpt lat="44.77289" lon="3.07837">
        <ele>1141.8</ele>
        <time>2022-03-26T09:35:03Z</time>
      </trkpt>
      <trkpt lat="44.77291" lon="3.07847">
        <ele>1142.2</ele>
        <time>2022-03-26T09:35:08Z</time>
      </trkpt>
      <trkpt lat="44.77291" lon="3.07858">
        <ele>1142.4</ele>
        <time>2022-03-26T09:35:13Z</time>
      </trkpt>
      <trkpt lat="44.77293" lon="3.07867">
        <ele>1142.7</ele>
        <time>2022-03-26T09:35:18Z</time>
      </trkpt>
      <trkpt lat="44.77294" lon="3.07877">
        <ele>1143</ele>
        <time>2022-03-26T09:35:23Z</time>
      </trkpt>
      <trkpt lat="44.77298" lon="3.07884">
        <ele>1143.6</ele>
        <time>2022-03-26T09:35:28Z</time>
      </trkpt>
      <trkpt lat="44.77298" lon="3.07898">
        <ele>1143.8</ele>
        <time>2022-03-26T09:35:33Z</time>
      </trkpt>
      <trkpt lat="44.773" lon="3.07908">
        <ele>1144.2</ele>
        <time>2022-03-26T09:35:38Z</time>
      </trkpt>
      <trkpt lat="44.77302" lon="3.07917">
        <ele>1144.6</ele>
        <time>2022-03-26T09:35:43Z</time>
      </trkpt>
      <trkpt lat="44.77303" lon="3.07928">
        <ele>1144.9</ele>
        <time>2022-03-26T09:35:48Z</time>
      </trkpt>
      <trkpt lat="44.77304" lon="3.0794">
        <ele>1145.3</ele>
        <time>2022-03-26T09:35:54Z</time>
      </trkpt>
      <trkpt lat="44.77305" lon="3.07949">
        <ele>1145.6</ele>
        <time>2022-03-26T09:35:59Z</time>
      </trkpt>
      <trkpt lat="44.77306" lon="3.07963">
        <ele>1146</ele>
        <time>2022-03-26T09:36:04Z</time>
      </trkpt>
      <trkpt lat="44.77307" lon="3.07973">
        <ele>1146.3</ele>
        <time>2022-03-26T09:36:10Z</time>
      </trkpt>
      <trkpt lat="44.77309" lon="3.07984">
        <ele>1146.8</ele>
        <time>2022-03-26T09:36:15Z</time>
      </trkpt>
      <trkpt lat="44.77313" lon="3.07994">
        <ele>1147.4</ele>
        <time>2022-03-26T09:36:21Z</time>
      </trkpt>
      <trkpt lat="44.77314" lon="3.08004">
        <ele>1147.9</ele>
        <time>2022-03-26T09:36:26Z</time>
      </trkpt>
      <trkpt lat="44.77315" lon="3.08014">
        <ele>1148.4</ele>
        <time>2022-03-26T09:36:31Z</time>
      </trkpt>
      <trkpt lat="44.77318" lon="3.08024">
        <ele>1149.2</ele>
        <time>2022-03-26T09:36:36Z</time>
      </trkpt>
      <trkpt lat="44.77319" lon="3.08033">
        <ele>1149.7</ele>
        <time>2022-03-26T09:36:41Z</time>
      </trkpt>
      <trkpt lat="44.77322" lon="3.08044">
        <ele>1150.4</ele>
        <time>2022-03-26T09:36:46Z</time>
      </trkpt>
      <trkpt lat="44.77324" lon="3.08053">
        <ele>1151</ele>
        <time>2022-03-26T09:36:52Z</time>
      </trkpt>
      <trkpt lat="44.77324" lon="3.08068">
        <ele>1151.6</ele>
        <time>2022-03-26T09:37:52Z</time>
      </trkpt>
      <trkpt lat="44.77327" lon="3.08078">
        <ele>1152.3</ele>
        <time>2022-03-26T09:38:36Z</time>
      </trkpt>
      <trkpt lat="44.77328" lon="3.0809">
        <ele>1153</ele>
        <time>2022-03-26T09:38:41Z</time>
      </trkpt>
      <trkpt lat="44.77329" lon="3.08103">
        <ele>1153.9</ele>
        <time>2022-03-26T09:38:46Z</time>
      </trkpt>
      <trkpt lat="44.77331" lon="3.08116">
        <ele>1154.8</ele>
        <time>2022-03-26T09:38:52Z</time>
      </trkpt>
      <trkpt lat="44.77334" lon="3.08124">
        <ele>1155.5</ele>
        <time>2022-03-26T09:38:57Z</time>
      </trkpt>
      <trkpt lat="44.77335" lon="3.08134">
        <ele>1156.1</ele>
        <time>2022-03-26T09:39:03Z</time>
      </trkpt>
      <trkpt lat="44.77337" lon="3.08143">
        <ele>1156.7</ele>
        <time>2022-03-26T09:39:08Z</time>
      </trkpt>
      <trkpt lat="44.77339" lon="3.08152">
        <ele>1157.3</ele>
        <time>2022-03-26T09:39:13Z</time>
      </trkpt>
      <trkpt lat="44.77341" lon="3.08162">
        <ele>1158</ele>
        <time>2022-03-26T09:39:18Z</time>
      </trkpt>
      <trkpt lat="44.77343" lon="3.08173">
        <ele>1158.8</ele>
        <time>2022-03-26T09:39:24Z</time>
      </trkpt>
      <trkpt lat="44.77346" lon="3.08182">
        <ele>1159.4</ele>
        <time>2022-03-26T09:39:29Z</time>
      </trkpt>
      <trkpt lat="44.77347" lon="3.08192">
        <ele>1160.1</ele>
        <time>2022-03-26T09:39:34Z</time>
      </trkpt>
      <trkpt lat="44.7735" lon="3.082">
        <ele>1160.7</ele>
        <time>2022-03-26T09:39:39Z</time>
      </trkpt>
      <trkpt lat="44.77351" lon="3.0821">
        <ele>1161.3</ele>
        <time>2022-03-26T09:39:44Z</time>
      </trkpt>
      <trkpt lat="44.77353" lon="3.0822">
        <ele>1161.9</ele>
        <time>2022-03-26T09:39:49Z</time>
      </trkpt>
      <trkpt lat="44.77355" lon="3.08231">
        <ele>1162.6</ele>
        <time>2022-03-26T09:39:54Z</time>
      </trkpt>
      <trkpt lat="44.77356" lon="3.0824">
        <ele>1163.1</ele>
        <time>2022-03-26T09:39:59Z</time>
      </trkpt>
      <trkpt lat="44.77359" lon="3.08249">
        <ele>1163.6</ele>
        <time>2022-03-26T09:40:04Z</time>
      </trkpt>
      <trkpt lat="44.77362" lon="3.0826">
        <ele>1164.1</ele>
        <time>2022-03-26T09:40:10Z</time>
      </trkpt>
      <trkpt lat="44.77364" lon="3.08269">
        <ele>1164.4</ele>
        <time>2022-03-26T09:40:15Z</time>
      </trkpt>
      <trkpt lat="44.77364" lon="3.08279">
        <ele>1164.8</ele>
        <time>2022-03-26T09:40:22Z</time>
      </trkpt>
      <trkpt lat="44.77366" lon="3.08289">
        <ele>1165.2</ele>
        <time>2022-03-26T09:40:27Z</time>
      </trkpt>
      <trkpt lat="44.77366" lon="3.083">
        <ele>1165.6</ele>
        <time>2022-03-26T09:40:32Z</time>
      </trkpt>
      <trkpt lat="44.77367" lon="3.08311">
        <ele>1166.1</ele>
        <time>2022-03-26T09:40:39Z</time>
      </trkpt>
      <trkpt lat="44.77365" lon="3.0832">
        <ele>1166.5</ele>
        <time>2022-03-26T09:40:44Z</time>
      </trkpt>
      <trkpt lat="44.77362" lon="3.08331">
        <ele>1166.9</ele>
        <time>2022-03-26T09:40:50Z</time>
      </trkpt>
      <trkpt lat="44.77359" lon="3.0834">
        <ele>1167</ele>
        <time>2022-03-26T09:40:56Z</time>
      </trkpt>
      <trkpt lat="44.77355" lon="3.0835">
        <ele>1167</ele>
        <time>2022-03-26T09:41:01Z</time>
      </trkpt>
      <trkpt lat="44.77352" lon="3.08363">
        <ele>1167</ele>
        <time>2022-03-26T09:41:06Z</time>
      </trkpt>
      <trkpt lat="44.77349" lon="3.08371">
        <ele>1166.9</ele>
        <time>2022-03-26T09:41:11Z</time>
      </trkpt>
      <trkpt lat="44.77347" lon="3.0838">
        <ele>1166.8</ele>
        <time>2022-03-26T09:41:16Z</time>
      </trkpt>
      <trkpt lat="44.77345" lon="3.0839">
        <ele>1166.7</ele>
        <time>2022-03-26T09:41:21Z</time>
      </trkpt>
      <trkpt lat="44.77343" lon="3.08402">
        <ele>1166.6</ele>
        <time>2022-03-26T09:41:26Z</time>
      </trkpt>
      <trkpt lat="44.77341" lon="3.08413">
        <ele>1166.4</ele>
        <time>2022-03-26T09:41:31Z</time>
      </trkpt>
      <trkpt lat="44.7734" lon="3.08425">
        <ele>1166.2</ele>
        <time>2022-03-26T09:41:36Z</time>
      </trkpt>
      <trkpt lat="44.77341" lon="3.08435">
        <ele>1166.2</ele>
        <time>2022-03-26T09:41:41Z</time>
      </trkpt>
      <trkpt lat="44.77341" lon="3.08445">
        <ele>1166.1</ele>
        <time>2022-03-26T09:41:46Z</time>
      </trkpt>
      <trkpt lat="44.7734" lon="3.08455">
        <ele>1165.9</ele>
        <time>2022-03-26T09:41:51Z</time>
      </trkpt>
      <trkpt lat="44.77339" lon="3.08466">
        <ele>1165.7</ele>
        <time>2022-03-26T09:41:56Z</time>
      </trkpt>
      <trkpt lat="44.77337" lon="3.08477">
        <ele>1165.5</ele>
        <time>2022-03-26T09:42:01Z</time>
      </trkpt>
      <trkpt lat="44.77335" lon="3.08486">
        <ele>1165.3</ele>
        <time>2022-03-26T09:42:06Z</time>
      </trkpt>
      <trkpt lat="44.77335" lon="3.08497">
        <ele>1165.1</ele>
        <time>2022-03-26T09:42:11Z</time>
      </trkpt>
      <trkpt lat="44.77336" lon="3.08507">
        <ele>1165</ele>
        <time>2022-03-26T09:42:16Z</time>
      </trkpt>
      <trkpt lat="44.77343" lon="3.08513">
        <ele>1165.2</ele>
        <time>2022-03-26T09:42:22Z</time>
      </trkpt>
      <trkpt lat="44.77349" lon="3.08518">
        <ele>1165.3</ele>
        <time>2022-03-26T09:42:29Z</time>
      </trkpt>
      <trkpt lat="44.77357" lon="3.08518">
        <ele>1165.7</ele>
        <time>2022-03-26T09:42:51Z</time>
      </trkpt>
      <trkpt lat="44.77364" lon="3.08514">
        <ele>1166.3</ele>
        <time>2022-03-26T09:42:59Z</time>
      </trkpt>
      <trkpt lat="44.77373" lon="3.08512">
        <ele>1166.8</ele>
        <time>2022-03-26T09:43:06Z</time>
      </trkpt>
      <trkpt lat="44.7738" lon="3.0851">
        <ele>1167.3</ele>
        <time>2022-03-26T09:43:11Z</time>
      </trkpt>
      <trkpt lat="44.77387" lon="3.08509">
        <ele>1167.7</ele>
        <time>2022-03-26T09:43:17Z</time>
      </trkpt>
      <trkpt lat="44.77395" lon="3.08508">
        <ele>1168.2</ele>
        <time>2022-03-26T09:43:22Z</time>
      </trkpt>
      <trkpt lat="44.77403" lon="3.08506">
        <ele>1168.8</ele>
        <time>2022-03-26T09:43:27Z</time>
      </trkpt>
      <trkpt lat="44.77411" lon="3.08506">
        <ele>1169.2</ele>
        <time>2022-03-26T09:43:32Z</time>
      </trkpt>
      <trkpt lat="44.77419" lon="3.08507">
        <ele>1169.5</ele>
        <time>2022-03-26T09:43:37Z</time>
      </trkpt>
      <trkpt lat="44.77428" lon="3.08504">
        <ele>1169.8</ele>
        <time>2022-03-26T09:43:42Z</time>
      </trkpt>
      <trkpt lat="44.77435" lon="3.08505">
        <ele>1169.8</ele>
        <time>2022-03-26T09:43:48Z</time>
      </trkpt>
      <trkpt lat="44.77441" lon="3.08505">
        <ele>1169.9</ele>
        <time>2022-03-26T09:43:53Z</time>
      </trkpt>
      <trkpt lat="44.77449" lon="3.08505">
        <ele>1170</ele>
        <time>2022-03-26T09:43:58Z</time>
      </trkpt>
      <trkpt lat="44.77457" lon="3.08508">
        <ele>1169.8</ele>
        <time>2022-03-26T09:44:03Z</time>
      </trkpt>
      <trkpt lat="44.77464" lon="3.08508">
        <ele>1169.8</ele>
        <time>2022-03-26T09:44:08Z</time>
      </trkpt>
      <trkpt lat="44.77471" lon="3.08509">
        <ele>1169.8</ele>
        <time>2022-03-26T09:44:14Z</time>
      </trkpt>
      <trkpt lat="44.77478" lon="3.08507">
        <ele>1170</ele>
        <time>2022-03-26T09:44:21Z</time>
      </trkpt>
      <trkpt lat="44.77486" lon="3.0851">
        <ele>1169.8</ele>
        <time>2022-03-26T09:44:26Z</time>
      </trkpt>
      <trkpt lat="44.77492" lon="3.08513">
        <ele>1169.5</ele>
        <time>2022-03-26T09:44:33Z</time>
      </trkpt>
      <trkpt lat="44.77499" lon="3.08514">
        <ele>1169.5</ele>
        <time>2022-03-26T09:44:38Z</time>
      </trkpt>
      <trkpt lat="44.77506" lon="3.08518">
        <ele>1168.9</ele>
        <time>2022-03-26T09:44:43Z</time>
      </trkpt>
      <trkpt lat="44.77516" lon="3.08534">
        <ele>1167.1</ele>
        <time>2022-03-26T09:45:02Z</time>
      </trkpt>
      <trkpt lat="44.77517" lon="3.08521">
        <ele>1168.4</ele>
        <time>2022-03-26T09:45:22Z</time>
      </trkpt>
      <trkpt lat="44.77508" lon="3.08522">
        <ele>1168.5</ele>
        <time>2022-03-26T09:45:39Z</time>
      </trkpt>
      <trkpt lat="44.77515" lon="3.08525">
        <ele>1168</ele>
        <time>2022-03-26T09:46:00Z</time>
      </trkpt>
      <trkpt lat="44.77521" lon="3.08529">
        <ele>1167.6</ele>
        <time>2022-03-26T09:46:06Z</time>
      </trkpt>
      <trkpt lat="44.77528" lon="3.08532">
        <ele>1167.2</ele>
        <time>2022-03-26T09:46:11Z</time>
      </trkpt>
      <trkpt lat="44.77535" lon="3.08533">
        <ele>1167</ele>
        <time>2022-03-26T09:46:17Z</time>
      </trkpt>
      <trkpt lat="44.77542" lon="3.08535">
        <ele>1166.8</ele>
        <time>2022-03-26T09:46:23Z</time>
      </trkpt>
      <trkpt lat="44.77551" lon="3.08539">
        <ele>1166.4</ele>
        <time>2022-03-26T09:46:28Z</time>
      </trkpt>
      <trkpt lat="44.77559" lon="3.08543">
        <ele>1166.1</ele>
        <time>2022-03-26T09:46:33Z</time>
      </trkpt>
      <trkpt lat="44.77567" lon="3.08544">
        <ele>1166</ele>
        <time>2022-03-26T09:46:38Z</time>
      </trkpt>
      <trkpt lat="44.77574" lon="3.08544">
        <ele>1165.9</ele>
        <time>2022-03-26T09:46:44Z</time>
      </trkpt>
      <trkpt lat="44.77583" lon="3.08544">
        <ele>1165.9</ele>
        <time>2022-03-26T09:46:49Z</time>
      </trkpt>
      <trkpt lat="44.77591" lon="3.08543">
        <ele>1165.6</ele>
        <time>2022-03-26T09:46:54Z</time>
      </trkpt>
      <trkpt lat="44.77598" lon="3.08545">
        <ele>1165.3</ele>
        <time>2022-03-26T09:47:00Z</time>
      </trkpt>
      <trkpt lat="44.77606" lon="3.08544">
        <ele>1165</ele>
        <time>2022-03-26T09:47:06Z</time>
      </trkpt>
      <trkpt lat="44.77617" lon="3.08545">
        <ele>1164.5</ele>
        <time>2022-03-26T09:47:11Z</time>
      </trkpt>
      <trkpt lat="44.77624" lon="3.08546">
        <ele>1164.2</ele>
        <time>2022-03-26T09:47:17Z</time>
      </trkpt>
      <trkpt lat="44.77632" lon="3.08548">
        <ele>1163.9</ele>
        <time>2022-03-26T09:47:22Z</time>
      </trkpt>
      <trkpt lat="44.77639" lon="3.08545">
        <ele>1163.6</ele>
        <time>2022-03-26T09:47:30Z</time>
      </trkpt>
      <trkpt lat="44.77646" lon="3.08546">
        <ele>1163.4</ele>
        <time>2022-03-26T09:47:35Z</time>
      </trkpt>
      <trkpt lat="44.7765" lon="3.08554">
        <ele>1163.2</ele>
        <time>2022-03-26T09:47:45Z</time>
      </trkpt>
      <trkpt lat="44.77646" lon="3.08562">
        <ele>1163.3</ele>
        <time>2022-03-26T09:47:50Z</time>
      </trkpt>
      <trkpt lat="44.77653" lon="3.08555">
        <ele>1163.1</ele>
        <time>2022-03-26T09:48:21Z</time>
      </trkpt>
      <trkpt lat="44.77661" lon="3.08561">
        <ele>1162.9</ele>
        <time>2022-03-26T09:52:50Z</time>
      </trkpt>
      <trkpt lat="44.77654" lon="3.08558">
        <ele>1163.1</ele>
        <time>2022-03-26T09:53:26Z</time>
      </trkpt>
      <trkpt lat="44.77647" lon="3.08552">
        <ele>1163.3</ele>
        <time>2022-03-26T09:53:31Z</time>
      </trkpt>
      <trkpt lat="44.77651" lon="3.08546">
        <ele>1163.2</ele>
        <time>2022-03-26T09:54:07Z</time>
      </trkpt>
      <trkpt lat="44.77657" lon="3.08541">
        <ele>1162.9</ele>
        <time>2022-03-26T09:54:13Z</time>
      </trkpt>
      <trkpt lat="44.77664" lon="3.08546">
        <ele>1162.7</ele>
        <time>2022-03-26T09:54:18Z</time>
      </trkpt>
      <trkpt lat="44.77671" lon="3.08548">
        <ele>1162.2</ele>
        <time>2022-03-26T09:54:24Z</time>
      </trkpt>
      <trkpt lat="44.77683" lon="3.08553">
        <ele>1161.1</ele>
        <time>2022-03-26T09:54:29Z</time>
      </trkpt>
      <trkpt lat="44.7769" lon="3.08561">
        <ele>1160.6</ele>
        <time>2022-03-26T09:54:34Z</time>
      </trkpt>
      <trkpt lat="44.77693" lon="3.0857">
        <ele>1160.4</ele>
        <time>2022-03-26T09:54:39Z</time>
      </trkpt>
      <trkpt lat="44.77695" lon="3.0858">
        <ele>1160.3</ele>
        <time>2022-03-26T09:54:46Z</time>
      </trkpt>
      <trkpt lat="44.77697" lon="3.0859">
        <ele>1160.1</ele>
        <time>2022-03-26T09:54:51Z</time>
      </trkpt>
      <trkpt lat="44.77702" lon="3.08603">
        <ele>1159.8</ele>
        <time>2022-03-26T09:54:56Z</time>
      </trkpt>
      <trkpt lat="44.77711" lon="3.08611">
        <ele>1159.1</ele>
        <time>2022-03-26T09:55:01Z</time>
      </trkpt>
      <trkpt lat="44.77718" lon="3.08613">
        <ele>1158.6</ele>
        <time>2022-03-26T09:55:07Z</time>
      </trkpt>
      <trkpt lat="44.77726" lon="3.08612">
        <ele>1157.9</ele>
        <time>2022-03-26T09:55:12Z</time>
      </trkpt>
      <trkpt lat="44.77735" lon="3.08614">
        <ele>1157.3</ele>
        <time>2022-03-26T09:55:17Z</time>
      </trkpt>
      <trkpt lat="44.77744" lon="3.08614">
        <ele>1156.6</ele>
        <time>2022-03-26T09:55:23Z</time>
      </trkpt>
      <trkpt lat="44.77752" lon="3.08612">
        <ele>1155.9</ele>
        <time>2022-03-26T09:55:29Z</time>
      </trkpt>
      <trkpt lat="44.77761" lon="3.08612">
        <ele>1155.4</ele>
        <time>2022-03-26T09:55:34Z</time>
      </trkpt>
      <trkpt lat="44.7777" lon="3.0861">
        <ele>1154.8</ele>
        <time>2022-03-26T09:55:39Z</time>
      </trkpt>
      <trkpt lat="44.77777" lon="3.0861">
        <ele>1154.4</ele>
        <time>2022-03-26T09:55:44Z</time>
      </trkpt>
      <trkpt lat="44.77785" lon="3.08608">
        <ele>1153.9</ele>
        <time>2022-03-26T09:55:49Z</time>
      </trkpt>
      <trkpt lat="44.77792" lon="3.08605">
        <ele>1153.3</ele>
        <time>2022-03-26T09:55:54Z</time>
      </trkpt>
      <trkpt lat="44.778" lon="3.08603">
        <ele>1152.7</ele>
        <time>2022-03-26T09:55:59Z</time>
      </trkpt>
      <trkpt lat="44.77808" lon="3.086">
        <ele>1152</ele>
        <time>2022-03-26T09:56:04Z</time>
      </trkpt>
      <trkpt lat="44.77816" lon="3.08599">
        <ele>1151.4</ele>
        <time>2022-03-26T09:56:09Z</time>
      </trkpt>
      <trkpt lat="44.77823" lon="3.08597">
        <ele>1150.8</ele>
        <time>2022-03-26T09:56:14Z</time>
      </trkpt>
      <trkpt lat="44.77831" lon="3.08594">
        <ele>1150</ele>
        <time>2022-03-26T09:56:19Z</time>
      </trkpt>
      <trkpt lat="44.77839" lon="3.08592">
        <ele>1149.4</ele>
        <time>2022-03-26T09:56:24Z</time>
      </trkpt>
      <trkpt lat="44.77846" lon="3.08591">
        <ele>1149</ele>
        <time>2022-03-26T09:56:29Z</time>
      </trkpt>
      <trkpt lat="44.77855" lon="3.08588">
        <ele>1148.3</ele>
        <time>2022-03-26T09:56:35Z</time>
      </trkpt>
      <trkpt lat="44.77864" lon="3.08588">
        <ele>1147.9</ele>
        <time>2022-03-26T09:56:40Z</time>
      </trkpt>
      <trkpt lat="44.77872" lon="3.08588">
        <ele>1147.5</ele>
        <time>2022-03-26T09:56:46Z</time>
      </trkpt>
      <trkpt lat="44.77878" lon="3.08585">
        <ele>1147</ele>
        <time>2022-03-26T09:56:54Z</time>
      </trkpt>
      <trkpt lat="44.77885" lon="3.0858">
        <ele>1146.4</ele>
        <time>2022-03-26T09:56:59Z</time>
      </trkpt>
      <trkpt lat="44.77891" lon="3.08576">
        <ele>1145.9</ele>
        <time>2022-03-26T09:57:04Z</time>
      </trkpt>
      <trkpt lat="44.77895" lon="3.08569">
        <ele>1145.4</ele>
        <time>2022-03-26T09:57:09Z</time>
      </trkpt>
      <trkpt lat="44.77901" lon="3.08564">
        <ele>1144.9</ele>
        <time>2022-03-26T09:57:14Z</time>
      </trkpt>
      <trkpt lat="44.77908" lon="3.08558">
        <ele>1144.2</ele>
        <time>2022-03-26T09:57:19Z</time>
      </trkpt>
      <trkpt lat="44.77919" lon="3.08547">
        <ele>1143.2</ele>
        <time>2022-03-26T09:57:24Z</time>
      </trkpt>
      <trkpt lat="44.77931" lon="3.08543">
        <ele>1142.5</ele>
        <time>2022-03-26T09:57:29Z</time>
      </trkpt>
      <trkpt lat="44.77937" lon="3.08535">
        <ele>1142</ele>
        <time>2022-03-26T09:57:34Z</time>
      </trkpt>
      <trkpt lat="44.77944" lon="3.08529">
        <ele>1141.6</ele>
        <time>2022-03-26T09:57:39Z</time>
      </trkpt>
      <trkpt lat="44.77955" lon="3.0852">
        <ele>1141.1</ele>
        <time>2022-03-26T09:57:44Z</time>
      </trkpt>
      <trkpt lat="44.77958" lon="3.08511">
        <ele>1140.8</ele>
        <time>2022-03-26T09:57:51Z</time>
      </trkpt>
      <trkpt lat="44.77961" lon="3.08502">
        <ele>1140.5</ele>
        <time>2022-03-26T09:58:04Z</time>
      </trkpt>
      <trkpt lat="44.77966" lon="3.08494">
        <ele>1140.2</ele>
        <time>2022-03-26T09:58:09Z</time>
      </trkpt>
      <trkpt lat="44.77973" lon="3.08486">
        <ele>1139.8</ele>
        <time>2022-03-26T09:58:14Z</time>
      </trkpt>
      <trkpt lat="44.77978" lon="3.0848">
        <ele>1139.5</ele>
        <time>2022-03-26T09:58:19Z</time>
      </trkpt>
      <trkpt lat="44.77984" lon="3.0847">
        <ele>1139</ele>
        <time>2022-03-26T09:58:24Z</time>
      </trkpt>
      <trkpt lat="44.77991" lon="3.08464">
        <ele>1138.5</ele>
        <time>2022-03-26T09:58:29Z</time>
      </trkpt>
      <trkpt lat="44.77995" lon="3.08457">
        <ele>1138.1</ele>
        <time>2022-03-26T09:58:34Z</time>
      </trkpt>
      <trkpt lat="44.78" lon="3.08449">
        <ele>1137.6</ele>
        <time>2022-03-26T09:58:39Z</time>
      </trkpt>
      <trkpt lat="44.78005" lon="3.0844">
        <ele>1136.7</ele>
        <time>2022-03-26T09:58:44Z</time>
      </trkpt>
      <trkpt lat="44.78011" lon="3.0843">
        <ele>1135.7</ele>
        <time>2022-03-26T09:58:49Z</time>
      </trkpt>
      <trkpt lat="44.78017" lon="3.08424">
        <ele>1134.9</ele>
        <time>2022-03-26T09:58:54Z</time>
      </trkpt>
      <trkpt lat="44.78024" lon="3.08422">
        <ele>1134.2</ele>
        <time>2022-03-26T09:59:02Z</time>
      </trkpt>
      <trkpt lat="44.78034" lon="3.08424">
        <ele>1133.5</ele>
        <time>2022-03-26T09:59:07Z</time>
      </trkpt>
      <trkpt lat="44.78042" lon="3.08421">
        <ele>1132.7</ele>
        <time>2022-03-26T09:59:12Z</time>
      </trkpt>
      <trkpt lat="44.78052" lon="3.08418">
        <ele>1131.7</ele>
        <time>2022-03-26T09:59:17Z</time>
      </trkpt>
      <trkpt lat="44.7806" lon="3.08413">
        <ele>1130.9</ele>
        <time>2022-03-26T09:59:22Z</time>
      </trkpt>
      <trkpt lat="44.78067" lon="3.0841">
        <ele>1130.2</ele>
        <time>2022-03-26T09:59:27Z</time>
      </trkpt>
      <trkpt lat="44.7808" lon="3.08403">
        <ele>1129</ele>
        <time>2022-03-26T09:59:32Z</time>
      </trkpt>
      <trkpt lat="44.78088" lon="3.08396">
        <ele>1128.3</ele>
        <time>2022-03-26T09:59:37Z</time>
      </trkpt>
      <trkpt lat="44.78095" lon="3.08391">
        <ele>1127.9</ele>
        <time>2022-03-26T09:59:42Z</time>
      </trkpt>
      <trkpt lat="44.781" lon="3.08384">
        <ele>1127.5</ele>
        <time>2022-03-26T09:59:47Z</time>
      </trkpt>
      <trkpt lat="44.78105" lon="3.08376">
        <ele>1127</ele>
        <time>2022-03-26T09:59:52Z</time>
      </trkpt>
      <trkpt lat="44.7811" lon="3.08369">
        <ele>1126.5</ele>
        <time>2022-03-26T09:59:57Z</time>
      </trkpt>
      <trkpt lat="44.78116" lon="3.08362">
        <ele>1125.9</ele>
        <time>2022-03-26T10:00:02Z</time>
      </trkpt>
      <trkpt lat="44.78121" lon="3.08355">
        <ele>1125.3</ele>
        <time>2022-03-26T10:00:08Z</time>
      </trkpt>
      <trkpt lat="44.78125" lon="3.08347">
        <ele>1124.7</ele>
        <time>2022-03-26T10:00:13Z</time>
      </trkpt>
      <trkpt lat="44.78134" lon="3.08339">
        <ele>1123.7</ele>
        <time>2022-03-26T10:00:18Z</time>
      </trkpt>
      <trkpt lat="44.78137" lon="3.0833">
        <ele>1123</ele>
        <time>2022-03-26T10:00:23Z</time>
      </trkpt>
      <trkpt lat="44.78144" lon="3.08326">
        <ele>1122.4</ele>
        <time>2022-03-26T10:00:28Z</time>
      </trkpt>
      <trkpt lat="44.78148" lon="3.08317">
        <ele>1121.9</ele>
        <time>2022-03-26T10:00:33Z</time>
      </trkpt>
      <trkpt lat="44.78154" lon="3.08309">
        <ele>1121.3</ele>
        <time>2022-03-26T10:00:38Z</time>
      </trkpt>
      <trkpt lat="44.7816" lon="3.08302">
        <ele>1120.7</ele>
        <time>2022-03-26T10:00:43Z</time>
      </trkpt>
      <trkpt lat="44.78167" lon="3.08292">
        <ele>1120</ele>
        <time>2022-03-26T10:00:48Z</time>
      </trkpt>
      <trkpt lat="44.78175" lon="3.08286">
        <ele>1119.8</ele>
        <time>2022-03-26T10:00:53Z</time>
      </trkpt>
      <trkpt lat="44.78182" lon="3.08277">
        <ele>1119.5</ele>
        <time>2022-03-26T10:00:58Z</time>
      </trkpt>
      <trkpt lat="44.78189" lon="3.0827">
        <ele>1119.4</ele>
        <time>2022-03-26T10:01:03Z</time>
      </trkpt>
      <trkpt lat="44.78194" lon="3.08262">
        <ele>1119.2</ele>
        <time>2022-03-26T10:01:08Z</time>
      </trkpt>
      <trkpt lat="44.78199" lon="3.08255">
        <ele>1119.1</ele>
        <time>2022-03-26T10:01:13Z</time>
      </trkpt>
      <trkpt lat="44.78203" lon="3.08245">
        <ele>1119</ele>
        <time>2022-03-26T10:01:18Z</time>
      </trkpt>
      <trkpt lat="44.7821" lon="3.08235">
        <ele>1119</ele>
        <time>2022-03-26T10:01:23Z</time>
      </trkpt>
      <trkpt lat="44.78215" lon="3.08227">
        <ele>1118.9</ele>
        <time>2022-03-26T10:01:28Z</time>
      </trkpt>
      <trkpt lat="44.78219" lon="3.08219">
        <ele>1118.8</ele>
        <time>2022-03-26T10:01:33Z</time>
      </trkpt>
      <trkpt lat="44.78225" lon="3.08213">
        <ele>1118.6</ele>
        <time>2022-03-26T10:01:38Z</time>
      </trkpt>
      <trkpt lat="44.78233" lon="3.08215">
        <ele>1118.5</ele>
        <time>2022-03-26T10:01:47Z</time>
      </trkpt>
      <trkpt lat="44.78239" lon="3.08217">
        <ele>1118.4</ele>
        <time>2022-03-26T10:01:52Z</time>
      </trkpt>
      <trkpt lat="44.78241" lon="3.0823">
        <ele>1118.6</ele>
        <time>2022-03-26T10:02:08Z</time>
      </trkpt>
      <trkpt lat="44.78233" lon="3.08239">
        <ele>1118.8</ele>
        <time>2022-03-26T10:02:13Z</time>
      </trkpt>
      <trkpt lat="44.78229" lon="3.08248">
        <ele>1119</ele>
        <time>2022-03-26T10:02:21Z</time>
      </trkpt>
      <trkpt lat="44.78227" lon="3.08257">
        <ele>1119</ele>
        <time>2022-03-26T10:02:26Z</time>
      </trkpt>
      <trkpt lat="44.78223" lon="3.08265">
        <ele>1119.1</ele>
        <time>2022-03-26T10:02:31Z</time>
      </trkpt>
      <trkpt lat="44.78221" lon="3.08275">
        <ele>1119.2</ele>
        <time>2022-03-26T10:02:36Z</time>
      </trkpt>
      <trkpt lat="44.78216" lon="3.08286">
        <ele>1119.4</ele>
        <time>2022-03-26T10:02:41Z</time>
      </trkpt>
      <trkpt lat="44.78212" lon="3.08295">
        <ele>1119.5</ele>
        <time>2022-03-26T10:02:47Z</time>
      </trkpt>
      <trkpt lat="44.78209" lon="3.08306">
        <ele>1119.7</ele>
        <time>2022-03-26T10:02:52Z</time>
      </trkpt>
      <trkpt lat="44.78204" lon="3.08318">
        <ele>1119.9</ele>
        <time>2022-03-26T10:02:57Z</time>
      </trkpt>
      <trkpt lat="44.78201" lon="3.0833">
        <ele>1120.1</ele>
        <time>2022-03-26T10:03:02Z</time>
      </trkpt>
      <trkpt lat="44.78199" lon="3.0834">
        <ele>1120.7</ele>
        <time>2022-03-26T10:03:07Z</time>
      </trkpt>
      <trkpt lat="44.78195" lon="3.08349">
        <ele>1121.4</ele>
        <time>2022-03-26T10:03:12Z</time>
      </trkpt>
      <trkpt lat="44.78194" lon="3.08359">
        <ele>1122.2</ele>
        <time>2022-03-26T10:03:18Z</time>
      </trkpt>
      <trkpt lat="44.78192" lon="3.08371">
        <ele>1123.1</ele>
        <time>2022-03-26T10:03:23Z</time>
      </trkpt>
      <trkpt lat="44.78191" lon="3.08381">
        <ele>1123.8</ele>
        <time>2022-03-26T10:03:28Z</time>
      </trkpt>
      <trkpt lat="44.78193" lon="3.08394">
        <ele>1124.7</ele>
        <time>2022-03-26T10:03:33Z</time>
      </trkpt>
      <trkpt lat="44.78192" lon="3.08404">
        <ele>1125.5</ele>
        <time>2022-03-26T10:03:38Z</time>
      </trkpt>
      <trkpt lat="44.78191" lon="3.08415">
        <ele>1126.3</ele>
        <time>2022-03-26T10:03:43Z</time>
      </trkpt>
      <trkpt lat="44.7819" lon="3.08427">
        <ele>1126.5</ele>
        <time>2022-03-26T10:03:48Z</time>
      </trkpt>
      <trkpt lat="44.7819" lon="3.08437">
        <ele>1126.5</ele>
        <time>2022-03-26T10:03:53Z</time>
      </trkpt>
      <trkpt lat="44.78191" lon="3.0845">
        <ele>1126.5</ele>
        <time>2022-03-26T10:03:58Z</time>
      </trkpt>
      <trkpt lat="44.78191" lon="3.08463">
        <ele>1126.5</ele>
        <time>2022-03-26T10:04:03Z</time>
      </trkpt>
      <trkpt lat="44.78191" lon="3.08473">
        <ele>1126.5</ele>
        <time>2022-03-26T10:04:08Z</time>
      </trkpt>
      <trkpt lat="44.78191" lon="3.08485">
        <ele>1126.5</ele>
        <time>2022-03-26T10:04:13Z</time>
      </trkpt>
      <trkpt lat="44.78191" lon="3.08497">
        <ele>1126.5</ele>
        <time>2022-03-26T10:04:18Z</time>
      </trkpt>
      <trkpt lat="44.78192" lon="3.08508">
        <ele>1125.3</ele>
        <time>2022-03-26T10:04:23Z</time>
      </trkpt>
      <trkpt lat="44.78193" lon="3.08519">
        <ele>1123.7</ele>
        <time>2022-03-26T10:04:28Z</time>
      </trkpt>
      <trkpt lat="44.78196" lon="3.08529">
        <ele>1122.1</ele>
        <time>2022-03-26T10:04:33Z</time>
      </trkpt>
      <trkpt lat="44.782" lon="3.08543">
        <ele>1119.9</ele>
        <time>2022-03-26T10:04:38Z</time>
      </trkpt>
      <trkpt lat="44.782" lon="3.08553">
        <ele>1118.5</ele>
        <time>2022-03-26T10:04:44Z</time>
      </trkpt>
      <trkpt lat="44.78202" lon="3.08562">
        <ele>1117.2</ele>
        <time>2022-03-26T10:04:49Z</time>
      </trkpt>
      <trkpt lat="44.782" lon="3.08571">
        <ele>1115.9</ele>
        <time>2022-03-26T10:04:54Z</time>
      </trkpt>
      <trkpt lat="44.78193" lon="3.08582">
        <ele>1114.6</ele>
        <time>2022-03-26T10:04:59Z</time>
      </trkpt>
      <trkpt lat="44.78189" lon="3.08593">
        <ele>1114.1</ele>
        <time>2022-03-26T10:05:04Z</time>
      </trkpt>
      <trkpt lat="44.78185" lon="3.08602">
        <ele>1113.9</ele>
        <time>2022-03-26T10:05:09Z</time>
      </trkpt>
      <trkpt lat="44.78182" lon="3.08615">
        <ele>1113.6</ele>
        <time>2022-03-26T10:05:14Z</time>
      </trkpt>
      <trkpt lat="44.78181" lon="3.08626">
        <ele>1113.3</ele>
        <time>2022-03-26T10:05:20Z</time>
      </trkpt>
      <trkpt lat="44.78183" lon="3.08636">
        <ele>1112.8</ele>
        <time>2022-03-26T10:05:25Z</time>
      </trkpt>
      <trkpt lat="44.78186" lon="3.08649">
        <ele>1112.2</ele>
        <time>2022-03-26T10:05:30Z</time>
      </trkpt>
      <trkpt lat="44.7819" lon="3.08657">
        <ele>1111.7</ele>
        <time>2022-03-26T10:05:35Z</time>
      </trkpt>
      <trkpt lat="44.78194" lon="3.08668">
        <ele>1111.1</ele>
        <time>2022-03-26T10:05:40Z</time>
      </trkpt>
      <trkpt lat="44.78196" lon="3.08677">
        <ele>1111.8</ele>
        <time>2022-03-26T10:05:45Z</time>
      </trkpt>
      <trkpt lat="44.78198" lon="3.08686">
        <ele>1112.5</ele>
        <time>2022-03-26T10:05:50Z</time>
      </trkpt>
      <trkpt lat="44.78201" lon="3.08695">
        <ele>1113.1</ele>
        <time>2022-03-26T10:05:55Z</time>
      </trkpt>
      <trkpt lat="44.78206" lon="3.08703">
        <ele>1113.6</ele>
        <time>2022-03-26T10:06:00Z</time>
      </trkpt>
      <trkpt lat="44.78212" lon="3.08708">
        <ele>1113.8</ele>
        <time>2022-03-26T10:06:06Z</time>
      </trkpt>
      <trkpt lat="44.78217" lon="3.08714">
        <ele>1114.2</ele>
        <time>2022-03-26T10:06:14Z</time>
      </trkpt>
      <trkpt lat="44.78224" lon="3.08712">
        <ele>1113.6</ele>
        <time>2022-03-26T10:06:30Z</time>
      </trkpt>
      <trkpt lat="44.78232" lon="3.08713">
        <ele>1113.4</ele>
        <time>2022-03-26T10:06:36Z</time>
      </trkpt>
      <trkpt lat="44.7824" lon="3.08714">
        <ele>1113.1</ele>
        <time>2022-03-26T10:06:42Z</time>
      </trkpt>
      <trkpt lat="44.78248" lon="3.08715">
        <ele>1112.9</ele>
        <time>2022-03-26T10:06:47Z</time>
      </trkpt>
      <trkpt lat="44.78255" lon="3.08718">
        <ele>1112.9</ele>
        <time>2022-03-26T10:06:53Z</time>
      </trkpt>
      <trkpt lat="44.78262" lon="3.08718">
        <ele>1112.6</ele>
        <time>2022-03-26T10:07:32Z</time>
      </trkpt>
      <trkpt lat="44.78266" lon="3.08726">
        <ele>1113.3</ele>
        <time>2022-03-26T10:07:39Z</time>
      </trkpt>
      <trkpt lat="44.78271" lon="3.08734">
        <ele>1113.9</ele>
        <time>2022-03-26T10:07:45Z</time>
      </trkpt>
      <trkpt lat="44.78277" lon="3.08741">
        <ele>1114.4</ele>
        <time>2022-03-26T10:07:50Z</time>
      </trkpt>
      <trkpt lat="44.78284" lon="3.08749">
        <ele>1114.8</ele>
        <time>2022-03-26T10:07:55Z</time>
      </trkpt>
      <trkpt lat="44.78289" lon="3.08757">
        <ele>1115.4</ele>
        <time>2022-03-26T10:08:00Z</time>
      </trkpt>
      <trkpt lat="44.78294" lon="3.08765">
        <ele>1116.1</ele>
        <time>2022-03-26T10:08:05Z</time>
      </trkpt>
      <trkpt lat="44.78301" lon="3.08771">
        <ele>1116.4</ele>
        <time>2022-03-26T10:08:10Z</time>
      </trkpt>
      <trkpt lat="44.78306" lon="3.08779">
        <ele>1117.1</ele>
        <time>2022-03-26T10:08:15Z</time>
      </trkpt>
      <trkpt lat="44.7831" lon="3.08786">
        <ele>1117.8</ele>
        <time>2022-03-26T10:08:20Z</time>
      </trkpt>
      <trkpt lat="44.78315" lon="3.08795">
        <ele>1118.7</ele>
        <time>2022-03-26T10:08:25Z</time>
      </trkpt>
      <trkpt lat="44.78321" lon="3.08805">
        <ele>1119.7</ele>
        <time>2022-03-26T10:08:30Z</time>
      </trkpt>
      <trkpt lat="44.78326" lon="3.08814">
        <ele>1120.7</ele>
        <time>2022-03-26T10:08:36Z</time>
      </trkpt>
      <trkpt lat="44.78332" lon="3.08821">
        <ele>1121.4</ele>
        <time>2022-03-26T10:08:41Z</time>
      </trkpt>
      <trkpt lat="44.78334" lon="3.08832">
        <ele>1122.7</ele>
        <time>2022-03-26T10:08:46Z</time>
      </trkpt>
      <trkpt lat="44.78332" lon="3.08842">
        <ele>1123.1</ele>
        <time>2022-03-26T10:08:51Z</time>
      </trkpt>
      <trkpt lat="44.78332" lon="3.08851">
        <ele>1123.3</ele>
        <time>2022-03-26T10:08:57Z</time>
      </trkpt>
      <trkpt lat="44.78329" lon="3.08861">
        <ele>1123.5</ele>
        <time>2022-03-26T10:09:02Z</time>
      </trkpt>
      <trkpt lat="44.78326" lon="3.0887">
        <ele>1123.7</ele>
        <time>2022-03-26T10:09:07Z</time>
      </trkpt>
      <trkpt lat="44.78325" lon="3.0888">
        <ele>1123.9</ele>
        <time>2022-03-26T10:09:12Z</time>
      </trkpt>
      <trkpt lat="44.7832" lon="3.08887">
        <ele>1124.3</ele>
        <time>2022-03-26T10:09:50Z</time>
      </trkpt>
      <trkpt lat="44.78315" lon="3.08894">
        <ele>1124.6</ele>
        <time>2022-03-26T10:09:55Z</time>
      </trkpt>
      <trkpt lat="44.78311" lon="3.08902">
        <ele>1125</ele>
        <time>2022-03-26T10:10:01Z</time>
      </trkpt>
      <trkpt lat="44.78311" lon="3.08913">
        <ele>1125.3</ele>
        <time>2022-03-26T10:10:06Z</time>
      </trkpt>
      <trkpt lat="44.78306" lon="3.08919">
        <ele>1125.7</ele>
        <time>2022-03-26T10:10:12Z</time>
      </trkpt>
      <trkpt lat="44.78307" lon="3.08928">
        <ele>1125.7</ele>
        <time>2022-03-26T10:10:17Z</time>
      </trkpt>
      <trkpt lat="44.78305" lon="3.08939">
        <ele>1126</ele>
        <time>2022-03-26T10:10:22Z</time>
      </trkpt>
      <trkpt lat="44.78305" lon="3.0893">
        <ele>1125.9</ele>
        <time>2022-03-26T10:10:31Z</time>
      </trkpt>
      <trkpt lat="44.78301" lon="3.08938">
        <ele>1126.2</ele>
        <time>2022-03-26T10:10:49Z</time>
      </trkpt>
      <trkpt lat="44.783" lon="3.08948">
        <ele>1126.4</ele>
        <time>2022-03-26T10:10:55Z</time>
      </trkpt>
      <trkpt lat="44.78299" lon="3.08958">
        <ele>1126.6</ele>
        <time>2022-03-26T10:11:01Z</time>
      </trkpt>
      <trkpt lat="44.78301" lon="3.08969">
        <ele>1126.6</ele>
        <time>2022-03-26T10:11:06Z</time>
      </trkpt>
      <trkpt lat="44.78304" lon="3.0898">
        <ele>1126.5</ele>
        <time>2022-03-26T10:11:11Z</time>
      </trkpt>
      <trkpt lat="44.78309" lon="3.0899">
        <ele>1126.3</ele>
        <time>2022-03-26T10:11:16Z</time>
      </trkpt>
      <trkpt lat="44.78312" lon="3.08999">
        <ele>1126.3</ele>
        <time>2022-03-26T10:11:21Z</time>
      </trkpt>
      <trkpt lat="44.78314" lon="3.09009">
        <ele>1127.1</ele>
        <time>2022-03-26T10:11:26Z</time>
      </trkpt>
      <trkpt lat="44.78316" lon="3.09019">
        <ele>1128</ele>
        <time>2022-03-26T10:11:33Z</time>
      </trkpt>
      <trkpt lat="44.7832" lon="3.09032">
        <ele>1129.1</ele>
        <time>2022-03-26T10:11:38Z</time>
      </trkpt>
      <trkpt lat="44.78322" lon="3.09042">
        <ele>1130.1</ele>
        <time>2022-03-26T10:11:43Z</time>
      </trkpt>
      <trkpt lat="44.78326" lon="3.09052">
        <ele>1130.9</ele>
        <time>2022-03-26T10:11:48Z</time>
      </trkpt>
      <trkpt lat="44.78328" lon="3.09061">
        <ele>1131.8</ele>
        <time>2022-03-26T10:11:53Z</time>
      </trkpt>
      <trkpt lat="44.78328" lon="3.0907">
        <ele>1132.8</ele>
        <time>2022-03-26T10:11:58Z</time>
      </trkpt>
      <trkpt lat="44.78328" lon="3.0908">
        <ele>1133.8</ele>
        <time>2022-03-26T10:12:03Z</time>
      </trkpt>
      <trkpt lat="44.78331" lon="3.09091">
        <ele>1134.5</ele>
        <time>2022-03-26T10:12:08Z</time>
      </trkpt>
      <trkpt lat="44.78332" lon="3.09104">
        <ele>1135.3</ele>
        <time>2022-03-26T10:12:13Z</time>
      </trkpt>
      <trkpt lat="44.78336" lon="3.09117">
        <ele>1135.5</ele>
        <time>2022-03-26T10:12:18Z</time>
      </trkpt>
      <trkpt lat="44.78338" lon="3.0913">
        <ele>1136</ele>
        <time>2022-03-26T10:12:23Z</time>
      </trkpt>
      <trkpt lat="44.78342" lon="3.09138">
        <ele>1135.7</ele>
        <time>2022-03-26T10:12:28Z</time>
      </trkpt>
      <trkpt lat="44.78345" lon="3.09148">
        <ele>1135.7</ele>
        <time>2022-03-26T10:12:33Z</time>
      </trkpt>
      <trkpt lat="44.78346" lon="3.09159">
        <ele>1136.1</ele>
        <time>2022-03-26T10:12:38Z</time>
      </trkpt>
      <trkpt lat="44.78349" lon="3.09168">
        <ele>1136</ele>
        <time>2022-03-26T10:12:43Z</time>
      </trkpt>
      <trkpt lat="44.78352" lon="3.09182">
        <ele>1135.1</ele>
        <time>2022-03-26T10:12:48Z</time>
      </trkpt>
      <trkpt lat="44.78353" lon="3.09192">
        <ele>1134.7</ele>
        <time>2022-03-26T10:12:54Z</time>
      </trkpt>
      <trkpt lat="44.78358" lon="3.09201">
        <ele>1133.8</ele>
        <time>2022-03-26T10:12:59Z</time>
      </trkpt>
      <trkpt lat="44.78363" lon="3.09208">
        <ele>1132.9</ele>
        <time>2022-03-26T10:13:04Z</time>
      </trkpt>
      <trkpt lat="44.78366" lon="3.09218">
        <ele>1132.3</ele>
        <time>2022-03-26T10:13:09Z</time>
      </trkpt>
      <trkpt lat="44.78368" lon="3.09228">
        <ele>1132</ele>
        <time>2022-03-26T10:13:14Z</time>
      </trkpt>
      <trkpt lat="44.78371" lon="3.09237">
        <ele>1131.5</ele>
        <time>2022-03-26T10:13:19Z</time>
      </trkpt>
      <trkpt lat="44.7837" lon="3.09247">
        <ele>1131.6</ele>
        <time>2022-03-26T10:13:25Z</time>
      </trkpt>
      <trkpt lat="44.78366" lon="3.09255">
        <ele>1131.8</ele>
        <time>2022-03-26T10:13:34Z</time>
      </trkpt>
      <trkpt lat="44.78361" lon="3.09261">
        <ele>1132</ele>
        <time>2022-03-26T10:13:41Z</time>
      </trkpt>
      <trkpt lat="44.78355" lon="3.09267">
        <ele>1132.3</ele>
        <time>2022-03-26T10:13:46Z</time>
      </trkpt>
      <trkpt lat="44.78351" lon="3.09275">
        <ele>1132.3</ele>
        <time>2022-03-26T10:13:51Z</time>
      </trkpt>
      <trkpt lat="44.78348" lon="3.09284">
        <ele>1132.1</ele>
        <time>2022-03-26T10:13:57Z</time>
      </trkpt>
      <trkpt lat="44.78344" lon="3.09292">
        <ele>1132.1</ele>
        <time>2022-03-26T10:14:02Z</time>
      </trkpt>
      <trkpt lat="44.78339" lon="3.093">
        <ele>1132.3</ele>
        <time>2022-03-26T10:14:07Z</time>
      </trkpt>
      <trkpt lat="44.78334" lon="3.09307">
        <ele>1132.5</ele>
        <time>2022-03-26T10:14:12Z</time>
      </trkpt>
      <trkpt lat="44.78327" lon="3.09317">
        <ele>1132.4</ele>
        <time>2022-03-26T10:14:17Z</time>
      </trkpt>
      <trkpt lat="44.78321" lon="3.09323">
        <ele>1132.5</ele>
        <time>2022-03-26T10:14:22Z</time>
      </trkpt>
      <trkpt lat="44.78315" lon="3.09329">
        <ele>1132.6</ele>
        <time>2022-03-26T10:14:27Z</time>
      </trkpt>
      <trkpt lat="44.78305" lon="3.09335">
        <ele>1132.8</ele>
        <time>2022-03-26T10:14:32Z</time>
      </trkpt>
      <trkpt lat="44.78299" lon="3.0934">
        <ele>1132.6</ele>
        <time>2022-03-26T10:14:37Z</time>
      </trkpt>
      <trkpt lat="44.78292" lon="3.09346">
        <ele>1132.4</ele>
        <time>2022-03-26T10:14:42Z</time>
      </trkpt>
      <trkpt lat="44.78284" lon="3.09348">
        <ele>1132.7</ele>
        <time>2022-03-26T10:14:47Z</time>
      </trkpt>
      <trkpt lat="44.78277" lon="3.09351">
        <ele>1132.8</ele>
        <time>2022-03-26T10:14:53Z</time>
      </trkpt>
      <trkpt lat="44.78269" lon="3.09358">
        <ele>1132.4</ele>
        <time>2022-03-26T10:14:58Z</time>
      </trkpt>
      <trkpt lat="44.78262" lon="3.09362">
        <ele>1132.4</ele>
        <time>2022-03-26T10:15:03Z</time>
      </trkpt>
      <trkpt lat="44.78254" lon="3.09366">
        <ele>1132.4</ele>
        <time>2022-03-26T10:15:08Z</time>
      </trkpt>
      <trkpt lat="44.78248" lon="3.09371">
        <ele>1131.9</ele>
        <time>2022-03-26T10:15:13Z</time>
      </trkpt>
      <trkpt lat="44.78237" lon="3.09372">
        <ele>1131.4</ele>
        <time>2022-03-26T10:15:18Z</time>
      </trkpt>
      <trkpt lat="44.78231" lon="3.09379">
        <ele>1130.4</ele>
        <time>2022-03-26T10:15:25Z</time>
      </trkpt>
      <trkpt lat="44.78224" lon="3.09384">
        <ele>1129.6</ele>
        <time>2022-03-26T10:15:30Z</time>
      </trkpt>
      <trkpt lat="44.78218" lon="3.09389">
        <ele>1128.9</ele>
        <time>2022-03-26T10:15:35Z</time>
      </trkpt>
      <trkpt lat="44.78211" lon="3.09393">
        <ele>1128.3</ele>
        <time>2022-03-26T10:15:41Z</time>
      </trkpt>
      <trkpt lat="44.78205" lon="3.09398">
        <ele>1127.7</ele>
        <time>2022-03-26T10:15:46Z</time>
      </trkpt>
      <trkpt lat="44.78195" lon="3.09404">
        <ele>1127.1</ele>
        <time>2022-03-26T10:15:51Z</time>
      </trkpt>
      <trkpt lat="44.78189" lon="3.09409">
        <ele>1126.6</ele>
        <time>2022-03-26T10:15:56Z</time>
      </trkpt>
      <trkpt lat="44.78183" lon="3.09417">
        <ele>1126</ele>
        <time>2022-03-26T10:16:01Z</time>
      </trkpt>
      <trkpt lat="44.78175" lon="3.09425">
        <ele>1125.8</ele>
        <time>2022-03-26T10:16:06Z</time>
      </trkpt>
      <trkpt lat="44.78169" lon="3.09435">
        <ele>1125.5</ele>
        <time>2022-03-26T10:16:11Z</time>
      </trkpt>
      <trkpt lat="44.78165" lon="3.09445">
        <ele>1125.4</ele>
        <time>2022-03-26T10:16:16Z</time>
      </trkpt>
      <trkpt lat="44.7816" lon="3.09453">
        <ele>1125.5</ele>
        <time>2022-03-26T10:16:21Z</time>
      </trkpt>
      <trkpt lat="44.78154" lon="3.09463">
        <ele>1125.5</ele>
        <time>2022-03-26T10:16:26Z</time>
      </trkpt>
      <trkpt lat="44.78149" lon="3.09474">
        <ele>1125.4</ele>
        <time>2022-03-26T10:16:31Z</time>
      </trkpt>
      <trkpt lat="44.78147" lon="3.09484">
        <ele>1125.1</ele>
        <time>2022-03-26T10:16:38Z</time>
      </trkpt>
      <trkpt lat="44.78142" lon="3.09491">
        <ele>1125</ele>
        <time>2022-03-26T10:16:43Z</time>
      </trkpt>
      <trkpt lat="44.78136" lon="3.095">
        <ele>1124.7</ele>
        <time>2022-03-26T10:16:48Z</time>
      </trkpt>
      <trkpt lat="44.78132" lon="3.09508">
        <ele>1125.3</ele>
        <time>2022-03-26T10:16:53Z</time>
      </trkpt>
      <trkpt lat="44.78126" lon="3.09518">
        <ele>1126</ele>
        <time>2022-03-26T10:16:58Z</time>
      </trkpt>
      <trkpt lat="44.7812" lon="3.09526">
        <ele>1126.8</ele>
        <time>2022-03-26T10:17:03Z</time>
      </trkpt>
      <trkpt lat="44.78117" lon="3.09535">
        <ele>1127.5</ele>
        <time>2022-03-26T10:17:08Z</time>
      </trkpt>
      <trkpt lat="44.78113" lon="3.09544">
        <ele>1128.2</ele>
        <time>2022-03-26T10:17:14Z</time>
      </trkpt>
      <trkpt lat="44.7811" lon="3.09553">
        <ele>1129</ele>
        <time>2022-03-26T10:17:19Z</time>
      </trkpt>
      <trkpt lat="44.78108" lon="3.09561">
        <ele>1129.7</ele>
        <time>2022-03-26T10:17:24Z</time>
      </trkpt>
      <trkpt lat="44.78104" lon="3.0957">
        <ele>1130.6</ele>
        <time>2022-03-26T10:17:29Z</time>
      </trkpt>
      <trkpt lat="44.781" lon="3.09579">
        <ele>1131.5</ele>
        <time>2022-03-26T10:17:34Z</time>
      </trkpt>
      <trkpt lat="44.78095" lon="3.09585">
        <ele>1132.4</ele>
        <time>2022-03-26T10:17:40Z</time>
      </trkpt>
      <trkpt lat="44.78089" lon="3.09591">
        <ele>1133.6</ele>
        <time>2022-03-26T10:17:49Z</time>
      </trkpt>
      <trkpt lat="44.78082" lon="3.0959">
        <ele>1133.9</ele>
        <time>2022-03-26T10:17:55Z</time>
      </trkpt>
      <trkpt lat="44.78076" lon="3.0959">
        <ele>1134</ele>
        <time>2022-03-26T10:18:02Z</time>
      </trkpt>
      <trkpt lat="44.78069" lon="3.09591">
        <ele>1134.2</ele>
        <time>2022-03-26T10:18:09Z</time>
      </trkpt>
      <trkpt lat="44.78062" lon="3.09592">
        <ele>1134.3</ele>
        <time>2022-03-26T10:18:15Z</time>
      </trkpt>
      <trkpt lat="44.78055" lon="3.09593">
        <ele>1134.5</ele>
        <time>2022-03-26T10:18:22Z</time>
      </trkpt>
      <trkpt lat="44.78048" lon="3.09593">
        <ele>1134.6</ele>
        <time>2022-03-26T10:18:28Z</time>
      </trkpt>
      <trkpt lat="44.78041" lon="3.09596">
        <ele>1135</ele>
        <time>2022-03-26T10:18:36Z</time>
      </trkpt>
      <trkpt lat="44.78033" lon="3.09597">
        <ele>1135.2</ele>
        <time>2022-03-26T10:18:42Z</time>
      </trkpt>
      <trkpt lat="44.78027" lon="3.09598">
        <ele>1135.4</ele>
        <time>2022-03-26T10:18:48Z</time>
      </trkpt>
      <trkpt lat="44.78019" lon="3.09598">
        <ele>1135.4</ele>
        <time>2022-03-26T10:18:53Z</time>
      </trkpt>
      <trkpt lat="44.78012" lon="3.09601">
        <ele>1135.8</ele>
        <time>2022-03-26T10:18:59Z</time>
      </trkpt>
      <trkpt lat="44.78004" lon="3.09599">
        <ele>1135.7</ele>
        <time>2022-03-26T10:19:04Z</time>
      </trkpt>
      <trkpt lat="44.77998" lon="3.09603">
        <ele>1136.2</ele>
        <time>2022-03-26T10:19:10Z</time>
      </trkpt>
      <trkpt lat="44.77998" lon="3.09612">
        <ele>1137.1</ele>
        <time>2022-03-26T10:19:29Z</time>
      </trkpt>
      <trkpt lat="44.78001" lon="3.09621">
        <ele>1138.1</ele>
        <time>2022-03-26T10:19:34Z</time>
      </trkpt>
      <trkpt lat="44.78004" lon="3.09631">
        <ele>1139.2</ele>
        <time>2022-03-26T10:19:40Z</time>
      </trkpt>
      <trkpt lat="44.78009" lon="3.09642">
        <ele>1140.4</ele>
        <time>2022-03-26T10:19:45Z</time>
      </trkpt>
      <trkpt lat="44.78013" lon="3.09651">
        <ele>1141.4</ele>
        <time>2022-03-26T10:19:50Z</time>
      </trkpt>
      <trkpt lat="44.78018" lon="3.09661">
        <ele>1142.6</ele>
        <time>2022-03-26T10:19:56Z</time>
      </trkpt>
      <trkpt lat="44.78022" lon="3.0967">
        <ele>1143.6</ele>
        <time>2022-03-26T10:20:01Z</time>
      </trkpt>
      <trkpt lat="44.78025" lon="3.09679">
        <ele>1144.5</ele>
        <time>2022-03-26T10:20:07Z</time>
      </trkpt>
      <trkpt lat="44.78028" lon="3.09689">
        <ele>1145.6</ele>
        <time>2022-03-26T10:20:12Z</time>
      </trkpt>
      <trkpt lat="44.78031" lon="3.09698">
        <ele>1146.6</ele>
        <time>2022-03-26T10:20:17Z</time>
      </trkpt>
      <trkpt lat="44.78034" lon="3.09707">
        <ele>1147.6</ele>
        <time>2022-03-26T10:20:23Z</time>
      </trkpt>
      <trkpt lat="44.78038" lon="3.09716">
        <ele>1148.7</ele>
        <time>2022-03-26T10:20:29Z</time>
      </trkpt>
      <trkpt lat="44.78042" lon="3.09725">
        <ele>1149.8</ele>
        <time>2022-03-26T10:20:34Z</time>
      </trkpt>
      <trkpt lat="44.78045" lon="3.09735">
        <ele>1151.1</ele>
        <time>2022-03-26T10:20:40Z</time>
      </trkpt>
      <trkpt lat="44.78048" lon="3.09743">
        <ele>1152.1</ele>
        <time>2022-03-26T10:20:46Z</time>
      </trkpt>
      <trkpt lat="44.78052" lon="3.09753">
        <ele>1153.4</ele>
        <time>2022-03-26T10:20:51Z</time>
      </trkpt>
      <trkpt lat="44.78057" lon="3.09764">
        <ele>1154.5</ele>
        <time>2022-03-26T10:20:56Z</time>
      </trkpt>
      <trkpt lat="44.7806" lon="3.09773">
        <ele>1155.5</ele>
        <time>2022-03-26T10:21:02Z</time>
      </trkpt>
      <trkpt lat="44.78061" lon="3.09784">
        <ele>1156.4</ele>
        <time>2022-03-26T10:21:08Z</time>
      </trkpt>
      <trkpt lat="44.78066" lon="3.09791">
        <ele>1157.3</ele>
        <time>2022-03-26T10:21:14Z</time>
      </trkpt>
      <trkpt lat="44.78073" lon="3.09794">
        <ele>1158</ele>
        <time>2022-03-26T10:21:19Z</time>
      </trkpt>
      <trkpt lat="44.78082" lon="3.09797">
        <ele>1158.9</ele>
        <time>2022-03-26T10:21:24Z</time>
      </trkpt>
      <trkpt lat="44.78088" lon="3.09797">
        <ele>1158.4</ele>
        <time>2022-03-26T10:21:29Z</time>
      </trkpt>
      <trkpt lat="44.78097" lon="3.09794">
        <ele>1157.1</ele>
        <time>2022-03-26T10:21:34Z</time>
      </trkpt>
      <trkpt lat="44.78103" lon="3.09791">
        <ele>1156.1</ele>
        <time>2022-03-26T10:21:39Z</time>
      </trkpt>
      <trkpt lat="44.78111" lon="3.0979">
        <ele>1155</ele>
        <time>2022-03-26T10:21:45Z</time>
      </trkpt>
      <trkpt lat="44.78118" lon="3.09786">
        <ele>1153.8</ele>
        <time>2022-03-26T10:21:50Z</time>
      </trkpt>
      <trkpt lat="44.78125" lon="3.09781">
        <ele>1152.5</ele>
        <time>2022-03-26T10:21:55Z</time>
      </trkpt>
      <trkpt lat="44.78131" lon="3.09775">
        <ele>1151.2</ele>
        <time>2022-03-26T10:22:00Z</time>
      </trkpt>
      <trkpt lat="44.7814" lon="3.09768">
        <ele>1149.3</ele>
        <time>2022-03-26T10:22:05Z</time>
      </trkpt>
      <trkpt lat="44.78147" lon="3.09766">
        <ele>1148.2</ele>
        <time>2022-03-26T10:22:10Z</time>
      </trkpt>
      <trkpt lat="44.78155" lon="3.09765">
        <ele>1147.1</ele>
        <time>2022-03-26T10:22:15Z</time>
      </trkpt>
      <trkpt lat="44.78164" lon="3.09764">
        <ele>1145.9</ele>
        <time>2022-03-26T10:22:20Z</time>
      </trkpt>
      <trkpt lat="44.78173" lon="3.09764">
        <ele>1145.6</ele>
        <time>2022-03-26T10:22:25Z</time>
      </trkpt>
      <trkpt lat="44.7818" lon="3.09763">
        <ele>1145.6</ele>
        <time>2022-03-26T10:22:31Z</time>
      </trkpt>
      <trkpt lat="44.78188" lon="3.09763">
        <ele>1145.7</ele>
        <time>2022-03-26T10:22:40Z</time>
      </trkpt>
      <trkpt lat="44.78197" lon="3.09762">
        <ele>1145.7</ele>
        <time>2022-03-26T10:22:45Z</time>
      </trkpt>
      <trkpt lat="44.78206" lon="3.09766">
        <ele>1146.2</ele>
        <time>2022-03-26T10:22:50Z</time>
      </trkpt>
      <trkpt lat="44.78214" lon="3.0977">
        <ele>1146.7</ele>
        <time>2022-03-26T10:22:55Z</time>
      </trkpt>
      <trkpt lat="44.78223" lon="3.09772">
        <ele>1147.1</ele>
        <time>2022-03-26T10:23:00Z</time>
      </trkpt>
      <trkpt lat="44.7823" lon="3.0977">
        <ele>1146.9</ele>
        <time>2022-03-26T10:23:05Z</time>
      </trkpt>
      <trkpt lat="44.78237" lon="3.09769">
        <ele>1146.9</ele>
        <time>2022-03-26T10:23:10Z</time>
      </trkpt>
      <trkpt lat="44.78244" lon="3.09768">
        <ele>1146.9</ele>
        <time>2022-03-26T10:23:16Z</time>
      </trkpt>
      <trkpt lat="44.78254" lon="3.09765">
        <ele>1146.7</ele>
        <time>2022-03-26T10:23:21Z</time>
      </trkpt>
      <trkpt lat="44.78261" lon="3.09759">
        <ele>1146.1</ele>
        <time>2022-03-26T10:23:26Z</time>
      </trkpt>
      <trkpt lat="44.7827" lon="3.09755">
        <ele>1145.8</ele>
        <time>2022-03-26T10:23:31Z</time>
      </trkpt>
      <trkpt lat="44.78279" lon="3.09752">
        <ele>1145.5</ele>
        <time>2022-03-26T10:23:36Z</time>
      </trkpt>
      <trkpt lat="44.78286" lon="3.09751">
        <ele>1145.5</ele>
        <time>2022-03-26T10:23:41Z</time>
      </trkpt>
      <trkpt lat="44.78292" lon="3.09746">
        <ele>1145.1</ele>
        <time>2022-03-26T10:23:46Z</time>
      </trkpt>
      <trkpt lat="44.78298" lon="3.09744">
        <ele>1145</ele>
        <time>2022-03-26T10:23:51Z</time>
      </trkpt>
      <trkpt lat="44.78306" lon="3.09742">
        <ele>1145</ele>
        <time>2022-03-26T10:23:56Z</time>
      </trkpt>
      <trkpt lat="44.78316" lon="3.09743">
        <ele>1145.2</ele>
        <time>2022-03-26T10:24:01Z</time>
      </trkpt>
      <trkpt lat="44.78323" lon="3.09742">
        <ele>1145.3</ele>
        <time>2022-03-26T10:24:06Z</time>
      </trkpt>
      <trkpt lat="44.78331" lon="3.09739">
        <ele>1145.2</ele>
        <time>2022-03-26T10:24:11Z</time>
      </trkpt>
      <trkpt lat="44.78338" lon="3.09738">
        <ele>1145.5</ele>
        <time>2022-03-26T10:24:16Z</time>
      </trkpt>
      <trkpt lat="44.78345" lon="3.0974">
        <ele>1146.3</ele>
        <time>2022-03-26T10:24:22Z</time>
      </trkpt>
      <trkpt lat="44.78353" lon="3.09741">
        <ele>1147</ele>
        <time>2022-03-26T10:24:29Z</time>
      </trkpt>
      <trkpt lat="44.78361" lon="3.09744">
        <ele>1147.9</ele>
        <time>2022-03-26T10:24:34Z</time>
      </trkpt>
      <trkpt lat="44.7837" lon="3.09748">
        <ele>1148.9</ele>
        <time>2022-03-26T10:24:39Z</time>
      </trkpt>
      <trkpt lat="44.78378" lon="3.09748">
        <ele>1149.6</ele>
        <time>2022-03-26T10:24:45Z</time>
      </trkpt>
      <trkpt lat="44.78384" lon="3.09756">
        <ele>1150.6</ele>
        <time>2022-03-26T10:24:50Z</time>
      </trkpt>
      <trkpt lat="44.78391" lon="3.09761">
        <ele>1151.5</ele>
        <time>2022-03-26T10:24:55Z</time>
      </trkpt>
      <trkpt lat="44.78397" lon="3.09766">
        <ele>1152.3</ele>
        <time>2022-03-26T10:25:03Z</time>
      </trkpt>
      <trkpt lat="44.78405" lon="3.0977">
        <ele>1153.1</ele>
        <time>2022-03-26T10:25:08Z</time>
      </trkpt>
      <trkpt lat="44.78413" lon="3.09774">
        <ele>1153.9</ele>
        <time>2022-03-26T10:25:13Z</time>
      </trkpt>
      <trkpt lat="44.78419" lon="3.09781">
        <ele>1154.5</ele>
        <time>2022-03-26T10:25:18Z</time>
      </trkpt>
      <trkpt lat="44.78424" lon="3.09787">
        <ele>1154.7</ele>
        <time>2022-03-26T10:25:23Z</time>
      </trkpt>
      <trkpt lat="44.7843" lon="3.09793">
        <ele>1154.9</ele>
        <time>2022-03-26T10:25:28Z</time>
      </trkpt>
      <trkpt lat="44.78437" lon="3.098">
        <ele>1155</ele>
        <time>2022-03-26T10:25:33Z</time>
      </trkpt>
      <trkpt lat="44.78443" lon="3.09805">
        <ele>1154.9</ele>
        <time>2022-03-26T10:25:38Z</time>
      </trkpt>
      <trkpt lat="44.7845" lon="3.09809">
        <ele>1154.8</ele>
        <time>2022-03-26T10:25:43Z</time>
      </trkpt>
      <trkpt lat="44.78457" lon="3.09816">
        <ele>1154.6</ele>
        <time>2022-03-26T10:25:48Z</time>
      </trkpt>
      <trkpt lat="44.78463" lon="3.09821">
        <ele>1154.3</ele>
        <time>2022-03-26T10:25:53Z</time>
      </trkpt>
      <trkpt lat="44.78469" lon="3.09826">
        <ele>1154</ele>
        <time>2022-03-26T10:25:58Z</time>
      </trkpt>
      <trkpt lat="44.78476" lon="3.09832">
        <ele>1153.5</ele>
        <time>2022-03-26T10:26:03Z</time>
      </trkpt>
      <trkpt lat="44.78482" lon="3.09838">
        <ele>1153.2</ele>
        <time>2022-03-26T10:26:08Z</time>
      </trkpt>
      <trkpt lat="44.78489" lon="3.09845">
        <ele>1153</ele>
        <time>2022-03-26T10:26:13Z</time>
      </trkpt>
      <trkpt lat="44.78495" lon="3.09849">
        <ele>1152.7</ele>
        <time>2022-03-26T10:26:21Z</time>
      </trkpt>
      <trkpt lat="44.78504" lon="3.09855">
        <ele>1152.5</ele>
        <time>2022-03-26T10:26:26Z</time>
      </trkpt>
      <trkpt lat="44.78511" lon="3.09859">
        <ele>1152.5</ele>
        <time>2022-03-26T10:26:33Z</time>
      </trkpt>
      <trkpt lat="44.78516" lon="3.09865">
        <ele>1152.6</ele>
        <time>2022-03-26T10:26:44Z</time>
      </trkpt>
      <trkpt lat="44.78522" lon="3.0987">
        <ele>1152.7</ele>
        <time>2022-03-26T10:27:45Z</time>
      </trkpt>
      <trkpt lat="44.78531" lon="3.09875">
        <ele>1152.8</ele>
        <time>2022-03-26T10:27:50Z</time>
      </trkpt>
      <trkpt lat="44.78539" lon="3.09878">
        <ele>1152.9</ele>
        <time>2022-03-26T10:27:55Z</time>
      </trkpt>
      <trkpt lat="44.78546" lon="3.09882">
        <ele>1153</ele>
        <time>2022-03-26T10:28:00Z</time>
      </trkpt>
      <trkpt lat="44.78554" lon="3.09885">
        <ele>1153.1</ele>
        <time>2022-03-26T10:28:05Z</time>
      </trkpt>
      <trkpt lat="44.78562" lon="3.09888">
        <ele>1153.3</ele>
        <time>2022-03-26T10:28:10Z</time>
      </trkpt>
      <trkpt lat="44.78569" lon="3.0989">
        <ele>1153.4</ele>
        <time>2022-03-26T10:28:16Z</time>
      </trkpt>
      <trkpt lat="44.78575" lon="3.09894">
        <ele>1153.6</ele>
        <time>2022-03-26T10:28:21Z</time>
      </trkpt>
      <trkpt lat="44.78582" lon="3.09896">
        <ele>1153.8</ele>
        <time>2022-03-26T10:28:26Z</time>
      </trkpt>
      <trkpt lat="44.78589" lon="3.09896">
        <ele>1154</ele>
        <time>2022-03-26T10:28:32Z</time>
      </trkpt>
      <trkpt lat="44.78595" lon="3.09896">
        <ele>1154.2</ele>
        <time>2022-03-26T10:28:38Z</time>
      </trkpt>
      <trkpt lat="44.78606" lon="3.09897">
        <ele>1154.7</ele>
        <time>2022-03-26T10:28:43Z</time>
      </trkpt>
      <trkpt lat="44.78612" lon="3.09894">
        <ele>1154.7</ele>
        <time>2022-03-26T10:28:52Z</time>
      </trkpt>
      <trkpt lat="44.78622" lon="3.09893">
        <ele>1155</ele>
        <time>2022-03-26T10:29:06Z</time>
      </trkpt>
      <trkpt lat="44.78629" lon="3.09889">
        <ele>1155</ele>
        <time>2022-03-26T10:29:13Z</time>
      </trkpt>
      <trkpt lat="44.78636" lon="3.09886">
        <ele>1155</ele>
        <time>2022-03-26T10:29:18Z</time>
      </trkpt>
      <trkpt lat="44.78642" lon="3.09883">
        <ele>1154.9</ele>
        <time>2022-03-26T10:29:23Z</time>
      </trkpt>
      <trkpt lat="44.78652" lon="3.09882">
        <ele>1155.2</ele>
        <time>2022-03-26T10:29:28Z</time>
      </trkpt>
      <trkpt lat="44.7866" lon="3.09879">
        <ele>1155.2</ele>
        <time>2022-03-26T10:29:33Z</time>
      </trkpt>
      <trkpt lat="44.78669" lon="3.09877">
        <ele>1155.2</ele>
        <time>2022-03-26T10:29:39Z</time>
      </trkpt>
      <trkpt lat="44.78678" lon="3.09877">
        <ele>1155.5</ele>
        <time>2022-03-26T10:29:44Z</time>
      </trkpt>
      <trkpt lat="44.78686" lon="3.09874">
        <ele>1155.4</ele>
        <time>2022-03-26T10:29:49Z</time>
      </trkpt>
      <trkpt lat="44.78692" lon="3.0987">
        <ele>1155.1</ele>
        <time>2022-03-26T10:29:54Z</time>
      </trkpt>
      <trkpt lat="44.78701" lon="3.0987">
        <ele>1155.3</ele>
        <time>2022-03-26T10:29:59Z</time>
      </trkpt>
      <trkpt lat="44.78708" lon="3.09867">
        <ele>1155.2</ele>
        <time>2022-03-26T10:30:05Z</time>
      </trkpt>
      <trkpt lat="44.78715" lon="3.09863">
        <ele>1155</ele>
        <time>2022-03-26T10:30:11Z</time>
      </trkpt>
      <trkpt lat="44.78723" lon="3.09859">
        <ele>1154.8</ele>
        <time>2022-03-26T10:30:16Z</time>
      </trkpt>
      <trkpt lat="44.78729" lon="3.09853">
        <ele>1154.4</ele>
        <time>2022-03-26T10:30:21Z</time>
      </trkpt>
      <trkpt lat="44.78736" lon="3.09851">
        <ele>1154.4</ele>
        <time>2022-03-26T10:30:26Z</time>
      </trkpt>
      <trkpt lat="44.78743" lon="3.09848">
        <ele>1154.2</ele>
        <time>2022-03-26T10:30:31Z</time>
      </trkpt>
      <trkpt lat="44.78751" lon="3.09842">
        <ele>1153.8</ele>
        <time>2022-03-26T10:30:36Z</time>
      </trkpt>
      <trkpt lat="44.78758" lon="3.09838">
        <ele>1153</ele>
        <time>2022-03-26T10:30:41Z</time>
      </trkpt>
      <trkpt lat="44.78765" lon="3.09837">
        <ele>1152.5</ele>
        <time>2022-03-26T10:30:47Z</time>
      </trkpt>
      <trkpt lat="44.78773" lon="3.09833">
        <ele>1151.6</ele>
        <time>2022-03-26T10:30:52Z</time>
      </trkpt>
      <trkpt lat="44.7878" lon="3.09833">
        <ele>1151.2</ele>
        <time>2022-03-26T10:30:59Z</time>
      </trkpt>
      <trkpt lat="44.78787" lon="3.09833">
        <ele>1150.8</ele>
        <time>2022-03-26T10:31:25Z</time>
      </trkpt>
      <trkpt lat="44.78794" lon="3.09832">
        <ele>1150.3</ele>
        <time>2022-03-26T10:31:31Z</time>
      </trkpt>
      <trkpt lat="44.78801" lon="3.09828">
        <ele>1149.6</ele>
        <time>2022-03-26T10:31:36Z</time>
      </trkpt>
      <trkpt lat="44.78808" lon="3.09829">
        <ele>1149.2</ele>
        <time>2022-03-26T10:31:55Z</time>
      </trkpt>
      <trkpt lat="44.78815" lon="3.09827">
        <ele>1148.7</ele>
        <time>2022-03-26T10:32:02Z</time>
      </trkpt>
      <trkpt lat="44.78824" lon="3.09828">
        <ele>1148.2</ele>
        <time>2022-03-26T10:32:07Z</time>
      </trkpt>
      <trkpt lat="44.78831" lon="3.09829">
        <ele>1147.9</ele>
        <time>2022-03-26T10:32:27Z</time>
      </trkpt>
      <trkpt lat="44.78839" lon="3.09828">
        <ele>1147.8</ele>
        <time>2022-03-26T10:32:32Z</time>
      </trkpt>
      <trkpt lat="44.78843" lon="3.0982">
        <ele>1147.4</ele>
        <time>2022-03-26T10:32:39Z</time>
      </trkpt>
      <trkpt lat="44.78851" lon="3.09816">
        <ele>1147.2</ele>
        <time>2022-03-26T10:32:44Z</time>
      </trkpt>
      <trkpt lat="44.7886" lon="3.09816">
        <ele>1147.3</ele>
        <time>2022-03-26T10:32:49Z</time>
      </trkpt>
      <trkpt lat="44.78867" lon="3.09813">
        <ele>1147.2</ele>
        <time>2022-03-26T10:32:54Z</time>
      </trkpt>
      <trkpt lat="44.78877" lon="3.09811">
        <ele>1147.1</ele>
        <time>2022-03-26T10:32:59Z</time>
      </trkpt>
      <trkpt lat="44.78885" lon="3.09809">
        <ele>1147.1</ele>
        <time>2022-03-26T10:33:04Z</time>
      </trkpt>
      <trkpt lat="44.78893" lon="3.09806">
        <ele>1146.9</ele>
        <time>2022-03-26T10:33:09Z</time>
      </trkpt>
      <trkpt lat="44.78902" lon="3.09804">
        <ele>1146.7</ele>
        <time>2022-03-26T10:33:14Z</time>
      </trkpt>
      <trkpt lat="44.78909" lon="3.098">
        <ele>1146.4</ele>
        <time>2022-03-26T10:33:20Z</time>
      </trkpt>
      <trkpt lat="44.78917" lon="3.09799">
        <ele>1146.3</ele>
        <time>2022-03-26T10:33:26Z</time>
      </trkpt>
      <trkpt lat="44.78924" lon="3.09794">
        <ele>1146.2</ele>
        <time>2022-03-26T10:33:32Z</time>
      </trkpt>
      <trkpt lat="44.78931" lon="3.09792">
        <ele>1146.5</ele>
        <time>2022-03-26T10:33:37Z</time>
      </trkpt>
      <trkpt lat="44.78937" lon="3.09788">
        <ele>1146.4</ele>
        <time>2022-03-26T10:33:43Z</time>
      </trkpt>
      <trkpt lat="44.78944" lon="3.09785">
        <ele>1146.6</ele>
        <time>2022-03-26T10:33:50Z</time>
      </trkpt>
      <trkpt lat="44.7895" lon="3.09783">
        <ele>1146.7</ele>
        <time>2022-03-26T10:33:56Z</time>
      </trkpt>
      <trkpt lat="44.78957" lon="3.09781">
        <ele>1146.9</ele>
        <time>2022-03-26T10:34:01Z</time>
      </trkpt>
      <trkpt lat="44.78963" lon="3.09777">
        <ele>1146.9</ele>
        <time>2022-03-26T10:34:06Z</time>
      </trkpt>
      <trkpt lat="44.78971" lon="3.09774">
        <ele>1147</ele>
        <time>2022-03-26T10:34:11Z</time>
      </trkpt>
      <trkpt lat="44.78979" lon="3.0977">
        <ele>1147.1</ele>
        <time>2022-03-26T10:34:16Z</time>
      </trkpt>
      <trkpt lat="44.78989" lon="3.09768">
        <ele>1147.5</ele>
        <time>2022-03-26T10:34:21Z</time>
      </trkpt>
      <trkpt lat="44.78998" lon="3.09767">
        <ele>1147.9</ele>
        <time>2022-03-26T10:34:26Z</time>
      </trkpt>
      <trkpt lat="44.79007" lon="3.09768">
        <ele>1148.4</ele>
        <time>2022-03-26T10:34:31Z</time>
      </trkpt>
      <trkpt lat="44.79018" lon="3.09773">
        <ele>1149.2</ele>
        <time>2022-03-26T10:34:36Z</time>
      </trkpt>
      <trkpt lat="44.79026" lon="3.09771">
        <ele>1149.2</ele>
        <time>2022-03-26T10:34:44Z</time>
      </trkpt>
      <trkpt lat="44.79033" lon="3.09771">
        <ele>1149.4</ele>
        <time>2022-03-26T10:34:50Z</time>
      </trkpt>
      <trkpt lat="44.79041" lon="3.09769">
        <ele>1149.4</ele>
        <time>2022-03-26T10:34:55Z</time>
      </trkpt>
      <trkpt lat="44.7905" lon="3.09771">
        <ele>1149.9</ele>
        <time>2022-03-26T10:35:00Z</time>
      </trkpt>
      <trkpt lat="44.79059" lon="3.09774">
        <ele>1150.4</ele>
        <time>2022-03-26T10:35:05Z</time>
      </trkpt>
      <trkpt lat="44.79068" lon="3.09776">
        <ele>1150.8</ele>
        <time>2022-03-26T10:35:10Z</time>
      </trkpt>
      <trkpt lat="44.79075" lon="3.09775">
        <ele>1150.9</ele>
        <time>2022-03-26T10:35:16Z</time>
      </trkpt>
      <trkpt lat="44.79082" lon="3.09774">
        <ele>1151</ele>
        <time>2022-03-26T10:35:21Z</time>
      </trkpt>
      <trkpt lat="44.79092" lon="3.09774">
        <ele>1150.4</ele>
        <time>2022-03-26T10:35:27Z</time>
      </trkpt>
      <trkpt lat="44.79098" lon="3.09775">
        <ele>1150.1</ele>
        <time>2022-03-26T10:35:32Z</time>
      </trkpt>
      <trkpt lat="44.79104" lon="3.09771">
        <ele>1149.4</ele>
        <time>2022-03-26T10:35:37Z</time>
      </trkpt>
      <trkpt lat="44.79114" lon="3.09775">
        <ele>1149</ele>
        <time>2022-03-26T10:35:50Z</time>
      </trkpt>
      <trkpt lat="44.79121" lon="3.09778">
        <ele>1148.8</ele>
        <time>2022-03-26T10:36:05Z</time>
      </trkpt>
      <trkpt lat="44.79127" lon="3.09776">
        <ele>1148.2</ele>
        <time>2022-03-26T10:36:13Z</time>
      </trkpt>
      <trkpt lat="44.79134" lon="3.09776">
        <ele>1147.8</ele>
        <time>2022-03-26T10:36:18Z</time>
      </trkpt>
      <trkpt lat="44.79142" lon="3.09779">
        <ele>1147.4</ele>
        <time>2022-03-26T10:36:24Z</time>
      </trkpt>
      <trkpt lat="44.79151" lon="3.09781">
        <ele>1146.9</ele>
        <time>2022-03-26T10:36:29Z</time>
      </trkpt>
      <trkpt lat="44.79159" lon="3.09784">
        <ele>1146.6</ele>
        <time>2022-03-26T10:36:34Z</time>
      </trkpt>
      <trkpt lat="44.79165" lon="3.09785">
        <ele>1146.2</ele>
        <time>2022-03-26T10:36:39Z</time>
      </trkpt>
      <trkpt lat="44.79173" lon="3.0979">
        <ele>1146</ele>
        <time>2022-03-26T10:36:44Z</time>
      </trkpt>
      <trkpt lat="44.79184" lon="3.09796">
        <ele>1145.5</ele>
        <time>2022-03-26T10:36:49Z</time>
      </trkpt>
      <trkpt lat="44.79191" lon="3.098">
        <ele>1145.1</ele>
        <time>2022-03-26T10:36:54Z</time>
      </trkpt>
      <trkpt lat="44.79197" lon="3.09804">
        <ele>1144.8</ele>
        <time>2022-03-26T10:36:59Z</time>
      </trkpt>
      <trkpt lat="44.79204" lon="3.09808">
        <ele>1144.4</ele>
        <time>2022-03-26T10:37:04Z</time>
      </trkpt>
      <trkpt lat="44.79212" lon="3.09813">
        <ele>1144</ele>
        <time>2022-03-26T10:37:09Z</time>
      </trkpt>
      <trkpt lat="44.79221" lon="3.0982">
        <ele>1143.4</ele>
        <time>2022-03-26T10:37:14Z</time>
      </trkpt>
      <trkpt lat="44.79229" lon="3.09823">
        <ele>1142.8</ele>
        <time>2022-03-26T10:37:19Z</time>
      </trkpt>
      <trkpt lat="44.79237" lon="3.09832">
        <ele>1142.2</ele>
        <time>2022-03-26T10:37:24Z</time>
      </trkpt>
      <trkpt lat="44.79242" lon="3.09838">
        <ele>1141.9</ele>
        <time>2022-03-26T10:37:30Z</time>
      </trkpt>
      <trkpt lat="44.79254" lon="3.09846">
        <ele>1141.2</ele>
        <time>2022-03-26T10:37:35Z</time>
      </trkpt>
      <trkpt lat="44.7926" lon="3.09856">
        <ele>1141.2</ele>
        <time>2022-03-26T10:37:40Z</time>
      </trkpt>
      <trkpt lat="44.79266" lon="3.09862">
        <ele>1140.9</ele>
        <time>2022-03-26T10:37:45Z</time>
      </trkpt>
      <trkpt lat="44.79273" lon="3.09868">
        <ele>1140.6</ele>
        <time>2022-03-26T10:37:50Z</time>
      </trkpt>
      <trkpt lat="44.79279" lon="3.09873">
        <ele>1140.4</ele>
        <time>2022-03-26T10:37:55Z</time>
      </trkpt>
      <trkpt lat="44.79285" lon="3.09878">
        <ele>1140.1</ele>
        <time>2022-03-26T10:38:01Z</time>
      </trkpt>
      <trkpt lat="44.79291" lon="3.09884">
        <ele>1139.8</ele>
        <time>2022-03-26T10:38:06Z</time>
      </trkpt>
      <trkpt lat="44.79303" lon="3.09895">
        <ele>1139.1</ele>
        <time>2022-03-26T10:38:11Z</time>
      </trkpt>
      <trkpt lat="44.7931" lon="3.099">
        <ele>1138.6</ele>
        <time>2022-03-26T10:38:16Z</time>
      </trkpt>
      <trkpt lat="44.79316" lon="3.09906">
        <ele>1138.3</ele>
        <time>2022-03-26T10:38:24Z</time>
      </trkpt>
      <trkpt lat="44.79321" lon="3.09911">
        <ele>1137.9</ele>
        <time>2022-03-26T10:38:29Z</time>
      </trkpt>
      <trkpt lat="44.79327" lon="3.09921">
        <ele>1137.7</ele>
        <time>2022-03-26T10:38:35Z</time>
      </trkpt>
      <trkpt lat="44.79332" lon="3.09927">
        <ele>1137.5</ele>
        <time>2022-03-26T10:38:40Z</time>
      </trkpt>
      <trkpt lat="44.79337" lon="3.09935">
        <ele>1137.3</ele>
        <time>2022-03-26T10:38:45Z</time>
      </trkpt>
      <trkpt lat="44.79343" lon="3.09945">
        <ele>1137.1</ele>
        <time>2022-03-26T10:38:50Z</time>
      </trkpt>
      <trkpt lat="44.79348" lon="3.09953">
        <ele>1136.9</ele>
        <time>2022-03-26T10:38:56Z</time>
      </trkpt>
      <trkpt lat="44.79353" lon="3.0996">
        <ele>1136.7</ele>
        <time>2022-03-26T10:39:01Z</time>
      </trkpt>
      <trkpt lat="44.79358" lon="3.09967">
        <ele>1136.4</ele>
        <time>2022-03-26T10:39:07Z</time>
      </trkpt>
      <trkpt lat="44.79367" lon="3.09975">
        <ele>1135.7</ele>
        <time>2022-03-26T10:39:12Z</time>
      </trkpt>
      <trkpt lat="44.79374" lon="3.09985">
        <ele>1135.2</ele>
        <time>2022-03-26T10:39:17Z</time>
      </trkpt>
      <trkpt lat="44.79382" lon="3.09994">
        <ele>1134.6</ele>
        <time>2022-03-26T10:39:22Z</time>
      </trkpt>
      <trkpt lat="44.79392" lon="3.10002">
        <ele>1133.7</ele>
        <time>2022-03-26T10:39:27Z</time>
      </trkpt>
      <trkpt lat="44.79398" lon="3.10007">
        <ele>1133.2</ele>
        <time>2022-03-26T10:39:32Z</time>
      </trkpt>
      <trkpt lat="44.79407" lon="3.10007">
        <ele>1132.2</ele>
        <time>2022-03-26T10:39:37Z</time>
      </trkpt>
      <trkpt lat="44.79414" lon="3.1001">
        <ele>1131.5</ele>
        <time>2022-03-26T10:40:09Z</time>
      </trkpt>
      <trkpt lat="44.79418" lon="3.10004">
        <ele>1130.9</ele>
        <time>2022-03-26T10:40:15Z</time>
      </trkpt>
      <trkpt lat="44.79423" lon="3.09996">
        <ele>1130</ele>
        <time>2022-03-26T10:40:23Z</time>
      </trkpt>
      <trkpt lat="44.79428" lon="3.09988">
        <ele>1129.2</ele>
        <time>2022-03-26T10:40:29Z</time>
      </trkpt>
      <trkpt lat="44.79431" lon="3.0998">
        <ele>1128.7</ele>
        <time>2022-03-26T10:40:34Z</time>
      </trkpt>
      <trkpt lat="44.7944" lon="3.09976">
        <ele>1127.4</ele>
        <time>2022-03-26T10:40:39Z</time>
      </trkpt>
      <trkpt lat="44.79447" lon="3.09971">
        <ele>1126.3</ele>
        <time>2022-03-26T10:40:44Z</time>
      </trkpt>
      <trkpt lat="44.79454" lon="3.09964">
        <ele>1125.2</ele>
        <time>2022-03-26T10:40:49Z</time>
      </trkpt>
      <trkpt lat="44.79463" lon="3.09961">
        <ele>1123.9</ele>
        <time>2022-03-26T10:40:54Z</time>
      </trkpt>
      <trkpt lat="44.79473" lon="3.0996">
        <ele>1122.4</ele>
        <time>2022-03-26T10:40:59Z</time>
      </trkpt>
      <trkpt lat="44.79481" lon="3.09955">
        <ele>1121.2</ele>
        <time>2022-03-26T10:41:04Z</time>
      </trkpt>
      <trkpt lat="44.79486" lon="3.09949">
        <ele>1120.4</ele>
        <time>2022-03-26T10:41:11Z</time>
      </trkpt>
      <trkpt lat="44.79495" lon="3.0995">
        <ele>1119.1</ele>
        <time>2022-03-26T10:41:28Z</time>
      </trkpt>
      <trkpt lat="44.79502" lon="3.09948">
        <ele>1118.2</ele>
        <time>2022-03-26T10:42:27Z</time>
      </trkpt>
      <trkpt lat="44.79509" lon="3.09951">
        <ele>1117.6</ele>
        <time>2022-03-26T10:42:33Z</time>
      </trkpt>
      <trkpt lat="44.79516" lon="3.09955">
        <ele>1117.1</ele>
        <time>2022-03-26T10:42:38Z</time>
      </trkpt>
      <trkpt lat="44.79525" lon="3.09958">
        <ele>1116.4</ele>
        <time>2022-03-26T10:42:43Z</time>
      </trkpt>
      <trkpt lat="44.79533" lon="3.09957">
        <ele>1115.7</ele>
        <time>2022-03-26T10:42:50Z</time>
      </trkpt>
      <trkpt lat="44.79541" lon="3.09956">
        <ele>1115</ele>
        <time>2022-03-26T10:42:55Z</time>
      </trkpt>
      <trkpt lat="44.7955" lon="3.09956">
        <ele>1114.2</ele>
        <time>2022-03-26T10:43:00Z</time>
      </trkpt>
      <trkpt lat="44.79557" lon="3.09956">
        <ele>1113.6</ele>
        <time>2022-03-26T10:43:05Z</time>
      </trkpt>
      <trkpt lat="44.79564" lon="3.09953">
        <ele>1113</ele>
        <time>2022-03-26T10:43:13Z</time>
      </trkpt>
      <trkpt lat="44.79571" lon="3.09951">
        <ele>1112.3</ele>
        <time>2022-03-26T10:43:19Z</time>
      </trkpt>
      <trkpt lat="44.79576" lon="3.09945">
        <ele>1111.7</ele>
        <time>2022-03-26T10:43:25Z</time>
      </trkpt>
      <trkpt lat="44.79585" lon="3.09941">
        <ele>1110.8</ele>
        <time>2022-03-26T10:43:30Z</time>
      </trkpt>
      <trkpt lat="44.79594" lon="3.09938">
        <ele>1110.3</ele>
        <time>2022-03-26T10:43:35Z</time>
      </trkpt>
      <trkpt lat="44.79602" lon="3.09934">
        <ele>1109.7</ele>
        <time>2022-03-26T10:43:40Z</time>
      </trkpt>
      <trkpt lat="44.79606" lon="3.09928">
        <ele>1109.3</ele>
        <time>2022-03-26T10:43:45Z</time>
      </trkpt>
      <trkpt lat="44.79613" lon="3.09923">
        <ele>1108.8</ele>
        <time>2022-03-26T10:43:50Z</time>
      </trkpt>
      <trkpt lat="44.7962" lon="3.09921">
        <ele>1108.4</ele>
        <time>2022-03-26T10:43:55Z</time>
      </trkpt>
      <trkpt lat="44.79627" lon="3.09917">
        <ele>1107.9</ele>
        <time>2022-03-26T10:44:00Z</time>
      </trkpt>
      <trkpt lat="44.79633" lon="3.09913">
        <ele>1107.5</ele>
        <time>2022-03-26T10:44:05Z</time>
      </trkpt>
      <trkpt lat="44.79641" lon="3.09907">
        <ele>1107</ele>
        <time>2022-03-26T10:44:10Z</time>
      </trkpt>
      <trkpt lat="44.79647" lon="3.099">
        <ele>1106.6</ele>
        <time>2022-03-26T10:44:15Z</time>
      </trkpt>
      <trkpt lat="44.79652" lon="3.09895">
        <ele>1106.2</ele>
        <time>2022-03-26T10:44:20Z</time>
      </trkpt>
      <trkpt lat="44.79659" lon="3.0989">
        <ele>1105.8</ele>
        <time>2022-03-26T10:44:25Z</time>
      </trkpt>
      <trkpt lat="44.79665" lon="3.09884">
        <ele>1105.3</ele>
        <time>2022-03-26T10:44:30Z</time>
      </trkpt>
      <trkpt lat="44.79668" lon="3.09875">
        <ele>1105.1</ele>
        <time>2022-03-26T10:44:35Z</time>
      </trkpt>
      <trkpt lat="44.79672" lon="3.09866">
        <ele>1105.1</ele>
        <time>2022-03-26T10:44:40Z</time>
      </trkpt>
      <trkpt lat="44.79679" lon="3.0986">
        <ele>1105.4</ele>
        <time>2022-03-26T10:44:45Z</time>
      </trkpt>
      <trkpt lat="44.79682" lon="3.09852">
        <ele>1105.4</ele>
        <time>2022-03-26T10:44:50Z</time>
      </trkpt>
      <trkpt lat="44.79684" lon="3.09841">
        <ele>1105.4</ele>
        <time>2022-03-26T10:44:55Z</time>
      </trkpt>
      <trkpt lat="44.79688" lon="3.09834">
        <ele>1105.5</ele>
        <time>2022-03-26T10:45:16Z</time>
      </trkpt>
      <trkpt lat="44.79691" lon="3.09822">
        <ele>1105.5</ele>
        <time>2022-03-26T10:45:21Z</time>
      </trkpt>
      <trkpt lat="44.79691" lon="3.09811">
        <ele>1105.3</ele>
        <time>2022-03-26T10:45:26Z</time>
      </trkpt>
      <trkpt lat="44.79695" lon="3.09801">
        <ele>1105.4</ele>
        <time>2022-03-26T10:45:31Z</time>
      </trkpt>
      <trkpt lat="44.79697" lon="3.09791">
        <ele>1105.4</ele>
        <time>2022-03-26T10:45:36Z</time>
      </trkpt>
      <trkpt lat="44.79701" lon="3.09781">
        <ele>1105.5</ele>
        <time>2022-03-26T10:45:41Z</time>
      </trkpt>
      <trkpt lat="44.79704" lon="3.09771">
        <ele>1105.5</ele>
        <time>2022-03-26T10:45:47Z</time>
      </trkpt>
      <trkpt lat="44.79711" lon="3.09764">
        <ele>1106</ele>
        <time>2022-03-26T10:45:52Z</time>
      </trkpt>
      <trkpt lat="44.79717" lon="3.09755">
        <ele>1106.3</ele>
        <time>2022-03-26T10:45:57Z</time>
      </trkpt>
      <trkpt lat="44.79725" lon="3.09751">
        <ele>1106.9</ele>
        <time>2022-03-26T10:46:02Z</time>
      </trkpt>
      <trkpt lat="44.79726" lon="3.09741">
        <ele>1107.3</ele>
        <time>2022-03-26T10:46:07Z</time>
      </trkpt>
      <trkpt lat="44.79729" lon="3.09732">
        <ele>1107.9</ele>
        <time>2022-03-26T10:46:13Z</time>
      </trkpt>
      <trkpt lat="44.79734" lon="3.09724">
        <ele>1108.6</ele>
        <time>2022-03-26T10:46:18Z</time>
      </trkpt>
      <trkpt lat="44.79739" lon="3.09717">
        <ele>1109.3</ele>
        <time>2022-03-26T10:46:23Z</time>
      </trkpt>
      <trkpt lat="44.79746" lon="3.0971">
        <ele>1110.1</ele>
        <time>2022-03-26T10:46:28Z</time>
      </trkpt>
      <trkpt lat="44.79752" lon="3.09703">
        <ele>1110.9</ele>
        <time>2022-03-26T10:46:33Z</time>
      </trkpt>
      <trkpt lat="44.79756" lon="3.09696">
        <ele>1111.4</ele>
        <time>2022-03-26T10:46:38Z</time>
      </trkpt>
      <trkpt lat="44.79762" lon="3.0969">
        <ele>1112.1</ele>
        <time>2022-03-26T10:46:43Z</time>
      </trkpt>
      <trkpt lat="44.79767" lon="3.09682">
        <ele>1112.7</ele>
        <time>2022-03-26T10:46:49Z</time>
      </trkpt>
      <trkpt lat="44.79774" lon="3.09682">
        <ele>1113.2</ele>
        <time>2022-03-26T10:47:38Z</time>
      </trkpt>
      <trkpt lat="44.79782" lon="3.09682">
        <ele>1113.7</ele>
        <time>2022-03-26T10:47:43Z</time>
      </trkpt>
      <trkpt lat="44.79789" lon="3.09677">
        <ele>1114.3</ele>
        <time>2022-03-26T10:47:49Z</time>
      </trkpt>
      <trkpt lat="44.79796" lon="3.09675">
        <ele>1114.7</ele>
        <time>2022-03-26T10:48:15Z</time>
      </trkpt>
      <trkpt lat="44.79802" lon="3.09673">
        <ele>1115.1</ele>
        <time>2022-03-26T10:48:20Z</time>
      </trkpt>
      <trkpt lat="44.79809" lon="3.09671">
        <ele>1115.6</ele>
        <time>2022-03-26T10:48:26Z</time>
      </trkpt>
      <trkpt lat="44.79817" lon="3.09671">
        <ele>1116.1</ele>
        <time>2022-03-26T10:48:31Z</time>
      </trkpt>
      <trkpt lat="44.79825" lon="3.09672">
        <ele>1116.6</ele>
        <time>2022-03-26T10:48:36Z</time>
      </trkpt>
      <trkpt lat="44.79833" lon="3.0967">
        <ele>1117.1</ele>
        <time>2022-03-26T10:48:41Z</time>
      </trkpt>
      <trkpt lat="44.79841" lon="3.09672">
        <ele>1117</ele>
        <time>2022-03-26T10:49:03Z</time>
      </trkpt>
      <trkpt lat="44.79849" lon="3.09672">
        <ele>1116.8</ele>
        <time>2022-03-26T10:49:08Z</time>
      </trkpt>
      <trkpt lat="44.79858" lon="3.09672">
        <ele>1116.7</ele>
        <time>2022-03-26T10:49:13Z</time>
      </trkpt>
      <trkpt lat="44.79866" lon="3.09675">
        <ele>1116.7</ele>
        <time>2022-03-26T10:49:18Z</time>
      </trkpt>
      <trkpt lat="44.79872" lon="3.09674">
        <ele>1116.5</ele>
        <time>2022-03-26T10:49:23Z</time>
      </trkpt>
      <trkpt lat="44.7988" lon="3.09676">
        <ele>1116.5</ele>
        <time>2022-03-26T10:49:29Z</time>
      </trkpt>
      <trkpt lat="44.79887" lon="3.09677">
        <ele>1116.5</ele>
        <time>2022-03-26T10:49:34Z</time>
      </trkpt>
      <trkpt lat="44.79895" lon="3.09677">
        <ele>1116.4</ele>
        <time>2022-03-26T10:49:39Z</time>
      </trkpt>
      <trkpt lat="44.79903" lon="3.0968">
        <ele>1116.6</ele>
        <time>2022-03-26T10:49:44Z</time>
      </trkpt>
      <trkpt lat="44.7991" lon="3.09678">
        <ele>1116.3</ele>
        <time>2022-03-26T10:49:50Z</time>
      </trkpt>
      <trkpt lat="44.79916" lon="3.09678">
        <ele>1116.2</ele>
        <time>2022-03-26T10:49:59Z</time>
      </trkpt>
      <trkpt lat="44.79922" lon="3.09682">
        <ele>1116.6</ele>
        <time>2022-03-26T10:50:13Z</time>
      </trkpt>
      <trkpt lat="44.7993" lon="3.09682">
        <ele>1116.4</ele>
        <time>2022-03-26T10:50:18Z</time>
      </trkpt>
      <trkpt lat="44.79936" lon="3.09686">
        <ele>1116.7</ele>
        <time>2022-03-26T10:50:25Z</time>
      </trkpt>
      <trkpt lat="44.79945" lon="3.09688">
        <ele>1116.8</ele>
        <time>2022-03-26T10:50:30Z</time>
      </trkpt>
      <trkpt lat="44.79952" lon="3.09689">
        <ele>1116.8</ele>
        <time>2022-03-26T10:50:36Z</time>
      </trkpt>
      <trkpt lat="44.7996" lon="3.09691">
        <ele>1116.9</ele>
        <time>2022-03-26T10:50:43Z</time>
      </trkpt>
      <trkpt lat="44.79968" lon="3.09691">
        <ele>1116.8</ele>
        <time>2022-03-26T10:50:48Z</time>
      </trkpt>
      <trkpt lat="44.79976" lon="3.09693">
        <ele>1116.9</ele>
        <time>2022-03-26T10:50:53Z</time>
      </trkpt>
      <trkpt lat="44.79983" lon="3.09693">
        <ele>1116.8</ele>
        <time>2022-03-26T10:50:59Z</time>
      </trkpt>
      <trkpt lat="44.79993" lon="3.09696">
        <ele>1117</ele>
        <time>2022-03-26T10:51:04Z</time>
      </trkpt>
      <trkpt lat="44.8" lon="3.09695">
        <ele>1116.7</ele>
        <time>2022-03-26T10:51:09Z</time>
      </trkpt>
      <trkpt lat="44.80006" lon="3.09698">
        <ele>1116.7</ele>
        <time>2022-03-26T10:51:14Z</time>
      </trkpt>
      <trkpt lat="44.80018" lon="3.09701">
        <ele>1116.3</ele>
        <time>2022-03-26T10:51:19Z</time>
      </trkpt>
      <trkpt lat="44.80025" lon="3.09703">
        <ele>1116</ele>
        <time>2022-03-26T10:51:25Z</time>
      </trkpt>
      <trkpt lat="44.80035" lon="3.09704">
        <ele>1115.4</ele>
        <time>2022-03-26T10:51:30Z</time>
      </trkpt>
      <trkpt lat="44.80043" lon="3.09707">
        <ele>1115</ele>
        <time>2022-03-26T10:51:35Z</time>
      </trkpt>
      <trkpt lat="44.8005" lon="3.09709">
        <ele>1114.7</ele>
        <time>2022-03-26T10:51:41Z</time>
      </trkpt>
      <trkpt lat="44.80059" lon="3.0971">
        <ele>1114</ele>
        <time>2022-03-26T10:51:46Z</time>
      </trkpt>
      <trkpt lat="44.80069" lon="3.09712">
        <ele>1113.3</ele>
        <time>2022-03-26T10:51:51Z</time>
      </trkpt>
      <trkpt lat="44.80076" lon="3.09712">
        <ele>1112.8</ele>
        <time>2022-03-26T10:51:56Z</time>
      </trkpt>
      <trkpt lat="44.80083" lon="3.09713">
        <ele>1112.3</ele>
        <time>2022-03-26T10:52:02Z</time>
      </trkpt>
      <trkpt lat="44.80092" lon="3.09714">
        <ele>1111.6</ele>
        <time>2022-03-26T10:52:07Z</time>
      </trkpt>
      <trkpt lat="44.80099" lon="3.09711">
        <ele>1110.9</ele>
        <time>2022-03-26T10:52:17Z</time>
      </trkpt>
      <trkpt lat="44.80092" lon="3.09709">
        <ele>1111.4</ele>
        <time>2022-03-26T10:52:24Z</time>
      </trkpt>
      <trkpt lat="44.80101" lon="3.09708">
        <ele>1110.6</ele>
        <time>2022-03-26T10:52:29Z</time>
      </trkpt>
      <trkpt lat="44.80109" lon="3.09709">
        <ele>1110</ele>
        <time>2022-03-26T10:52:36Z</time>
      </trkpt>
      <trkpt lat="44.80115" lon="3.09714">
        <ele>1109.8</ele>
        <time>2022-03-26T10:52:55Z</time>
      </trkpt>
      <trkpt lat="44.8012" lon="3.09721">
        <ele>1109.7</ele>
        <time>2022-03-26T10:53:00Z</time>
      </trkpt>
      <trkpt lat="44.80125" lon="3.09729">
        <ele>1109.6</ele>
        <time>2022-03-26T10:53:05Z</time>
      </trkpt>
      <trkpt lat="44.80132" lon="3.09736">
        <ele>1109.3</ele>
        <time>2022-03-26T10:53:26Z</time>
      </trkpt>
      <trkpt lat="44.80138" lon="3.09729">
        <ele>1108.6</ele>
        <time>2022-03-26T10:54:15Z</time>
      </trkpt>
      <trkpt lat="44.80143" lon="3.09723">
        <ele>1107.9</ele>
        <time>2022-03-26T10:54:23Z</time>
      </trkpt>
      <trkpt lat="44.80151" lon="3.0972">
        <ele>1107.2</ele>
        <time>2022-03-26T10:54:28Z</time>
      </trkpt>
      <trkpt lat="44.80157" lon="3.09715">
        <ele>1106.5</ele>
        <time>2022-03-26T10:54:33Z</time>
      </trkpt>
      <trkpt lat="44.80165" lon="3.09711">
        <ele>1105.7</ele>
        <time>2022-03-26T10:54:38Z</time>
      </trkpt>
      <trkpt lat="44.80171" lon="3.09707">
        <ele>1105.3</ele>
        <time>2022-03-26T10:54:46Z</time>
      </trkpt>
      <trkpt lat="44.80179" lon="3.09702">
        <ele>1104.9</ele>
        <time>2022-03-26T10:54:51Z</time>
      </trkpt>
      <trkpt lat="44.80186" lon="3.09697">
        <ele>1104.5</ele>
        <time>2022-03-26T10:54:57Z</time>
      </trkpt>
      <trkpt lat="44.80194" lon="3.09695">
        <ele>1104.1</ele>
        <time>2022-03-26T10:55:02Z</time>
      </trkpt>
      <trkpt lat="44.80201" lon="3.09692">
        <ele>1103.8</ele>
        <time>2022-03-26T10:55:07Z</time>
      </trkpt>
      <trkpt lat="44.80208" lon="3.09691">
        <ele>1103.6</ele>
        <time>2022-03-26T10:55:12Z</time>
      </trkpt>
      <trkpt lat="44.80215" lon="3.09687">
        <ele>1103.3</ele>
        <time>2022-03-26T10:55:17Z</time>
      </trkpt>
      <trkpt lat="44.80222" lon="3.09684">
        <ele>1103</ele>
        <time>2022-03-26T10:55:22Z</time>
      </trkpt>
      <trkpt lat="44.8023" lon="3.0968">
        <ele>1102.7</ele>
        <time>2022-03-26T10:55:28Z</time>
      </trkpt>
      <trkpt lat="44.80237" lon="3.09676">
        <ele>1102.5</ele>
        <time>2022-03-26T10:55:33Z</time>
      </trkpt>
      <trkpt lat="44.80244" lon="3.0967">
        <ele>1102.2</ele>
        <time>2022-03-26T10:55:40Z</time>
      </trkpt>
      <trkpt lat="44.8025" lon="3.09665">
        <ele>1102</ele>
        <time>2022-03-26T10:55:45Z</time>
      </trkpt>
      <trkpt lat="44.80257" lon="3.09659">
        <ele>1102.4</ele>
        <time>2022-03-26T10:55:51Z</time>
      </trkpt>
      <trkpt lat="44.80261" lon="3.09651">
        <ele>1102.6</ele>
        <time>2022-03-26T10:55:57Z</time>
      </trkpt>
      <trkpt lat="44.80268" lon="3.09645">
        <ele>1103</ele>
        <time>2022-03-26T10:56:02Z</time>
      </trkpt>
      <trkpt lat="44.80275" lon="3.0964">
        <ele>1103.6</ele>
        <time>2022-03-26T10:56:07Z</time>
      </trkpt>
      <trkpt lat="44.80282" lon="3.09635">
        <ele>1104.1</ele>
        <time>2022-03-26T10:56:12Z</time>
      </trkpt>
      <trkpt lat="44.80287" lon="3.09628">
        <ele>1104.6</ele>
        <time>2022-03-26T10:56:19Z</time>
      </trkpt>
      <trkpt lat="44.80295" lon="3.09622">
        <ele>1105.3</ele>
        <time>2022-03-26T10:56:24Z</time>
      </trkpt>
      <trkpt lat="44.80301" lon="3.09615">
        <ele>1106</ele>
        <time>2022-03-26T10:56:30Z</time>
      </trkpt>
      <trkpt lat="44.80308" lon="3.09613">
        <ele>1106.6</ele>
        <time>2022-03-26T10:56:35Z</time>
      </trkpt>
      <trkpt lat="44.80314" lon="3.09609">
        <ele>1107.3</ele>
        <time>2022-03-26T10:56:40Z</time>
      </trkpt>
      <trkpt lat="44.8032" lon="3.09605">
        <ele>1107.9</ele>
        <time>2022-03-26T10:56:47Z</time>
      </trkpt>
      <trkpt lat="44.80326" lon="3.09599">
        <ele>1108.7</ele>
        <time>2022-03-26T10:56:55Z</time>
      </trkpt>
      <trkpt lat="44.80333" lon="3.09596">
        <ele>1109.5</ele>
        <time>2022-03-26T10:57:01Z</time>
      </trkpt>
      <trkpt lat="44.80339" lon="3.0959">
        <ele>1110.4</ele>
        <time>2022-03-26T10:57:09Z</time>
      </trkpt>
      <trkpt lat="44.80345" lon="3.09586">
        <ele>1111.2</ele>
        <time>2022-03-26T10:57:14Z</time>
      </trkpt>
      <trkpt lat="44.80351" lon="3.0958">
        <ele>1111.9</ele>
        <time>2022-03-26T10:57:20Z</time>
      </trkpt>
      <trkpt lat="44.80357" lon="3.09574">
        <ele>1112.7</ele>
        <time>2022-03-26T10:57:25Z</time>
      </trkpt>
      <trkpt lat="44.80363" lon="3.09569">
        <ele>1113.4</ele>
        <time>2022-03-26T10:57:30Z</time>
      </trkpt>
      <trkpt lat="44.80369" lon="3.09565">
        <ele>1114.1</ele>
        <time>2022-03-26T10:57:36Z</time>
      </trkpt>
      <trkpt lat="44.80375" lon="3.0956">
        <ele>1114.8</ele>
        <time>2022-03-26T10:57:41Z</time>
      </trkpt>
      <trkpt lat="44.80379" lon="3.09553">
        <ele>1115.3</ele>
        <time>2022-03-26T10:57:47Z</time>
      </trkpt>
      <trkpt lat="44.80385" lon="3.09548">
        <ele>1116</ele>
        <time>2022-03-26T10:57:52Z</time>
      </trkpt>
      <trkpt lat="44.80394" lon="3.09544">
        <ele>1117</ele>
        <time>2022-03-26T10:57:57Z</time>
      </trkpt>
      <trkpt lat="44.80401" lon="3.0954">
        <ele>1117.8</ele>
        <time>2022-03-26T10:58:03Z</time>
      </trkpt>
      <trkpt lat="44.80408" lon="3.09535">
        <ele>1118.6</ele>
        <time>2022-03-26T10:58:09Z</time>
      </trkpt>
      <trkpt lat="44.80415" lon="3.09531">
        <ele>1119.4</ele>
        <time>2022-03-26T10:58:15Z</time>
      </trkpt>
      <trkpt lat="44.80422" lon="3.09525">
        <ele>1119.9</ele>
        <time>2022-03-26T10:58:21Z</time>
      </trkpt>
      <trkpt lat="44.80431" lon="3.09522">
        <ele>1120.2</ele>
        <time>2022-03-26T10:58:26Z</time>
      </trkpt>
      <trkpt lat="44.80438" lon="3.09519">
        <ele>1120.4</ele>
        <time>2022-03-26T10:58:31Z</time>
      </trkpt>
      <trkpt lat="44.80448" lon="3.09516">
        <ele>1120.7</ele>
        <time>2022-03-26T10:58:36Z</time>
      </trkpt>
      <trkpt lat="44.80455" lon="3.09514">
        <ele>1120.8</ele>
        <time>2022-03-26T10:58:43Z</time>
      </trkpt>
      <trkpt lat="44.80461" lon="3.0951">
        <ele>1120.9</ele>
        <time>2022-03-26T10:58:48Z</time>
      </trkpt>
      <trkpt lat="44.80468" lon="3.09511">
        <ele>1121.1</ele>
        <time>2022-03-26T10:58:54Z</time>
      </trkpt>
      <trkpt lat="44.80477" lon="3.09513">
        <ele>1121.4</ele>
        <time>2022-03-26T10:58:59Z</time>
      </trkpt>
      <trkpt lat="44.80485" lon="3.09513">
        <ele>1121.6</ele>
        <time>2022-03-26T10:59:04Z</time>
      </trkpt>
      <trkpt lat="44.80494" lon="3.09514">
        <ele>1121.9</ele>
        <time>2022-03-26T10:59:09Z</time>
      </trkpt>
      <trkpt lat="44.805" lon="3.09513">
        <ele>1121.9</ele>
        <time>2022-03-26T11:00:45Z</time>
      </trkpt>
      <trkpt lat="44.80506" lon="3.09517">
        <ele>1122</ele>
        <time>2022-03-26T11:00:50Z</time>
      </trkpt>
      <trkpt lat="44.80516" lon="3.09515">
        <ele>1121.3</ele>
        <time>2022-03-26T11:00:55Z</time>
      </trkpt>
      <trkpt lat="44.80523" lon="3.09514">
        <ele>1120.9</ele>
        <time>2022-03-26T11:01:00Z</time>
      </trkpt>
      <trkpt lat="44.80531" lon="3.09513">
        <ele>1120.4</ele>
        <time>2022-03-26T11:01:05Z</time>
      </trkpt>
      <trkpt lat="44.80538" lon="3.09511">
        <ele>1119.9</ele>
        <time>2022-03-26T11:01:12Z</time>
      </trkpt>
      <trkpt lat="44.80545" lon="3.09512">
        <ele>1119.6</ele>
        <time>2022-03-26T11:01:18Z</time>
      </trkpt>
      <trkpt lat="44.80554" lon="3.09511">
        <ele>1119.1</ele>
        <time>2022-03-26T11:01:23Z</time>
      </trkpt>
      <trkpt lat="44.80561" lon="3.09509">
        <ele>1118.5</ele>
        <time>2022-03-26T11:01:29Z</time>
      </trkpt>
      <trkpt lat="44.80569" lon="3.09508">
        <ele>1117.9</ele>
        <time>2022-03-26T11:01:34Z</time>
      </trkpt>
      <trkpt lat="44.80575" lon="3.09505">
        <ele>1117.2</ele>
        <time>2022-03-26T11:03:13Z</time>
      </trkpt>
      <trkpt lat="44.80582" lon="3.09506">
        <ele>1116.9</ele>
        <time>2022-03-26T11:03:18Z</time>
      </trkpt>
      <trkpt lat="44.80589" lon="3.09508">
        <ele>1116.9</ele>
        <time>2022-03-26T11:03:23Z</time>
      </trkpt>
      <trkpt lat="44.80597" lon="3.09506">
        <ele>1116.2</ele>
        <time>2022-03-26T11:03:29Z</time>
      </trkpt>
      <trkpt lat="44.80605" lon="3.09506">
        <ele>1115.8</ele>
        <time>2022-03-26T11:03:34Z</time>
      </trkpt>
      <trkpt lat="44.80611" lon="3.09501">
        <ele>1114.8</ele>
        <time>2022-03-26T11:03:41Z</time>
      </trkpt>
      <trkpt lat="44.80618" lon="3.09499">
        <ele>1114.3</ele>
        <time>2022-03-26T11:03:47Z</time>
      </trkpt>
      <trkpt lat="44.80624" lon="3.09493">
        <ele>1113.9</ele>
        <time>2022-03-26T11:03:54Z</time>
      </trkpt>
      <trkpt lat="44.80634" lon="3.09487">
        <ele>1113.2</ele>
        <time>2022-03-26T11:03:59Z</time>
      </trkpt>
      <trkpt lat="44.80642" lon="3.09483">
        <ele>1112.5</ele>
        <time>2022-03-26T11:04:04Z</time>
      </trkpt>
      <trkpt lat="44.80647" lon="3.09476">
        <ele>1111.9</ele>
        <time>2022-03-26T11:04:10Z</time>
      </trkpt>
      <trkpt lat="44.80654" lon="3.09469">
        <ele>1111.1</ele>
        <time>2022-03-26T11:04:15Z</time>
      </trkpt>
      <trkpt lat="44.8066" lon="3.09466">
        <ele>1110.5</ele>
        <time>2022-03-26T11:04:20Z</time>
      </trkpt>
      <trkpt lat="44.80672" lon="3.09465">
        <ele>1109.8</ele>
        <time>2022-03-26T11:04:25Z</time>
      </trkpt>
      <trkpt lat="44.80678" lon="3.09463">
        <ele>1109.5</ele>
        <time>2022-03-26T11:04:30Z</time>
      </trkpt>
      <trkpt lat="44.80685" lon="3.09462">
        <ele>1109.2</ele>
        <time>2022-03-26T11:04:36Z</time>
      </trkpt>
      <trkpt lat="44.80692" lon="3.09461">
        <ele>1108.9</ele>
        <time>2022-03-26T11:04:41Z</time>
      </trkpt>
      <trkpt lat="44.807" lon="3.09459">
        <ele>1108.6</ele>
        <time>2022-03-26T11:04:46Z</time>
      </trkpt>
      <trkpt lat="44.80709" lon="3.09456">
        <ele>1108</ele>
        <time>2022-03-26T11:04:51Z</time>
      </trkpt>
      <trkpt lat="44.80717" lon="3.09449">
        <ele>1107.1</ele>
        <time>2022-03-26T11:04:57Z</time>
      </trkpt>
      <trkpt lat="44.80723" lon="3.09445">
        <ele>1106.5</ele>
        <time>2022-03-26T11:05:02Z</time>
      </trkpt>
      <trkpt lat="44.8073" lon="3.09444">
        <ele>1106.1</ele>
        <time>2022-03-26T11:05:09Z</time>
      </trkpt>
      <trkpt lat="44.80739" lon="3.09443">
        <ele>1105.6</ele>
        <time>2022-03-26T11:05:15Z</time>
      </trkpt>
      <trkpt lat="44.80747" lon="3.09442">
        <ele>1105.2</ele>
        <time>2022-03-26T11:05:25Z</time>
      </trkpt>
      <trkpt lat="44.80754" lon="3.09444">
        <ele>1104.9</ele>
        <time>2022-03-26T11:05:31Z</time>
      </trkpt>
      <trkpt lat="44.80764" lon="3.09447">
        <ele>1104.4</ele>
        <time>2022-03-26T11:05:36Z</time>
      </trkpt>
      <trkpt lat="44.80772" lon="3.09447">
        <ele>1103.7</ele>
        <time>2022-03-26T11:05:41Z</time>
      </trkpt>
      <trkpt lat="44.80779" lon="3.09447">
        <ele>1103</ele>
        <time>2022-03-26T11:05:47Z</time>
      </trkpt>
      <trkpt lat="44.80788" lon="3.09447">
        <ele>1102.2</ele>
        <time>2022-03-26T11:05:52Z</time>
      </trkpt>
      <trkpt lat="44.80795" lon="3.09447">
        <ele>1101.6</ele>
        <time>2022-03-26T11:05:57Z</time>
      </trkpt>
      <trkpt lat="44.80805" lon="3.09444">
        <ele>1100.5</ele>
        <time>2022-03-26T11:06:02Z</time>
      </trkpt>
      <trkpt lat="44.80815" lon="3.09442">
        <ele>1099.4</ele>
        <time>2022-03-26T11:06:07Z</time>
      </trkpt>
      <trkpt lat="44.80823" lon="3.09443">
        <ele>1098.8</ele>
        <time>2022-03-26T11:06:12Z</time>
      </trkpt>
      <trkpt lat="44.8083" lon="3.09442">
        <ele>1098.1</ele>
        <time>2022-03-26T11:06:18Z</time>
      </trkpt>
      <trkpt lat="44.8084" lon="3.09442">
        <ele>1097</ele>
        <time>2022-03-26T11:06:23Z</time>
      </trkpt>
      <trkpt lat="44.80848" lon="3.09441">
        <ele>1095.9</ele>
        <time>2022-03-26T11:06:29Z</time>
      </trkpt>
      <trkpt lat="44.80855" lon="3.0944">
        <ele>1095</ele>
        <time>2022-03-26T11:06:34Z</time>
      </trkpt>
      <trkpt lat="44.80863" lon="3.0944">
        <ele>1094</ele>
        <time>2022-03-26T11:06:39Z</time>
      </trkpt>
      <trkpt lat="44.8087" lon="3.09439">
        <ele>1093.1</ele>
        <time>2022-03-26T11:06:45Z</time>
      </trkpt>
      <trkpt lat="44.80877" lon="3.09438">
        <ele>1092.2</ele>
        <time>2022-03-26T11:06:50Z</time>
      </trkpt>
      <trkpt lat="44.80884" lon="3.09439">
        <ele>1091.4</ele>
        <time>2022-03-26T11:06:55Z</time>
      </trkpt>
      <trkpt lat="44.80891" lon="3.09439">
        <ele>1090.5</ele>
        <time>2022-03-26T11:07:02Z</time>
      </trkpt>
      <trkpt lat="44.809" lon="3.09436">
        <ele>1089.2</ele>
        <time>2022-03-26T11:07:07Z</time>
      </trkpt>
      <trkpt lat="44.80908" lon="3.09433">
        <ele>1088</ele>
        <time>2022-03-26T11:07:12Z</time>
      </trkpt>
      <trkpt lat="44.80915" lon="3.09429">
        <ele>1086.9</ele>
        <time>2022-03-26T11:07:18Z</time>
      </trkpt>
      <trkpt lat="44.80923" lon="3.09425">
        <ele>1086.2</ele>
        <time>2022-03-26T11:07:23Z</time>
      </trkpt>
      <trkpt lat="44.80929" lon="3.09421">
        <ele>1085.6</ele>
        <time>2022-03-26T11:07:29Z</time>
      </trkpt>
      <trkpt lat="44.80937" lon="3.09417">
        <ele>1085</ele>
        <time>2022-03-26T11:07:34Z</time>
      </trkpt>
      <trkpt lat="44.80943" lon="3.09413">
        <ele>1084.4</ele>
        <time>2022-03-26T11:07:39Z</time>
      </trkpt>
      <trkpt lat="44.8095" lon="3.09408">
        <ele>1083.5</ele>
        <time>2022-03-26T11:07:44Z</time>
      </trkpt>
      <trkpt lat="44.80956" lon="3.09403">
        <ele>1082.8</ele>
        <time>2022-03-26T11:07:50Z</time>
      </trkpt>
      <trkpt lat="44.80964" lon="3.09397">
        <ele>1081.9</ele>
        <time>2022-03-26T11:07:55Z</time>
      </trkpt>
      <trkpt lat="44.80972" lon="3.09393">
        <ele>1081.2</ele>
        <time>2022-03-26T11:08:00Z</time>
      </trkpt>
      <trkpt lat="44.80987" lon="3.09388">
        <ele>1080.1</ele>
        <time>2022-03-26T11:08:05Z</time>
      </trkpt>
      <trkpt lat="44.80999" lon="3.09388">
        <ele>1079.6</ele>
        <time>2022-03-26T11:08:10Z</time>
      </trkpt>
      <trkpt lat="44.81006" lon="3.09395">
        <ele>1079.4</ele>
        <time>2022-03-26T11:08:15Z</time>
      </trkpt>
      <trkpt lat="44.81006" lon="3.09406">
        <ele>1080.3</ele>
        <time>2022-03-26T11:08:21Z</time>
      </trkpt>
      <trkpt lat="44.81006" lon="3.09416">
        <ele>1081.2</ele>
        <time>2022-03-26T11:08:27Z</time>
      </trkpt>
      <trkpt lat="44.81008" lon="3.09425">
        <ele>1080.9</ele>
        <time>2022-03-26T11:08:37Z</time>
      </trkpt>
      <trkpt lat="44.81009" lon="3.09434">
        <ele>1080.8</ele>
        <time>2022-03-26T11:08:44Z</time>
      </trkpt>
      <trkpt lat="44.81007" lon="3.09444">
        <ele>1081</ele>
        <time>2022-03-26T11:08:49Z</time>
      </trkpt>
      <trkpt lat="44.81008" lon="3.09454">
        <ele>1080.9</ele>
        <time>2022-03-26T11:08:54Z</time>
      </trkpt>
      <trkpt lat="44.81006" lon="3.09466">
        <ele>1081.1</ele>
        <time>2022-03-26T11:08:59Z</time>
      </trkpt>
      <trkpt lat="44.81006" lon="3.09478">
        <ele>1081.1</ele>
        <time>2022-03-26T11:09:04Z</time>
      </trkpt>
      <trkpt lat="44.81004" lon="3.09489">
        <ele>1081.4</ele>
        <time>2022-03-26T11:09:09Z</time>
      </trkpt>
      <trkpt lat="44.81002" lon="3.09498">
        <ele>1081.7</ele>
        <time>2022-03-26T11:09:14Z</time>
      </trkpt>
      <trkpt lat="44.81" lon="3.0951">
        <ele>1081.5</ele>
        <time>2022-03-26T11:09:19Z</time>
      </trkpt>
      <trkpt lat="44.80998" lon="3.09525">
        <ele>1081.1</ele>
        <time>2022-03-26T11:09:24Z</time>
      </trkpt>
      <trkpt lat="44.80996" lon="3.09534">
        <ele>1081</ele>
        <time>2022-03-26T11:09:29Z</time>
      </trkpt>
      <trkpt lat="44.80993" lon="3.0955">
        <ele>1080.9</ele>
        <time>2022-03-26T11:09:34Z</time>
      </trkpt>
      <trkpt lat="44.80992" lon="3.09559">
        <ele>1080.8</ele>
        <time>2022-03-26T11:09:39Z</time>
      </trkpt>
      <trkpt lat="44.80992" lon="3.0957">
        <ele>1080.4</ele>
        <time>2022-03-26T11:09:44Z</time>
      </trkpt>
      <trkpt lat="44.80992" lon="3.09582">
        <ele>1080</ele>
        <time>2022-03-26T11:09:49Z</time>
      </trkpt>
      <trkpt lat="44.80991" lon="3.09593">
        <ele>1079.9</ele>
        <time>2022-03-26T11:09:55Z</time>
      </trkpt>
      <trkpt lat="44.8099" lon="3.09605">
        <ele>1079.8</ele>
        <time>2022-03-26T11:10:00Z</time>
      </trkpt>
      <trkpt lat="44.8099" lon="3.09617">
        <ele>1079.5</ele>
        <time>2022-03-26T11:10:05Z</time>
      </trkpt>
      <trkpt lat="44.80988" lon="3.09628">
        <ele>1079.7</ele>
        <time>2022-03-26T11:10:10Z</time>
      </trkpt>
      <trkpt lat="44.80988" lon="3.09641">
        <ele>1079.4</ele>
        <time>2022-03-26T11:10:15Z</time>
      </trkpt>
      <trkpt lat="44.80986" lon="3.0965">
        <ele>1079.8</ele>
        <time>2022-03-26T11:10:20Z</time>
      </trkpt>
      <trkpt lat="44.80984" lon="3.0966">
        <ele>1080.1</ele>
        <time>2022-03-26T11:10:25Z</time>
      </trkpt>
      <trkpt lat="44.80985" lon="3.09672">
        <ele>1079.7</ele>
        <time>2022-03-26T11:10:30Z</time>
      </trkpt>
      <trkpt lat="44.80983" lon="3.09683">
        <ele>1080.3</ele>
        <time>2022-03-26T11:10:35Z</time>
      </trkpt>
      <trkpt lat="44.80982" lon="3.09696">
        <ele>1080.7</ele>
        <time>2022-03-26T11:10:40Z</time>
      </trkpt>
      <trkpt lat="44.8098" lon="3.09708">
        <ele>1081.4</ele>
        <time>2022-03-26T11:10:45Z</time>
      </trkpt>
      <trkpt lat="44.80981" lon="3.0972">
        <ele>1081.1</ele>
        <time>2022-03-26T11:10:50Z</time>
      </trkpt>
      <trkpt lat="44.80983" lon="3.09731">
        <ele>1080.5</ele>
        <time>2022-03-26T11:10:56Z</time>
      </trkpt>
      <trkpt lat="44.80983" lon="3.09742">
        <ele>1080.5</ele>
        <time>2022-03-26T11:11:01Z</time>
      </trkpt>
      <trkpt lat="44.80983" lon="3.09753">
        <ele>1080.6</ele>
        <time>2022-03-26T11:11:06Z</time>
      </trkpt>
      <trkpt lat="44.80984" lon="3.09764">
        <ele>1080.6</ele>
        <time>2022-03-26T11:11:11Z</time>
      </trkpt>
      <trkpt lat="44.80985" lon="3.09775">
        <ele>1080.6</ele>
        <time>2022-03-26T11:11:16Z</time>
      </trkpt>
      <trkpt lat="44.80987" lon="3.09785">
        <ele>1080.3</ele>
        <time>2022-03-26T11:11:21Z</time>
      </trkpt>
      <trkpt lat="44.80988" lon="3.09794">
        <ele>1080.3</ele>
        <time>2022-03-26T11:11:26Z</time>
      </trkpt>
      <trkpt lat="44.80988" lon="3.09806">
        <ele>1080.7</ele>
        <time>2022-03-26T11:11:31Z</time>
      </trkpt>
      <trkpt lat="44.80988" lon="3.09816">
        <ele>1081</ele>
        <time>2022-03-26T11:11:36Z</time>
      </trkpt>
      <trkpt lat="44.80986" lon="3.09825">
        <ele>1081.8</ele>
        <time>2022-03-26T11:11:41Z</time>
      </trkpt>
      <trkpt lat="44.80984" lon="3.09837">
        <ele>1082.1</ele>
        <time>2022-03-26T11:11:46Z</time>
      </trkpt>
      <trkpt lat="44.80984" lon="3.09847">
        <ele>1081.1</ele>
        <time>2022-03-26T11:11:51Z</time>
      </trkpt>
      <trkpt lat="44.80982" lon="3.09858">
        <ele>1080.5</ele>
        <time>2022-03-26T11:12:22Z</time>
      </trkpt>
      <trkpt lat="44.8098" lon="3.09867">
        <ele>1080</ele>
        <time>2022-03-26T11:12:28Z</time>
      </trkpt>
      <trkpt lat="44.8098" lon="3.09876">
        <ele>1079.1</ele>
        <time>2022-03-26T11:12:33Z</time>
      </trkpt>
      <trkpt lat="44.80981" lon="3.09887">
        <ele>1077.8</ele>
        <time>2022-03-26T11:12:38Z</time>
      </trkpt>
      <trkpt lat="44.80981" lon="3.09898">
        <ele>1076.7</ele>
        <time>2022-03-26T11:12:43Z</time>
      </trkpt>
      <trkpt lat="44.80983" lon="3.09908">
        <ele>1075.3</ele>
        <time>2022-03-26T11:12:48Z</time>
      </trkpt>
      <trkpt lat="44.80985" lon="3.0992">
        <ele>1073.5</ele>
        <time>2022-03-26T11:12:53Z</time>
      </trkpt>
      <trkpt lat="44.80988" lon="3.0993">
        <ele>1071.2</ele>
        <time>2022-03-26T11:12:58Z</time>
      </trkpt>
      <trkpt lat="44.8099" lon="3.09939">
        <ele>1069.3</ele>
        <time>2022-03-26T11:13:03Z</time>
      </trkpt>
      <trkpt lat="44.80993" lon="3.0995">
        <ele>1066.8</ele>
        <time>2022-03-26T11:13:08Z</time>
      </trkpt>
      <trkpt lat="44.80993" lon="3.09962">
        <ele>1064.8</ele>
        <time>2022-03-26T11:13:13Z</time>
      </trkpt>
      <trkpt lat="44.80992" lon="3.09976">
        <ele>1062.7</ele>
        <time>2022-03-26T11:13:18Z</time>
      </trkpt>
      <trkpt lat="44.80991" lon="3.09988">
        <ele>1060.9</ele>
        <time>2022-03-26T11:13:23Z</time>
      </trkpt>
      <trkpt lat="44.80994" lon="3.09997">
        <ele>1058.7</ele>
        <time>2022-03-26T11:13:28Z</time>
      </trkpt>
      <trkpt lat="44.80995" lon="3.1001">
        <ele>1056.8</ele>
        <time>2022-03-26T11:13:33Z</time>
      </trkpt>
      <trkpt lat="44.80997" lon="3.10018">
        <ele>1055.4</ele>
        <time>2022-03-26T11:13:38Z</time>
      </trkpt>
      <trkpt lat="44.81001" lon="3.10026">
        <ele>1053.9</ele>
        <time>2022-03-26T11:13:43Z</time>
      </trkpt>
      <trkpt lat="44.81008" lon="3.10038">
        <ele>1052.3</ele>
        <time>2022-03-26T11:13:48Z</time>
      </trkpt>
      <trkpt lat="44.8101" lon="3.10048">
        <ele>1051.1</ele>
        <time>2022-03-26T11:13:53Z</time>
      </trkpt>
      <trkpt lat="44.81014" lon="3.10057">
        <ele>1050</ele>
        <time>2022-03-26T11:13:58Z</time>
      </trkpt>
      <trkpt lat="44.81016" lon="3.10069">
        <ele>1048.6</ele>
        <time>2022-03-26T11:14:03Z</time>
      </trkpt>
      <trkpt lat="44.8102" lon="3.1008">
        <ele>1047.4</ele>
        <time>2022-03-26T11:14:08Z</time>
      </trkpt>
      <trkpt lat="44.81021" lon="3.1009">
        <ele>1046.3</ele>
        <time>2022-03-26T11:14:41Z</time>
      </trkpt>
      <trkpt lat="44.81022" lon="3.10102">
        <ele>1045</ele>
        <time>2022-03-26T11:14:46Z</time>
      </trkpt>
      <trkpt lat="44.81025" lon="3.10111">
        <ele>1044.1</ele>
        <time>2022-03-26T11:14:51Z</time>
      </trkpt>
      <trkpt lat="44.81029" lon="3.10123">
        <ele>1042.9</ele>
        <time>2022-03-26T11:14:56Z</time>
      </trkpt>
      <trkpt lat="44.81032" lon="3.10133">
        <ele>1041.9</ele>
        <time>2022-03-26T11:15:01Z</time>
      </trkpt>
      <trkpt lat="44.81033" lon="3.10142">
        <ele>1040.9</ele>
        <time>2022-03-26T11:15:06Z</time>
      </trkpt>
      <trkpt lat="44.81035" lon="3.10155">
        <ele>1039.6</ele>
        <time>2022-03-26T11:15:11Z</time>
      </trkpt>
      <trkpt lat="44.8104" lon="3.10163">
        <ele>1038.9</ele>
        <time>2022-03-26T11:15:16Z</time>
      </trkpt>
      <trkpt lat="44.81043" lon="3.10174">
        <ele>1038.3</ele>
        <time>2022-03-26T11:15:21Z</time>
      </trkpt>
      <trkpt lat="44.81046" lon="3.10185">
        <ele>1037.9</ele>
        <time>2022-03-26T11:15:26Z</time>
      </trkpt>
      <trkpt lat="44.81049" lon="3.10195">
        <ele>1037.7</ele>
        <time>2022-03-26T11:15:31Z</time>
      </trkpt>
      <trkpt lat="44.81054" lon="3.10206">
        <ele>1037.5</ele>
        <time>2022-03-26T11:15:36Z</time>
      </trkpt>
      <trkpt lat="44.81056" lon="3.10215">
        <ele>1037.3</ele>
        <time>2022-03-26T11:15:41Z</time>
      </trkpt>
      <trkpt lat="44.81059" lon="3.10225">
        <ele>1037.2</ele>
        <time>2022-03-26T11:15:46Z</time>
      </trkpt>
      <trkpt lat="44.81063" lon="3.10233">
        <ele>1037.2</ele>
        <time>2022-03-26T11:15:51Z</time>
      </trkpt>
      <trkpt lat="44.81064" lon="3.10245">
        <ele>1037</ele>
        <time>2022-03-26T11:15:56Z</time>
      </trkpt>
      <trkpt lat="44.81068" lon="3.10255">
        <ele>1037.1</ele>
        <time>2022-03-26T11:16:01Z</time>
      </trkpt>
      <trkpt lat="44.81068" lon="3.10269">
        <ele>1037.2</ele>
        <time>2022-03-26T11:16:06Z</time>
      </trkpt>
      <trkpt lat="44.8107" lon="3.10279">
        <ele>1037.3</ele>
        <time>2022-03-26T11:16:11Z</time>
      </trkpt>
      <trkpt lat="44.81073" lon="3.10291">
        <ele>1037.5</ele>
        <time>2022-03-26T11:16:16Z</time>
      </trkpt>
      <trkpt lat="44.81073" lon="3.10301">
        <ele>1037.5</ele>
        <time>2022-03-26T11:16:21Z</time>
      </trkpt>
      <trkpt lat="44.81074" lon="3.10314">
        <ele>1037.6</ele>
        <time>2022-03-26T11:16:26Z</time>
      </trkpt>
      <trkpt lat="44.81074" lon="3.10324">
        <ele>1037.6</ele>
        <time>2022-03-26T11:16:31Z</time>
      </trkpt>
      <trkpt lat="44.81077" lon="3.10335">
        <ele>1037.6</ele>
        <time>2022-03-26T11:16:36Z</time>
      </trkpt>
      <trkpt lat="44.81081" lon="3.10346">
        <ele>1036.3</ele>
        <time>2022-03-26T11:16:41Z</time>
      </trkpt>
      <trkpt lat="44.81082" lon="3.10357">
        <ele>1034.8</ele>
        <time>2022-03-26T11:16:46Z</time>
      </trkpt>
      <trkpt lat="44.81085" lon="3.10368">
        <ele>1033.4</ele>
        <time>2022-03-26T11:16:52Z</time>
      </trkpt>
      <trkpt lat="44.81088" lon="3.10379">
        <ele>1031.9</ele>
        <time>2022-03-26T11:16:57Z</time>
      </trkpt>
      <trkpt lat="44.81091" lon="3.10388">
        <ele>1030.7</ele>
        <time>2022-03-26T11:17:02Z</time>
      </trkpt>
      <trkpt lat="44.81094" lon="3.10397">
        <ele>1029.6</ele>
        <time>2022-03-26T11:17:07Z</time>
      </trkpt>
      <trkpt lat="44.81098" lon="3.1041">
        <ele>1028</ele>
        <time>2022-03-26T11:17:12Z</time>
      </trkpt>
      <trkpt lat="44.81102" lon="3.1042">
        <ele>1026.9</ele>
        <time>2022-03-26T11:17:17Z</time>
      </trkpt>
      <trkpt lat="44.81104" lon="3.1043">
        <ele>1025.8</ele>
        <time>2022-03-26T11:17:22Z</time>
      </trkpt>
      <trkpt lat="44.81106" lon="3.10441">
        <ele>1024.6</ele>
        <time>2022-03-26T11:17:27Z</time>
      </trkpt>
      <trkpt lat="44.81108" lon="3.10452">
        <ele>1023.5</ele>
        <time>2022-03-26T11:17:32Z</time>
      </trkpt>
      <trkpt lat="44.8111" lon="3.10464">
        <ele>1022.2</ele>
        <time>2022-03-26T11:17:37Z</time>
      </trkpt>
      <trkpt lat="44.81112" lon="3.10473">
        <ele>1021.3</ele>
        <time>2022-03-26T11:17:42Z</time>
      </trkpt>
      <trkpt lat="44.81112" lon="3.10483">
        <ele>1020.2</ele>
        <time>2022-03-26T11:17:47Z</time>
      </trkpt>
      <trkpt lat="44.8111" lon="3.10495">
        <ele>1018.9</ele>
        <time>2022-03-26T11:17:52Z</time>
      </trkpt>
      <trkpt lat="44.81108" lon="3.10508">
        <ele>1018.2</ele>
        <time>2022-03-26T11:17:57Z</time>
      </trkpt>
      <trkpt lat="44.81108" lon="3.10518">
        <ele>1018.2</ele>
        <time>2022-03-26T11:18:03Z</time>
      </trkpt>
      <trkpt lat="44.8111" lon="3.10529">
        <ele>1018.1</ele>
        <time>2022-03-26T11:18:08Z</time>
      </trkpt>
      <trkpt lat="44.81111" lon="3.10541">
        <ele>1018</ele>
        <time>2022-03-26T11:18:13Z</time>
      </trkpt>
      <trkpt lat="44.81111" lon="3.10554">
        <ele>1017.9</ele>
        <time>2022-03-26T11:18:18Z</time>
      </trkpt>
      <trkpt lat="44.81112" lon="3.10563">
        <ele>1017.8</ele>
        <time>2022-03-26T11:18:24Z</time>
      </trkpt>
      <trkpt lat="44.81115" lon="3.10573">
        <ele>1017.6</ele>
        <time>2022-03-26T11:18:29Z</time>
      </trkpt>
      <trkpt lat="44.8112" lon="3.10582">
        <ele>1017.3</ele>
        <time>2022-03-26T11:18:34Z</time>
      </trkpt>
      <trkpt lat="44.81126" lon="3.10591">
        <ele>1017</ele>
        <time>2022-03-26T11:18:39Z</time>
      </trkpt>
      <trkpt lat="44.81128" lon="3.106">
        <ele>1017</ele>
        <time>2022-03-26T11:18:44Z</time>
      </trkpt>
      <trkpt lat="44.8113" lon="3.1061">
        <ele>1017</ele>
        <time>2022-03-26T11:18:50Z</time>
      </trkpt>
      <trkpt lat="44.81133" lon="3.1062">
        <ele>1017</ele>
        <time>2022-03-26T11:18:56Z</time>
      </trkpt>
      <trkpt lat="44.81139" lon="3.10618">
        <ele>1016.6</ele>
        <time>2022-03-26T11:19:13Z</time>
      </trkpt>
      <trkpt lat="44.81147" lon="3.1062">
        <ele>1016.2</ele>
        <time>2022-03-26T11:19:29Z</time>
      </trkpt>
      <trkpt lat="44.81154" lon="3.10618">
        <ele>1015.7</ele>
        <time>2022-03-26T11:19:34Z</time>
      </trkpt>
      <trkpt lat="44.81161" lon="3.10618">
        <ele>1015.3</ele>
        <time>2022-03-26T11:19:42Z</time>
      </trkpt>
      <trkpt lat="44.81154" lon="3.1062">
        <ele>1015.7</ele>
        <time>2022-03-26T11:20:07Z</time>
      </trkpt>
      <trkpt lat="44.81148" lon="3.10621">
        <ele>1016.1</ele>
        <time>2022-03-26T11:20:12Z</time>
      </trkpt>
      <trkpt lat="44.8114" lon="3.10621">
        <ele>1016.6</ele>
        <time>2022-03-26T11:20:57Z</time>
      </trkpt>
      <trkpt lat="44.81133" lon="3.10618">
        <ele>1017</ele>
        <time>2022-03-26T11:21:03Z</time>
      </trkpt>
      <trkpt lat="44.81127" lon="3.10617">
        <ele>1017.3</ele>
        <time>2022-03-26T11:21:09Z</time>
      </trkpt>
      <trkpt lat="44.8112" lon="3.1062">
        <ele>1017.7</ele>
        <time>2022-03-26T11:21:14Z</time>
      </trkpt>
      <trkpt lat="44.81114" lon="3.10628">
        <ele>1018.2</ele>
        <time>2022-03-26T11:21:19Z</time>
      </trkpt>
      <trkpt lat="44.81109" lon="3.10635">
        <ele>1018.6</ele>
        <time>2022-03-26T11:21:27Z</time>
      </trkpt>
      <trkpt lat="44.81102" lon="3.10642">
        <ele>1019.2</ele>
        <time>2022-03-26T11:21:32Z</time>
      </trkpt>
      <trkpt lat="44.81096" lon="3.10648">
        <ele>1019.7</ele>
        <time>2022-03-26T11:21:37Z</time>
      </trkpt>
      <trkpt lat="44.81089" lon="3.10652">
        <ele>1020.3</ele>
        <time>2022-03-26T11:21:43Z</time>
      </trkpt>
      <trkpt lat="44.81084" lon="3.1066">
        <ele>1020.8</ele>
        <time>2022-03-26T11:21:48Z</time>
      </trkpt>
      <trkpt lat="44.8108" lon="3.10669">
        <ele>1021.2</ele>
        <time>2022-03-26T11:21:54Z</time>
      </trkpt>
      <trkpt lat="44.8108" lon="3.1068">
        <ele>1021.3</ele>
        <time>2022-03-26T11:21:59Z</time>
      </trkpt>
      <trkpt lat="44.81078" lon="3.10689">
        <ele>1021.5</ele>
        <time>2022-03-26T11:22:04Z</time>
      </trkpt>
      <trkpt lat="44.81077" lon="3.10699">
        <ele>1021.6</ele>
        <time>2022-03-26T11:22:11Z</time>
      </trkpt>
      <trkpt lat="44.81078" lon="3.10709">
        <ele>1021.5</ele>
        <time>2022-03-26T11:22:26Z</time>
      </trkpt>
      <trkpt lat="44.81075" lon="3.10719">
        <ele>1021.9</ele>
        <time>2022-03-26T11:22:31Z</time>
      </trkpt>
      <trkpt lat="44.81075" lon="3.10729">
        <ele>1021.9</ele>
        <time>2022-03-26T11:22:36Z</time>
      </trkpt>
      <trkpt lat="44.81073" lon="3.10739">
        <ele>1022.2</ele>
        <time>2022-03-26T11:22:41Z</time>
      </trkpt>
      <trkpt lat="44.81074" lon="3.10748">
        <ele>1022.1</ele>
        <time>2022-03-26T11:22:46Z</time>
      </trkpt>
      <trkpt lat="44.81074" lon="3.10759">
        <ele>1022.4</ele>
        <time>2022-03-26T11:22:51Z</time>
      </trkpt>
      <trkpt lat="44.81074" lon="3.10769">
        <ele>1022.8</ele>
        <time>2022-03-26T11:22:56Z</time>
      </trkpt>
      <trkpt lat="44.81074" lon="3.10779">
        <ele>1023.2</ele>
        <time>2022-03-26T11:23:01Z</time>
      </trkpt>
      <trkpt lat="44.81075" lon="3.10789">
        <ele>1023.4</ele>
        <time>2022-03-26T11:23:06Z</time>
      </trkpt>
      <trkpt lat="44.81077" lon="3.10801">
        <ele>1023.6</ele>
        <time>2022-03-26T11:23:11Z</time>
      </trkpt>
      <trkpt lat="44.81078" lon="3.10811">
        <ele>1023.8</ele>
        <time>2022-03-26T11:23:16Z</time>
      </trkpt>
      <trkpt lat="44.81079" lon="3.10822">
        <ele>1024.1</ele>
        <time>2022-03-26T11:23:21Z</time>
      </trkpt>
      <trkpt lat="44.81083" lon="3.10832">
        <ele>1024</ele>
        <time>2022-03-26T11:23:26Z</time>
      </trkpt>
      <trkpt lat="44.81082" lon="3.10845">
        <ele>1024</ele>
        <time>2022-03-26T11:23:31Z</time>
      </trkpt>
      <trkpt lat="44.81082" lon="3.10855">
        <ele>1023.9</ele>
        <time>2022-03-26T11:23:36Z</time>
      </trkpt>
      <trkpt lat="44.81082" lon="3.10867">
        <ele>1023.7</ele>
        <time>2022-03-26T11:23:41Z</time>
      </trkpt>
      <trkpt lat="44.81083" lon="3.10878">
        <ele>1023.5</ele>
        <time>2022-03-26T11:23:46Z</time>
      </trkpt>
      <trkpt lat="44.81084" lon="3.10888">
        <ele>1023.3</ele>
        <time>2022-03-26T11:23:51Z</time>
      </trkpt>
      <trkpt lat="44.81085" lon="3.10903">
        <ele>1023</ele>
        <time>2022-03-26T11:23:56Z</time>
      </trkpt>
      <trkpt lat="44.81088" lon="3.10914">
        <ele>1022.5</ele>
        <time>2022-03-26T11:24:01Z</time>
      </trkpt>
      <trkpt lat="44.81088" lon="3.10924">
        <ele>1021.7</ele>
        <time>2022-03-26T11:24:06Z</time>
      </trkpt>
      <trkpt lat="44.81087" lon="3.10934">
        <ele>1020.7</ele>
        <time>2022-03-26T11:24:11Z</time>
      </trkpt>
      <trkpt lat="44.81085" lon="3.10947">
        <ele>1019.6</ele>
        <time>2022-03-26T11:24:16Z</time>
      </trkpt>
      <trkpt lat="44.81083" lon="3.10956">
        <ele>1018.8</ele>
        <time>2022-03-26T11:24:21Z</time>
      </trkpt>
      <trkpt lat="44.81081" lon="3.10965">
        <ele>1018.1</ele>
        <time>2022-03-26T11:24:26Z</time>
      </trkpt>
      <trkpt lat="44.81074" lon="3.10972">
        <ele>1018.2</ele>
        <time>2022-03-26T11:24:31Z</time>
      </trkpt>
      <trkpt lat="44.81069" lon="3.10983">
        <ele>1017.7</ele>
        <time>2022-03-26T11:24:36Z</time>
      </trkpt>
      <trkpt lat="44.81066" lon="3.10993">
        <ele>1017</ele>
        <time>2022-03-26T11:24:58Z</time>
      </trkpt>
      <trkpt lat="44.8106" lon="3.10998">
        <ele>1017.3</ele>
        <time>2022-03-26T11:25:03Z</time>
      </trkpt>
      <trkpt lat="44.81059" lon="3.11008">
        <ele>1017.6</ele>
        <time>2022-03-26T11:25:08Z</time>
      </trkpt>
      <trkpt lat="44.81055" lon="3.11017">
        <ele>1018.6</ele>
        <time>2022-03-26T11:25:13Z</time>
      </trkpt>
      <trkpt lat="44.81051" lon="3.11026">
        <ele>1019.6</ele>
        <time>2022-03-26T11:25:19Z</time>
      </trkpt>
      <trkpt lat="44.8105" lon="3.11037">
        <ele>1020.3</ele>
        <time>2022-03-26T11:25:30Z</time>
      </trkpt>
      <trkpt lat="44.81045" lon="3.11045">
        <ele>1021.3</ele>
        <time>2022-03-26T11:25:35Z</time>
      </trkpt>
      <trkpt lat="44.81042" lon="3.11053">
        <ele>1022</ele>
        <time>2022-03-26T11:25:40Z</time>
      </trkpt>
      <trkpt lat="44.81043" lon="3.11063">
        <ele>1022.4</ele>
        <time>2022-03-26T11:25:45Z</time>
      </trkpt>
      <trkpt lat="44.81041" lon="3.11075">
        <ele>1023.2</ele>
        <time>2022-03-26T11:25:50Z</time>
      </trkpt>
      <trkpt lat="44.8104" lon="3.11086">
        <ele>1023.9</ele>
        <time>2022-03-26T11:25:56Z</time>
      </trkpt>
      <trkpt lat="44.81042" lon="3.11095">
        <ele>1024.4</ele>
        <time>2022-03-26T11:26:01Z</time>
      </trkpt>
      <trkpt lat="44.81043" lon="3.11105">
        <ele>1025.2</ele>
        <time>2022-03-26T11:26:06Z</time>
      </trkpt>
      <trkpt lat="44.81044" lon="3.11114">
        <ele>1025.8</ele>
        <time>2022-03-26T11:26:11Z</time>
      </trkpt>
      <trkpt lat="44.81045" lon="3.11124">
        <ele>1026.5</ele>
        <time>2022-03-26T11:26:17Z</time>
      </trkpt>
      <trkpt lat="44.81051" lon="3.11133">
        <ele>1026.4</ele>
        <time>2022-03-26T11:26:30Z</time>
      </trkpt>
      <trkpt lat="44.8105" lon="3.11149">
        <ele>1027.8</ele>
        <time>2022-03-26T11:26:35Z</time>
      </trkpt>
      <trkpt lat="44.81045" lon="3.11157">
        <ele>1029.2</ele>
        <time>2022-03-26T11:26:40Z</time>
      </trkpt>
      <trkpt lat="44.81041" lon="3.11166">
        <ele>1030.5</ele>
        <time>2022-03-26T11:26:46Z</time>
      </trkpt>
      <trkpt lat="44.81038" lon="3.11177">
        <ele>1031.4</ele>
        <time>2022-03-26T11:26:52Z</time>
      </trkpt>
      <trkpt lat="44.81036" lon="3.11186">
        <ele>1032</ele>
        <time>2022-03-26T11:26:57Z</time>
      </trkpt>
      <trkpt lat="44.81034" lon="3.11198">
        <ele>1032.8</ele>
        <time>2022-03-26T11:27:02Z</time>
      </trkpt>
      <trkpt lat="44.81034" lon="3.11212">
        <ele>1033.3</ele>
        <time>2022-03-26T11:27:07Z</time>
      </trkpt>
      <trkpt lat="44.81034" lon="3.11226">
        <ele>1033.8</ele>
        <time>2022-03-26T11:27:12Z</time>
      </trkpt>
      <trkpt lat="44.81034" lon="3.11236">
        <ele>1034.1</ele>
        <time>2022-03-26T11:27:17Z</time>
      </trkpt>
      <trkpt lat="44.81036" lon="3.11249">
        <ele>1034</ele>
        <time>2022-03-26T11:27:22Z</time>
      </trkpt>
      <trkpt lat="44.81043" lon="3.11259">
        <ele>1032.3</ele>
        <time>2022-03-26T11:27:27Z</time>
      </trkpt>
      <trkpt lat="44.81048" lon="3.11266">
        <ele>1031.1</ele>
        <time>2022-03-26T11:27:32Z</time>
      </trkpt>
      <trkpt lat="44.81052" lon="3.11275">
        <ele>1030.2</ele>
        <time>2022-03-26T11:27:37Z</time>
      </trkpt>
      <trkpt lat="44.81058" lon="3.1128">
        <ele>1028.7</ele>
        <time>2022-03-26T11:27:42Z</time>
      </trkpt>
      <trkpt lat="44.81064" lon="3.11286">
        <ele>1027.3</ele>
        <time>2022-03-26T11:27:47Z</time>
      </trkpt>
      <trkpt lat="44.81075" lon="3.11291">
        <ele>1024.6</ele>
        <time>2022-03-26T11:27:52Z</time>
      </trkpt>
      <trkpt lat="44.81081" lon="3.11293">
        <ele>1023.1</ele>
        <time>2022-03-26T11:27:57Z</time>
      </trkpt>
      <trkpt lat="44.81089" lon="3.11296">
        <ele>1022</ele>
        <time>2022-03-26T11:28:02Z</time>
      </trkpt>
      <trkpt lat="44.81098" lon="3.11297">
        <ele>1020.9</ele>
        <time>2022-03-26T11:28:07Z</time>
      </trkpt>
      <trkpt lat="44.81104" lon="3.11301">
        <ele>1020.3</ele>
        <time>2022-03-26T11:28:12Z</time>
      </trkpt>
      <trkpt lat="44.81112" lon="3.11302">
        <ele>1019.4</ele>
        <time>2022-03-26T11:28:17Z</time>
      </trkpt>
      <trkpt lat="44.81119" lon="3.11307">
        <ele>1018.8</ele>
        <time>2022-03-26T11:28:22Z</time>
      </trkpt>
      <trkpt lat="44.81127" lon="3.11309">
        <ele>1017.9</ele>
        <time>2022-03-26T11:28:27Z</time>
      </trkpt>
      <trkpt lat="44.81133" lon="3.11313">
        <ele>1017.5</ele>
        <time>2022-03-26T11:28:33Z</time>
      </trkpt>
      <trkpt lat="44.8114" lon="3.11316">
        <ele>1016.8</ele>
        <time>2022-03-26T11:28:38Z</time>
      </trkpt>
      <trkpt lat="44.81147" lon="3.11317">
        <ele>1016.1</ele>
        <time>2022-03-26T11:28:43Z</time>
      </trkpt>
      <trkpt lat="44.81158" lon="3.11316">
        <ele>1014.8</ele>
        <time>2022-03-26T11:28:48Z</time>
      </trkpt>
      <trkpt lat="44.81164" lon="3.11319">
        <ele>1014.3</ele>
        <time>2022-03-26T11:28:53Z</time>
      </trkpt>
      <trkpt lat="44.81172" lon="3.11317">
        <ele>1013.7</ele>
        <time>2022-03-26T11:28:59Z</time>
      </trkpt>
      <trkpt lat="44.8118" lon="3.11317">
        <ele>1013.4</ele>
        <time>2022-03-26T11:29:04Z</time>
      </trkpt>
      <trkpt lat="44.81187" lon="3.11315">
        <ele>1013.1</ele>
        <time>2022-03-26T11:29:09Z</time>
      </trkpt>
      <trkpt lat="44.81193" lon="3.11316">
        <ele>1013</ele>
        <time>2022-03-26T11:29:14Z</time>
      </trkpt>
      <trkpt lat="44.81203" lon="3.11314">
        <ele>1012.5</ele>
        <time>2022-03-26T11:29:19Z</time>
      </trkpt>
      <trkpt lat="44.81212" lon="3.11312">
        <ele>1011.9</ele>
        <time>2022-03-26T11:29:24Z</time>
      </trkpt>
      <trkpt lat="44.81218" lon="3.11313">
        <ele>1011.9</ele>
        <time>2022-03-26T11:29:29Z</time>
      </trkpt>
      <trkpt lat="44.81225" lon="3.11314">
        <ele>1011.8</ele>
        <time>2022-03-26T11:29:34Z</time>
      </trkpt>
      <trkpt lat="44.81233" lon="3.11315">
        <ele>1011.7</ele>
        <time>2022-03-26T11:29:39Z</time>
      </trkpt>
      <trkpt lat="44.81242" lon="3.11315">
        <ele>1011.4</ele>
        <time>2022-03-26T11:29:44Z</time>
      </trkpt>
      <trkpt lat="44.81252" lon="3.11321">
        <ele>1012</ele>
        <time>2022-03-26T11:29:49Z</time>
      </trkpt>
      <trkpt lat="44.81259" lon="3.11321">
        <ele>1011.9</ele>
        <time>2022-03-26T11:29:54Z</time>
      </trkpt>
      <trkpt lat="44.81267" lon="3.11324">
        <ele>1012.1</ele>
        <time>2022-03-26T11:29:59Z</time>
      </trkpt>
      <trkpt lat="44.81275" lon="3.11323">
        <ele>1011.7</ele>
        <time>2022-03-26T11:30:04Z</time>
      </trkpt>
      <trkpt lat="44.81283" lon="3.11317">
        <ele>1010.8</ele>
        <time>2022-03-26T11:30:09Z</time>
      </trkpt>
      <trkpt lat="44.81288" lon="3.11311">
        <ele>1010</ele>
        <time>2022-03-26T11:30:14Z</time>
      </trkpt>
      <trkpt lat="44.81296" lon="3.11311">
        <ele>1009.9</ele>
        <time>2022-03-26T11:30:20Z</time>
      </trkpt>
      <trkpt lat="44.81306" lon="3.11309">
        <ele>1009.6</ele>
        <time>2022-03-26T11:30:25Z</time>
      </trkpt>
      <trkpt lat="44.81314" lon="3.11308">
        <ele>1009.4</ele>
        <time>2022-03-26T11:30:30Z</time>
      </trkpt>
      <trkpt lat="44.81321" lon="3.11305">
        <ele>1009.1</ele>
        <time>2022-03-26T11:30:35Z</time>
      </trkpt>
      <trkpt lat="44.81328" lon="3.11303">
        <ele>1008.8</ele>
        <time>2022-03-26T11:30:40Z</time>
      </trkpt>
      <trkpt lat="44.81338" lon="3.11302">
        <ele>1008.4</ele>
        <time>2022-03-26T11:30:45Z</time>
      </trkpt>
      <trkpt lat="44.81346" lon="3.11302">
        <ele>1007.7</ele>
        <time>2022-03-26T11:30:51Z</time>
      </trkpt>
      <trkpt lat="44.81355" lon="3.11302">
        <ele>1007</ele>
        <time>2022-03-26T11:30:56Z</time>
      </trkpt>
      <trkpt lat="44.81364" lon="3.11304">
        <ele>1006.3</ele>
        <time>2022-03-26T11:31:01Z</time>
      </trkpt>
      <trkpt lat="44.81372" lon="3.11302">
        <ele>1005.6</ele>
        <time>2022-03-26T11:31:06Z</time>
      </trkpt>
      <trkpt lat="44.81378" lon="3.11306">
        <ele>1005.3</ele>
        <time>2022-03-26T11:31:13Z</time>
      </trkpt>
      <trkpt lat="44.81385" lon="3.11306">
        <ele>1004.7</ele>
        <time>2022-03-26T11:31:23Z</time>
      </trkpt>
      <trkpt lat="44.81395" lon="3.11305">
        <ele>1003.8</ele>
        <time>2022-03-26T11:31:28Z</time>
      </trkpt>
      <trkpt lat="44.81401" lon="3.11303">
        <ele>1003.2</ele>
        <time>2022-03-26T11:31:34Z</time>
      </trkpt>
      <trkpt lat="44.81408" lon="3.11299">
        <ele>1002.5</ele>
        <time>2022-03-26T11:31:41Z</time>
      </trkpt>
      <trkpt lat="44.81417" lon="3.11301">
        <ele>1001.8</ele>
        <time>2022-03-26T11:31:46Z</time>
      </trkpt>
      <trkpt lat="44.81422" lon="3.11312">
        <ele>1002.1</ele>
        <time>2022-03-26T11:31:51Z</time>
      </trkpt>
      <trkpt lat="44.81425" lon="3.11322">
        <ele>1002.4</ele>
        <time>2022-03-26T11:31:56Z</time>
      </trkpt>
      <trkpt lat="44.81425" lon="3.11332">
        <ele>1002.8</ele>
        <time>2022-03-26T11:32:01Z</time>
      </trkpt>
      <trkpt lat="44.81428" lon="3.11343">
        <ele>1002.9</ele>
        <time>2022-03-26T11:32:06Z</time>
      </trkpt>
      <trkpt lat="44.81429" lon="3.11352">
        <ele>1003</ele>
        <time>2022-03-26T11:32:11Z</time>
      </trkpt>
      <trkpt lat="44.81429" lon="3.11363">
        <ele>1003.2</ele>
        <time>2022-03-26T11:32:16Z</time>
      </trkpt>
      <trkpt lat="44.81428" lon="3.11376">
        <ele>1003.5</ele>
        <time>2022-03-26T11:32:21Z</time>
      </trkpt>
      <trkpt lat="44.81425" lon="3.11385">
        <ele>1003.8</ele>
        <time>2022-03-26T11:32:27Z</time>
      </trkpt>
      <trkpt lat="44.81425" lon="3.11396">
        <ele>1004</ele>
        <time>2022-03-26T11:32:33Z</time>
      </trkpt>
      <trkpt lat="44.81422" lon="3.11405">
        <ele>1004.4</ele>
        <time>2022-03-26T11:32:38Z</time>
      </trkpt>
      <trkpt lat="44.8142" lon="3.11414">
        <ele>1004.7</ele>
        <time>2022-03-26T11:32:43Z</time>
      </trkpt>
      <trkpt lat="44.81417" lon="3.11425">
        <ele>1004.4</ele>
        <time>2022-03-26T11:32:48Z</time>
      </trkpt>
      <trkpt lat="44.81413" lon="3.11434">
        <ele>1004.2</ele>
        <time>2022-03-26T11:32:53Z</time>
      </trkpt>
      <trkpt lat="44.81411" lon="3.11446">
        <ele>1003.7</ele>
        <time>2022-03-26T11:32:58Z</time>
      </trkpt>
      <trkpt lat="44.81406" lon="3.11457">
        <ele>1003.6</ele>
        <time>2022-03-26T11:33:03Z</time>
      </trkpt>
      <trkpt lat="44.81403" lon="3.11465">
        <ele>1003.4</ele>
        <time>2022-03-26T11:33:08Z</time>
      </trkpt>
      <trkpt lat="44.8141" lon="3.11467">
        <ele>1002.3</ele>
        <time>2022-03-26T11:33:21Z</time>
      </trkpt>
      <trkpt lat="44.81417" lon="3.11466">
        <ele>1001.4</ele>
        <time>2022-03-26T11:33:26Z</time>
      </trkpt>
      <trkpt lat="44.81424" lon="3.11467">
        <ele>1000.6</ele>
        <time>2022-03-26T11:33:31Z</time>
      </trkpt>
      <trkpt lat="44.81435" lon="3.11468">
        <ele>999.4</ele>
        <time>2022-03-26T11:33:36Z</time>
      </trkpt>
      <trkpt lat="44.81443" lon="3.1147">
        <ele>998.5</ele>
        <time>2022-03-26T11:33:41Z</time>
      </trkpt>
      <trkpt lat="44.8145" lon="3.11473">
        <ele>997.5</ele>
        <time>2022-03-26T11:33:47Z</time>
      </trkpt>
      <trkpt lat="44.81456" lon="3.11473">
        <ele>996.8</ele>
        <time>2022-03-26T11:33:53Z</time>
      </trkpt>
      <trkpt lat="44.81465" lon="3.11474">
        <ele>995.8</ele>
        <time>2022-03-26T11:33:58Z</time>
      </trkpt>
      <trkpt lat="44.81475" lon="3.11475">
        <ele>994.6</ele>
        <time>2022-03-26T11:34:03Z</time>
      </trkpt>
      <trkpt lat="44.81482" lon="3.11478">
        <ele>993.6</ele>
        <time>2022-03-26T11:34:08Z</time>
      </trkpt>
      <trkpt lat="44.8149" lon="3.11476">
        <ele>992.9</ele>
        <time>2022-03-26T11:34:13Z</time>
      </trkpt>
      <trkpt lat="44.81497" lon="3.11477">
        <ele>992.1</ele>
        <time>2022-03-26T11:34:18Z</time>
      </trkpt>
      <trkpt lat="44.81505" lon="3.11478">
        <ele>991.1</ele>
        <time>2022-03-26T11:34:23Z</time>
      </trkpt>
      <trkpt lat="44.81514" lon="3.11476">
        <ele>990.2</ele>
        <time>2022-03-26T11:34:28Z</time>
      </trkpt>
      <trkpt lat="44.81523" lon="3.11478">
        <ele>989</ele>
        <time>2022-03-26T11:34:33Z</time>
      </trkpt>
      <trkpt lat="44.8153" lon="3.11479">
        <ele>988</ele>
        <time>2022-03-26T11:34:41Z</time>
      </trkpt>
      <trkpt lat="44.81538" lon="3.11483">
        <ele>986.6</ele>
        <time>2022-03-26T11:34:46Z</time>
      </trkpt>
      <trkpt lat="44.81546" lon="3.11484">
        <ele>985.5</ele>
        <time>2022-03-26T11:34:51Z</time>
      </trkpt>
      <trkpt lat="44.81553" lon="3.11486">
        <ele>984.4</ele>
        <time>2022-03-26T11:34:56Z</time>
      </trkpt>
      <trkpt lat="44.8156" lon="3.11485">
        <ele>983.7</ele>
        <time>2022-03-26T11:35:04Z</time>
      </trkpt>
      <trkpt lat="44.81572" lon="3.11486">
        <ele>982.2</ele>
        <time>2022-03-26T11:35:09Z</time>
      </trkpt>
      <trkpt lat="44.81578" lon="3.11487">
        <ele>981.3</ele>
        <time>2022-03-26T11:35:15Z</time>
      </trkpt>
      <trkpt lat="44.81586" lon="3.11489">
        <ele>980.1</ele>
        <time>2022-03-26T11:35:21Z</time>
      </trkpt>
      <trkpt lat="44.81593" lon="3.11498">
        <ele>978</ele>
        <time>2022-03-26T11:35:26Z</time>
      </trkpt>
      <trkpt lat="44.816" lon="3.11503">
        <ele>976.7</ele>
        <time>2022-03-26T11:35:31Z</time>
      </trkpt>
      <trkpt lat="44.81605" lon="3.11511">
        <ele>975.7</ele>
        <time>2022-03-26T11:35:36Z</time>
      </trkpt>
      <trkpt lat="44.8161" lon="3.1152">
        <ele>974.7</ele>
        <time>2022-03-26T11:35:59Z</time>
      </trkpt>
      <trkpt lat="44.81614" lon="3.1153">
        <ele>973.8</ele>
        <time>2022-03-26T11:36:04Z</time>
      </trkpt>
      <trkpt lat="44.81622" lon="3.11536">
        <ele>972.7</ele>
        <time>2022-03-26T11:36:09Z</time>
      </trkpt>
      <trkpt lat="44.81628" lon="3.1154">
        <ele>972</ele>
        <time>2022-03-26T11:36:17Z</time>
      </trkpt>
      <trkpt lat="44.81635" lon="3.11544">
        <ele>971.2</ele>
        <time>2022-03-26T11:36:22Z</time>
      </trkpt>
      <trkpt lat="44.81643" lon="3.11546">
        <ele>970.3</ele>
        <time>2022-03-26T11:36:27Z</time>
      </trkpt>
      <trkpt lat="44.8165" lon="3.1155">
        <ele>969.6</ele>
        <time>2022-03-26T11:36:32Z</time>
      </trkpt>
      <trkpt lat="44.81657" lon="3.11552">
        <ele>968.9</ele>
        <time>2022-03-26T11:36:37Z</time>
      </trkpt>
      <trkpt lat="44.81666" lon="3.11554">
        <ele>968.1</ele>
        <time>2022-03-26T11:36:42Z</time>
      </trkpt>
      <trkpt lat="44.81676" lon="3.11555">
        <ele>966.9</ele>
        <time>2022-03-26T11:36:47Z</time>
      </trkpt>
      <trkpt lat="44.81682" lon="3.11557">
        <ele>966.2</ele>
        <time>2022-03-26T11:36:55Z</time>
      </trkpt>
      <trkpt lat="44.81692" lon="3.11558">
        <ele>965.1</ele>
        <time>2022-03-26T11:37:00Z</time>
      </trkpt>
      <trkpt lat="44.81698" lon="3.11565">
        <ele>964.5</ele>
        <time>2022-03-26T11:37:05Z</time>
      </trkpt>
      <trkpt lat="44.81702" lon="3.11574">
        <ele>964.1</ele>
        <time>2022-03-26T11:37:10Z</time>
      </trkpt>
      <trkpt lat="44.81707" lon="3.11585">
        <ele>963.8</ele>
        <time>2022-03-26T11:37:15Z</time>
      </trkpt>
      <trkpt lat="44.81707" lon="3.11595">
        <ele>964.6</ele>
        <time>2022-03-26T11:37:20Z</time>
      </trkpt>
      <trkpt lat="44.81709" lon="3.11606">
        <ele>965.3</ele>
        <time>2022-03-26T11:37:25Z</time>
      </trkpt>
      <trkpt lat="44.81708" lon="3.11616">
        <ele>966.3</ele>
        <time>2022-03-26T11:37:30Z</time>
      </trkpt>
      <trkpt lat="44.81711" lon="3.11626">
        <ele>966.7</ele>
        <time>2022-03-26T11:37:35Z</time>
      </trkpt>
      <trkpt lat="44.81712" lon="3.11639">
        <ele>967.7</ele>
        <time>2022-03-26T11:37:40Z</time>
      </trkpt>
      <trkpt lat="44.81716" lon="3.11647">
        <ele>967.7</ele>
        <time>2022-03-26T11:37:45Z</time>
      </trkpt>
      <trkpt lat="44.81718" lon="3.11657">
        <ele>968.2</ele>
        <time>2022-03-26T11:37:50Z</time>
      </trkpt>
      <trkpt lat="44.81717" lon="3.11668">
        <ele>969.3</ele>
        <time>2022-03-26T11:37:55Z</time>
      </trkpt>
      <trkpt lat="44.81721" lon="3.11677">
        <ele>969.4</ele>
        <time>2022-03-26T11:38:00Z</time>
      </trkpt>
      <trkpt lat="44.81723" lon="3.11686">
        <ele>969.9</ele>
        <time>2022-03-26T11:38:06Z</time>
      </trkpt>
      <trkpt lat="44.81725" lon="3.11695">
        <ele>970.4</ele>
        <time>2022-03-26T11:38:11Z</time>
      </trkpt>
      <trkpt lat="44.81724" lon="3.11704">
        <ele>971.3</ele>
        <time>2022-03-26T11:38:16Z</time>
      </trkpt>
      <trkpt lat="44.81722" lon="3.11715">
        <ele>972.6</ele>
        <time>2022-03-26T11:38:22Z</time>
      </trkpt>
      <trkpt lat="44.8172" lon="3.11725">
        <ele>973.8</ele>
        <time>2022-03-26T11:38:27Z</time>
      </trkpt>
      <trkpt lat="44.81718" lon="3.11734">
        <ele>975</ele>
        <time>2022-03-26T11:38:32Z</time>
      </trkpt>
      <trkpt lat="44.81715" lon="3.11743">
        <ele>976.3</ele>
        <time>2022-03-26T11:38:38Z</time>
      </trkpt>
      <trkpt lat="44.8171" lon="3.11749">
        <ele>977.6</ele>
        <time>2022-03-26T11:38:43Z</time>
      </trkpt>
      <trkpt lat="44.81709" lon="3.11758">
        <ele>978</ele>
        <time>2022-03-26T11:39:07Z</time>
      </trkpt>
      <trkpt lat="44.81705" lon="3.11767">
        <ele>978.9</ele>
        <time>2022-03-26T11:39:12Z</time>
      </trkpt>
      <trkpt lat="44.81702" lon="3.11775">
        <ele>979.6</ele>
        <time>2022-03-26T11:39:17Z</time>
      </trkpt>
      <trkpt lat="44.81697" lon="3.11786">
        <ele>980.8</ele>
        <time>2022-03-26T11:39:23Z</time>
      </trkpt>
      <trkpt lat="44.81694" lon="3.11795">
        <ele>981.7</ele>
        <time>2022-03-26T11:39:28Z</time>
      </trkpt>
      <trkpt lat="44.81691" lon="3.11804">
        <ele>982.6</ele>
        <time>2022-03-26T11:39:33Z</time>
      </trkpt>
      <trkpt lat="44.81689" lon="3.11814">
        <ele>983.3</ele>
        <time>2022-03-26T11:39:39Z</time>
      </trkpt>
      <trkpt lat="44.81684" lon="3.11822">
        <ele>984.6</ele>
        <time>2022-03-26T11:39:44Z</time>
      </trkpt>
      <trkpt lat="44.81682" lon="3.11832">
        <ele>985.5</ele>
        <time>2022-03-26T11:39:50Z</time>
      </trkpt>
      <trkpt lat="44.81679" lon="3.11843">
        <ele>985.5</ele>
        <time>2022-03-26T11:39:55Z</time>
      </trkpt>
      <trkpt lat="44.81676" lon="3.11852">
        <ele>985.5</ele>
        <time>2022-03-26T11:40:02Z</time>
      </trkpt>
      <trkpt lat="44.81672" lon="3.11861">
        <ele>985.6</ele>
        <time>2022-03-26T11:40:07Z</time>
      </trkpt>
      <trkpt lat="44.8167" lon="3.11871">
        <ele>985.2</ele>
        <time>2022-03-26T11:40:12Z</time>
      </trkpt>
      <trkpt lat="44.81668" lon="3.11882">
        <ele>984.7</ele>
        <time>2022-03-26T11:40:17Z</time>
      </trkpt>
      <trkpt lat="44.81667" lon="3.11891">
        <ele>984.1</ele>
        <time>2022-03-26T11:40:22Z</time>
      </trkpt>
      <trkpt lat="44.81667" lon="3.119">
        <ele>983.3</ele>
        <time>2022-03-26T11:40:27Z</time>
      </trkpt>
      <trkpt lat="44.81668" lon="3.11911">
        <ele>982.3</ele>
        <time>2022-03-26T11:40:33Z</time>
      </trkpt>
      <trkpt lat="44.81668" lon="3.1192">
        <ele>981.4</ele>
        <time>2022-03-26T11:40:38Z</time>
      </trkpt>
      <trkpt lat="44.81675" lon="3.11922">
        <ele>980</ele>
        <time>2022-03-26T11:40:47Z</time>
      </trkpt>
      <trkpt lat="44.81666" lon="3.11921">
        <ele>981.6</ele>
        <time>2022-03-26T11:40:52Z</time>
      </trkpt>
      <trkpt lat="44.81666" lon="3.11931">
        <ele>980.3</ele>
        <time>2022-03-26T11:41:08Z</time>
      </trkpt>
      <trkpt lat="44.81665" lon="3.11921">
        <ele>981.8</ele>
        <time>2022-03-26T11:41:25Z</time>
      </trkpt>
      <trkpt lat="44.81671" lon="3.11919">
        <ele>981</ele>
        <time>2022-03-26T11:41:45Z</time>
      </trkpt>
      <trkpt lat="44.81668" lon="3.11932">
        <ele>979.8</ele>
        <time>2022-03-26T11:43:16Z</time>
      </trkpt>
      <trkpt lat="44.81672" lon="3.1194">
        <ele>978.2</ele>
        <time>2022-03-26T11:44:40Z</time>
      </trkpt>
      <trkpt lat="44.81672" lon="3.11949">
        <ele>977.1</ele>
        <time>2022-03-26T11:44:48Z</time>
      </trkpt>
      <trkpt lat="44.81675" lon="3.11959">
        <ele>975.5</ele>
        <time>2022-03-26T11:45:08Z</time>
      </trkpt>
      <trkpt lat="44.81682" lon="3.11963">
        <ele>974.3</ele>
        <time>2022-03-26T11:45:16Z</time>
      </trkpt>
      <trkpt lat="44.81688" lon="3.11969">
        <ele>973.1</ele>
        <time>2022-03-26T11:45:45Z</time>
      </trkpt>
      <trkpt lat="44.81681" lon="3.11962">
        <ele>974.5</ele>
        <time>2022-03-26T11:46:13Z</time>
      </trkpt>
      <trkpt lat="44.81672" lon="3.11962">
        <ele>975.5</ele>
        <time>2022-03-26T11:46:18Z</time>
      </trkpt>
      <trkpt lat="44.81667" lon="3.11956">
        <ele>976.8</ele>
        <time>2022-03-26T11:46:38Z</time>
      </trkpt>
      <trkpt lat="44.81661" lon="3.11949">
        <ele>979.1</ele>
        <time>2022-03-26T11:46:44Z</time>
      </trkpt>
      <trkpt lat="44.81656" lon="3.11942">
        <ele>981.1</ele>
        <time>2022-03-26T11:46:50Z</time>
      </trkpt>
      <trkpt lat="44.81648" lon="3.1194">
        <ele>983.2</ele>
        <time>2022-03-26T11:46:55Z</time>
      </trkpt>
      <trkpt lat="44.81642" lon="3.11946">
        <ele>983.9</ele>
        <time>2022-03-26T11:47:01Z</time>
      </trkpt>
      <trkpt lat="44.81637" lon="3.11953">
        <ele>984.2</ele>
        <time>2022-03-26T11:47:11Z</time>
      </trkpt>
      <trkpt lat="44.81638" lon="3.11962">
        <ele>983</ele>
        <time>2022-03-26T11:47:23Z</time>
      </trkpt>
      <trkpt lat="44.81643" lon="3.11967">
        <ele>981.2</ele>
        <time>2022-03-26T11:47:29Z</time>
      </trkpt>
      <trkpt lat="44.81643" lon="3.11977">
        <ele>980</ele>
        <time>2022-03-26T11:47:35Z</time>
      </trkpt>
      <trkpt lat="44.81644" lon="3.11988">
        <ele>978.4</ele>
        <time>2022-03-26T11:47:43Z</time>
      </trkpt>
      <trkpt lat="44.81652" lon="3.11994">
        <ele>975.6</ele>
        <time>2022-03-26T11:47:48Z</time>
      </trkpt>
      <trkpt lat="44.81666" lon="3.11988">
        <ele>972.8</ele>
        <time>2022-03-26T11:48:24Z</time>
      </trkpt>
      <trkpt lat="44.81659" lon="3.11998">
        <ele>973.3</ele>
        <time>2022-03-26T11:48:49Z</time>
      </trkpt>
      <trkpt lat="44.81655" lon="3.12007">
        <ele>973.6</ele>
        <time>2022-03-26T11:49:06Z</time>
      </trkpt>
      <trkpt lat="44.8166" lon="3.12014">
        <ele>971.8</ele>
        <time>2022-03-26T11:49:17Z</time>
      </trkpt>
      <trkpt lat="44.81662" lon="3.12023">
        <ele>970.7</ele>
        <time>2022-03-26T11:49:22Z</time>
      </trkpt>
      <trkpt lat="44.81664" lon="3.12032">
        <ele>969.7</ele>
        <time>2022-03-26T11:49:27Z</time>
      </trkpt>
      <trkpt lat="44.81668" lon="3.1204">
        <ele>968.5</ele>
        <time>2022-03-26T11:49:32Z</time>
      </trkpt>
      <trkpt lat="44.81673" lon="3.12046">
        <ele>968</ele>
        <time>2022-03-26T11:49:37Z</time>
      </trkpt>
      <trkpt lat="44.81681" lon="3.12044">
        <ele>967.8</ele>
        <time>2022-03-26T11:49:42Z</time>
      </trkpt>
      <trkpt lat="44.81687" lon="3.12042">
        <ele>967.6</ele>
        <time>2022-03-26T11:49:48Z</time>
      </trkpt>
      <trkpt lat="44.81695" lon="3.12042">
        <ele>967.3</ele>
        <time>2022-03-26T11:49:54Z</time>
      </trkpt>
      <trkpt lat="44.81703" lon="3.12039">
        <ele>967.1</ele>
        <time>2022-03-26T11:50:16Z</time>
      </trkpt>
      <trkpt lat="44.81713" lon="3.12041">
        <ele>966.6</ele>
        <time>2022-03-26T11:50:21Z</time>
      </trkpt>
      <trkpt lat="44.81706" lon="3.12047">
        <ele>966.6</ele>
        <time>2022-03-26T11:50:26Z</time>
      </trkpt>
      <trkpt lat="44.81705" lon="3.12057">
        <ele>966.2</ele>
        <time>2022-03-26T11:50:33Z</time>
      </trkpt>
      <trkpt lat="44.81702" lon="3.12068">
        <ele>965.8</ele>
        <time>2022-03-26T11:50:40Z</time>
      </trkpt>
      <trkpt lat="44.81698" lon="3.12076">
        <ele>965.6</ele>
        <time>2022-03-26T11:50:46Z</time>
      </trkpt>
      <trkpt lat="44.81694" lon="3.12086">
        <ele>965.3</ele>
        <time>2022-03-26T11:50:51Z</time>
      </trkpt>
      <trkpt lat="44.8169" lon="3.12093">
        <ele>965.2</ele>
        <time>2022-03-26T11:50:58Z</time>
      </trkpt>
      <trkpt lat="44.81684" lon="3.121">
        <ele>965.2</ele>
        <time>2022-03-26T11:51:04Z</time>
      </trkpt>
      <trkpt lat="44.8168" lon="3.12109">
        <ele>965.1</ele>
        <time>2022-03-26T11:51:10Z</time>
      </trkpt>
      <trkpt lat="44.81677" lon="3.12117">
        <ele>964.9</ele>
        <time>2022-03-26T11:51:15Z</time>
      </trkpt>
      <trkpt lat="44.81674" lon="3.12125">
        <ele>964.8</ele>
        <time>2022-03-26T11:51:21Z</time>
      </trkpt>
      <trkpt lat="44.81674" lon="3.12136">
        <ele>964.6</ele>
        <time>2022-03-26T11:51:26Z</time>
      </trkpt>
      <trkpt lat="44.81675" lon="3.12146">
        <ele>964.3</ele>
        <time>2022-03-26T11:51:31Z</time>
      </trkpt>
      <trkpt lat="44.81672" lon="3.12156">
        <ele>964.1</ele>
        <time>2022-03-26T11:51:38Z</time>
      </trkpt>
      <trkpt lat="44.81673" lon="3.12166">
        <ele>963.9</ele>
        <time>2022-03-26T11:51:44Z</time>
      </trkpt>
      <trkpt lat="44.81679" lon="3.12173">
        <ele>963.7</ele>
        <time>2022-03-26T11:51:55Z</time>
      </trkpt>
      <trkpt lat="44.81671" lon="3.12177">
        <ele>963.9</ele>
        <time>2022-03-26T11:52:13Z</time>
      </trkpt>
      <trkpt lat="44.81672" lon="3.12186">
        <ele>963.9</ele>
        <time>2022-03-26T11:52:37Z</time>
      </trkpt>
      <trkpt lat="44.81675" lon="3.12196">
        <ele>963.9</ele>
        <time>2022-03-26T11:52:42Z</time>
      </trkpt>
      <trkpt lat="44.8168" lon="3.12204">
        <ele>963.8</ele>
        <time>2022-03-26T11:52:54Z</time>
      </trkpt>
      <trkpt lat="44.81677" lon="3.12214">
        <ele>963.9</ele>
        <time>2022-03-26T11:52:59Z</time>
      </trkpt>
      <trkpt lat="44.81679" lon="3.12225">
        <ele>963.9</ele>
        <time>2022-03-26T11:53:04Z</time>
      </trkpt>
      <trkpt lat="44.8168" lon="3.12235">
        <ele>963.9</ele>
        <time>2022-03-26T11:53:09Z</time>
      </trkpt>
      <trkpt lat="44.81679" lon="3.12245">
        <ele>964</ele>
        <time>2022-03-26T11:53:14Z</time>
      </trkpt>
      <trkpt lat="44.81679" lon="3.12254">
        <ele>964.2</ele>
        <time>2022-03-26T11:53:19Z</time>
      </trkpt>
      <trkpt lat="44.81682" lon="3.12265">
        <ele>964.9</ele>
        <time>2022-03-26T11:53:26Z</time>
      </trkpt>
      <trkpt lat="44.81684" lon="3.12275">
        <ele>965.5</ele>
        <time>2022-03-26T11:53:34Z</time>
      </trkpt>
      <trkpt lat="44.81676" lon="3.12277">
        <ele>965.6</ele>
        <time>2022-03-26T11:54:29Z</time>
      </trkpt>
      <trkpt lat="44.81677" lon="3.12288">
        <ele>966.3</ele>
        <time>2022-03-26T11:54:34Z</time>
      </trkpt>
      <trkpt lat="44.81673" lon="3.12296">
        <ele>966.8</ele>
        <time>2022-03-26T11:54:39Z</time>
      </trkpt>
      <trkpt lat="44.81672" lon="3.12305">
        <ele>967.3</ele>
        <time>2022-03-26T11:54:44Z</time>
      </trkpt>
      <trkpt lat="44.81671" lon="3.12315">
        <ele>967.9</ele>
        <time>2022-03-26T11:54:50Z</time>
      </trkpt>
      <trkpt lat="44.81671" lon="3.12325">
        <ele>968.5</ele>
        <time>2022-03-26T11:54:56Z</time>
      </trkpt>
      <trkpt lat="44.81668" lon="3.12333">
        <ele>969</ele>
        <time>2022-03-26T11:55:03Z</time>
      </trkpt>
      <trkpt lat="44.81663" lon="3.12343">
        <ele>971.4</ele>
        <time>2022-03-26T11:55:08Z</time>
      </trkpt>
      <trkpt lat="44.81658" lon="3.1235">
        <ele>973.2</ele>
        <time>2022-03-26T11:55:18Z</time>
      </trkpt>
      <trkpt lat="44.8165" lon="3.12345">
        <ele>972.1</ele>
        <time>2022-03-26T11:55:44Z</time>
      </trkpt>
      <trkpt lat="44.81633" lon="3.1234">
        <ele>971.1</ele>
        <time>2022-03-26T11:55:49Z</time>
      </trkpt>
      <trkpt lat="44.81627" lon="3.12339">
        <ele>971</ele>
        <time>2022-03-26T11:55:54Z</time>
      </trkpt>
      <trkpt lat="44.81619" lon="3.12338">
        <ele>970.8</ele>
        <time>2022-03-26T11:55:59Z</time>
      </trkpt>
      <trkpt lat="44.81615" lon="3.12346">
        <ele>973</ele>
        <time>2022-03-26T11:56:07Z</time>
      </trkpt>
      <trkpt lat="44.81609" lon="3.12353">
        <ele>975.1</ele>
        <time>2022-03-26T11:56:14Z</time>
      </trkpt>
      <trkpt lat="44.81601" lon="3.12358">
        <ele>976.6</ele>
        <time>2022-03-26T11:56:19Z</time>
      </trkpt>
      <trkpt lat="44.81594" lon="3.12358">
        <ele>976.8</ele>
        <time>2022-03-26T11:56:26Z</time>
      </trkpt>
      <trkpt lat="44.81587" lon="3.12359">
        <ele>977.3</ele>
        <time>2022-03-26T11:56:31Z</time>
      </trkpt>
      <trkpt lat="44.81577" lon="3.1236">
        <ele>977.7</ele>
        <time>2022-03-26T11:56:36Z</time>
      </trkpt>
      <trkpt lat="44.81569" lon="3.12363">
        <ele>978.6</ele>
        <time>2022-03-26T11:56:41Z</time>
      </trkpt>
      <trkpt lat="44.81558" lon="3.12364">
        <ele>978.9</ele>
        <time>2022-03-26T11:56:46Z</time>
      </trkpt>
      <trkpt lat="44.8155" lon="3.12367">
        <ele>979.9</ele>
        <time>2022-03-26T11:56:54Z</time>
      </trkpt>
      <trkpt lat="44.81543" lon="3.12373">
        <ele>981.7</ele>
        <time>2022-03-26T11:56:59Z</time>
      </trkpt>
      <trkpt lat="44.81537" lon="3.12369">
        <ele>980.5</ele>
        <time>2022-03-26T11:57:12Z</time>
      </trkpt>
      <trkpt lat="44.81526" lon="3.12365">
        <ele>979.4</ele>
        <time>2022-03-26T11:57:17Z</time>
      </trkpt>
      <trkpt lat="44.81521" lon="3.12372">
        <ele>981.5</ele>
        <time>2022-03-26T11:57:22Z</time>
      </trkpt>
      <trkpt lat="44.81516" lon="3.12378">
        <ele>983.3</ele>
        <time>2022-03-26T11:57:28Z</time>
      </trkpt>
      <trkpt lat="44.81509" lon="3.12381">
        <ele>984.2</ele>
        <time>2022-03-26T11:57:34Z</time>
      </trkpt>
      <trkpt lat="44.81502" lon="3.12385">
        <ele>985.5</ele>
        <time>2022-03-26T11:57:40Z</time>
      </trkpt>
      <trkpt lat="44.81496" lon="3.12386">
        <ele>985.5</ele>
        <time>2022-03-26T11:57:47Z</time>
      </trkpt>
      <trkpt lat="44.8149" lon="3.12381">
        <ele>983.6</ele>
        <time>2022-03-26T11:57:52Z</time>
      </trkpt>
      <trkpt lat="44.81495" lon="3.12368">
        <ele>980.2</ele>
        <time>2022-03-26T11:58:05Z</time>
      </trkpt>
      <trkpt lat="44.81488" lon="3.1237">
        <ele>980.4</ele>
        <time>2022-03-26T11:58:12Z</time>
      </trkpt>
      <trkpt lat="44.81476" lon="3.12369">
        <ele>979.5</ele>
        <time>2022-03-26T11:58:17Z</time>
      </trkpt>
      <trkpt lat="44.81466" lon="3.12368">
        <ele>978.7</ele>
        <time>2022-03-26T11:58:22Z</time>
      </trkpt>
      <trkpt lat="44.81459" lon="3.12369">
        <ele>978.6</ele>
        <time>2022-03-26T11:58:29Z</time>
      </trkpt>
      <trkpt lat="44.81451" lon="3.12369">
        <ele>978.2</ele>
        <time>2022-03-26T11:58:34Z</time>
      </trkpt>
      <trkpt lat="44.81444" lon="3.12367">
        <ele>977.4</ele>
        <time>2022-03-26T11:58:40Z</time>
      </trkpt>
      <trkpt lat="44.81435" lon="3.12367">
        <ele>976.9</ele>
        <time>2022-03-26T11:58:45Z</time>
      </trkpt>
      <trkpt lat="44.81427" lon="3.12369">
        <ele>977</ele>
        <time>2022-03-26T11:58:54Z</time>
      </trkpt>
      <trkpt lat="44.81421" lon="3.12374">
        <ele>977.6</ele>
        <time>2022-03-26T11:59:00Z</time>
      </trkpt>
      <trkpt lat="44.81411" lon="3.12375">
        <ele>977.2</ele>
        <time>2022-03-26T11:59:05Z</time>
      </trkpt>
      <trkpt lat="44.81401" lon="3.12375">
        <ele>976.7</ele>
        <time>2022-03-26T11:59:10Z</time>
      </trkpt>
      <trkpt lat="44.81392" lon="3.12374">
        <ele>976</ele>
        <time>2022-03-26T11:59:15Z</time>
      </trkpt>
      <trkpt lat="44.81385" lon="3.12374">
        <ele>975.6</ele>
        <time>2022-03-26T11:59:21Z</time>
      </trkpt>
      <trkpt lat="44.81378" lon="3.12378">
        <ele>975.8</ele>
        <time>2022-03-26T11:59:26Z</time>
      </trkpt>
      <trkpt lat="44.81373" lon="3.12384">
        <ele>976.4</ele>
        <time>2022-03-26T11:59:31Z</time>
      </trkpt>
      <trkpt lat="44.81365" lon="3.12387">
        <ele>976.2</ele>
        <time>2022-03-26T11:59:38Z</time>
      </trkpt>
      <trkpt lat="44.81357" lon="3.1239">
        <ele>976.1</ele>
        <time>2022-03-26T11:59:46Z</time>
      </trkpt>
      <trkpt lat="44.8135" lon="3.12393">
        <ele>975.9</ele>
        <time>2022-03-26T11:59:54Z</time>
      </trkpt>
      <trkpt lat="44.81346" lon="3.12401">
        <ele>976.5</ele>
        <time>2022-03-26T12:00:02Z</time>
      </trkpt>
      <trkpt lat="44.81338" lon="3.12407">
        <ele>976.5</ele>
        <time>2022-03-26T12:00:11Z</time>
      </trkpt>
      <trkpt lat="44.81333" lon="3.12413">
        <ele>976.6</ele>
        <time>2022-03-26T12:00:16Z</time>
      </trkpt>
      <trkpt lat="44.8133" lon="3.12422">
        <ele>978.2</ele>
        <time>2022-03-26T12:00:26Z</time>
      </trkpt>
      <trkpt lat="44.81324" lon="3.12429">
        <ele>979.7</ele>
        <time>2022-03-26T12:00:32Z</time>
      </trkpt>
      <trkpt lat="44.81318" lon="3.12434">
        <ele>980.7</ele>
        <time>2022-03-26T12:00:41Z</time>
      </trkpt>
      <trkpt lat="44.81313" lon="3.12441">
        <ele>982.1</ele>
        <time>2022-03-26T12:00:50Z</time>
      </trkpt>
      <trkpt lat="44.81307" lon="3.12448">
        <ele>983.5</ele>
        <time>2022-03-26T12:00:55Z</time>
      </trkpt>
      <trkpt lat="44.81303" lon="3.12456">
        <ele>985.2</ele>
        <time>2022-03-26T12:01:01Z</time>
      </trkpt>
      <trkpt lat="44.81302" lon="3.12465">
        <ele>987.2</ele>
        <time>2022-03-26T12:01:12Z</time>
      </trkpt>
      <trkpt lat="44.81298" lon="3.12474">
        <ele>989</ele>
        <time>2022-03-26T12:01:28Z</time>
      </trkpt>
      <trkpt lat="44.8129" lon="3.12475">
        <ele>988.9</ele>
        <time>2022-03-26T12:01:33Z</time>
      </trkpt>
      <trkpt lat="44.81284" lon="3.12477">
        <ele>989</ele>
        <time>2022-03-26T12:01:39Z</time>
      </trkpt>
      <trkpt lat="44.81278" lon="3.12483">
        <ele>990</ele>
        <time>2022-03-26T12:01:46Z</time>
      </trkpt>
      <trkpt lat="44.81272" lon="3.12489">
        <ele>991</ele>
        <time>2022-03-26T12:01:51Z</time>
      </trkpt>
      <trkpt lat="44.81266" lon="3.12494">
        <ele>991.7</ele>
        <time>2022-03-26T12:01:57Z</time>
      </trkpt>
      <trkpt lat="44.8126" lon="3.12499">
        <ele>992.4</ele>
        <time>2022-03-26T12:02:05Z</time>
      </trkpt>
      <trkpt lat="44.81253" lon="3.12503">
        <ele>992.9</ele>
        <time>2022-03-26T12:02:11Z</time>
      </trkpt>
      <trkpt lat="44.81248" lon="3.1251">
        <ele>994.3</ele>
        <time>2022-03-26T12:02:17Z</time>
      </trkpt>
      <trkpt lat="44.81241" lon="3.12516">
        <ele>995.6</ele>
        <time>2022-03-26T12:02:27Z</time>
      </trkpt>
      <trkpt lat="44.81235" lon="3.12521">
        <ele>996.7</ele>
        <time>2022-03-26T12:02:36Z</time>
      </trkpt>
      <trkpt lat="44.8123" lon="3.12527">
        <ele>998.1</ele>
        <time>2022-03-26T12:02:44Z</time>
      </trkpt>
      <trkpt lat="44.81222" lon="3.12535">
        <ele>1000.1</ele>
        <time>2022-03-26T12:02:55Z</time>
      </trkpt>
      <trkpt lat="44.81215" lon="3.12538">
        <ele>1000.8</ele>
        <time>2022-03-26T12:03:05Z</time>
      </trkpt>
      <trkpt lat="44.81209" lon="3.12543">
        <ele>1002.1</ele>
        <time>2022-03-26T12:03:13Z</time>
      </trkpt>
      <trkpt lat="44.81202" lon="3.12543">
        <ele>1002.1</ele>
        <time>2022-03-26T12:03:22Z</time>
      </trkpt>
      <trkpt lat="44.81196" lon="3.12548">
        <ele>1003.4</ele>
        <time>2022-03-26T12:03:43Z</time>
      </trkpt>
      <trkpt lat="44.8119" lon="3.12554">
        <ele>1005</ele>
        <time>2022-03-26T12:03:49Z</time>
      </trkpt>
      <trkpt lat="44.81184" lon="3.12561">
        <ele>1006.9</ele>
        <time>2022-03-26T12:03:59Z</time>
      </trkpt>
      <trkpt lat="44.81178" lon="3.12565">
        <ele>1008</ele>
        <time>2022-03-26T12:04:04Z</time>
      </trkpt>
      <trkpt lat="44.81171" lon="3.1257">
        <ele>1009.4</ele>
        <time>2022-03-26T12:04:16Z</time>
      </trkpt>
      <trkpt lat="44.81164" lon="3.12574">
        <ele>1010.4</ele>
        <time>2022-03-26T12:04:21Z</time>
      </trkpt>
      <trkpt lat="44.81158" lon="3.12579">
        <ele>1011.3</ele>
        <time>2022-03-26T12:04:33Z</time>
      </trkpt>
      <trkpt lat="44.81154" lon="3.12586">
        <ele>1012.6</ele>
        <time>2022-03-26T12:05:02Z</time>
      </trkpt>
      <trkpt lat="44.81149" lon="3.12594">
        <ele>1013.5</ele>
        <time>2022-03-26T12:05:10Z</time>
      </trkpt>
      <trkpt lat="44.81143" lon="3.126">
        <ele>1014.1</ele>
        <time>2022-03-26T12:05:20Z</time>
      </trkpt>
      <trkpt lat="44.81137" lon="3.12606">
        <ele>1014.7</ele>
        <time>2022-03-26T12:05:28Z</time>
      </trkpt>
      <trkpt lat="44.81131" lon="3.1261">
        <ele>1015.1</ele>
        <time>2022-03-26T12:05:41Z</time>
      </trkpt>
      <trkpt lat="44.81124" lon="3.12614">
        <ele>1015.4</ele>
        <time>2022-03-26T12:05:48Z</time>
      </trkpt>
      <trkpt lat="44.81118" lon="3.12618">
        <ele>1015.9</ele>
        <time>2022-03-26T12:05:55Z</time>
      </trkpt>
      <trkpt lat="44.81111" lon="3.12621">
        <ele>1016.1</ele>
        <time>2022-03-26T12:06:03Z</time>
      </trkpt>
      <trkpt lat="44.81104" lon="3.12623">
        <ele>1016.3</ele>
        <time>2022-03-26T12:06:10Z</time>
      </trkpt>
      <trkpt lat="44.81098" lon="3.12629">
        <ele>1017.2</ele>
        <time>2022-03-26T12:06:16Z</time>
      </trkpt>
      <trkpt lat="44.81092" lon="3.12634">
        <ele>1017.9</ele>
        <time>2022-03-26T12:06:25Z</time>
      </trkpt>
      <trkpt lat="44.81086" lon="3.12638">
        <ele>1018.6</ele>
        <time>2022-03-26T12:06:31Z</time>
      </trkpt>
      <trkpt lat="44.81081" lon="3.12647">
        <ele>1020.3</ele>
        <time>2022-03-26T12:06:40Z</time>
      </trkpt>
      <trkpt lat="44.81077" lon="3.12655">
        <ele>1022</ele>
        <time>2022-03-26T12:06:46Z</time>
      </trkpt>
      <trkpt lat="44.81072" lon="3.12663">
        <ele>1023.7</ele>
        <time>2022-03-26T12:06:54Z</time>
      </trkpt>
      <trkpt lat="44.81069" lon="3.12673">
        <ele>1025.1</ele>
        <time>2022-03-26T12:07:03Z</time>
      </trkpt>
      <trkpt lat="44.81064" lon="3.1268">
        <ele>1025.9</ele>
        <time>2022-03-26T12:07:08Z</time>
      </trkpt>
      <trkpt lat="44.81061" lon="3.1269">
        <ele>1027</ele>
        <time>2022-03-26T12:07:15Z</time>
      </trkpt>
      <trkpt lat="44.8106" lon="3.12701">
        <ele>1028</ele>
        <time>2022-03-26T12:07:21Z</time>
      </trkpt>
      <trkpt lat="44.81058" lon="3.12711">
        <ele>1029</ele>
        <time>2022-03-26T12:07:27Z</time>
      </trkpt>
      <trkpt lat="44.81056" lon="3.12722">
        <ele>1030.1</ele>
        <time>2022-03-26T12:07:33Z</time>
      </trkpt>
      <trkpt lat="44.81056" lon="3.12732">
        <ele>1031</ele>
        <time>2022-03-26T12:07:39Z</time>
      </trkpt>
      <trkpt lat="44.81052" lon="3.12742">
        <ele>1032</ele>
        <time>2022-03-26T12:07:45Z</time>
      </trkpt>
      <trkpt lat="44.81049" lon="3.12752">
        <ele>1033</ele>
        <time>2022-03-26T12:07:50Z</time>
      </trkpt>
      <trkpt lat="44.81047" lon="3.12762">
        <ele>1033.9</ele>
        <time>2022-03-26T12:07:57Z</time>
      </trkpt>
      <trkpt lat="44.81042" lon="3.12771">
        <ele>1034.8</ele>
        <time>2022-03-26T12:08:03Z</time>
      </trkpt>
      <trkpt lat="44.81038" lon="3.12779">
        <ele>1035.6</ele>
        <time>2022-03-26T12:08:09Z</time>
      </trkpt>
      <trkpt lat="44.81034" lon="3.12786">
        <ele>1036.3</ele>
        <time>2022-03-26T12:08:16Z</time>
      </trkpt>
      <trkpt lat="44.8103" lon="3.12794">
        <ele>1037.1</ele>
        <time>2022-03-26T12:08:22Z</time>
      </trkpt>
      <trkpt lat="44.81024" lon="3.12801">
        <ele>1038</ele>
        <time>2022-03-26T12:08:27Z</time>
      </trkpt>
      <trkpt lat="44.81018" lon="3.12808">
        <ele>1038.8</ele>
        <time>2022-03-26T12:08:33Z</time>
      </trkpt>
      <trkpt lat="44.81012" lon="3.12814">
        <ele>1039.6</ele>
        <time>2022-03-26T12:08:39Z</time>
      </trkpt>
      <trkpt lat="44.81005" lon="3.12819">
        <ele>1040.4</ele>
        <time>2022-03-26T12:08:45Z</time>
      </trkpt>
      <trkpt lat="44.81001" lon="3.12826">
        <ele>1041.3</ele>
        <time>2022-03-26T12:08:53Z</time>
      </trkpt>
      <trkpt lat="44.81005" lon="3.12808">
        <ele>1039.4</ele>
        <time>2022-03-26T12:09:54Z</time>
      </trkpt>
      <trkpt lat="44.80995" lon="3.12812">
        <ele>1039.2</ele>
        <time>2022-03-26T12:09:59Z</time>
      </trkpt>
      <trkpt lat="44.80998" lon="3.12824">
        <ele>1040.8</ele>
        <time>2022-03-26T12:10:13Z</time>
      </trkpt>
      <trkpt lat="44.81006" lon="3.12814">
        <ele>1039.9</ele>
        <time>2022-03-26T12:10:29Z</time>
      </trkpt>
      <trkpt lat="44.80991" lon="3.12826">
        <ele>1039.9</ele>
        <time>2022-03-26T12:11:06Z</time>
      </trkpt>
      <trkpt lat="44.80993" lon="3.12835">
        <ele>1041</ele>
        <time>2022-03-26T12:11:12Z</time>
      </trkpt>
      <trkpt lat="44.80989" lon="3.12843">
        <ele>1040.7</ele>
        <time>2022-03-26T12:11:19Z</time>
      </trkpt>
      <trkpt lat="44.80982" lon="3.1285">
        <ele>1040</ele>
        <time>2022-03-26T12:11:24Z</time>
      </trkpt>
      <trkpt lat="44.80976" lon="3.12855">
        <ele>1039.3</ele>
        <time>2022-03-26T12:11:32Z</time>
      </trkpt>
      <trkpt lat="44.80971" lon="3.12865">
        <ele>1039</ele>
        <time>2022-03-26T12:11:40Z</time>
      </trkpt>
      <trkpt lat="44.80967" lon="3.12871">
        <ele>1038.7</ele>
        <time>2022-03-26T12:11:46Z</time>
      </trkpt>
      <trkpt lat="44.8096" lon="3.12877">
        <ele>1037.9</ele>
        <time>2022-03-26T12:11:51Z</time>
      </trkpt>
      <trkpt lat="44.80954" lon="3.12886">
        <ele>1037.4</ele>
        <time>2022-03-26T12:11:58Z</time>
      </trkpt>
      <trkpt lat="44.80948" lon="3.12893">
        <ele>1036.8</ele>
        <time>2022-03-26T12:12:08Z</time>
      </trkpt>
      <trkpt lat="44.80945" lon="3.12902">
        <ele>1036.7</ele>
        <time>2022-03-26T12:12:14Z</time>
      </trkpt>
      <trkpt lat="44.80941" lon="3.12911">
        <ele>1036.5</ele>
        <time>2022-03-26T12:12:21Z</time>
      </trkpt>
      <trkpt lat="44.80936" lon="3.12919">
        <ele>1036.2</ele>
        <time>2022-03-26T12:12:28Z</time>
      </trkpt>
      <trkpt lat="44.80931" lon="3.12925">
        <ele>1035.8</ele>
        <time>2022-03-26T12:12:33Z</time>
      </trkpt>
      <trkpt lat="44.80927" lon="3.12933">
        <ele>1035.7</ele>
        <time>2022-03-26T12:12:38Z</time>
      </trkpt>
      <trkpt lat="44.80924" lon="3.12942">
        <ele>1035.9</ele>
        <time>2022-03-26T12:12:43Z</time>
      </trkpt>
      <trkpt lat="44.80918" lon="3.12951">
        <ele>1035.7</ele>
        <time>2022-03-26T12:12:49Z</time>
      </trkpt>
      <trkpt lat="44.80912" lon="3.12958">
        <ele>1036.2</ele>
        <time>2022-03-26T12:12:57Z</time>
      </trkpt>
      <trkpt lat="44.80911" lon="3.12967">
        <ele>1036.9</ele>
        <time>2022-03-26T12:13:02Z</time>
      </trkpt>
      <trkpt lat="44.80906" lon="3.12972">
        <ele>1037.4</ele>
        <time>2022-03-26T12:13:07Z</time>
      </trkpt>
      <trkpt lat="44.80903" lon="3.12983">
        <ele>1038.3</ele>
        <time>2022-03-26T12:13:13Z</time>
      </trkpt>
      <trkpt lat="44.80899" lon="3.12992">
        <ele>1039.1</ele>
        <time>2022-03-26T12:13:18Z</time>
      </trkpt>
      <trkpt lat="44.80897" lon="3.13001">
        <ele>1039.8</ele>
        <time>2022-03-26T12:13:25Z</time>
      </trkpt>
      <trkpt lat="44.80892" lon="3.13008">
        <ele>1040.6</ele>
        <time>2022-03-26T12:13:32Z</time>
      </trkpt>
      <trkpt lat="44.80888" lon="3.13016">
        <ele>1041.5</ele>
        <time>2022-03-26T12:13:38Z</time>
      </trkpt>
      <trkpt lat="44.80883" lon="3.13027">
        <ele>1042.7</ele>
        <time>2022-03-26T12:13:43Z</time>
      </trkpt>
      <trkpt lat="44.80879" lon="3.13036">
        <ele>1043.8</ele>
        <time>2022-03-26T12:13:50Z</time>
      </trkpt>
      <trkpt lat="44.80874" lon="3.13042">
        <ele>1044.6</ele>
        <time>2022-03-26T12:13:55Z</time>
      </trkpt>
      <trkpt lat="44.80868" lon="3.1305">
        <ele>1045.7</ele>
        <time>2022-03-26T12:14:00Z</time>
      </trkpt>
      <trkpt lat="44.80862" lon="3.13057">
        <ele>1046.7</ele>
        <time>2022-03-26T12:14:15Z</time>
      </trkpt>
      <trkpt lat="44.80855" lon="3.1306">
        <ele>1047.3</ele>
        <time>2022-03-26T12:14:20Z</time>
      </trkpt>
      <trkpt lat="44.80855" lon="3.13071">
        <ele>1048.4</ele>
        <time>2022-03-26T12:14:25Z</time>
      </trkpt>
      <trkpt lat="44.80851" lon="3.13079">
        <ele>1049.5</ele>
        <time>2022-03-26T12:14:31Z</time>
      </trkpt>
      <trkpt lat="44.80846" lon="3.13088">
        <ele>1050.8</ele>
        <time>2022-03-26T12:14:36Z</time>
      </trkpt>
      <trkpt lat="44.80842" lon="3.13098">
        <ele>1052.3</ele>
        <time>2022-03-26T12:14:42Z</time>
      </trkpt>
      <trkpt lat="44.80838" lon="3.13105">
        <ele>1053.5</ele>
        <time>2022-03-26T12:14:47Z</time>
      </trkpt>
      <trkpt lat="44.8083" lon="3.13107">
        <ele>1054.6</ele>
        <time>2022-03-26T12:14:52Z</time>
      </trkpt>
      <trkpt lat="44.80821" lon="3.1311">
        <ele>1056.2</ele>
        <time>2022-03-26T12:14:57Z</time>
      </trkpt>
      <trkpt lat="44.80814" lon="3.13113">
        <ele>1057.6</ele>
        <time>2022-03-26T12:15:03Z</time>
      </trkpt>
      <trkpt lat="44.80807" lon="3.13115">
        <ele>1058.9</ele>
        <time>2022-03-26T12:15:10Z</time>
      </trkpt>
      <trkpt lat="44.80798" lon="3.13122">
        <ele>1061.3</ele>
        <time>2022-03-26T12:15:15Z</time>
      </trkpt>
      <trkpt lat="44.80791" lon="3.13126">
        <ele>1063</ele>
        <time>2022-03-26T12:15:21Z</time>
      </trkpt>
      <trkpt lat="44.80784" lon="3.13124">
        <ele>1063.7</ele>
        <time>2022-03-26T12:15:45Z</time>
      </trkpt>
      <trkpt lat="44.80778" lon="3.13124">
        <ele>1064.6</ele>
        <time>2022-03-26T12:15:51Z</time>
      </trkpt>
      <trkpt lat="44.8077" lon="3.13124">
        <ele>1065.8</ele>
        <time>2022-03-26T12:15:59Z</time>
      </trkpt>
      <trkpt lat="44.80763" lon="3.13121">
        <ele>1066.3</ele>
        <time>2022-03-26T12:16:10Z</time>
      </trkpt>
      <trkpt lat="44.80755" lon="3.13119">
        <ele>1067.1</ele>
        <time>2022-03-26T12:16:17Z</time>
      </trkpt>
      <trkpt lat="44.80747" lon="3.13119">
        <ele>1068.1</ele>
        <time>2022-03-26T12:16:22Z</time>
      </trkpt>
      <trkpt lat="44.80741" lon="3.13114">
        <ele>1067.6</ele>
        <time>2022-03-26T12:16:27Z</time>
      </trkpt>
      <trkpt lat="44.80732" lon="3.13116">
        <ele>1068.6</ele>
        <time>2022-03-26T12:16:35Z</time>
      </trkpt>
      <trkpt lat="44.80725" lon="3.13117">
        <ele>1069.3</ele>
        <time>2022-03-26T12:16:40Z</time>
      </trkpt>
      <trkpt lat="44.80718" lon="3.13119">
        <ele>1070.1</ele>
        <time>2022-03-26T12:16:48Z</time>
      </trkpt>
      <trkpt lat="44.80711" lon="3.1312">
        <ele>1070.8</ele>
        <time>2022-03-26T12:16:53Z</time>
      </trkpt>
      <trkpt lat="44.80704" lon="3.13121">
        <ele>1071.4</ele>
        <time>2022-03-26T12:16:59Z</time>
      </trkpt>
      <trkpt lat="44.80696" lon="3.13124">
        <ele>1072.4</ele>
        <time>2022-03-26T12:17:07Z</time>
      </trkpt>
      <trkpt lat="44.80688" lon="3.13124">
        <ele>1072.9</ele>
        <time>2022-03-26T12:17:13Z</time>
      </trkpt>
      <trkpt lat="44.80681" lon="3.13127">
        <ele>1073.8</ele>
        <time>2022-03-26T12:17:19Z</time>
      </trkpt>
      <trkpt lat="44.80674" lon="3.13129">
        <ele>1074.6</ele>
        <time>2022-03-26T12:17:28Z</time>
      </trkpt>
      <trkpt lat="44.80669" lon="3.13135">
        <ele>1075.7</ele>
        <time>2022-03-26T12:17:35Z</time>
      </trkpt>
      <trkpt lat="44.80663" lon="3.1314">
        <ele>1076.8</ele>
        <time>2022-03-26T12:17:46Z</time>
      </trkpt>
      <trkpt lat="44.80657" lon="3.13143">
        <ele>1077.8</ele>
        <time>2022-03-26T12:17:54Z</time>
      </trkpt>
      <trkpt lat="44.80651" lon="3.1314">
        <ele>1078</ele>
        <time>2022-03-26T12:18:03Z</time>
      </trkpt>
      <trkpt lat="44.80642" lon="3.1314">
        <ele>1078.8</ele>
        <time>2022-03-26T12:18:14Z</time>
      </trkpt>
      <trkpt lat="44.80635" lon="3.13138">
        <ele>1079.3</ele>
        <time>2022-03-26T12:18:19Z</time>
      </trkpt>
      <trkpt lat="44.80628" lon="3.13133">
        <ele>1079.5</ele>
        <time>2022-03-26T12:18:26Z</time>
      </trkpt>
      <trkpt lat="44.8062" lon="3.13127">
        <ele>1079.7</ele>
        <time>2022-03-26T12:18:36Z</time>
      </trkpt>
      <trkpt lat="44.80613" lon="3.13117">
        <ele>1079.6</ele>
        <time>2022-03-26T12:18:41Z</time>
      </trkpt>
      <trkpt lat="44.8061" lon="3.13105">
        <ele>1079</ele>
        <time>2022-03-26T12:18:46Z</time>
      </trkpt>
      <trkpt lat="44.80605" lon="3.13097">
        <ele>1079</ele>
        <time>2022-03-26T12:18:53Z</time>
      </trkpt>
      <trkpt lat="44.80608" lon="3.13085">
        <ele>1077.6</ele>
        <time>2022-03-26T12:18:58Z</time>
      </trkpt>
      <trkpt lat="44.80609" lon="3.13074">
        <ele>1077.2</ele>
        <time>2022-03-26T12:19:03Z</time>
      </trkpt>
      <trkpt lat="44.80609" lon="3.13064">
        <ele>1077.1</ele>
        <time>2022-03-26T12:19:09Z</time>
      </trkpt>
      <trkpt lat="44.8061" lon="3.13053">
        <ele>1076.9</ele>
        <time>2022-03-26T12:19:15Z</time>
      </trkpt>
      <trkpt lat="44.80605" lon="3.13045">
        <ele>1077.5</ele>
        <time>2022-03-26T12:19:22Z</time>
      </trkpt>
      <trkpt lat="44.80599" lon="3.13041">
        <ele>1078.3</ele>
        <time>2022-03-26T12:19:27Z</time>
      </trkpt>
      <trkpt lat="44.806" lon="3.13032">
        <ele>1078.1</ele>
        <time>2022-03-26T12:19:36Z</time>
      </trkpt>
      <trkpt lat="44.80594" lon="3.13027">
        <ele>1078.9</ele>
        <time>2022-03-26T12:19:41Z</time>
      </trkpt>
      <trkpt lat="44.80588" lon="3.13023">
        <ele>1079.6</ele>
        <time>2022-03-26T12:19:48Z</time>
      </trkpt>
      <trkpt lat="44.80582" lon="3.13019">
        <ele>1080.3</ele>
        <time>2022-03-26T12:19:54Z</time>
      </trkpt>
      <trkpt lat="44.80577" lon="3.13012">
        <ele>1080.3</ele>
        <time>2022-03-26T12:20:00Z</time>
      </trkpt>
      <trkpt lat="44.80584" lon="3.13005">
        <ele>1080</ele>
        <time>2022-03-26T12:20:11Z</time>
      </trkpt>
      <trkpt lat="44.80575" lon="3.13011">
        <ele>1080.3</ele>
        <time>2022-03-26T12:21:41Z</time>
      </trkpt>
      <trkpt lat="44.80568" lon="3.13009">
        <ele>1080.4</ele>
        <time>2022-03-26T12:22:07Z</time>
      </trkpt>
      <trkpt lat="44.80561" lon="3.13006">
        <ele>1080.4</ele>
        <time>2022-03-26T12:22:13Z</time>
      </trkpt>
      <trkpt lat="44.80554" lon="3.13002">
        <ele>1080.4</ele>
        <time>2022-03-26T12:22:20Z</time>
      </trkpt>
      <trkpt lat="44.80548" lon="3.12996">
        <ele>1080.4</ele>
        <time>2022-03-26T12:22:29Z</time>
      </trkpt>
      <trkpt lat="44.80541" lon="3.12994">
        <ele>1080.5</ele>
        <time>2022-03-26T12:22:38Z</time>
      </trkpt>
      <trkpt lat="44.80534" lon="3.12989">
        <ele>1080.4</ele>
        <time>2022-03-26T12:22:44Z</time>
      </trkpt>
      <trkpt lat="44.80528" lon="3.12987">
        <ele>1080.4</ele>
        <time>2022-03-26T12:22:52Z</time>
      </trkpt>
      <trkpt lat="44.80521" lon="3.12981">
        <ele>1080.2</ele>
        <time>2022-03-26T12:23:00Z</time>
      </trkpt>
      <trkpt lat="44.80514" lon="3.12978">
        <ele>1080.1</ele>
        <time>2022-03-26T12:23:08Z</time>
      </trkpt>
      <trkpt lat="44.80508" lon="3.12973">
        <ele>1079.8</ele>
        <time>2022-03-26T12:23:15Z</time>
      </trkpt>
      <trkpt lat="44.80506" lon="3.12963">
        <ele>1079.4</ele>
        <time>2022-03-26T12:23:23Z</time>
      </trkpt>
      <trkpt lat="44.80505" lon="3.12953">
        <ele>1078.9</ele>
        <time>2022-03-26T12:23:42Z</time>
      </trkpt>
      <trkpt lat="44.80497" lon="3.12947">
        <ele>1077.9</ele>
        <time>2022-03-26T12:23:47Z</time>
      </trkpt>
      <trkpt lat="44.80489" lon="3.12943">
        <ele>1076.3</ele>
        <time>2022-03-26T12:23:52Z</time>
      </trkpt>
      <trkpt lat="44.80483" lon="3.12939">
        <ele>1074.9</ele>
        <time>2022-03-26T12:23:57Z</time>
      </trkpt>
      <trkpt lat="44.80473" lon="3.12937">
        <ele>1072.9</ele>
        <time>2022-03-26T12:24:02Z</time>
      </trkpt>
      <trkpt lat="44.80466" lon="3.12933">
        <ele>1071.2</ele>
        <time>2022-03-26T12:24:07Z</time>
      </trkpt>
      <trkpt lat="44.80459" lon="3.12934">
        <ele>1069.9</ele>
        <time>2022-03-26T12:24:13Z</time>
      </trkpt>
      <trkpt lat="44.80452" lon="3.12934">
        <ele>1068.5</ele>
        <time>2022-03-26T12:24:18Z</time>
      </trkpt>
      <trkpt lat="44.80445" lon="3.12936">
        <ele>1067.4</ele>
        <time>2022-03-26T12:24:23Z</time>
      </trkpt>
      <trkpt lat="44.80435" lon="3.12936">
        <ele>1065.5</ele>
        <time>2022-03-26T12:24:28Z</time>
      </trkpt>
      <trkpt lat="44.80427" lon="3.12937">
        <ele>1064.1</ele>
        <time>2022-03-26T12:24:34Z</time>
      </trkpt>
      <trkpt lat="44.80418" lon="3.12938">
        <ele>1062.6</ele>
        <time>2022-03-26T12:24:39Z</time>
      </trkpt>
      <trkpt lat="44.8041" lon="3.12941">
        <ele>1062.2</ele>
        <time>2022-03-26T12:24:46Z</time>
      </trkpt>
      <trkpt lat="44.80405" lon="3.12949">
        <ele>1063.1</ele>
        <time>2022-03-26T12:24:52Z</time>
      </trkpt>
      <trkpt lat="44.80399" lon="3.12956">
        <ele>1063.7</ele>
        <time>2022-03-26T12:24:57Z</time>
      </trkpt>
      <trkpt lat="44.80391" lon="3.12959">
        <ele>1063.6</ele>
        <time>2022-03-26T12:25:02Z</time>
      </trkpt>
      <trkpt lat="44.80385" lon="3.12964">
        <ele>1064</ele>
        <time>2022-03-26T12:25:07Z</time>
      </trkpt>
      <trkpt lat="44.8038" lon="3.12973">
        <ele>1065.3</ele>
        <time>2022-03-26T12:25:12Z</time>
      </trkpt>
      <trkpt lat="44.80374" lon="3.12982">
        <ele>1066.6</ele>
        <time>2022-03-26T12:25:17Z</time>
      </trkpt>
      <trkpt lat="44.80368" lon="3.12987">
        <ele>1067.2</ele>
        <time>2022-03-26T12:25:22Z</time>
      </trkpt>
      <trkpt lat="44.8036" lon="3.12993">
        <ele>1067.9</ele>
        <time>2022-03-26T12:25:27Z</time>
      </trkpt>
      <trkpt lat="44.80353" lon="3.12997">
        <ele>1068.3</ele>
        <time>2022-03-26T12:25:33Z</time>
      </trkpt>
      <trkpt lat="44.80346" lon="3.13003">
        <ele>1069</ele>
        <time>2022-03-26T12:25:38Z</time>
      </trkpt>
      <trkpt lat="44.80339" lon="3.13005">
        <ele>1068.9</ele>
        <time>2022-03-26T12:25:43Z</time>
      </trkpt>
      <trkpt lat="44.80333" lon="3.13011">
        <ele>1069.4</ele>
        <time>2022-03-26T12:25:51Z</time>
      </trkpt>
      <trkpt lat="44.80326" lon="3.13015">
        <ele>1069.9</ele>
        <time>2022-03-26T12:25:56Z</time>
      </trkpt>
      <trkpt lat="44.80319" lon="3.13016">
        <ele>1070</ele>
        <time>2022-03-26T12:26:01Z</time>
      </trkpt>
      <trkpt lat="44.80313" lon="3.1302">
        <ele>1070.5</ele>
        <time>2022-03-26T12:26:07Z</time>
      </trkpt>
      <trkpt lat="44.80307" lon="3.13025">
        <ele>1071.1</ele>
        <time>2022-03-26T12:26:12Z</time>
      </trkpt>
      <trkpt lat="44.80302" lon="3.13032">
        <ele>1072</ele>
        <time>2022-03-26T12:26:20Z</time>
      </trkpt>
      <trkpt lat="44.80296" lon="3.13037">
        <ele>1072.6</ele>
        <time>2022-03-26T12:26:25Z</time>
      </trkpt>
      <trkpt lat="44.8029" lon="3.13044">
        <ele>1073.6</ele>
        <time>2022-03-26T12:26:30Z</time>
      </trkpt>
      <trkpt lat="44.80285" lon="3.13051">
        <ele>1074.5</ele>
        <time>2022-03-26T12:26:35Z</time>
      </trkpt>
      <trkpt lat="44.80279" lon="3.13058">
        <ele>1075.5</ele>
        <time>2022-03-26T12:26:40Z</time>
      </trkpt>
      <trkpt lat="44.80272" lon="3.13064">
        <ele>1076.3</ele>
        <time>2022-03-26T12:26:45Z</time>
      </trkpt>
      <trkpt lat="44.80266" lon="3.13071">
        <ele>1077.3</ele>
        <time>2022-03-26T12:26:51Z</time>
      </trkpt>
      <trkpt lat="44.80261" lon="3.13076">
        <ele>1078</ele>
        <time>2022-03-26T12:26:56Z</time>
      </trkpt>
      <trkpt lat="44.80254" lon="3.13081">
        <ele>1078.7</ele>
        <time>2022-03-26T12:27:01Z</time>
      </trkpt>
      <trkpt lat="44.80246" lon="3.13084">
        <ele>1079.1</ele>
        <time>2022-03-26T12:27:06Z</time>
      </trkpt>
      <trkpt lat="44.80238" lon="3.13086">
        <ele>1079.5</ele>
        <time>2022-03-26T12:27:11Z</time>
      </trkpt>
      <trkpt lat="44.8023" lon="3.13085">
        <ele>1079.3</ele>
        <time>2022-03-26T12:27:17Z</time>
      </trkpt>
      <trkpt lat="44.80223" lon="3.13082">
        <ele>1078.8</ele>
        <time>2022-03-26T12:27:23Z</time>
      </trkpt>
      <trkpt lat="44.80216" lon="3.13081">
        <ele>1078.6</ele>
        <time>2022-03-26T12:27:28Z</time>
      </trkpt>
      <trkpt lat="44.80209" lon="3.13076">
        <ele>1077.8</ele>
        <time>2022-03-26T12:27:34Z</time>
      </trkpt>
      <trkpt lat="44.80202" lon="3.13073">
        <ele>1077.2</ele>
        <time>2022-03-26T12:27:39Z</time>
      </trkpt>
      <trkpt lat="44.80194" lon="3.13069">
        <ele>1076.5</ele>
        <time>2022-03-26T12:28:06Z</time>
      </trkpt>
      <trkpt lat="44.80187" lon="3.1307">
        <ele>1076.6</ele>
        <time>2022-03-26T12:28:11Z</time>
      </trkpt>
      <trkpt lat="44.80179" lon="3.13069">
        <ele>1076.3</ele>
        <time>2022-03-26T12:28:16Z</time>
      </trkpt>
      <trkpt lat="44.8017" lon="3.1307">
        <ele>1076.5</ele>
        <time>2022-03-26T12:28:28Z</time>
      </trkpt>
      <trkpt lat="44.80166" lon="3.13077">
        <ele>1077.8</ele>
        <time>2022-03-26T12:28:35Z</time>
      </trkpt>
      <trkpt lat="44.8016" lon="3.13082">
        <ele>1078.6</ele>
        <time>2022-03-26T12:28:43Z</time>
      </trkpt>
      <trkpt lat="44.80152" lon="3.13082">
        <ele>1078.4</ele>
        <time>2022-03-26T12:28:48Z</time>
      </trkpt>
      <trkpt lat="44.80144" lon="3.13086">
        <ele>1078.8</ele>
        <time>2022-03-26T12:28:55Z</time>
      </trkpt>
      <trkpt lat="44.80136" lon="3.1309">
        <ele>1079.1</ele>
        <time>2022-03-26T12:29:06Z</time>
      </trkpt>
      <trkpt lat="44.8013" lon="3.13092">
        <ele>1079.2</ele>
        <time>2022-03-26T12:29:11Z</time>
      </trkpt>
      <trkpt lat="44.80125" lon="3.13099">
        <ele>1079.9</ele>
        <time>2022-03-26T12:29:18Z</time>
      </trkpt>
      <trkpt lat="44.8012" lon="3.13105">
        <ele>1080.4</ele>
        <time>2022-03-26T12:29:23Z</time>
      </trkpt>
      <trkpt lat="44.80113" lon="3.13106">
        <ele>1080.1</ele>
        <time>2022-03-26T12:29:36Z</time>
      </trkpt>
      <trkpt lat="44.80106" lon="3.13107">
        <ele>1079.9</ele>
        <time>2022-03-26T12:29:44Z</time>
      </trkpt>
      <trkpt lat="44.80098" lon="3.13109">
        <ele>1079.6</ele>
        <time>2022-03-26T12:29:49Z</time>
      </trkpt>
      <trkpt lat="44.80091" lon="3.13111">
        <ele>1079.4</ele>
        <time>2022-03-26T12:30:26Z</time>
      </trkpt>
      <trkpt lat="44.80084" lon="3.13115">
        <ele>1079.3</ele>
        <time>2022-03-26T12:30:33Z</time>
      </trkpt>
      <trkpt lat="44.80077" lon="3.13118">
        <ele>1079.1</ele>
        <time>2022-03-26T12:30:39Z</time>
      </trkpt>
      <trkpt lat="44.80071" lon="3.13123">
        <ele>1079.1</ele>
        <time>2022-03-26T12:30:47Z</time>
      </trkpt>
      <trkpt lat="44.80065" lon="3.13131">
        <ele>1079.3</ele>
        <time>2022-03-26T12:30:59Z</time>
      </trkpt>
      <trkpt lat="44.80065" lon="3.1314">
        <ele>1080</ele>
        <time>2022-03-26T12:31:05Z</time>
      </trkpt>
      <trkpt lat="44.80065" lon="3.13151">
        <ele>1080.8</ele>
        <time>2022-03-26T12:31:12Z</time>
      </trkpt>
      <trkpt lat="44.80063" lon="3.1316">
        <ele>1081.3</ele>
        <time>2022-03-26T12:31:17Z</time>
      </trkpt>
      <trkpt lat="44.80063" lon="3.13171">
        <ele>1082.1</ele>
        <time>2022-03-26T12:31:25Z</time>
      </trkpt>
      <trkpt lat="44.80061" lon="3.13183">
        <ele>1082.9</ele>
        <time>2022-03-26T12:31:51Z</time>
      </trkpt>
      <trkpt lat="44.8006" lon="3.13192">
        <ele>1083.5</ele>
        <time>2022-03-26T12:31:59Z</time>
      </trkpt>
      <trkpt lat="44.80058" lon="3.13204">
        <ele>1084.3</ele>
        <time>2022-03-26T12:32:04Z</time>
      </trkpt>
      <trkpt lat="44.80056" lon="3.13212">
        <ele>1084.8</ele>
        <time>2022-03-26T12:32:10Z</time>
      </trkpt>
      <trkpt lat="44.80054" lon="3.13223">
        <ele>1085.5</ele>
        <time>2022-03-26T12:32:16Z</time>
      </trkpt>
      <trkpt lat="44.80053" lon="3.13233">
        <ele>1086.2</ele>
        <time>2022-03-26T12:32:22Z</time>
      </trkpt>
      <trkpt lat="44.80053" lon="3.13243">
        <ele>1087</ele>
        <time>2022-03-26T12:32:29Z</time>
      </trkpt>
      <trkpt lat="44.8005" lon="3.13252">
        <ele>1087.5</ele>
        <time>2022-03-26T12:32:35Z</time>
      </trkpt>
      <trkpt lat="44.80049" lon="3.13263">
        <ele>1088.2</ele>
        <time>2022-03-26T12:32:41Z</time>
      </trkpt>
      <trkpt lat="44.80047" lon="3.13273">
        <ele>1088.8</ele>
        <time>2022-03-26T12:32:47Z</time>
      </trkpt>
      <trkpt lat="44.80046" lon="3.13284">
        <ele>1089.5</ele>
        <time>2022-03-26T12:32:54Z</time>
      </trkpt>
      <trkpt lat="44.80046" lon="3.13293">
        <ele>1090.1</ele>
        <time>2022-03-26T12:32:59Z</time>
      </trkpt>
      <trkpt lat="44.80047" lon="3.13305">
        <ele>1090.9</ele>
        <time>2022-03-26T12:33:07Z</time>
      </trkpt>
      <trkpt lat="44.80047" lon="3.13314">
        <ele>1091.5</ele>
        <time>2022-03-26T12:33:14Z</time>
      </trkpt>
      <trkpt lat="44.80048" lon="3.13325">
        <ele>1092.3</ele>
        <time>2022-03-26T12:33:20Z</time>
      </trkpt>
      <trkpt lat="44.80049" lon="3.13334">
        <ele>1093</ele>
        <time>2022-03-26T12:33:25Z</time>
      </trkpt>
      <trkpt lat="44.8005" lon="3.13343">
        <ele>1093.8</ele>
        <time>2022-03-26T12:33:32Z</time>
      </trkpt>
      <trkpt lat="44.80051" lon="3.13353">
        <ele>1094.7</ele>
        <time>2022-03-26T12:33:39Z</time>
      </trkpt>
      <trkpt lat="44.80052" lon="3.13364">
        <ele>1095.7</ele>
        <time>2022-03-26T12:33:46Z</time>
      </trkpt>
      <trkpt lat="44.80051" lon="3.13374">
        <ele>1096.5</ele>
        <time>2022-03-26T12:33:51Z</time>
      </trkpt>
      <trkpt lat="44.80052" lon="3.13384">
        <ele>1097.4</ele>
        <time>2022-03-26T12:33:57Z</time>
      </trkpt>
      <trkpt lat="44.80051" lon="3.13395">
        <ele>1098.2</ele>
        <time>2022-03-26T12:34:03Z</time>
      </trkpt>
      <trkpt lat="44.80052" lon="3.13405">
        <ele>1099.1</ele>
        <time>2022-03-26T12:34:10Z</time>
      </trkpt>
      <trkpt lat="44.80052" lon="3.13416">
        <ele>1100.1</ele>
        <time>2022-03-26T12:34:17Z</time>
      </trkpt>
      <trkpt lat="44.80053" lon="3.13427">
        <ele>1100.7</ele>
        <time>2022-03-26T12:34:23Z</time>
      </trkpt>
      <trkpt lat="44.80052" lon="3.13437">
        <ele>1101.1</ele>
        <time>2022-03-26T12:34:29Z</time>
      </trkpt>
      <trkpt lat="44.80052" lon="3.13447">
        <ele>1101.6</ele>
        <time>2022-03-26T12:34:34Z</time>
      </trkpt>
      <trkpt lat="44.80052" lon="3.13456">
        <ele>1102</ele>
        <time>2022-03-26T12:34:41Z</time>
      </trkpt>
      <trkpt lat="44.80049" lon="3.13466">
        <ele>1102.3</ele>
        <time>2022-03-26T12:34:46Z</time>
      </trkpt>
      <trkpt lat="44.80051" lon="3.13475">
        <ele>1102.9</ele>
        <time>2022-03-26T12:34:51Z</time>
      </trkpt>
      <trkpt lat="44.80047" lon="3.13483">
        <ele>1103</ele>
        <time>2022-03-26T12:34:56Z</time>
      </trkpt>
      <trkpt lat="44.80046" lon="3.13493">
        <ele>1103.4</ele>
        <time>2022-03-26T12:35:02Z</time>
      </trkpt>
      <trkpt lat="44.80043" lon="3.13504">
        <ele>1104</ele>
        <time>2022-03-26T12:35:07Z</time>
      </trkpt>
      <trkpt lat="44.80042" lon="3.13514">
        <ele>1105</ele>
        <time>2022-03-26T12:35:13Z</time>
      </trkpt>
      <trkpt lat="44.8004" lon="3.13525">
        <ele>1105.9</ele>
        <time>2022-03-26T12:35:24Z</time>
      </trkpt>
      <trkpt lat="44.80039" lon="3.13535">
        <ele>1106.8</ele>
        <time>2022-03-26T12:35:29Z</time>
      </trkpt>
      <trkpt lat="44.80038" lon="3.13545">
        <ele>1107.8</ele>
        <time>2022-03-26T12:35:36Z</time>
      </trkpt>
      <trkpt lat="44.80032" lon="3.13554">
        <ele>1108.1</ele>
        <time>2022-03-26T12:35:41Z</time>
      </trkpt>
      <trkpt lat="44.80027" lon="3.13565">
        <ele>1108.6</ele>
        <time>2022-03-26T12:35:49Z</time>
      </trkpt>
      <trkpt lat="44.80022" lon="3.13573">
        <ele>1108.7</ele>
        <time>2022-03-26T12:35:55Z</time>
      </trkpt>
      <trkpt lat="44.80018" lon="3.13581">
        <ele>1109</ele>
        <time>2022-03-26T12:36:02Z</time>
      </trkpt>
      <trkpt lat="44.80014" lon="3.13592">
        <ele>1109.4</ele>
        <time>2022-03-26T12:36:08Z</time>
      </trkpt>
      <trkpt lat="44.80009" lon="3.136">
        <ele>1109.3</ele>
        <time>2022-03-26T12:36:13Z</time>
      </trkpt>
      <trkpt lat="44.80004" lon="3.13607">
        <ele>1109.2</ele>
        <time>2022-03-26T12:36:20Z</time>
      </trkpt>
      <trkpt lat="44.80002" lon="3.13616">
        <ele>1109.6</ele>
        <time>2022-03-26T12:36:25Z</time>
      </trkpt>
      <trkpt lat="44.79996" lon="3.13623">
        <ele>1109.6</ele>
        <time>2022-03-26T12:36:30Z</time>
      </trkpt>
      <trkpt lat="44.79991" lon="3.13632">
        <ele>1109.9</ele>
        <time>2022-03-26T12:36:37Z</time>
      </trkpt>
      <trkpt lat="44.79987" lon="3.13641">
        <ele>1110.3</ele>
        <time>2022-03-26T12:36:42Z</time>
      </trkpt>
      <trkpt lat="44.79983" lon="3.1365">
        <ele>1110.6</ele>
        <time>2022-03-26T12:36:47Z</time>
      </trkpt>
      <trkpt lat="44.79979" lon="3.13659">
        <ele>1111</ele>
        <time>2022-03-26T12:36:53Z</time>
      </trkpt>
      <trkpt lat="44.79972" lon="3.13666">
        <ele>1110.9</ele>
        <time>2022-03-26T12:36:59Z</time>
      </trkpt>
      <trkpt lat="44.79969" lon="3.13676">
        <ele>1111.5</ele>
        <time>2022-03-26T12:37:05Z</time>
      </trkpt>
      <trkpt lat="44.79966" lon="3.13684">
        <ele>1111.9</ele>
        <time>2022-03-26T12:37:11Z</time>
      </trkpt>
      <trkpt lat="44.79963" lon="3.13693">
        <ele>1112.3</ele>
        <time>2022-03-26T12:37:17Z</time>
      </trkpt>
      <trkpt lat="44.79963" lon="3.13703">
        <ele>1113</ele>
        <time>2022-03-26T12:37:23Z</time>
      </trkpt>
      <trkpt lat="44.79959" lon="3.13712">
        <ele>1113.3</ele>
        <time>2022-03-26T12:37:29Z</time>
      </trkpt>
      <trkpt lat="44.79959" lon="3.13722">
        <ele>1114.1</ele>
        <time>2022-03-26T12:37:35Z</time>
      </trkpt>
      <trkpt lat="44.7996" lon="3.13732">
        <ele>1114.9</ele>
        <time>2022-03-26T12:37:41Z</time>
      </trkpt>
      <trkpt lat="44.79961" lon="3.13741">
        <ele>1115.7</ele>
        <time>2022-03-26T12:37:46Z</time>
      </trkpt>
      <trkpt lat="44.7996" lon="3.13752">
        <ele>1116.4</ele>
        <time>2022-03-26T12:37:52Z</time>
      </trkpt>
      <trkpt lat="44.79958" lon="3.13762">
        <ele>1116.9</ele>
        <time>2022-03-26T12:37:58Z</time>
      </trkpt>
      <trkpt lat="44.79958" lon="3.13771">
        <ele>1117.6</ele>
        <time>2022-03-26T12:38:04Z</time>
      </trkpt>
      <trkpt lat="44.79955" lon="3.13782">
        <ele>1118.1</ele>
        <time>2022-03-26T12:38:09Z</time>
      </trkpt>
      <trkpt lat="44.79953" lon="3.13791">
        <ele>1118.5</ele>
        <time>2022-03-26T12:38:17Z</time>
      </trkpt>
      <trkpt lat="44.7995" lon="3.138">
        <ele>1118.8</ele>
        <time>2022-03-26T12:38:22Z</time>
      </trkpt>
      <trkpt lat="44.79949" lon="3.1381">
        <ele>1119.5</ele>
        <time>2022-03-26T12:38:28Z</time>
      </trkpt>
      <trkpt lat="44.79946" lon="3.13818">
        <ele>1119.7</ele>
        <time>2022-03-26T12:38:33Z</time>
      </trkpt>
      <trkpt lat="44.79943" lon="3.13828">
        <ele>1120.1</ele>
        <time>2022-03-26T12:38:38Z</time>
      </trkpt>
      <trkpt lat="44.79941" lon="3.13839">
        <ele>1120.8</ele>
        <time>2022-03-26T12:38:44Z</time>
      </trkpt>
      <trkpt lat="44.79939" lon="3.13847">
        <ele>1121.3</ele>
        <time>2022-03-26T12:38:49Z</time>
      </trkpt>
      <trkpt lat="44.79937" lon="3.13857">
        <ele>1122.1</ele>
        <time>2022-03-26T12:38:56Z</time>
      </trkpt>
      <trkpt lat="44.79934" lon="3.13869">
        <ele>1123</ele>
        <time>2022-03-26T12:39:02Z</time>
      </trkpt>
      <trkpt lat="44.79932" lon="3.13879">
        <ele>1123.8</ele>
        <time>2022-03-26T12:39:08Z</time>
      </trkpt>
      <trkpt lat="44.79929" lon="3.13891">
        <ele>1124.7</ele>
        <time>2022-03-26T12:39:13Z</time>
      </trkpt>
      <trkpt lat="44.79927" lon="3.139">
        <ele>1125.4</ele>
        <time>2022-03-26T12:39:19Z</time>
      </trkpt>
      <trkpt lat="44.79925" lon="3.13911">
        <ele>1126.3</ele>
        <time>2022-03-26T12:39:24Z</time>
      </trkpt>
      <trkpt lat="44.79923" lon="3.13921">
        <ele>1126.8</ele>
        <time>2022-03-26T12:39:30Z</time>
      </trkpt>
      <trkpt lat="44.7992" lon="3.1393">
        <ele>1126.7</ele>
        <time>2022-03-26T12:39:36Z</time>
      </trkpt>
      <trkpt lat="44.79918" lon="3.13939">
        <ele>1126.7</ele>
        <time>2022-03-26T12:39:41Z</time>
      </trkpt>
      <trkpt lat="44.79916" lon="3.13949">
        <ele>1126.7</ele>
        <time>2022-03-26T12:39:46Z</time>
      </trkpt>
      <trkpt lat="44.79916" lon="3.13958">
        <ele>1126.9</ele>
        <time>2022-03-26T12:39:51Z</time>
      </trkpt>
      <trkpt lat="44.79913" lon="3.13966">
        <ele>1126.6</ele>
        <time>2022-03-26T12:39:56Z</time>
      </trkpt>
      <trkpt lat="44.7991" lon="3.13975">
        <ele>1126.4</ele>
        <time>2022-03-26T12:40:01Z</time>
      </trkpt>
      <trkpt lat="44.79908" lon="3.13984">
        <ele>1126.4</ele>
        <time>2022-03-26T12:40:06Z</time>
      </trkpt>
      <trkpt lat="44.79905" lon="3.13994">
        <ele>1126.3</ele>
        <time>2022-03-26T12:40:12Z</time>
      </trkpt>
      <trkpt lat="44.79901" lon="3.14002">
        <ele>1126</ele>
        <time>2022-03-26T12:40:18Z</time>
      </trkpt>
      <trkpt lat="44.79898" lon="3.14015">
        <ele>1126.2</ele>
        <time>2022-03-26T12:40:23Z</time>
      </trkpt>
      <trkpt lat="44.79897" lon="3.14024">
        <ele>1126.4</ele>
        <time>2022-03-26T12:40:33Z</time>
      </trkpt>
      <trkpt lat="44.79896" lon="3.14033">
        <ele>1126.7</ele>
        <time>2022-03-26T12:40:52Z</time>
      </trkpt>
      <trkpt lat="44.79891" lon="3.14041">
        <ele>1126.4</ele>
        <time>2022-03-26T12:40:58Z</time>
      </trkpt>
      <trkpt lat="44.79886" lon="3.14047">
        <ele>1126.1</ele>
        <time>2022-03-26T12:41:04Z</time>
      </trkpt>
      <trkpt lat="44.79886" lon="3.14056">
        <ele>1126.5</ele>
        <time>2022-03-26T12:41:11Z</time>
      </trkpt>
      <trkpt lat="44.79879" lon="3.14065">
        <ele>1126.1</ele>
        <time>2022-03-26T12:41:16Z</time>
      </trkpt>
      <trkpt lat="44.79874" lon="3.14074">
        <ele>1125.9</ele>
        <time>2022-03-26T12:41:21Z</time>
      </trkpt>
      <trkpt lat="44.79868" lon="3.14077">
        <ele>1125.4</ele>
        <time>2022-03-26T12:41:48Z</time>
      </trkpt>
      <trkpt lat="44.7986" lon="3.14079">
        <ele>1124.7</ele>
        <time>2022-03-26T12:41:53Z</time>
      </trkpt>
      <trkpt lat="44.79854" lon="3.14087">
        <ele>1124.5</ele>
        <time>2022-03-26T12:41:59Z</time>
      </trkpt>
      <trkpt lat="44.79852" lon="3.14095">
        <ele>1124.9</ele>
        <time>2022-03-26T12:42:05Z</time>
      </trkpt>
      <trkpt lat="44.79851" lon="3.14105">
        <ele>1125.6</ele>
        <time>2022-03-26T12:42:11Z</time>
      </trkpt>
      <trkpt lat="44.7985" lon="3.14117">
        <ele>1126.4</ele>
        <time>2022-03-26T12:42:17Z</time>
      </trkpt>
      <trkpt lat="44.79851" lon="3.14127">
        <ele>1127.3</ele>
        <time>2022-03-26T12:42:24Z</time>
      </trkpt>
      <trkpt lat="44.79849" lon="3.14137">
        <ele>1127.8</ele>
        <time>2022-03-26T12:42:30Z</time>
      </trkpt>
      <trkpt lat="44.79848" lon="3.14146">
        <ele>1128.4</ele>
        <time>2022-03-26T12:42:37Z</time>
      </trkpt>
      <trkpt lat="44.79846" lon="3.14156">
        <ele>1128.9</ele>
        <time>2022-03-26T12:42:43Z</time>
      </trkpt>
      <trkpt lat="44.79843" lon="3.14165">
        <ele>1129.2</ele>
        <time>2022-03-26T12:42:49Z</time>
      </trkpt>
      <trkpt lat="44.7984" lon="3.14175">
        <ele>1129.7</ele>
        <time>2022-03-26T12:42:55Z</time>
      </trkpt>
      <trkpt lat="44.79838" lon="3.14185">
        <ele>1130.3</ele>
        <time>2022-03-26T12:43:02Z</time>
      </trkpt>
      <trkpt lat="44.79838" lon="3.14195">
        <ele>1131.3</ele>
        <time>2022-03-26T12:43:08Z</time>
      </trkpt>
      <trkpt lat="44.79835" lon="3.14203">
        <ele>1131.7</ele>
        <time>2022-03-26T12:43:14Z</time>
      </trkpt>
      <trkpt lat="44.79833" lon="3.14214">
        <ele>1132.5</ele>
        <time>2022-03-26T12:43:19Z</time>
      </trkpt>
      <trkpt lat="44.79833" lon="3.14225">
        <ele>1133.6</ele>
        <time>2022-03-26T12:43:26Z</time>
      </trkpt>
      <trkpt lat="44.79831" lon="3.14235">
        <ele>1134.3</ele>
        <time>2022-03-26T12:43:33Z</time>
      </trkpt>
      <trkpt lat="44.7983" lon="3.14246">
        <ele>1135.3</ele>
        <time>2022-03-26T12:43:39Z</time>
      </trkpt>
      <trkpt lat="44.79828" lon="3.14255">
        <ele>1135.7</ele>
        <time>2022-03-26T12:43:46Z</time>
      </trkpt>
      <trkpt lat="44.79824" lon="3.14264">
        <ele>1135.8</ele>
        <time>2022-03-26T12:43:52Z</time>
      </trkpt>
      <trkpt lat="44.79822" lon="3.14273">
        <ele>1136</ele>
        <time>2022-03-26T12:43:58Z</time>
      </trkpt>
      <trkpt lat="44.79818" lon="3.14281">
        <ele>1136</ele>
        <time>2022-03-26T12:44:04Z</time>
      </trkpt>
      <trkpt lat="44.79815" lon="3.14291">
        <ele>1136.2</ele>
        <time>2022-03-26T12:44:10Z</time>
      </trkpt>
      <trkpt lat="44.79813" lon="3.143">
        <ele>1136.4</ele>
        <time>2022-03-26T12:44:16Z</time>
      </trkpt>
      <trkpt lat="44.7981" lon="3.14309">
        <ele>1136.6</ele>
        <time>2022-03-26T12:44:21Z</time>
      </trkpt>
      <trkpt lat="44.79807" lon="3.14318">
        <ele>1136.7</ele>
        <time>2022-03-26T12:44:27Z</time>
      </trkpt>
      <trkpt lat="44.79804" lon="3.14327">
        <ele>1136.9</ele>
        <time>2022-03-26T12:44:32Z</time>
      </trkpt>
      <trkpt lat="44.79801" lon="3.14337">
        <ele>1137.1</ele>
        <time>2022-03-26T12:44:38Z</time>
      </trkpt>
      <trkpt lat="44.79797" lon="3.14345">
        <ele>1137.3</ele>
        <time>2022-03-26T12:44:51Z</time>
      </trkpt>
      <trkpt lat="44.79798" lon="3.14356">
        <ele>1138.1</ele>
        <time>2022-03-26T12:45:24Z</time>
      </trkpt>
      <trkpt lat="44.79796" lon="3.14366">
        <ele>1138.6</ele>
        <time>2022-03-26T12:45:30Z</time>
      </trkpt>
      <trkpt lat="44.79794" lon="3.14377">
        <ele>1139.1</ele>
        <time>2022-03-26T12:45:35Z</time>
      </trkpt>
      <trkpt lat="44.79793" lon="3.14386">
        <ele>1139.6</ele>
        <time>2022-03-26T12:45:40Z</time>
      </trkpt>
      <trkpt lat="44.79792" lon="3.14396">
        <ele>1140.2</ele>
        <time>2022-03-26T12:45:45Z</time>
      </trkpt>
      <trkpt lat="44.79791" lon="3.14407">
        <ele>1140.8</ele>
        <time>2022-03-26T12:45:50Z</time>
      </trkpt>
      <trkpt lat="44.79791" lon="3.14417">
        <ele>1141.5</ele>
        <time>2022-03-26T12:45:55Z</time>
      </trkpt>
      <trkpt lat="44.79791" lon="3.14427">
        <ele>1142.3</ele>
        <time>2022-03-26T12:46:00Z</time>
      </trkpt>
      <trkpt lat="44.7979" lon="3.14437">
        <ele>1143.1</ele>
        <time>2022-03-26T12:46:06Z</time>
      </trkpt>
      <trkpt lat="44.79789" lon="3.14447">
        <ele>1143.8</ele>
        <time>2022-03-26T12:46:11Z</time>
      </trkpt>
      <trkpt lat="44.79788" lon="3.14458">
        <ele>1144.7</ele>
        <time>2022-03-26T12:46:17Z</time>
      </trkpt>
      <trkpt lat="44.79786" lon="3.14468">
        <ele>1145.3</ele>
        <time>2022-03-26T12:46:22Z</time>
      </trkpt>
      <trkpt lat="44.79785" lon="3.14477">
        <ele>1146</ele>
        <time>2022-03-26T12:46:28Z</time>
      </trkpt>
      <trkpt lat="44.79783" lon="3.14488">
        <ele>1146.8</ele>
        <time>2022-03-26T12:46:33Z</time>
      </trkpt>
      <trkpt lat="44.79782" lon="3.145">
        <ele>1147.7</ele>
        <time>2022-03-26T12:46:38Z</time>
      </trkpt>
      <trkpt lat="44.79781" lon="3.14511">
        <ele>1148.7</ele>
        <time>2022-03-26T12:46:44Z</time>
      </trkpt>
      <trkpt lat="44.79781" lon="3.14521">
        <ele>1149.7</ele>
        <time>2022-03-26T12:46:50Z</time>
      </trkpt>
      <trkpt lat="44.79779" lon="3.14533">
        <ele>1150.8</ele>
        <time>2022-03-26T12:46:56Z</time>
      </trkpt>
      <trkpt lat="44.79777" lon="3.14542">
        <ele>1151.7</ele>
        <time>2022-03-26T12:47:03Z</time>
      </trkpt>
      <trkpt lat="44.79776" lon="3.14551">
        <ele>1152.5</ele>
        <time>2022-03-26T12:47:08Z</time>
      </trkpt>
      <trkpt lat="44.79771" lon="3.14559">
        <ele>1153.1</ele>
        <time>2022-03-26T12:47:14Z</time>
      </trkpt>
      <trkpt lat="44.79766" lon="3.14564">
        <ele>1153.4</ele>
        <time>2022-03-26T12:47:20Z</time>
      </trkpt>
      <trkpt lat="44.79761" lon="3.14571">
        <ele>1154</ele>
        <time>2022-03-26T12:47:25Z</time>
      </trkpt>
      <trkpt lat="44.79755" lon="3.14577">
        <ele>1154.4</ele>
        <time>2022-03-26T12:47:31Z</time>
      </trkpt>
      <trkpt lat="44.79749" lon="3.14583">
        <ele>1154.9</ele>
        <time>2022-03-26T12:47:37Z</time>
      </trkpt>
      <trkpt lat="44.79746" lon="3.14592">
        <ele>1155.2</ele>
        <time>2022-03-26T12:47:43Z</time>
      </trkpt>
      <trkpt lat="44.79741" lon="3.146">
        <ele>1155.2</ele>
        <time>2022-03-26T12:47:48Z</time>
      </trkpt>
      <trkpt lat="44.79738" lon="3.1461">
        <ele>1155.5</ele>
        <time>2022-03-26T12:47:53Z</time>
      </trkpt>
      <trkpt lat="44.79734" lon="3.14622">
        <ele>1155.8</ele>
        <time>2022-03-26T12:48:00Z</time>
      </trkpt>
      <trkpt lat="44.79731" lon="3.1463">
        <ele>1156</ele>
        <time>2022-03-26T12:48:05Z</time>
      </trkpt>
      <trkpt lat="44.79728" lon="3.14639">
        <ele>1156.2</ele>
        <time>2022-03-26T12:48:11Z</time>
      </trkpt>
      <trkpt lat="44.79727" lon="3.14649">
        <ele>1156.6</ele>
        <time>2022-03-26T12:48:23Z</time>
      </trkpt>
      <trkpt lat="44.79728" lon="3.14661">
        <ele>1157.2</ele>
        <time>2022-03-26T12:48:46Z</time>
      </trkpt>
      <trkpt lat="44.79726" lon="3.1467">
        <ele>1157.2</ele>
        <time>2022-03-26T12:48:53Z</time>
      </trkpt>
      <trkpt lat="44.79729" lon="3.14679">
        <ele>1157.2</ele>
        <time>2022-03-26T12:49:06Z</time>
      </trkpt>
      <trkpt lat="44.79725" lon="3.14688">
        <ele>1156.7</ele>
        <time>2022-03-26T12:49:11Z</time>
      </trkpt>
      <trkpt lat="44.79723" lon="3.14699">
        <ele>1156.3</ele>
        <time>2022-03-26T12:49:16Z</time>
      </trkpt>
      <trkpt lat="44.79721" lon="3.14708">
        <ele>1155.9</ele>
        <time>2022-03-26T12:49:22Z</time>
      </trkpt>
      <trkpt lat="44.79719" lon="3.14719">
        <ele>1155.4</ele>
        <time>2022-03-26T12:49:27Z</time>
      </trkpt>
      <trkpt lat="44.79717" lon="3.1473">
        <ele>1155</ele>
        <time>2022-03-26T12:49:32Z</time>
      </trkpt>
      <trkpt lat="44.79715" lon="3.1474">
        <ele>1154.5</ele>
        <time>2022-03-26T12:49:37Z</time>
      </trkpt>
      <trkpt lat="44.79714" lon="3.1475">
        <ele>1154.1</ele>
        <time>2022-03-26T12:49:42Z</time>
      </trkpt>
      <trkpt lat="44.79713" lon="3.1476">
        <ele>1153.9</ele>
        <time>2022-03-26T12:49:47Z</time>
      </trkpt>
      <trkpt lat="44.79714" lon="3.14771">
        <ele>1153.9</ele>
        <time>2022-03-26T12:49:52Z</time>
      </trkpt>
      <trkpt lat="44.79713" lon="3.14781">
        <ele>1153.6</ele>
        <time>2022-03-26T12:49:57Z</time>
      </trkpt>
      <trkpt lat="44.7971" lon="3.14791">
        <ele>1153.2</ele>
        <time>2022-03-26T12:50:02Z</time>
      </trkpt>
      <trkpt lat="44.79712" lon="3.148">
        <ele>1153.3</ele>
        <time>2022-03-26T12:50:07Z</time>
      </trkpt>
      <trkpt lat="44.79714" lon="3.1481">
        <ele>1153.4</ele>
        <time>2022-03-26T12:50:12Z</time>
      </trkpt>
      <trkpt lat="44.79715" lon="3.1482">
        <ele>1153.4</ele>
        <time>2022-03-26T12:50:17Z</time>
      </trkpt>
      <trkpt lat="44.79715" lon="3.14829">
        <ele>1153.3</ele>
        <time>2022-03-26T12:50:22Z</time>
      </trkpt>
      <trkpt lat="44.79714" lon="3.14842">
        <ele>1152.9</ele>
        <time>2022-03-26T12:50:27Z</time>
      </trkpt>
      <trkpt lat="44.79715" lon="3.14852">
        <ele>1152.8</ele>
        <time>2022-03-26T12:50:32Z</time>
      </trkpt>
      <trkpt lat="44.79717" lon="3.14862">
        <ele>1152.7</ele>
        <time>2022-03-26T12:50:37Z</time>
      </trkpt>
      <trkpt lat="44.79718" lon="3.14871">
        <ele>1152.6</ele>
        <time>2022-03-26T12:50:43Z</time>
      </trkpt>
      <trkpt lat="44.79722" lon="3.14884">
        <ele>1152.6</ele>
        <time>2022-03-26T12:50:48Z</time>
      </trkpt>
      <trkpt lat="44.79723" lon="3.14893">
        <ele>1152.4</ele>
        <time>2022-03-26T12:50:53Z</time>
      </trkpt>
      <trkpt lat="44.79727" lon="3.14901">
        <ele>1152.4</ele>
        <time>2022-03-26T12:50:58Z</time>
      </trkpt>
      <trkpt lat="44.7973" lon="3.14911">
        <ele>1152.2</ele>
        <time>2022-03-26T12:51:03Z</time>
      </trkpt>
      <trkpt lat="44.79734" lon="3.14918">
        <ele>1152.2</ele>
        <time>2022-03-26T12:51:08Z</time>
      </trkpt>
      <trkpt lat="44.79739" lon="3.14926">
        <ele>1152.4</ele>
        <time>2022-03-26T12:51:13Z</time>
      </trkpt>
      <trkpt lat="44.79744" lon="3.14936">
        <ele>1152.4</ele>
        <time>2022-03-26T12:51:18Z</time>
      </trkpt>
      <trkpt lat="44.7975" lon="3.14942">
        <ele>1152.4</ele>
        <time>2022-03-26T12:51:25Z</time>
      </trkpt>
      <trkpt lat="44.79754" lon="3.1495">
        <ele>1152.8</ele>
        <time>2022-03-26T12:51:35Z</time>
      </trkpt>
      <trkpt lat="44.7976" lon="3.14958">
        <ele>1153.5</ele>
        <time>2022-03-26T12:51:40Z</time>
      </trkpt>
      <trkpt lat="44.79766" lon="3.14965">
        <ele>1154</ele>
        <time>2022-03-26T12:51:45Z</time>
      </trkpt>
      <trkpt lat="44.7977" lon="3.14974">
        <ele>1154.1</ele>
        <time>2022-03-26T12:51:51Z</time>
      </trkpt>
      <trkpt lat="44.79775" lon="3.14982">
        <ele>1154.4</ele>
        <time>2022-03-26T12:51:56Z</time>
      </trkpt>
      <trkpt lat="44.7978" lon="3.14991">
        <ele>1154.4</ele>
        <time>2022-03-26T12:52:01Z</time>
      </trkpt>
      <trkpt lat="44.79786" lon="3.14999">
        <ele>1154.5</ele>
        <time>2022-03-26T12:52:06Z</time>
      </trkpt>
      <trkpt lat="44.79789" lon="3.15007">
        <ele>1154.8</ele>
        <time>2022-03-26T12:52:11Z</time>
      </trkpt>
      <trkpt lat="44.79793" lon="3.15016">
        <ele>1155.3</ele>
        <time>2022-03-26T12:52:17Z</time>
      </trkpt>
      <trkpt lat="44.79795" lon="3.15027">
        <ele>1155.6</ele>
        <time>2022-03-26T12:52:24Z</time>
      </trkpt>
      <trkpt lat="44.79799" lon="3.15038">
        <ele>1156</ele>
        <time>2022-03-26T12:52:29Z</time>
      </trkpt>
      <trkpt lat="44.79805" lon="3.15049">
        <ele>1156.5</ele>
        <time>2022-03-26T12:52:34Z</time>
      </trkpt>
      <trkpt lat="44.79803" lon="3.15058">
        <ele>1156.4</ele>
        <time>2022-03-26T12:52:39Z</time>
      </trkpt>
      <trkpt lat="44.79805" lon="3.15067">
        <ele>1156.6</ele>
        <time>2022-03-26T12:52:44Z</time>
      </trkpt>
      <trkpt lat="44.79804" lon="3.15078">
        <ele>1156.6</ele>
        <time>2022-03-26T12:52:49Z</time>
      </trkpt>
      <trkpt lat="44.79803" lon="3.15087">
        <ele>1156.8</ele>
        <time>2022-03-26T12:52:55Z</time>
      </trkpt>
      <trkpt lat="44.79804" lon="3.15099">
        <ele>1157.7</ele>
        <time>2022-03-26T12:53:02Z</time>
      </trkpt>
      <trkpt lat="44.79805" lon="3.1511">
        <ele>1158.5</ele>
        <time>2022-03-26T12:53:07Z</time>
      </trkpt>
      <trkpt lat="44.79804" lon="3.15121">
        <ele>1159.2</ele>
        <time>2022-03-26T12:53:13Z</time>
      </trkpt>
      <trkpt lat="44.79801" lon="3.15135">
        <ele>1160.1</ele>
        <time>2022-03-26T12:53:18Z</time>
      </trkpt>
      <trkpt lat="44.79799" lon="3.15145">
        <ele>1160.8</ele>
        <time>2022-03-26T12:53:24Z</time>
      </trkpt>
      <trkpt lat="44.79795" lon="3.15154">
        <ele>1161.5</ele>
        <time>2022-03-26T12:53:29Z</time>
      </trkpt>
      <trkpt lat="44.79791" lon="3.15164">
        <ele>1162.3</ele>
        <time>2022-03-26T12:53:34Z</time>
      </trkpt>
      <trkpt lat="44.79788" lon="3.15173">
        <ele>1163.1</ele>
        <time>2022-03-26T12:53:41Z</time>
      </trkpt>
      <trkpt lat="44.79784" lon="3.15181">
        <ele>1163.7</ele>
        <time>2022-03-26T12:53:46Z</time>
      </trkpt>
      <trkpt lat="44.79783" lon="3.1519">
        <ele>1164.4</ele>
        <time>2022-03-26T12:53:51Z</time>
      </trkpt>
      <trkpt lat="44.79781" lon="3.152">
        <ele>1165.2</ele>
        <time>2022-03-26T12:53:56Z</time>
      </trkpt>
      <trkpt lat="44.79778" lon="3.15209">
        <ele>1165.9</ele>
        <time>2022-03-26T12:54:03Z</time>
      </trkpt>
      <trkpt lat="44.79776" lon="3.15218">
        <ele>1166.5</ele>
        <time>2022-03-26T12:54:08Z</time>
      </trkpt>
      <trkpt lat="44.79768" lon="3.15224">
        <ele>1166.8</ele>
        <time>2022-03-26T12:54:34Z</time>
      </trkpt>
      <trkpt lat="44.79774" lon="3.15228">
        <ele>1167.2</ele>
        <time>2022-03-26T12:54:48Z</time>
      </trkpt>
      <trkpt lat="44.7977" lon="3.15236">
        <ele>1167.7</ele>
        <time>2022-03-26T12:54:54Z</time>
      </trkpt>
      <trkpt lat="44.7977" lon="3.15246">
        <ele>1168.4</ele>
        <time>2022-03-26T12:54:59Z</time>
      </trkpt>
      <trkpt lat="44.79767" lon="3.15258">
        <ele>1169.2</ele>
        <time>2022-03-26T12:55:37Z</time>
      </trkpt>
      <trkpt lat="44.79766" lon="3.15269">
        <ele>1169.8</ele>
        <time>2022-03-26T12:55:43Z</time>
      </trkpt>
      <trkpt lat="44.79762" lon="3.15278">
        <ele>1170.3</ele>
        <time>2022-03-26T12:55:50Z</time>
      </trkpt>
      <trkpt lat="44.7976" lon="3.15289">
        <ele>1170.9</ele>
        <time>2022-03-26T12:55:56Z</time>
      </trkpt>
      <trkpt lat="44.79755" lon="3.15297">
        <ele>1171.1</ele>
        <time>2022-03-26T12:56:02Z</time>
      </trkpt>
      <trkpt lat="44.79749" lon="3.15305">
        <ele>1171.3</ele>
        <time>2022-03-26T12:56:08Z</time>
      </trkpt>
      <trkpt lat="44.79749" lon="3.15314">
        <ele>1171.8</ele>
        <time>2022-03-26T12:56:13Z</time>
      </trkpt>
      <trkpt lat="44.79752" lon="3.15323">
        <ele>1172.5</ele>
        <time>2022-03-26T12:56:18Z</time>
      </trkpt>
      <trkpt lat="44.79758" lon="3.15327">
        <ele>1173.2</ele>
        <time>2022-03-26T12:56:27Z</time>
      </trkpt>
      <trkpt lat="44.79765" lon="3.15325">
        <ele>1173.5</ele>
        <time>2022-03-26T12:56:32Z</time>
      </trkpt>
      <trkpt lat="44.79772" lon="3.15326">
        <ele>1174.1</ele>
        <time>2022-03-26T12:56:39Z</time>
      </trkpt>
      <trkpt lat="44.79779" lon="3.1533">
        <ele>1174.8</ele>
        <time>2022-03-26T12:56:46Z</time>
      </trkpt>
      <trkpt lat="44.79785" lon="3.15336">
        <ele>1175.7</ele>
        <time>2022-03-26T12:56:52Z</time>
      </trkpt>
      <trkpt lat="44.7979" lon="3.15341">
        <ele>1176.5</ele>
        <time>2022-03-26T12:56:57Z</time>
      </trkpt>
      <trkpt lat="44.79797" lon="3.15347">
        <ele>1177.5</ele>
        <time>2022-03-26T12:57:09Z</time>
      </trkpt>
      <trkpt lat="44.79802" lon="3.15352">
        <ele>1178.3</ele>
        <time>2022-03-26T12:57:14Z</time>
      </trkpt>
      <trkpt lat="44.79803" lon="3.15363">
        <ele>1179.2</ele>
        <time>2022-03-26T12:57:24Z</time>
      </trkpt>
      <trkpt lat="44.79806" lon="3.15372">
        <ele>1180.1</ele>
        <time>2022-03-26T12:57:30Z</time>
      </trkpt>
      <trkpt lat="44.7981" lon="3.15379">
        <ele>1180.9</ele>
        <time>2022-03-26T12:57:36Z</time>
      </trkpt>
      <trkpt lat="44.79814" lon="3.15389">
        <ele>1181.9</ele>
        <time>2022-03-26T12:57:43Z</time>
      </trkpt>
      <trkpt lat="44.79817" lon="3.15396">
        <ele>1182.6</ele>
        <time>2022-03-26T12:57:50Z</time>
      </trkpt>
      <trkpt lat="44.7982" lon="3.15406">
        <ele>1183.6</ele>
        <time>2022-03-26T12:57:56Z</time>
      </trkpt>
      <trkpt lat="44.79822" lon="3.15416">
        <ele>1184.4</ele>
        <time>2022-03-26T12:58:02Z</time>
      </trkpt>
      <trkpt lat="44.79825" lon="3.15425">
        <ele>1185</ele>
        <time>2022-03-26T12:58:08Z</time>
      </trkpt>
      <trkpt lat="44.79827" lon="3.15435">
        <ele>1185.5</ele>
        <time>2022-03-26T12:58:17Z</time>
      </trkpt>
      <trkpt lat="44.79832" lon="3.15441">
        <ele>1186.1</ele>
        <time>2022-03-26T12:58:23Z</time>
      </trkpt>
      <trkpt lat="44.79837" lon="3.15448">
        <ele>1186.7</ele>
        <time>2022-03-26T12:58:29Z</time>
      </trkpt>
      <trkpt lat="44.79842" lon="3.15456">
        <ele>1187.2</ele>
        <time>2022-03-26T12:58:36Z</time>
      </trkpt>
      <trkpt lat="44.79847" lon="3.15465">
        <ele>1187.9</ele>
        <time>2022-03-26T12:58:43Z</time>
      </trkpt>
      <trkpt lat="44.79854" lon="3.15471">
        <ele>1188.5</ele>
        <time>2022-03-26T12:58:49Z</time>
      </trkpt>
      <trkpt lat="44.79858" lon="3.15479">
        <ele>1189.1</ele>
        <time>2022-03-26T12:58:54Z</time>
      </trkpt>
      <trkpt lat="44.79863" lon="3.15487">
        <ele>1189.7</ele>
        <time>2022-03-26T12:58:59Z</time>
      </trkpt>
      <trkpt lat="44.7987" lon="3.15491">
        <ele>1190.3</ele>
        <time>2022-03-26T12:59:05Z</time>
      </trkpt>
      <trkpt lat="44.79873" lon="3.15498">
        <ele>1190.8</ele>
        <time>2022-03-26T12:59:10Z</time>
      </trkpt>
      <trkpt lat="44.79879" lon="3.15504">
        <ele>1191.3</ele>
        <time>2022-03-26T12:59:15Z</time>
      </trkpt>
      <trkpt lat="44.79884" lon="3.1551">
        <ele>1191.7</ele>
        <time>2022-03-26T12:59:20Z</time>
      </trkpt>
      <trkpt lat="44.7989" lon="3.15518">
        <ele>1192.3</ele>
        <time>2022-03-26T12:59:26Z</time>
      </trkpt>
      <trkpt lat="44.79896" lon="3.15522">
        <ele>1192.8</ele>
        <time>2022-03-26T12:59:31Z</time>
      </trkpt>
      <trkpt lat="44.79903" lon="3.15524">
        <ele>1193.3</ele>
        <time>2022-03-26T12:59:36Z</time>
      </trkpt>
      <trkpt lat="44.79909" lon="3.15529">
        <ele>1193.9</ele>
        <time>2022-03-26T12:59:41Z</time>
      </trkpt>
      <trkpt lat="44.79914" lon="3.15538">
        <ele>1194.6</ele>
        <time>2022-03-26T12:59:47Z</time>
      </trkpt>
      <trkpt lat="44.79921" lon="3.15543">
        <ele>1195.1</ele>
        <time>2022-03-26T12:59:52Z</time>
      </trkpt>
      <trkpt lat="44.79929" lon="3.15547">
        <ele>1195.4</ele>
        <time>2022-03-26T12:59:57Z</time>
      </trkpt>
      <trkpt lat="44.79935" lon="3.15553">
        <ele>1195.6</ele>
        <time>2022-03-26T13:00:02Z</time>
      </trkpt>
      <trkpt lat="44.79941" lon="3.15559">
        <ele>1195.9</ele>
        <time>2022-03-26T13:00:08Z</time>
      </trkpt>
      <trkpt lat="44.79948" lon="3.15561">
        <ele>1196</ele>
        <time>2022-03-26T13:00:13Z</time>
      </trkpt>
      <trkpt lat="44.79953" lon="3.15567">
        <ele>1196.1</ele>
        <time>2022-03-26T13:00:21Z</time>
      </trkpt>
      <trkpt lat="44.79947" lon="3.15573">
        <ele>1196.3</ele>
        <time>2022-03-26T13:00:53Z</time>
      </trkpt>
      <trkpt lat="44.79941" lon="3.15579">
        <ele>1196.6</ele>
        <time>2022-03-26T13:01:00Z</time>
      </trkpt>
      <trkpt lat="44.79935" lon="3.15586">
        <ele>1196.7</ele>
        <time>2022-03-26T13:01:05Z</time>
      </trkpt>
      <trkpt lat="44.79928" lon="3.15595">
        <ele>1196.5</ele>
        <time>2022-03-26T13:01:11Z</time>
      </trkpt>
      <trkpt lat="44.79922" lon="3.156">
        <ele>1196.5</ele>
        <time>2022-03-26T13:01:16Z</time>
      </trkpt>
      <trkpt lat="44.79915" lon="3.15604">
        <ele>1196.4</ele>
        <time>2022-03-26T13:01:21Z</time>
      </trkpt>
      <trkpt lat="44.79907" lon="3.15609">
        <ele>1195.6</ele>
        <time>2022-03-26T13:01:27Z</time>
      </trkpt>
      <trkpt lat="44.799" lon="3.15612">
        <ele>1195</ele>
        <time>2022-03-26T13:01:33Z</time>
      </trkpt>
      <trkpt lat="44.79893" lon="3.15614">
        <ele>1194.4</ele>
        <time>2022-03-26T13:01:38Z</time>
      </trkpt>
      <trkpt lat="44.79887" lon="3.15619">
        <ele>1193.9</ele>
        <time>2022-03-26T13:01:48Z</time>
      </trkpt>
      <trkpt lat="44.79885" lon="3.15628">
        <ele>1193.7</ele>
        <time>2022-03-26T13:01:57Z</time>
      </trkpt>
      <trkpt lat="44.79882" lon="3.15637">
        <ele>1193.5</ele>
        <time>2022-03-26T13:02:05Z</time>
      </trkpt>
      <trkpt lat="44.7988" lon="3.15649">
        <ele>1193.3</ele>
        <time>2022-03-26T13:02:11Z</time>
      </trkpt>
      <trkpt lat="44.79877" lon="3.15658">
        <ele>1193.1</ele>
        <time>2022-03-26T13:02:18Z</time>
      </trkpt>
      <trkpt lat="44.79874" lon="3.15667">
        <ele>1193</ele>
        <time>2022-03-26T13:02:24Z</time>
      </trkpt>
      <trkpt lat="44.79871" lon="3.15677">
        <ele>1192.8</ele>
        <time>2022-03-26T13:02:29Z</time>
      </trkpt>
      <trkpt lat="44.79868" lon="3.15687">
        <ele>1192.7</ele>
        <time>2022-03-26T13:02:34Z</time>
      </trkpt>
      <trkpt lat="44.79866" lon="3.15698">
        <ele>1192.7</ele>
        <time>2022-03-26T13:02:39Z</time>
      </trkpt>
      <trkpt lat="44.79864" lon="3.15707">
        <ele>1192.7</ele>
        <time>2022-03-26T13:02:47Z</time>
      </trkpt>
      <trkpt lat="44.7986" lon="3.15716">
        <ele>1192.7</ele>
        <time>2022-03-26T13:02:56Z</time>
      </trkpt>
      <trkpt lat="44.79858" lon="3.15726">
        <ele>1192.8</ele>
        <time>2022-03-26T13:03:01Z</time>
      </trkpt>
      <trkpt lat="44.79854" lon="3.15735">
        <ele>1193</ele>
        <time>2022-03-26T13:03:07Z</time>
      </trkpt>
      <trkpt lat="44.79852" lon="3.15745">
        <ele>1193.2</ele>
        <time>2022-03-26T13:03:12Z</time>
      </trkpt>
      <trkpt lat="44.79848" lon="3.15754">
        <ele>1193.5</ele>
        <time>2022-03-26T13:03:18Z</time>
      </trkpt>
      <trkpt lat="44.79843" lon="3.15764">
        <ele>1193.8</ele>
        <time>2022-03-26T13:03:24Z</time>
      </trkpt>
      <trkpt lat="44.79839" lon="3.15774">
        <ele>1194.1</ele>
        <time>2022-03-26T13:03:30Z</time>
      </trkpt>
      <trkpt lat="44.79835" lon="3.15785">
        <ele>1194.4</ele>
        <time>2022-03-26T13:03:35Z</time>
      </trkpt>
      <trkpt lat="44.79833" lon="3.15795">
        <ele>1194.5</ele>
        <time>2022-03-26T13:03:40Z</time>
      </trkpt>
      <trkpt lat="44.79829" lon="3.15804">
        <ele>1194.5</ele>
        <time>2022-03-26T13:03:45Z</time>
      </trkpt>
      <trkpt lat="44.79826" lon="3.15813">
        <ele>1194.4</ele>
        <time>2022-03-26T13:03:51Z</time>
      </trkpt>
      <trkpt lat="44.79824" lon="3.15823">
        <ele>1194.5</ele>
        <time>2022-03-26T13:03:56Z</time>
      </trkpt>
      <trkpt lat="44.7982" lon="3.15833">
        <ele>1194.4</ele>
        <time>2022-03-26T13:04:02Z</time>
      </trkpt>
      <trkpt lat="44.79817" lon="3.15843">
        <ele>1194.1</ele>
        <time>2022-03-26T13:04:07Z</time>
      </trkpt>
      <trkpt lat="44.79812" lon="3.15853">
        <ele>1193.9</ele>
        <time>2022-03-26T13:04:12Z</time>
      </trkpt>
      <trkpt lat="44.79809" lon="3.15862">
        <ele>1193.7</ele>
        <time>2022-03-26T13:04:17Z</time>
      </trkpt>
      <trkpt lat="44.79806" lon="3.15873">
        <ele>1193.5</ele>
        <time>2022-03-26T13:04:22Z</time>
      </trkpt>
      <trkpt lat="44.798" lon="3.15883">
        <ele>1193.3</ele>
        <time>2022-03-26T13:04:27Z</time>
      </trkpt>
      <trkpt lat="44.79795" lon="3.1589">
        <ele>1193.1</ele>
        <time>2022-03-26T13:04:32Z</time>
      </trkpt>
      <trkpt lat="44.79794" lon="3.159">
        <ele>1193.1</ele>
        <time>2022-03-26T13:04:38Z</time>
      </trkpt>
      <trkpt lat="44.79791" lon="3.15908">
        <ele>1193</ele>
        <time>2022-03-26T13:04:49Z</time>
      </trkpt>
      <trkpt lat="44.79788" lon="3.15916">
        <ele>1192.9</ele>
        <time>2022-03-26T13:04:54Z</time>
      </trkpt>
      <trkpt lat="44.79784" lon="3.15926">
        <ele>1193</ele>
        <time>2022-03-26T13:04:59Z</time>
      </trkpt>
      <trkpt lat="44.79779" lon="3.15933">
        <ele>1193.1</ele>
        <time>2022-03-26T13:05:05Z</time>
      </trkpt>
      <trkpt lat="44.79776" lon="3.15944">
        <ele>1193.3</ele>
        <time>2022-03-26T13:05:12Z</time>
      </trkpt>
      <trkpt lat="44.79771" lon="3.15955">
        <ele>1193.4</ele>
        <time>2022-03-26T13:05:17Z</time>
      </trkpt>
      <trkpt lat="44.79767" lon="3.15966">
        <ele>1193.6</ele>
        <time>2022-03-26T13:05:27Z</time>
      </trkpt>
      <trkpt lat="44.79773" lon="3.1597">
        <ele>1193.8</ele>
        <time>2022-03-26T13:05:34Z</time>
      </trkpt>
      <trkpt lat="44.79778" lon="3.15977">
        <ele>1194.1</ele>
        <time>2022-03-26T13:05:41Z</time>
      </trkpt>
      <trkpt lat="44.79781" lon="3.15986">
        <ele>1194.4</ele>
        <time>2022-03-26T13:05:51Z</time>
      </trkpt>
      <trkpt lat="44.79785" lon="3.15993">
        <ele>1194.7</ele>
        <time>2022-03-26T13:05:57Z</time>
      </trkpt>
      <trkpt lat="44.79789" lon="3.16001">
        <ele>1195</ele>
        <time>2022-03-26T13:06:02Z</time>
      </trkpt>
      <trkpt lat="44.79797" lon="3.15999">
        <ele>1195.1</ele>
        <time>2022-03-26T13:06:09Z</time>
      </trkpt>
      <trkpt lat="44.79808" lon="3.15994">
        <ele>1195.2</ele>
        <time>2022-03-26T13:06:21Z</time>
      </trkpt>
      <trkpt lat="44.79806" lon="3.16003">
        <ele>1195.4</ele>
        <time>2022-03-26T13:06:32Z</time>
      </trkpt>
      <trkpt lat="44.79808" lon="3.16012">
        <ele>1195.8</ele>
        <time>2022-03-26T13:06:37Z</time>
      </trkpt>
      <trkpt lat="44.79811" lon="3.16022">
        <ele>1196.1</ele>
        <time>2022-03-26T13:06:44Z</time>
      </trkpt>
      <trkpt lat="44.79814" lon="3.16031">
        <ele>1196.5</ele>
        <time>2022-03-26T13:06:50Z</time>
      </trkpt>
      <trkpt lat="44.7982" lon="3.16037">
        <ele>1196.7</ele>
        <time>2022-03-26T13:06:55Z</time>
      </trkpt>
      <trkpt lat="44.79823" lon="3.16046">
        <ele>1197</ele>
        <time>2022-03-26T13:07:00Z</time>
      </trkpt>
      <trkpt lat="44.79827" lon="3.16056">
        <ele>1197.3</ele>
        <time>2022-03-26T13:07:05Z</time>
      </trkpt>
      <trkpt lat="44.7983" lon="3.16064">
        <ele>1197.5</ele>
        <time>2022-03-26T13:07:11Z</time>
      </trkpt>
      <trkpt lat="44.79835" lon="3.1607">
        <ele>1197.6</ele>
        <time>2022-03-26T13:07:16Z</time>
      </trkpt>
      <trkpt lat="44.79841" lon="3.16077">
        <ele>1197.7</ele>
        <time>2022-03-26T13:07:21Z</time>
      </trkpt>
      <trkpt lat="44.79846" lon="3.16086">
        <ele>1197.7</ele>
        <time>2022-03-26T13:07:26Z</time>
      </trkpt>
      <trkpt lat="44.79849" lon="3.16093">
        <ele>1197.6</ele>
        <time>2022-03-26T13:07:31Z</time>
      </trkpt>
      <trkpt lat="44.7985" lon="3.16103">
        <ele>1197.5</ele>
        <time>2022-03-26T13:07:37Z</time>
      </trkpt>
      <trkpt lat="44.79845" lon="3.1611">
        <ele>1197.6</ele>
        <time>2022-03-26T13:07:45Z</time>
      </trkpt>
      <trkpt lat="44.79841" lon="3.1612">
        <ele>1197.7</ele>
        <time>2022-03-26T13:07:51Z</time>
      </trkpt>
      <trkpt lat="44.79844" lon="3.16128">
        <ele>1197.6</ele>
        <time>2022-03-26T13:07:58Z</time>
      </trkpt>
      <trkpt lat="44.79849" lon="3.16136">
        <ele>1197.4</ele>
        <time>2022-03-26T13:08:05Z</time>
      </trkpt>
      <trkpt lat="44.79858" lon="3.1614">
        <ele>1197</ele>
        <time>2022-03-26T13:08:22Z</time>
      </trkpt>
      <trkpt lat="44.79863" lon="3.16146">
        <ele>1196.8</ele>
        <time>2022-03-26T13:08:27Z</time>
      </trkpt>
      <trkpt lat="44.79867" lon="3.16158">
        <ele>1196.5</ele>
        <time>2022-03-26T13:08:49Z</time>
      </trkpt>
      <trkpt lat="44.79874" lon="3.16164">
        <ele>1196.1</ele>
        <time>2022-03-26T13:08:54Z</time>
      </trkpt>
      <trkpt lat="44.79876" lon="3.16173">
        <ele>1196.1</ele>
        <time>2022-03-26T13:08:59Z</time>
      </trkpt>
      <trkpt lat="44.79882" lon="3.1618">
        <ele>1196</ele>
        <time>2022-03-26T13:09:04Z</time>
      </trkpt>
      <trkpt lat="44.79887" lon="3.16189">
        <ele>1196</ele>
        <time>2022-03-26T13:09:09Z</time>
      </trkpt>
      <trkpt lat="44.79899" lon="3.16187">
        <ele>1195.2</ele>
        <time>2022-03-26T13:09:14Z</time>
      </trkpt>
      <trkpt lat="44.79907" lon="3.1619">
        <ele>1194.8</ele>
        <time>2022-03-26T13:09:19Z</time>
      </trkpt>
      <trkpt lat="44.79911" lon="3.16196">
        <ele>1194.7</ele>
        <time>2022-03-26T13:09:26Z</time>
      </trkpt>
      <trkpt lat="44.79915" lon="3.16204">
        <ele>1194.6</ele>
        <time>2022-03-26T13:09:38Z</time>
      </trkpt>
      <trkpt lat="44.7992" lon="3.16212">
        <ele>1194.2</ele>
        <time>2022-03-26T13:09:43Z</time>
      </trkpt>
      <trkpt lat="44.79924" lon="3.1622">
        <ele>1193.8</ele>
        <time>2022-03-26T13:09:48Z</time>
      </trkpt>
      <trkpt lat="44.79928" lon="3.16228">
        <ele>1193.4</ele>
        <time>2022-03-26T13:09:53Z</time>
      </trkpt>
      <trkpt lat="44.79932" lon="3.16238">
        <ele>1192.9</ele>
        <time>2022-03-26T13:10:03Z</time>
      </trkpt>
      <trkpt lat="44.79941" lon="3.16238">
        <ele>1191.8</ele>
        <time>2022-03-26T13:10:34Z</time>
      </trkpt>
      <trkpt lat="44.79945" lon="3.16246">
        <ele>1191.3</ele>
        <time>2022-03-26T13:10:45Z</time>
      </trkpt>
      <trkpt lat="44.79949" lon="3.16254">
        <ele>1190.6</ele>
        <time>2022-03-26T13:10:57Z</time>
      </trkpt>
      <trkpt lat="44.79955" lon="3.16259">
        <ele>1189.7</ele>
        <time>2022-03-26T13:11:04Z</time>
      </trkpt>
      <trkpt lat="44.79959" lon="3.16267">
        <ele>1189</ele>
        <time>2022-03-26T13:11:10Z</time>
      </trkpt>
      <trkpt lat="44.79961" lon="3.16276">
        <ele>1188.5</ele>
        <time>2022-03-26T13:11:18Z</time>
      </trkpt>
      <trkpt lat="44.79964" lon="3.16285">
        <ele>1187.9</ele>
        <time>2022-03-26T13:11:24Z</time>
      </trkpt>
      <trkpt lat="44.79971" lon="3.16293">
        <ele>1186.8</ele>
        <time>2022-03-26T13:11:29Z</time>
      </trkpt>
      <trkpt lat="44.79974" lon="3.16302">
        <ele>1186.2</ele>
        <time>2022-03-26T13:11:55Z</time>
      </trkpt>
      <trkpt lat="44.79977" lon="3.1631">
        <ele>1185.6</ele>
        <time>2022-03-26T13:12:01Z</time>
      </trkpt>
      <trkpt lat="44.79982" lon="3.16317">
        <ele>1184.8</ele>
        <time>2022-03-26T13:12:07Z</time>
      </trkpt>
      <trkpt lat="44.79982" lon="3.16327">
        <ele>1184.5</ele>
        <time>2022-03-26T13:12:13Z</time>
      </trkpt>
      <trkpt lat="44.79981" lon="3.16337">
        <ele>1184.3</ele>
        <time>2022-03-26T13:12:18Z</time>
      </trkpt>
      <trkpt lat="44.79986" lon="3.16347">
        <ele>1183</ele>
        <time>2022-03-26T13:12:48Z</time>
      </trkpt>
      <trkpt lat="44.7999" lon="3.16356">
        <ele>1181.9</ele>
        <time>2022-03-26T13:12:53Z</time>
      </trkpt>
      <trkpt lat="44.79993" lon="3.16368">
        <ele>1180.6</ele>
        <time>2022-03-26T13:12:58Z</time>
      </trkpt>
      <trkpt lat="44.79996" lon="3.16377">
        <ele>1179.5</ele>
        <time>2022-03-26T13:13:04Z</time>
      </trkpt>
      <trkpt lat="44.79995" lon="3.16389">
        <ele>1178.9</ele>
        <time>2022-03-26T13:13:09Z</time>
      </trkpt>
      <trkpt lat="44.79996" lon="3.164">
        <ele>1177.9</ele>
        <time>2022-03-26T13:13:16Z</time>
      </trkpt>
      <trkpt lat="44.79993" lon="3.16412">
        <ele>1177.7</ele>
        <time>2022-03-26T13:13:21Z</time>
      </trkpt>
      <trkpt lat="44.79996" lon="3.16421">
        <ele>1176.6</ele>
        <time>2022-03-26T13:13:26Z</time>
      </trkpt>
      <trkpt lat="44.79997" lon="3.1643">
        <ele>1175.9</ele>
        <time>2022-03-26T13:13:32Z</time>
      </trkpt>
      <trkpt lat="44.79998" lon="3.1644">
        <ele>1175.3</ele>
        <time>2022-03-26T13:13:37Z</time>
      </trkpt>
      <trkpt lat="44.80001" lon="3.16449">
        <ele>1174.3</ele>
        <time>2022-03-26T13:13:42Z</time>
      </trkpt>
      <trkpt lat="44.8" lon="3.16459">
        <ele>1174</ele>
        <time>2022-03-26T13:13:47Z</time>
      </trkpt>
      <trkpt lat="44.79999" lon="3.16468">
        <ele>1173.7</ele>
        <time>2022-03-26T13:13:52Z</time>
      </trkpt>
      <trkpt lat="44.79998" lon="3.16479">
        <ele>1173.4</ele>
        <time>2022-03-26T13:13:57Z</time>
      </trkpt>
      <trkpt lat="44.79999" lon="3.16489">
        <ele>1172.7</ele>
        <time>2022-03-26T13:14:05Z</time>
      </trkpt>
      <trkpt lat="44.79998" lon="3.16499">
        <ele>1172.4</ele>
        <time>2022-03-26T13:14:10Z</time>
      </trkpt>
      <trkpt lat="44.79995" lon="3.1651">
        <ele>1172.9</ele>
        <time>2022-03-26T13:14:15Z</time>
      </trkpt>
      <trkpt lat="44.79992" lon="3.16519">
        <ele>1173.4</ele>
        <time>2022-03-26T13:14:20Z</time>
      </trkpt>
      <trkpt lat="44.7999" lon="3.16528">
        <ele>1173.8</ele>
        <time>2022-03-26T13:14:25Z</time>
      </trkpt>
      <trkpt lat="44.79987" lon="3.16537">
        <ele>1174.3</ele>
        <time>2022-03-26T13:14:31Z</time>
      </trkpt>
      <trkpt lat="44.79988" lon="3.16546">
        <ele>1174.2</ele>
        <time>2022-03-26T13:14:38Z</time>
      </trkpt>
      <trkpt lat="44.79992" lon="3.16555">
        <ele>1173.4</ele>
        <time>2022-03-26T13:14:44Z</time>
      </trkpt>
      <trkpt lat="44.79999" lon="3.16567">
        <ele>1172.2</ele>
        <time>2022-03-26T13:14:49Z</time>
      </trkpt>
      <trkpt lat="44.80005" lon="3.16571">
        <ele>1171.4</ele>
        <time>2022-03-26T13:14:54Z</time>
      </trkpt>
      <trkpt lat="44.80013" lon="3.16572">
        <ele>1170.3</ele>
        <time>2022-03-26T13:14:59Z</time>
      </trkpt>
      <trkpt lat="44.80021" lon="3.16571">
        <ele>1169.3</ele>
        <time>2022-03-26T13:15:05Z</time>
      </trkpt>
      <trkpt lat="44.80028" lon="3.16574">
        <ele>1168.4</ele>
        <time>2022-03-26T13:15:10Z</time>
      </trkpt>
      <trkpt lat="44.80034" lon="3.16583">
        <ele>1167.5</ele>
        <time>2022-03-26T13:15:15Z</time>
      </trkpt>
      <trkpt lat="44.8004" lon="3.16587">
        <ele>1166.7</ele>
        <time>2022-03-26T13:15:20Z</time>
      </trkpt>
      <trkpt lat="44.80048" lon="3.16591">
        <ele>1165.6</ele>
        <time>2022-03-26T13:15:25Z</time>
      </trkpt>
      <trkpt lat="44.80054" lon="3.16593">
        <ele>1164.9</ele>
        <time>2022-03-26T13:15:30Z</time>
      </trkpt>
      <trkpt lat="44.80064" lon="3.16594">
        <ele>1163.6</ele>
        <time>2022-03-26T13:15:35Z</time>
      </trkpt>
      <trkpt lat="44.80071" lon="3.16595">
        <ele>1162.7</ele>
        <time>2022-03-26T13:15:40Z</time>
      </trkpt>
      <trkpt lat="44.8008" lon="3.16595">
        <ele>1161.6</ele>
        <time>2022-03-26T13:15:45Z</time>
      </trkpt>
      <trkpt lat="44.80087" lon="3.1659">
        <ele>1161</ele>
        <time>2022-03-26T13:15:51Z</time>
      </trkpt>
      <trkpt lat="44.80094" lon="3.16588">
        <ele>1160.8</ele>
        <time>2022-03-26T13:15:56Z</time>
      </trkpt>
      <trkpt lat="44.80101" lon="3.16588">
        <ele>1160.7</ele>
        <time>2022-03-26T13:16:01Z</time>
      </trkpt>
      <trkpt lat="44.80109" lon="3.16588">
        <ele>1160.5</ele>
        <time>2022-03-26T13:16:06Z</time>
      </trkpt>
      <trkpt lat="44.80115" lon="3.16585">
        <ele>1160.3</ele>
        <time>2022-03-26T13:16:11Z</time>
      </trkpt>
      <trkpt lat="44.80122" lon="3.16581">
        <ele>1160.1</ele>
        <time>2022-03-26T13:16:16Z</time>
      </trkpt>
      <trkpt lat="44.80129" lon="3.16577">
        <ele>1160</ele>
        <time>2022-03-26T13:16:21Z</time>
      </trkpt>
      <trkpt lat="44.80136" lon="3.16573">
        <ele>1159.9</ele>
        <time>2022-03-26T13:16:26Z</time>
      </trkpt>
      <trkpt lat="44.80143" lon="3.16571">
        <ele>1159.7</ele>
        <time>2022-03-26T13:16:37Z</time>
      </trkpt>
      <trkpt lat="44.80149" lon="3.16572">
        <ele>1159.5</ele>
        <time>2022-03-26T13:16:43Z</time>
      </trkpt>
      <trkpt lat="44.80156" lon="3.16568">
        <ele>1159.3</ele>
        <time>2022-03-26T13:16:50Z</time>
      </trkpt>
      <trkpt lat="44.80164" lon="3.16564">
        <ele>1159.1</ele>
        <time>2022-03-26T13:16:55Z</time>
      </trkpt>
      <trkpt lat="44.80171" lon="3.16559">
        <ele>1159.5</ele>
        <time>2022-03-26T13:17:00Z</time>
      </trkpt>
      <trkpt lat="44.80178" lon="3.16559">
        <ele>1160.2</ele>
        <time>2022-03-26T13:17:06Z</time>
      </trkpt>
      <trkpt lat="44.80184" lon="3.16553">
        <ele>1160.8</ele>
        <time>2022-03-26T13:17:39Z</time>
      </trkpt>
      <trkpt lat="44.80193" lon="3.16555">
        <ele>1161.7</ele>
        <time>2022-03-26T13:17:44Z</time>
      </trkpt>
      <trkpt lat="44.80201" lon="3.16555">
        <ele>1162.6</ele>
        <time>2022-03-26T13:17:49Z</time>
      </trkpt>
      <trkpt lat="44.80209" lon="3.16555">
        <ele>1163.4</ele>
        <time>2022-03-26T13:17:54Z</time>
      </trkpt>
      <trkpt lat="44.80216" lon="3.16553">
        <ele>1164.1</ele>
        <time>2022-03-26T13:17:59Z</time>
      </trkpt>
      <trkpt lat="44.80224" lon="3.16555">
        <ele>1165</ele>
        <time>2022-03-26T13:18:04Z</time>
      </trkpt>
      <trkpt lat="44.80232" lon="3.16554">
        <ele>1165.8</ele>
        <time>2022-03-26T13:18:09Z</time>
      </trkpt>
      <trkpt lat="44.80242" lon="3.16556">
        <ele>1166.8</ele>
        <time>2022-03-26T13:18:14Z</time>
      </trkpt>
      <trkpt lat="44.8025" lon="3.16559">
        <ele>1167.7</ele>
        <time>2022-03-26T13:18:19Z</time>
      </trkpt>
      <trkpt lat="44.80258" lon="3.16562">
        <ele>1167.6</ele>
        <time>2022-03-26T13:18:27Z</time>
      </trkpt>
      <trkpt lat="44.80268" lon="3.1657">
        <ele>1167.6</ele>
        <time>2022-03-26T13:18:32Z</time>
      </trkpt>
      <trkpt lat="44.80276" lon="3.16575">
        <ele>1167.7</ele>
        <time>2022-03-26T13:18:37Z</time>
      </trkpt>
      <trkpt lat="44.80283" lon="3.16578">
        <ele>1167.8</ele>
        <time>2022-03-26T13:18:42Z</time>
      </trkpt>
      <trkpt lat="44.80292" lon="3.16579">
        <ele>1167.8</ele>
        <time>2022-03-26T13:18:47Z</time>
      </trkpt>
      <trkpt lat="44.80301" lon="3.16574">
        <ele>1167.5</ele>
        <time>2022-03-26T13:18:54Z</time>
      </trkpt>
      <trkpt lat="44.80306" lon="3.16569">
        <ele>1167.1</ele>
        <time>2022-03-26T13:18:59Z</time>
      </trkpt>
      <trkpt lat="44.80314" lon="3.16571">
        <ele>1167.2</ele>
        <time>2022-03-26T13:19:05Z</time>
      </trkpt>
      <trkpt lat="44.8032" lon="3.16576">
        <ele>1167.5</ele>
        <time>2022-03-26T13:19:11Z</time>
      </trkpt>
      <trkpt lat="44.80327" lon="3.16576">
        <ele>1167.4</ele>
        <time>2022-03-26T13:19:18Z</time>
      </trkpt>
      <trkpt lat="44.80334" lon="3.16576">
        <ele>1167.3</ele>
        <time>2022-03-26T13:19:24Z</time>
      </trkpt>
      <trkpt lat="44.80338" lon="3.16585">
        <ele>1167.7</ele>
        <time>2022-03-26T13:19:30Z</time>
      </trkpt>
      <trkpt lat="44.80345" lon="3.16591">
        <ele>1167.6</ele>
        <time>2022-03-26T13:19:36Z</time>
      </trkpt>
      <trkpt lat="44.80351" lon="3.16597">
        <ele>1167.5</ele>
        <time>2022-03-26T13:19:41Z</time>
      </trkpt>
      <trkpt lat="44.80356" lon="3.16604">
        <ele>1167.6</ele>
        <time>2022-03-26T13:19:46Z</time>
      </trkpt>
      <trkpt lat="44.80363" lon="3.16605">
        <ele>1167.3</ele>
        <time>2022-03-26T13:19:51Z</time>
      </trkpt>
      <trkpt lat="44.8037" lon="3.16607">
        <ele>1167</ele>
        <time>2022-03-26T13:19:56Z</time>
      </trkpt>
      <trkpt lat="44.80379" lon="3.1661">
        <ele>1166.7</ele>
        <time>2022-03-26T13:20:01Z</time>
      </trkpt>
      <trkpt lat="44.80385" lon="3.16612">
        <ele>1166.5</ele>
        <time>2022-03-26T13:20:07Z</time>
      </trkpt>
      <trkpt lat="44.80391" lon="3.16617">
        <ele>1166.6</ele>
        <time>2022-03-26T13:20:12Z</time>
      </trkpt>
      <trkpt lat="44.80397" lon="3.16623">
        <ele>1166.8</ele>
        <time>2022-03-26T13:20:17Z</time>
      </trkpt>
      <trkpt lat="44.80403" lon="3.16625">
        <ele>1166.7</ele>
        <time>2022-03-26T13:20:22Z</time>
      </trkpt>
      <trkpt lat="44.80411" lon="3.1663">
        <ele>1166.7</ele>
        <time>2022-03-26T13:20:27Z</time>
      </trkpt>
      <trkpt lat="44.80417" lon="3.16635">
        <ele>1166.9</ele>
        <time>2022-03-26T13:20:32Z</time>
      </trkpt>
      <trkpt lat="44.80424" lon="3.16638">
        <ele>1166.9</ele>
        <time>2022-03-26T13:20:39Z</time>
      </trkpt>
      <trkpt lat="44.80434" lon="3.1664">
        <ele>1166.6</ele>
        <time>2022-03-26T13:20:44Z</time>
      </trkpt>
      <trkpt lat="44.80442" lon="3.16644">
        <ele>1166.5</ele>
        <time>2022-03-26T13:20:49Z</time>
      </trkpt>
      <trkpt lat="44.80449" lon="3.16648">
        <ele>1166.4</ele>
        <time>2022-03-26T13:20:54Z</time>
      </trkpt>
      <trkpt lat="44.80456" lon="3.16651">
        <ele>1166.2</ele>
        <time>2022-03-26T13:20:59Z</time>
      </trkpt>
      <trkpt lat="44.80464" lon="3.16653">
        <ele>1165.8</ele>
        <time>2022-03-26T13:21:04Z</time>
      </trkpt>
      <trkpt lat="44.8047" lon="3.16655">
        <ele>1165.6</ele>
        <time>2022-03-26T13:21:09Z</time>
      </trkpt>
      <trkpt lat="44.80477" lon="3.16658">
        <ele>1165.3</ele>
        <time>2022-03-26T13:21:15Z</time>
      </trkpt>
      <trkpt lat="44.80484" lon="3.1666">
        <ele>1164.9</ele>
        <time>2022-03-26T13:21:23Z</time>
      </trkpt>
      <trkpt lat="44.8049" lon="3.16664">
        <ele>1164.6</ele>
        <time>2022-03-26T13:22:53Z</time>
      </trkpt>
      <trkpt lat="44.80498" lon="3.16661">
        <ele>1164</ele>
        <time>2022-03-26T13:22:58Z</time>
      </trkpt>
      <trkpt lat="44.80505" lon="3.16663">
        <ele>1163.7</ele>
        <time>2022-03-26T13:23:05Z</time>
      </trkpt>
      <trkpt lat="44.80514" lon="3.16662">
        <ele>1163.2</ele>
        <time>2022-03-26T13:23:19Z</time>
      </trkpt>
      <trkpt lat="44.8052" lon="3.16667">
        <ele>1163</ele>
        <time>2022-03-26T13:23:25Z</time>
      </trkpt>
      <trkpt lat="44.80527" lon="3.1667">
        <ele>1162.8</ele>
        <time>2022-03-26T13:23:30Z</time>
      </trkpt>
      <trkpt lat="44.80534" lon="3.16671">
        <ele>1162.4</ele>
        <time>2022-03-26T13:23:35Z</time>
      </trkpt>
      <trkpt lat="44.80544" lon="3.16671">
        <ele>1162</ele>
        <time>2022-03-26T13:23:40Z</time>
      </trkpt>
      <trkpt lat="44.80552" lon="3.16672">
        <ele>1161.6</ele>
        <time>2022-03-26T13:23:45Z</time>
      </trkpt>
      <trkpt lat="44.80558" lon="3.16673">
        <ele>1161.3</ele>
        <time>2022-03-26T13:24:17Z</time>
      </trkpt>
      <trkpt lat="44.80566" lon="3.16675">
        <ele>1161</ele>
        <time>2022-03-26T13:24:23Z</time>
      </trkpt>
      <trkpt lat="44.80573" lon="3.16676">
        <ele>1160.7</ele>
        <time>2022-03-26T13:24:29Z</time>
      </trkpt>
      <trkpt lat="44.80583" lon="3.16679">
        <ele>1160.3</ele>
        <time>2022-03-26T13:24:34Z</time>
      </trkpt>
      <trkpt lat="44.8059" lon="3.16682">
        <ele>1160.1</ele>
        <time>2022-03-26T13:24:39Z</time>
      </trkpt>
      <trkpt lat="44.80596" lon="3.16683">
        <ele>1159.9</ele>
        <time>2022-03-26T13:24:44Z</time>
      </trkpt>
      <trkpt lat="44.80603" lon="3.16685">
        <ele>1159.7</ele>
        <time>2022-03-26T13:24:49Z</time>
      </trkpt>
      <trkpt lat="44.80609" lon="3.16691">
        <ele>1159.6</ele>
        <time>2022-03-26T13:25:13Z</time>
      </trkpt>
      <trkpt lat="44.8061" lon="3.16701">
        <ele>1159.7</ele>
        <time>2022-03-26T13:25:21Z</time>
      </trkpt>
      <trkpt lat="44.80604" lon="3.16704">
        <ele>1160</ele>
        <time>2022-03-26T13:26:02Z</time>
      </trkpt>
      <trkpt lat="44.80598" lon="3.1671">
        <ele>1160.4</ele>
        <time>2022-03-26T13:26:07Z</time>
      </trkpt>
      <trkpt lat="44.80591" lon="3.16713">
        <ele>1160.8</ele>
        <time>2022-03-26T13:26:12Z</time>
      </trkpt>
      <trkpt lat="44.80584" lon="3.16719">
        <ele>1161.2</ele>
        <time>2022-03-26T13:26:17Z</time>
      </trkpt>
      <trkpt lat="44.80578" lon="3.16723">
        <ele>1161.6</ele>
        <time>2022-03-26T13:26:22Z</time>
      </trkpt>
      <trkpt lat="44.80569" lon="3.16729">
        <ele>1162.1</ele>
        <time>2022-03-26T13:26:27Z</time>
      </trkpt>
      <trkpt lat="44.80563" lon="3.16734">
        <ele>1162.4</ele>
        <time>2022-03-26T13:26:33Z</time>
      </trkpt>
      <trkpt lat="44.80556" lon="3.16738">
        <ele>1162.7</ele>
        <time>2022-03-26T13:26:38Z</time>
      </trkpt>
      <trkpt lat="44.8055" lon="3.16741">
        <ele>1163</ele>
        <time>2022-03-26T13:26:43Z</time>
      </trkpt>
      <trkpt lat="44.80542" lon="3.16746">
        <ele>1163.4</ele>
        <time>2022-03-26T13:26:48Z</time>
      </trkpt>
      <trkpt lat="44.80534" lon="3.16748">
        <ele>1163.7</ele>
        <time>2022-03-26T13:26:53Z</time>
      </trkpt>
      <trkpt lat="44.80526" lon="3.16752">
        <ele>1164.1</ele>
        <time>2022-03-26T13:26:58Z</time>
      </trkpt>
      <trkpt lat="44.8052" lon="3.16753">
        <ele>1164.3</ele>
        <time>2022-03-26T13:27:03Z</time>
      </trkpt>
      <trkpt lat="44.80512" lon="3.16757">
        <ele>1164.6</ele>
        <time>2022-03-26T13:27:08Z</time>
      </trkpt>
      <trkpt lat="44.80504" lon="3.16758">
        <ele>1164.9</ele>
        <time>2022-03-26T13:27:13Z</time>
      </trkpt>
      <trkpt lat="44.80496" lon="3.16765">
        <ele>1165.2</ele>
        <time>2022-03-26T13:27:18Z</time>
      </trkpt>
      <trkpt lat="44.8049" lon="3.1677">
        <ele>1165.5</ele>
        <time>2022-03-26T13:27:23Z</time>
      </trkpt>
      <trkpt lat="44.80483" lon="3.16776">
        <ele>1165.8</ele>
        <time>2022-03-26T13:27:28Z</time>
      </trkpt>
      <trkpt lat="44.80478" lon="3.16783">
        <ele>1166</ele>
        <time>2022-03-26T13:27:35Z</time>
      </trkpt>
      <trkpt lat="44.80468" lon="3.16785">
        <ele>1166.4</ele>
        <time>2022-03-26T13:27:40Z</time>
      </trkpt>
      <trkpt lat="44.80462" lon="3.16789">
        <ele>1166.6</ele>
        <time>2022-03-26T13:27:45Z</time>
      </trkpt>
      <trkpt lat="44.80456" lon="3.16794">
        <ele>1166.8</ele>
        <time>2022-03-26T13:27:50Z</time>
      </trkpt>
      <trkpt lat="44.80449" lon="3.16796">
        <ele>1167.1</ele>
        <time>2022-03-26T13:27:55Z</time>
      </trkpt>
      <trkpt lat="44.80438" lon="3.16794">
        <ele>1167.6</ele>
        <time>2022-03-26T13:28:00Z</time>
      </trkpt>
      <trkpt lat="44.80432" lon="3.16797">
        <ele>1167.8</ele>
        <time>2022-03-26T13:28:05Z</time>
      </trkpt>
      <trkpt lat="44.80422" lon="3.16798">
        <ele>1168.2</ele>
        <time>2022-03-26T13:28:10Z</time>
      </trkpt>
      <trkpt lat="44.80415" lon="3.16798">
        <ele>1168.5</ele>
        <time>2022-03-26T13:28:16Z</time>
      </trkpt>
      <trkpt lat="44.8041" lon="3.16804">
        <ele>1168.6</ele>
        <time>2022-03-26T13:28:23Z</time>
      </trkpt>
      <trkpt lat="44.80401" lon="3.16811">
        <ele>1168.9</ele>
        <time>2022-03-26T13:28:28Z</time>
      </trkpt>
      <trkpt lat="44.80392" lon="3.1681">
        <ele>1169.3</ele>
        <time>2022-03-26T13:28:33Z</time>
      </trkpt>
      <trkpt lat="44.80386" lon="3.16808">
        <ele>1169.6</ele>
        <time>2022-03-26T13:28:39Z</time>
      </trkpt>
      <trkpt lat="44.80378" lon="3.16809">
        <ele>1169.9</ele>
        <time>2022-03-26T13:28:44Z</time>
      </trkpt>
      <trkpt lat="44.8037" lon="3.1681">
        <ele>1170.2</ele>
        <time>2022-03-26T13:28:49Z</time>
      </trkpt>
      <trkpt lat="44.80363" lon="3.16809">
        <ele>1170.5</ele>
        <time>2022-03-26T13:28:54Z</time>
      </trkpt>
      <trkpt lat="44.80355" lon="3.1681">
        <ele>1170.8</ele>
        <time>2022-03-26T13:28:59Z</time>
      </trkpt>
      <trkpt lat="44.80346" lon="3.16809">
        <ele>1171.2</ele>
        <time>2022-03-26T13:29:04Z</time>
      </trkpt>
      <trkpt lat="44.80335" lon="3.16806">
        <ele>1171.6</ele>
        <time>2022-03-26T13:29:09Z</time>
      </trkpt>
      <trkpt lat="44.80326" lon="3.16806">
        <ele>1171.6</ele>
        <time>2022-03-26T13:29:15Z</time>
      </trkpt>
      <trkpt lat="44.8032" lon="3.16811">
        <ele>1171.5</ele>
        <time>2022-03-26T13:29:21Z</time>
      </trkpt>
      <trkpt lat="44.80314" lon="3.16809">
        <ele>1171.4</ele>
        <time>2022-03-26T13:29:29Z</time>
      </trkpt>
      <trkpt lat="44.80303" lon="3.16808">
        <ele>1171.2</ele>
        <time>2022-03-26T13:29:34Z</time>
      </trkpt>
      <trkpt lat="44.80294" lon="3.16806">
        <ele>1171</ele>
        <time>2022-03-26T13:29:39Z</time>
      </trkpt>
      <trkpt lat="44.80289" lon="3.16814">
        <ele>1171.1</ele>
        <time>2022-03-26T13:29:45Z</time>
      </trkpt>
      <trkpt lat="44.8028" lon="3.16811">
        <ele>1170.9</ele>
        <time>2022-03-26T13:29:50Z</time>
      </trkpt>
      <trkpt lat="44.80273" lon="3.16811">
        <ele>1170.8</ele>
        <time>2022-03-26T13:29:55Z</time>
      </trkpt>
      <trkpt lat="44.80265" lon="3.16814">
        <ele>1170.8</ele>
        <time>2022-03-26T13:30:00Z</time>
      </trkpt>
      <trkpt lat="44.80259" lon="3.16819">
        <ele>1170.8</ele>
        <time>2022-03-26T13:30:09Z</time>
      </trkpt>
      <trkpt lat="44.80253" lon="3.16823">
        <ele>1170.8</ele>
        <time>2022-03-26T13:30:14Z</time>
      </trkpt>
      <trkpt lat="44.80247" lon="3.16827">
        <ele>1170.9</ele>
        <time>2022-03-26T13:30:20Z</time>
      </trkpt>
      <trkpt lat="44.8024" lon="3.16832">
        <ele>1171.2</ele>
        <time>2022-03-26T13:30:26Z</time>
      </trkpt>
      <trkpt lat="44.80232" lon="3.16836">
        <ele>1171.6</ele>
        <time>2022-03-26T13:30:33Z</time>
      </trkpt>
      <trkpt lat="44.80223" lon="3.16841">
        <ele>1172.1</ele>
        <time>2022-03-26T13:30:38Z</time>
      </trkpt>
      <trkpt lat="44.80216" lon="3.16846">
        <ele>1172.6</ele>
        <time>2022-03-26T13:30:44Z</time>
      </trkpt>
      <trkpt lat="44.80208" lon="3.16848">
        <ele>1172.9</ele>
        <time>2022-03-26T13:30:49Z</time>
      </trkpt>
      <trkpt lat="44.80201" lon="3.16854">
        <ele>1173.4</ele>
        <time>2022-03-26T13:30:55Z</time>
      </trkpt>
      <trkpt lat="44.80195" lon="3.16859">
        <ele>1173.9</ele>
        <time>2022-03-26T13:31:01Z</time>
      </trkpt>
      <trkpt lat="44.80186" lon="3.16863">
        <ele>1174.3</ele>
        <time>2022-03-26T13:31:06Z</time>
      </trkpt>
      <trkpt lat="44.8018" lon="3.16868">
        <ele>1174.8</ele>
        <time>2022-03-26T13:31:12Z</time>
      </trkpt>
      <trkpt lat="44.80174" lon="3.16871">
        <ele>1175.1</ele>
        <time>2022-03-26T13:31:17Z</time>
      </trkpt>
      <trkpt lat="44.80168" lon="3.16875">
        <ele>1175.5</ele>
        <time>2022-03-26T13:31:22Z</time>
      </trkpt>
      <trkpt lat="44.80161" lon="3.1688">
        <ele>1175.7</ele>
        <time>2022-03-26T13:31:30Z</time>
      </trkpt>
      <trkpt lat="44.80154" lon="3.16883">
        <ele>1175.8</ele>
        <time>2022-03-26T13:31:35Z</time>
      </trkpt>
      <trkpt lat="44.80148" lon="3.16887">
        <ele>1176</ele>
        <time>2022-03-26T13:31:40Z</time>
      </trkpt>
      <trkpt lat="44.80142" lon="3.16892">
        <ele>1176.2</ele>
        <time>2022-03-26T13:31:45Z</time>
      </trkpt>
      <trkpt lat="44.80136" lon="3.16895">
        <ele>1176.3</ele>
        <time>2022-03-26T13:31:50Z</time>
      </trkpt>
      <trkpt lat="44.8013" lon="3.16901">
        <ele>1176.6</ele>
        <time>2022-03-26T13:31:58Z</time>
      </trkpt>
      <trkpt lat="44.80122" lon="3.16907">
        <ele>1176.9</ele>
        <time>2022-03-26T13:32:03Z</time>
      </trkpt>
      <trkpt lat="44.80115" lon="3.1691">
        <ele>1177</ele>
        <time>2022-03-26T13:32:10Z</time>
      </trkpt>
      <trkpt lat="44.80109" lon="3.16913">
        <ele>1177.1</ele>
        <time>2022-03-26T13:32:15Z</time>
      </trkpt>
      <trkpt lat="44.80101" lon="3.16916">
        <ele>1177.2</ele>
        <time>2022-03-26T13:32:20Z</time>
      </trkpt>
      <trkpt lat="44.80097" lon="3.16924">
        <ele>1177.8</ele>
        <time>2022-03-26T13:32:25Z</time>
      </trkpt>
      <trkpt lat="44.8009" lon="3.16927">
        <ele>1177.9</ele>
        <time>2022-03-26T13:32:32Z</time>
      </trkpt>
      <trkpt lat="44.80084" lon="3.16931">
        <ele>1178.2</ele>
        <time>2022-03-26T13:32:39Z</time>
      </trkpt>
      <trkpt lat="44.80077" lon="3.16935">
        <ele>1178.4</ele>
        <time>2022-03-26T13:32:44Z</time>
      </trkpt>
      <trkpt lat="44.80072" lon="3.16941">
        <ele>1178.9</ele>
        <time>2022-03-26T13:32:49Z</time>
      </trkpt>
      <trkpt lat="44.80065" lon="3.16943">
        <ele>1179</ele>
        <time>2022-03-26T13:33:15Z</time>
      </trkpt>
      <trkpt lat="44.80058" lon="3.16947">
        <ele>1179.3</ele>
        <time>2022-03-26T13:33:23Z</time>
      </trkpt>
      <trkpt lat="44.8005" lon="3.16952">
        <ele>1179.8</ele>
        <time>2022-03-26T13:33:28Z</time>
      </trkpt>
      <trkpt lat="44.80043" lon="3.16957">
        <ele>1180.3</ele>
        <time>2022-03-26T13:33:33Z</time>
      </trkpt>
      <trkpt lat="44.80035" lon="3.1696">
        <ele>1180.7</ele>
        <time>2022-03-26T13:33:38Z</time>
      </trkpt>
      <trkpt lat="44.80028" lon="3.16967">
        <ele>1181.6</ele>
        <time>2022-03-26T13:33:43Z</time>
      </trkpt>
      <trkpt lat="44.80023" lon="3.16973">
        <ele>1182.5</ele>
        <time>2022-03-26T13:33:48Z</time>
      </trkpt>
      <trkpt lat="44.80016" lon="3.16978">
        <ele>1183.3</ele>
        <time>2022-03-26T13:33:54Z</time>
      </trkpt>
      <trkpt lat="44.80009" lon="3.16985">
        <ele>1184.5</ele>
        <time>2022-03-26T13:33:59Z</time>
      </trkpt>
      <trkpt lat="44.80002" lon="3.16991">
        <ele>1185.5</ele>
        <time>2022-03-26T13:34:05Z</time>
      </trkpt>
      <trkpt lat="44.79998" lon="3.16999">
        <ele>1186.8</ele>
        <time>2022-03-26T13:34:11Z</time>
      </trkpt>
      <trkpt lat="44.79992" lon="3.17006">
        <ele>1187.2</ele>
        <time>2022-03-26T13:34:16Z</time>
      </trkpt>
      <trkpt lat="44.79986" lon="3.17014">
        <ele>1187.5</ele>
        <time>2022-03-26T13:34:22Z</time>
      </trkpt>
      <trkpt lat="44.79978" lon="3.1702">
        <ele>1187.7</ele>
        <time>2022-03-26T13:34:27Z</time>
      </trkpt>
      <trkpt lat="44.79973" lon="3.17025">
        <ele>1187.9</ele>
        <time>2022-03-26T13:34:32Z</time>
      </trkpt>
      <trkpt lat="44.79968" lon="3.17032">
        <ele>1188.2</ele>
        <time>2022-03-26T13:34:38Z</time>
      </trkpt>
      <trkpt lat="44.7996" lon="3.17037">
        <ele>1188.3</ele>
        <time>2022-03-26T13:34:43Z</time>
      </trkpt>
      <trkpt lat="44.79953" lon="3.1704">
        <ele>1188.4</ele>
        <time>2022-03-26T13:34:49Z</time>
      </trkpt>
      <trkpt lat="44.79946" lon="3.17046">
        <ele>1188.6</ele>
        <time>2022-03-26T13:34:54Z</time>
      </trkpt>
      <trkpt lat="44.7994" lon="3.17052">
        <ele>1188.8</ele>
        <time>2022-03-26T13:34:59Z</time>
      </trkpt>
      <trkpt lat="44.79932" lon="3.17055">
        <ele>1188.8</ele>
        <time>2022-03-26T13:35:05Z</time>
      </trkpt>
      <trkpt lat="44.79926" lon="3.1706">
        <ele>1189</ele>
        <time>2022-03-26T13:35:10Z</time>
      </trkpt>
      <trkpt lat="44.79916" lon="3.17063">
        <ele>1189</ele>
        <time>2022-03-26T13:35:15Z</time>
      </trkpt>
      <trkpt lat="44.79911" lon="3.17068">
        <ele>1189.1</ele>
        <time>2022-03-26T13:35:20Z</time>
      </trkpt>
      <trkpt lat="44.79902" lon="3.17072">
        <ele>1188.9</ele>
        <time>2022-03-26T13:35:27Z</time>
      </trkpt>
      <trkpt lat="44.79896" lon="3.17074">
        <ele>1188.8</ele>
        <time>2022-03-26T13:35:33Z</time>
      </trkpt>
      <trkpt lat="44.79889" lon="3.17078">
        <ele>1188.7</ele>
        <time>2022-03-26T13:35:39Z</time>
      </trkpt>
      <trkpt lat="44.79882" lon="3.17083">
        <ele>1188.7</ele>
        <time>2022-03-26T13:35:44Z</time>
      </trkpt>
      <trkpt lat="44.79873" lon="3.17084">
        <ele>1188.5</ele>
        <time>2022-03-26T13:35:49Z</time>
      </trkpt>
      <trkpt lat="44.79866" lon="3.17087">
        <ele>1188.4</ele>
        <time>2022-03-26T13:35:56Z</time>
      </trkpt>
      <trkpt lat="44.79857" lon="3.17091">
        <ele>1188.3</ele>
        <time>2022-03-26T13:36:01Z</time>
      </trkpt>
      <trkpt lat="44.79851" lon="3.17096">
        <ele>1188.5</ele>
        <time>2022-03-26T13:36:07Z</time>
      </trkpt>
      <trkpt lat="44.79843" lon="3.17102">
        <ele>1188.8</ele>
        <time>2022-03-26T13:36:12Z</time>
      </trkpt>
      <trkpt lat="44.79836" lon="3.17106">
        <ele>1188.9</ele>
        <time>2022-03-26T13:36:18Z</time>
      </trkpt>
      <trkpt lat="44.79838" lon="3.17115">
        <ele>1189.7</ele>
        <time>2022-03-26T13:36:35Z</time>
      </trkpt>
      <trkpt lat="44.79828" lon="3.17119">
        <ele>1190.2</ele>
        <time>2022-03-26T13:36:40Z</time>
      </trkpt>
      <trkpt lat="44.7982" lon="3.17123">
        <ele>1190.9</ele>
        <time>2022-03-26T13:36:46Z</time>
      </trkpt>
      <trkpt lat="44.79814" lon="3.17127">
        <ele>1191.5</ele>
        <time>2022-03-26T13:36:51Z</time>
      </trkpt>
      <trkpt lat="44.79807" lon="3.1713">
        <ele>1192</ele>
        <time>2022-03-26T13:37:00Z</time>
      </trkpt>
      <trkpt lat="44.798" lon="3.17136">
        <ele>1192.7</ele>
        <time>2022-03-26T13:37:05Z</time>
      </trkpt>
      <trkpt lat="44.79793" lon="3.1714">
        <ele>1193.2</ele>
        <time>2022-03-26T13:37:10Z</time>
      </trkpt>
      <trkpt lat="44.79787" lon="3.17144">
        <ele>1193.7</ele>
        <time>2022-03-26T13:37:18Z</time>
      </trkpt>
      <trkpt lat="44.79777" lon="3.17147">
        <ele>1194.2</ele>
        <time>2022-03-26T13:37:23Z</time>
      </trkpt>
      <trkpt lat="44.7977" lon="3.1715">
        <ele>1194.6</ele>
        <time>2022-03-26T13:37:28Z</time>
      </trkpt>
      <trkpt lat="44.79757" lon="3.17155">
        <ele>1195.2</ele>
        <time>2022-03-26T13:37:33Z</time>
      </trkpt>
      <trkpt lat="44.79748" lon="3.17158">
        <ele>1195.6</ele>
        <time>2022-03-26T13:37:39Z</time>
      </trkpt>
      <trkpt lat="44.79744" lon="3.17167">
        <ele>1196.1</ele>
        <time>2022-03-26T13:37:47Z</time>
      </trkpt>
      <trkpt lat="44.79738" lon="3.17172">
        <ele>1196.5</ele>
        <time>2022-03-26T13:37:52Z</time>
      </trkpt>
      <trkpt lat="44.79731" lon="3.17177">
        <ele>1196.9</ele>
        <time>2022-03-26T13:37:57Z</time>
      </trkpt>
      <trkpt lat="44.79725" lon="3.17181">
        <ele>1197.1</ele>
        <time>2022-03-26T13:38:04Z</time>
      </trkpt>
      <trkpt lat="44.79717" lon="3.17182">
        <ele>1197.2</ele>
        <time>2022-03-26T13:38:09Z</time>
      </trkpt>
      <trkpt lat="44.7971" lon="3.17187">
        <ele>1197.5</ele>
        <time>2022-03-26T13:38:14Z</time>
      </trkpt>
      <trkpt lat="44.79704" lon="3.17191">
        <ele>1197.7</ele>
        <time>2022-03-26T13:38:20Z</time>
      </trkpt>
      <trkpt lat="44.79694" lon="3.17193">
        <ele>1197.7</ele>
        <time>2022-03-26T13:38:25Z</time>
      </trkpt>
      <trkpt lat="44.79688" lon="3.17197">
        <ele>1197.8</ele>
        <time>2022-03-26T13:38:30Z</time>
      </trkpt>
      <trkpt lat="44.7968" lon="3.17196">
        <ele>1197.8</ele>
        <time>2022-03-26T13:38:35Z</time>
      </trkpt>
      <trkpt lat="44.79672" lon="3.17197">
        <ele>1197.8</ele>
        <time>2022-03-26T13:38:40Z</time>
      </trkpt>
      <trkpt lat="44.79664" lon="3.17201">
        <ele>1197.9</ele>
        <time>2022-03-26T13:38:45Z</time>
      </trkpt>
      <trkpt lat="44.79658" lon="3.17207">
        <ele>1198.3</ele>
        <time>2022-03-26T13:38:51Z</time>
      </trkpt>
      <trkpt lat="44.79649" lon="3.17212">
        <ele>1198.8</ele>
        <time>2022-03-26T13:38:56Z</time>
      </trkpt>
      <trkpt lat="44.79644" lon="3.17218">
        <ele>1199.2</ele>
        <time>2022-03-26T13:39:02Z</time>
      </trkpt>
      <trkpt lat="44.79639" lon="3.17224">
        <ele>1199.6</ele>
        <time>2022-03-26T13:39:07Z</time>
      </trkpt>
      <trkpt lat="44.79632" lon="3.17224">
        <ele>1199.9</ele>
        <time>2022-03-26T13:39:12Z</time>
      </trkpt>
      <trkpt lat="44.79626" lon="3.17229">
        <ele>1200.3</ele>
        <time>2022-03-26T13:39:18Z</time>
      </trkpt>
      <trkpt lat="44.7962" lon="3.17234">
        <ele>1200.7</ele>
        <time>2022-03-26T13:39:24Z</time>
      </trkpt>
      <trkpt lat="44.79617" lon="3.17243">
        <ele>1201.2</ele>
        <time>2022-03-26T13:39:31Z</time>
      </trkpt>
      <trkpt lat="44.79612" lon="3.1725">
        <ele>1201.6</ele>
        <time>2022-03-26T13:39:42Z</time>
      </trkpt>
      <trkpt lat="44.79604" lon="3.17255">
        <ele>1202.3</ele>
        <time>2022-03-26T13:39:47Z</time>
      </trkpt>
      <trkpt lat="44.79595" lon="3.17258">
        <ele>1202.9</ele>
        <time>2022-03-26T13:39:52Z</time>
      </trkpt>
      <trkpt lat="44.79587" lon="3.17264">
        <ele>1203.5</ele>
        <time>2022-03-26T13:40:13Z</time>
      </trkpt>
      <trkpt lat="44.79581" lon="3.17266">
        <ele>1203.9</ele>
        <time>2022-03-26T13:40:20Z</time>
      </trkpt>
      <trkpt lat="44.79571" lon="3.17266">
        <ele>1204.5</ele>
        <time>2022-03-26T13:40:25Z</time>
      </trkpt>
      <trkpt lat="44.79565" lon="3.1727">
        <ele>1205</ele>
        <time>2022-03-26T13:40:32Z</time>
      </trkpt>
      <trkpt lat="44.7956" lon="3.17276">
        <ele>1205.5</ele>
        <time>2022-03-26T13:40:38Z</time>
      </trkpt>
      <trkpt lat="44.79553" lon="3.17278">
        <ele>1205.9</ele>
        <time>2022-03-26T13:40:45Z</time>
      </trkpt>
      <trkpt lat="44.79546" lon="3.1728">
        <ele>1206.4</ele>
        <time>2022-03-26T13:40:51Z</time>
      </trkpt>
      <trkpt lat="44.79538" lon="3.17285">
        <ele>1206.9</ele>
        <time>2022-03-26T13:40:56Z</time>
      </trkpt>
      <trkpt lat="44.79524" lon="3.17289">
        <ele>1207.8</ele>
        <time>2022-03-26T13:41:01Z</time>
      </trkpt>
      <trkpt lat="44.79516" lon="3.17291">
        <ele>1208.2</ele>
        <time>2022-03-26T13:41:09Z</time>
      </trkpt>
      <trkpt lat="44.79509" lon="3.17293">
        <ele>1208.6</ele>
        <time>2022-03-26T13:41:14Z</time>
      </trkpt>
      <trkpt lat="44.79502" lon="3.17293">
        <ele>1208.9</ele>
        <time>2022-03-26T13:41:19Z</time>
      </trkpt>
      <trkpt lat="44.79494" lon="3.17295">
        <ele>1209.3</ele>
        <time>2022-03-26T13:41:24Z</time>
      </trkpt>
      <trkpt lat="44.79487" lon="3.17299">
        <ele>1209.6</ele>
        <time>2022-03-26T13:41:34Z</time>
      </trkpt>
      <trkpt lat="44.79479" lon="3.17298">
        <ele>1209.9</ele>
        <time>2022-03-26T13:41:49Z</time>
      </trkpt>
      <trkpt lat="44.7947" lon="3.17298">
        <ele>1210.2</ele>
        <time>2022-03-26T13:41:56Z</time>
      </trkpt>
      <trkpt lat="44.79462" lon="3.17296">
        <ele>1210.5</ele>
        <time>2022-03-26T13:42:01Z</time>
      </trkpt>
      <trkpt lat="44.79454" lon="3.17291">
        <ele>1210.6</ele>
        <time>2022-03-26T13:42:06Z</time>
      </trkpt>
      <trkpt lat="44.79442" lon="3.17292">
        <ele>1211.1</ele>
        <time>2022-03-26T13:42:11Z</time>
      </trkpt>
      <trkpt lat="44.79435" lon="3.17289">
        <ele>1211.3</ele>
        <time>2022-03-26T13:42:17Z</time>
      </trkpt>
      <trkpt lat="44.79428" lon="3.17291">
        <ele>1211.6</ele>
        <time>2022-03-26T13:42:22Z</time>
      </trkpt>
      <trkpt lat="44.79422" lon="3.17289">
        <ele>1211.7</ele>
        <time>2022-03-26T13:42:28Z</time>
      </trkpt>
      <trkpt lat="44.79416" lon="3.17295">
        <ele>1212.1</ele>
        <time>2022-03-26T13:42:34Z</time>
      </trkpt>
      <trkpt lat="44.79407" lon="3.17292">
        <ele>1212.4</ele>
        <time>2022-03-26T13:42:39Z</time>
      </trkpt>
      <trkpt lat="44.79401" lon="3.17291">
        <ele>1212.5</ele>
        <time>2022-03-26T13:42:47Z</time>
      </trkpt>
      <trkpt lat="44.79392" lon="3.17292">
        <ele>1212.9</ele>
        <time>2022-03-26T13:42:52Z</time>
      </trkpt>
      <trkpt lat="44.79386" lon="3.17294">
        <ele>1213.2</ele>
        <time>2022-03-26T13:42:58Z</time>
      </trkpt>
      <trkpt lat="44.79378" lon="3.17292">
        <ele>1213.4</ele>
        <time>2022-03-26T13:43:03Z</time>
      </trkpt>
      <trkpt lat="44.79371" lon="3.17292">
        <ele>1213.7</ele>
        <time>2022-03-26T13:43:08Z</time>
      </trkpt>
      <trkpt lat="44.79364" lon="3.1729">
        <ele>1213.9</ele>
        <time>2022-03-26T13:43:13Z</time>
      </trkpt>
      <trkpt lat="44.79353" lon="3.17286">
        <ele>1214.2</ele>
        <time>2022-03-26T13:43:18Z</time>
      </trkpt>
      <trkpt lat="44.79345" lon="3.17287">
        <ele>1214.5</ele>
        <time>2022-03-26T13:43:23Z</time>
      </trkpt>
      <trkpt lat="44.79339" lon="3.17292">
        <ele>1214.8</ele>
        <time>2022-03-26T13:43:28Z</time>
      </trkpt>
      <trkpt lat="44.79333" lon="3.17292">
        <ele>1215</ele>
        <time>2022-03-26T13:43:34Z</time>
      </trkpt>
      <trkpt lat="44.79324" lon="3.17293">
        <ele>1215.1</ele>
        <time>2022-03-26T13:43:39Z</time>
      </trkpt>
      <trkpt lat="44.79311" lon="3.1729">
        <ele>1215.2</ele>
        <time>2022-03-26T13:43:44Z</time>
      </trkpt>
      <trkpt lat="44.79303" lon="3.17294">
        <ele>1215.4</ele>
        <time>2022-03-26T13:43:53Z</time>
      </trkpt>
      <trkpt lat="44.79296" lon="3.17293">
        <ele>1215.5</ele>
        <time>2022-03-26T13:44:01Z</time>
      </trkpt>
      <trkpt lat="44.7929" lon="3.17291">
        <ele>1215.5</ele>
        <time>2022-03-26T13:44:07Z</time>
      </trkpt>
      <trkpt lat="44.7928" lon="3.17292">
        <ele>1215.6</ele>
        <time>2022-03-26T13:44:12Z</time>
      </trkpt>
      <trkpt lat="44.79272" lon="3.17288">
        <ele>1215.6</ele>
        <time>2022-03-26T13:44:17Z</time>
      </trkpt>
      <trkpt lat="44.79266" lon="3.17289">
        <ele>1215.7</ele>
        <time>2022-03-26T13:44:22Z</time>
      </trkpt>
      <trkpt lat="44.79256" lon="3.17293">
        <ele>1216</ele>
        <time>2022-03-26T13:44:27Z</time>
      </trkpt>
      <trkpt lat="44.79251" lon="3.17286">
        <ele>1215.9</ele>
        <time>2022-03-26T13:44:38Z</time>
      </trkpt>
      <trkpt lat="44.79241" lon="3.17287">
        <ele>1215.9</ele>
        <time>2022-03-26T13:44:43Z</time>
      </trkpt>
      <trkpt lat="44.7923" lon="3.17287">
        <ele>1216</ele>
        <time>2022-03-26T13:44:48Z</time>
      </trkpt>
      <trkpt lat="44.7922" lon="3.17292">
        <ele>1216.2</ele>
        <time>2022-03-26T13:44:53Z</time>
      </trkpt>
      <trkpt lat="44.79213" lon="3.17295">
        <ele>1216.3</ele>
        <time>2022-03-26T13:45:01Z</time>
      </trkpt>
      <trkpt lat="44.79203" lon="3.17294">
        <ele>1216.3</ele>
        <time>2022-03-26T13:45:06Z</time>
      </trkpt>
      <trkpt lat="44.79192" lon="3.17295">
        <ele>1216.4</ele>
        <time>2022-03-26T13:45:11Z</time>
      </trkpt>
      <trkpt lat="44.79185" lon="3.17297">
        <ele>1216.5</ele>
        <time>2022-03-26T13:45:16Z</time>
      </trkpt>
      <trkpt lat="44.79178" lon="3.17299">
        <ele>1216.5</ele>
        <time>2022-03-26T13:45:22Z</time>
      </trkpt>
      <trkpt lat="44.79171" lon="3.17303">
        <ele>1216.6</ele>
        <time>2022-03-26T13:45:28Z</time>
      </trkpt>
      <trkpt lat="44.79164" lon="3.17303">
        <ele>1216.6</ele>
        <time>2022-03-26T13:45:35Z</time>
      </trkpt>
      <trkpt lat="44.79156" lon="3.17302">
        <ele>1216.4</ele>
        <time>2022-03-26T13:45:40Z</time>
      </trkpt>
      <trkpt lat="44.79149" lon="3.17302">
        <ele>1216.3</ele>
        <time>2022-03-26T13:45:45Z</time>
      </trkpt>
      <trkpt lat="44.79142" lon="3.17303">
        <ele>1216.1</ele>
        <time>2022-03-26T13:45:50Z</time>
      </trkpt>
      <trkpt lat="44.79136" lon="3.173">
        <ele>1215.9</ele>
        <time>2022-03-26T13:45:55Z</time>
      </trkpt>
      <trkpt lat="44.79129" lon="3.17299">
        <ele>1215.8</ele>
        <time>2022-03-26T13:46:00Z</time>
      </trkpt>
      <trkpt lat="44.79121" lon="3.17298">
        <ele>1215.6</ele>
        <time>2022-03-26T13:46:05Z</time>
      </trkpt>
      <trkpt lat="44.79114" lon="3.17297">
        <ele>1215.4</ele>
        <time>2022-03-26T13:46:10Z</time>
      </trkpt>
      <trkpt lat="44.79106" lon="3.17298">
        <ele>1215.2</ele>
        <time>2022-03-26T13:46:15Z</time>
      </trkpt>
      <trkpt lat="44.79098" lon="3.17299">
        <ele>1215.1</ele>
        <time>2022-03-26T13:46:21Z</time>
      </trkpt>
      <trkpt lat="44.79092" lon="3.17298">
        <ele>1214.9</ele>
        <time>2022-03-26T13:46:27Z</time>
      </trkpt>
      <trkpt lat="44.79082" lon="3.17301">
        <ele>1214.8</ele>
        <time>2022-03-26T13:46:32Z</time>
      </trkpt>
      <trkpt lat="44.79075" lon="3.173">
        <ele>1214.8</ele>
        <time>2022-03-26T13:46:38Z</time>
      </trkpt>
      <trkpt lat="44.79066" lon="3.17303">
        <ele>1214.9</ele>
        <time>2022-03-26T13:46:43Z</time>
      </trkpt>
      <trkpt lat="44.79059" lon="3.17305">
        <ele>1215</ele>
        <time>2022-03-26T13:46:48Z</time>
      </trkpt>
      <trkpt lat="44.79051" lon="3.17308">
        <ele>1215.1</ele>
        <time>2022-03-26T13:46:53Z</time>
      </trkpt>
      <trkpt lat="44.79044" lon="3.17312">
        <ele>1215.2</ele>
        <time>2022-03-26T13:46:58Z</time>
      </trkpt>
      <trkpt lat="44.79037" lon="3.17314">
        <ele>1215.3</ele>
        <time>2022-03-26T13:47:03Z</time>
      </trkpt>
      <trkpt lat="44.79029" lon="3.17316">
        <ele>1215.4</ele>
        <time>2022-03-26T13:47:08Z</time>
      </trkpt>
      <trkpt lat="44.79022" lon="3.1732">
        <ele>1215.5</ele>
        <time>2022-03-26T13:47:13Z</time>
      </trkpt>
      <trkpt lat="44.79014" lon="3.17322">
        <ele>1215.6</ele>
        <time>2022-03-26T13:47:18Z</time>
      </trkpt>
      <trkpt lat="44.79008" lon="3.17325">
        <ele>1215.7</ele>
        <time>2022-03-26T13:47:24Z</time>
      </trkpt>
      <trkpt lat="44.79" lon="3.17328">
        <ele>1215.8</ele>
        <time>2022-03-26T13:47:29Z</time>
      </trkpt>
      <trkpt lat="44.78993" lon="3.17329">
        <ele>1215.8</ele>
        <time>2022-03-26T13:47:34Z</time>
      </trkpt>
      <trkpt lat="44.78986" lon="3.17333">
        <ele>1216</ele>
        <time>2022-03-26T13:47:40Z</time>
      </trkpt>
      <trkpt lat="44.78977" lon="3.17335">
        <ele>1216</ele>
        <time>2022-03-26T13:47:45Z</time>
      </trkpt>
      <trkpt lat="44.78968" lon="3.17338">
        <ele>1215.9</ele>
        <time>2022-03-26T13:47:50Z</time>
      </trkpt>
      <trkpt lat="44.7896" lon="3.17342">
        <ele>1215.8</ele>
        <time>2022-03-26T13:47:55Z</time>
      </trkpt>
      <trkpt lat="44.78952" lon="3.17345">
        <ele>1215.7</ele>
        <time>2022-03-26T13:48:00Z</time>
      </trkpt>
      <trkpt lat="44.78945" lon="3.17349">
        <ele>1215.6</ele>
        <time>2022-03-26T13:48:06Z</time>
      </trkpt>
      <trkpt lat="44.78936" lon="3.17351">
        <ele>1215.6</ele>
        <time>2022-03-26T13:48:11Z</time>
      </trkpt>
      <trkpt lat="44.78928" lon="3.17352">
        <ele>1215.6</ele>
        <time>2022-03-26T13:48:17Z</time>
      </trkpt>
      <trkpt lat="44.78922" lon="3.17355">
        <ele>1215.5</ele>
        <time>2022-03-26T13:48:22Z</time>
      </trkpt>
      <trkpt lat="44.78915" lon="3.17358">
        <ele>1215.5</ele>
        <time>2022-03-26T13:48:27Z</time>
      </trkpt>
      <trkpt lat="44.78909" lon="3.17358">
        <ele>1215.6</ele>
        <time>2022-03-26T13:48:32Z</time>
      </trkpt>
      <trkpt lat="44.78901" lon="3.17361">
        <ele>1215.8</ele>
        <time>2022-03-26T13:48:37Z</time>
      </trkpt>
      <trkpt lat="44.78894" lon="3.17364">
        <ele>1216</ele>
        <time>2022-03-26T13:48:42Z</time>
      </trkpt>
      <trkpt lat="44.78886" lon="3.17365">
        <ele>1216.3</ele>
        <time>2022-03-26T13:48:47Z</time>
      </trkpt>
      <trkpt lat="44.78877" lon="3.17369">
        <ele>1216.5</ele>
        <time>2022-03-26T13:48:52Z</time>
      </trkpt>
      <trkpt lat="44.78869" lon="3.17374">
        <ele>1216.7</ele>
        <time>2022-03-26T13:48:57Z</time>
      </trkpt>
      <trkpt lat="44.78862" lon="3.17377">
        <ele>1217</ele>
        <time>2022-03-26T13:49:03Z</time>
      </trkpt>
      <trkpt lat="44.78854" lon="3.1738">
        <ele>1217.2</ele>
        <time>2022-03-26T13:49:08Z</time>
      </trkpt>
      <trkpt lat="44.78846" lon="3.17382">
        <ele>1217.5</ele>
        <time>2022-03-26T13:49:13Z</time>
      </trkpt>
      <trkpt lat="44.78838" lon="3.17386">
        <ele>1217.8</ele>
        <time>2022-03-26T13:49:18Z</time>
      </trkpt>
      <trkpt lat="44.78831" lon="3.1739">
        <ele>1218.1</ele>
        <time>2022-03-26T13:49:23Z</time>
      </trkpt>
      <trkpt lat="44.78824" lon="3.17393">
        <ele>1218.3</ele>
        <time>2022-03-26T13:49:28Z</time>
      </trkpt>
      <trkpt lat="44.78816" lon="3.17396">
        <ele>1218.6</ele>
        <time>2022-03-26T13:49:33Z</time>
      </trkpt>
      <trkpt lat="44.78809" lon="3.174">
        <ele>1218.8</ele>
        <time>2022-03-26T13:49:38Z</time>
      </trkpt>
      <trkpt lat="44.78802" lon="3.17403">
        <ele>1219.1</ele>
        <time>2022-03-26T13:49:43Z</time>
      </trkpt>
      <trkpt lat="44.78795" lon="3.17405">
        <ele>1219.3</ele>
        <time>2022-03-26T13:49:52Z</time>
      </trkpt>
      <trkpt lat="44.78788" lon="3.17403">
        <ele>1219.5</ele>
        <time>2022-03-26T13:50:04Z</time>
      </trkpt>
      <trkpt lat="44.78782" lon="3.17395">
        <ele>1219.7</ele>
        <time>2022-03-26T13:50:09Z</time>
      </trkpt>
      <trkpt lat="44.78794" lon="3.17397">
        <ele>1219.3</ele>
        <time>2022-03-26T13:50:37Z</time>
      </trkpt>
      <trkpt lat="44.78792" lon="3.17407">
        <ele>1219.4</ele>
        <time>2022-03-26T13:50:53Z</time>
      </trkpt>
      <trkpt lat="44.78789" lon="3.17415">
        <ele>1219.6</ele>
        <time>2022-03-26T13:51:06Z</time>
      </trkpt>
      <trkpt lat="44.78782" lon="3.17414">
        <ele>1219.8</ele>
        <time>2022-03-26T13:51:29Z</time>
      </trkpt>
      <trkpt lat="44.78772" lon="3.17412">
        <ele>1220.2</ele>
        <time>2022-03-26T13:51:34Z</time>
      </trkpt>
      <trkpt lat="44.78766" lon="3.17412">
        <ele>1220.4</ele>
        <time>2022-03-26T13:51:41Z</time>
      </trkpt>
      <trkpt lat="44.78758" lon="3.17411">
        <ele>1220.7</ele>
        <time>2022-03-26T13:51:47Z</time>
      </trkpt>
      <trkpt lat="44.78751" lon="3.17416">
        <ele>1221</ele>
        <time>2022-03-26T13:51:52Z</time>
      </trkpt>
      <trkpt lat="44.7874" lon="3.17421">
        <ele>1221.2</ele>
        <time>2022-03-26T13:51:57Z</time>
      </trkpt>
      <trkpt lat="44.78734" lon="3.17422">
        <ele>1221.3</ele>
        <time>2022-03-26T13:52:02Z</time>
      </trkpt>
      <trkpt lat="44.78725" lon="3.17431">
        <ele>1221.4</ele>
        <time>2022-03-26T13:52:07Z</time>
      </trkpt>
      <trkpt lat="44.78724" lon="3.17441">
        <ele>1221.2</ele>
        <time>2022-03-26T13:52:13Z</time>
      </trkpt>
      <trkpt lat="44.78717" lon="3.17447">
        <ele>1221.3</ele>
        <time>2022-03-26T13:52:18Z</time>
      </trkpt>
      <trkpt lat="44.78708" lon="3.17455">
        <ele>1221.3</ele>
        <time>2022-03-26T13:52:23Z</time>
      </trkpt>
      <trkpt lat="44.78703" lon="3.17462">
        <ele>1221.3</ele>
        <time>2022-03-26T13:52:28Z</time>
      </trkpt>
      <trkpt lat="44.78697" lon="3.17467">
        <ele>1221.3</ele>
        <time>2022-03-26T13:52:34Z</time>
      </trkpt>
      <trkpt lat="44.78695" lon="3.17477">
        <ele>1221.1</ele>
        <time>2022-03-26T13:52:41Z</time>
      </trkpt>
      <trkpt lat="44.78688" lon="3.17488">
        <ele>1221</ele>
        <time>2022-03-26T13:52:46Z</time>
      </trkpt>
      <trkpt lat="44.78682" lon="3.17497">
        <ele>1220.9</ele>
        <time>2022-03-26T13:52:51Z</time>
      </trkpt>
      <trkpt lat="44.78676" lon="3.17507">
        <ele>1220.9</ele>
        <time>2022-03-26T13:52:56Z</time>
      </trkpt>
      <trkpt lat="44.78673" lon="3.17515">
        <ele>1220.9</ele>
        <time>2022-03-26T13:53:04Z</time>
      </trkpt>
      <trkpt lat="44.78667" lon="3.17525">
        <ele>1221</ele>
        <time>2022-03-26T13:53:09Z</time>
      </trkpt>
      <trkpt lat="44.78659" lon="3.17534">
        <ele>1220.8</ele>
        <time>2022-03-26T13:53:14Z</time>
      </trkpt>
      <trkpt lat="44.78653" lon="3.17541">
        <ele>1220.6</ele>
        <time>2022-03-26T13:53:19Z</time>
      </trkpt>
      <trkpt lat="44.78647" lon="3.17548">
        <ele>1220.4</ele>
        <time>2022-03-26T13:53:24Z</time>
      </trkpt>
      <trkpt lat="44.78644" lon="3.17557">
        <ele>1220.4</ele>
        <time>2022-03-26T13:53:31Z</time>
      </trkpt>
      <trkpt lat="44.78638" lon="3.17563">
        <ele>1220.2</ele>
        <time>2022-03-26T13:53:38Z</time>
      </trkpt>
      <trkpt lat="44.78633" lon="3.17573">
        <ele>1220.1</ele>
        <time>2022-03-26T13:53:43Z</time>
      </trkpt>
      <trkpt lat="44.78628" lon="3.17579">
        <ele>1220</ele>
        <time>2022-03-26T13:53:49Z</time>
      </trkpt>
      <trkpt lat="44.78622" lon="3.17589">
        <ele>1220</ele>
        <time>2022-03-26T13:53:54Z</time>
      </trkpt>
      <trkpt lat="44.78613" lon="3.17595">
        <ele>1219.9</ele>
        <time>2022-03-26T13:53:59Z</time>
      </trkpt>
      <trkpt lat="44.78606" lon="3.17607">
        <ele>1219.8</ele>
        <time>2022-03-26T13:54:04Z</time>
      </trkpt>
      <trkpt lat="44.78601" lon="3.17615">
        <ele>1219.8</ele>
        <time>2022-03-26T13:54:10Z</time>
      </trkpt>
      <trkpt lat="44.78599" lon="3.17624">
        <ele>1219.9</ele>
        <time>2022-03-26T13:54:16Z</time>
      </trkpt>
      <trkpt lat="44.78594" lon="3.17633">
        <ele>1219.9</ele>
        <time>2022-03-26T13:54:21Z</time>
      </trkpt>
      <trkpt lat="44.78589" lon="3.17638">
        <ele>1219.8</ele>
        <time>2022-03-26T13:54:26Z</time>
      </trkpt>
      <trkpt lat="44.78584" lon="3.17646">
        <ele>1219.8</ele>
        <time>2022-03-26T13:54:31Z</time>
      </trkpt>
      <trkpt lat="44.78579" lon="3.17654">
        <ele>1219.6</ele>
        <time>2022-03-26T13:54:36Z</time>
      </trkpt>
      <trkpt lat="44.78569" lon="3.17661">
        <ele>1218.9</ele>
        <time>2022-03-26T13:54:41Z</time>
      </trkpt>
      <trkpt lat="44.78565" lon="3.1767">
        <ele>1218.7</ele>
        <time>2022-03-26T13:54:47Z</time>
      </trkpt>
      <trkpt lat="44.78558" lon="3.17676">
        <ele>1218.1</ele>
        <time>2022-03-26T13:54:52Z</time>
      </trkpt>
      <trkpt lat="44.78552" lon="3.17683">
        <ele>1217.7</ele>
        <time>2022-03-26T13:54:57Z</time>
      </trkpt>
      <trkpt lat="44.78548" lon="3.17692">
        <ele>1217.3</ele>
        <time>2022-03-26T13:55:03Z</time>
      </trkpt>
      <trkpt lat="44.78543" lon="3.177">
        <ele>1216.9</ele>
        <time>2022-03-26T13:55:08Z</time>
      </trkpt>
      <trkpt lat="44.78539" lon="3.17709">
        <ele>1216.5</ele>
        <time>2022-03-26T13:55:13Z</time>
      </trkpt>
      <trkpt lat="44.78534" lon="3.17722">
        <ele>1216.1</ele>
        <time>2022-03-26T13:55:18Z</time>
      </trkpt>
      <trkpt lat="44.78533" lon="3.17732">
        <ele>1215.9</ele>
        <time>2022-03-26T13:55:23Z</time>
      </trkpt>
      <trkpt lat="44.78529" lon="3.17739">
        <ele>1215.5</ele>
        <time>2022-03-26T13:55:28Z</time>
      </trkpt>
      <trkpt lat="44.78524" lon="3.17746">
        <ele>1215.1</ele>
        <time>2022-03-26T13:55:33Z</time>
      </trkpt>
      <trkpt lat="44.78522" lon="3.17756">
        <ele>1215</ele>
        <time>2022-03-26T13:55:57Z</time>
      </trkpt>
      <trkpt lat="44.78518" lon="3.17766">
        <ele>1214.9</ele>
        <time>2022-03-26T13:56:04Z</time>
      </trkpt>
      <trkpt lat="44.78514" lon="3.17774">
        <ele>1214.7</ele>
        <time>2022-03-26T13:56:09Z</time>
      </trkpt>
      <trkpt lat="44.7851" lon="3.17784">
        <ele>1214.6</ele>
        <time>2022-03-26T13:56:14Z</time>
      </trkpt>
      <trkpt lat="44.78505" lon="3.17793">
        <ele>1214.4</ele>
        <time>2022-03-26T13:56:19Z</time>
      </trkpt>
      <trkpt lat="44.78502" lon="3.17803">
        <ele>1214.4</ele>
        <time>2022-03-26T13:56:25Z</time>
      </trkpt>
      <trkpt lat="44.785" lon="3.17813">
        <ele>1214.5</ele>
        <time>2022-03-26T13:56:30Z</time>
      </trkpt>
      <trkpt lat="44.78495" lon="3.1782">
        <ele>1214.4</ele>
        <time>2022-03-26T13:56:35Z</time>
      </trkpt>
      <trkpt lat="44.78493" lon="3.17831">
        <ele>1214.6</ele>
        <time>2022-03-26T13:56:40Z</time>
      </trkpt>
      <trkpt lat="44.78489" lon="3.17843">
        <ele>1214.6</ele>
        <time>2022-03-26T13:56:45Z</time>
      </trkpt>
      <trkpt lat="44.78488" lon="3.17853">
        <ele>1214.7</ele>
        <time>2022-03-26T13:56:50Z</time>
      </trkpt>
      <trkpt lat="44.78485" lon="3.17862">
        <ele>1214.6</ele>
        <time>2022-03-26T13:56:55Z</time>
      </trkpt>
      <trkpt lat="44.78484" lon="3.17873">
        <ele>1214.7</ele>
        <time>2022-03-26T13:57:00Z</time>
      </trkpt>
      <trkpt lat="44.78482" lon="3.17882">
        <ele>1214.7</ele>
        <time>2022-03-26T13:57:06Z</time>
      </trkpt>
      <trkpt lat="44.78475" lon="3.1789">
        <ele>1214.5</ele>
        <time>2022-03-26T13:57:11Z</time>
      </trkpt>
      <trkpt lat="44.78472" lon="3.179">
        <ele>1214.5</ele>
        <time>2022-03-26T13:57:18Z</time>
      </trkpt>
      <trkpt lat="44.78467" lon="3.1791">
        <ele>1214.3</ele>
        <time>2022-03-26T13:57:23Z</time>
      </trkpt>
      <trkpt lat="44.7846" lon="3.17918">
        <ele>1214.1</ele>
        <time>2022-03-26T13:57:28Z</time>
      </trkpt>
      <trkpt lat="44.78455" lon="3.17926">
        <ele>1214</ele>
        <time>2022-03-26T13:57:33Z</time>
      </trkpt>
      <trkpt lat="44.78448" lon="3.17936">
        <ele>1213.9</ele>
        <time>2022-03-26T13:57:38Z</time>
      </trkpt>
      <trkpt lat="44.78443" lon="3.17943">
        <ele>1213.9</ele>
        <time>2022-03-26T13:57:44Z</time>
      </trkpt>
      <trkpt lat="44.78436" lon="3.17949">
        <ele>1213.8</ele>
        <time>2022-03-26T13:57:49Z</time>
      </trkpt>
      <trkpt lat="44.78434" lon="3.17959">
        <ele>1214</ele>
        <time>2022-03-26T13:57:54Z</time>
      </trkpt>
      <trkpt lat="44.78431" lon="3.17969">
        <ele>1214.2</ele>
        <time>2022-03-26T13:57:59Z</time>
      </trkpt>
      <trkpt lat="44.78421" lon="3.17976">
        <ele>1214.2</ele>
        <time>2022-03-26T13:58:04Z</time>
      </trkpt>
      <trkpt lat="44.78419" lon="3.17985">
        <ele>1214.5</ele>
        <time>2022-03-26T13:58:09Z</time>
      </trkpt>
      <trkpt lat="44.78417" lon="3.17995">
        <ele>1214.8</ele>
        <time>2022-03-26T13:58:15Z</time>
      </trkpt>
      <trkpt lat="44.78421" lon="3.18005">
        <ele>1215.2</ele>
        <time>2022-03-26T13:58:20Z</time>
      </trkpt>
      <trkpt lat="44.78416" lon="3.18011">
        <ele>1215.3</ele>
        <time>2022-03-26T13:58:42Z</time>
      </trkpt>
      <trkpt lat="44.7841" lon="3.18016">
        <ele>1215.4</ele>
        <time>2022-03-26T13:58:47Z</time>
      </trkpt>
      <trkpt lat="44.78406" lon="3.18025">
        <ele>1215.7</ele>
        <time>2022-03-26T13:58:52Z</time>
      </trkpt>
      <trkpt lat="44.78405" lon="3.18036">
        <ele>1216</ele>
        <time>2022-03-26T13:58:58Z</time>
      </trkpt>
      <trkpt lat="44.784" lon="3.18041">
        <ele>1216.3</ele>
        <time>2022-03-26T13:59:03Z</time>
      </trkpt>
      <trkpt lat="44.78398" lon="3.18051">
        <ele>1216.6</ele>
        <time>2022-03-26T13:59:09Z</time>
      </trkpt>
      <trkpt lat="44.78394" lon="3.18061">
        <ele>1217.1</ele>
        <time>2022-03-26T13:59:15Z</time>
      </trkpt>
      <trkpt lat="44.78388" lon="3.18075">
        <ele>1217.7</ele>
        <time>2022-03-26T13:59:20Z</time>
      </trkpt>
      <trkpt lat="44.78385" lon="3.18086">
        <ele>1218.2</ele>
        <time>2022-03-26T13:59:25Z</time>
      </trkpt>
      <trkpt lat="44.78382" lon="3.18095">
        <ele>1218.4</ele>
        <time>2022-03-26T13:59:30Z</time>
      </trkpt>
      <trkpt lat="44.78379" lon="3.18104">
        <ele>1218.6</ele>
        <time>2022-03-26T13:59:35Z</time>
      </trkpt>
      <trkpt lat="44.78376" lon="3.18115">
        <ele>1218.8</ele>
        <time>2022-03-26T13:59:40Z</time>
      </trkpt>
      <trkpt lat="44.78369" lon="3.18128">
        <ele>1219.3</ele>
        <time>2022-03-26T13:59:45Z</time>
      </trkpt>
      <trkpt lat="44.78366" lon="3.18137">
        <ele>1219.6</ele>
        <time>2022-03-26T13:59:53Z</time>
      </trkpt>
      <trkpt lat="44.78362" lon="3.18147">
        <ele>1220</ele>
        <time>2022-03-26T13:59:59Z</time>
      </trkpt>
      <trkpt lat="44.78359" lon="3.18157">
        <ele>1220.3</ele>
        <time>2022-03-26T14:00:04Z</time>
      </trkpt>
      <trkpt lat="44.78355" lon="3.18166">
        <ele>1220.7</ele>
        <time>2022-03-26T14:00:09Z</time>
      </trkpt>
      <trkpt lat="44.78352" lon="3.18176">
        <ele>1220.8</ele>
        <time>2022-03-26T14:00:14Z</time>
      </trkpt>
      <trkpt lat="44.78349" lon="3.18185">
        <ele>1220.9</ele>
        <time>2022-03-26T14:00:20Z</time>
      </trkpt>
      <trkpt lat="44.78347" lon="3.18194">
        <ele>1220.9</ele>
        <time>2022-03-26T14:00:25Z</time>
      </trkpt>
      <trkpt lat="44.78342" lon="3.18204">
        <ele>1221.1</ele>
        <time>2022-03-26T14:00:30Z</time>
      </trkpt>
      <trkpt lat="44.78338" lon="3.18211">
        <ele>1221.2</ele>
        <time>2022-03-26T14:00:35Z</time>
      </trkpt>
      <trkpt lat="44.78335" lon="3.1822">
        <ele>1221.3</ele>
        <time>2022-03-26T14:00:41Z</time>
      </trkpt>
      <trkpt lat="44.78331" lon="3.18231">
        <ele>1221.3</ele>
        <time>2022-03-26T14:00:46Z</time>
      </trkpt>
      <trkpt lat="44.78327" lon="3.1824">
        <ele>1221.2</ele>
        <time>2022-03-26T14:00:51Z</time>
      </trkpt>
      <trkpt lat="44.78325" lon="3.18252">
        <ele>1221.2</ele>
        <time>2022-03-26T14:00:56Z</time>
      </trkpt>
      <trkpt lat="44.7832" lon="3.18261">
        <ele>1221.3</ele>
        <time>2022-03-26T14:01:01Z</time>
      </trkpt>
      <trkpt lat="44.78316" lon="3.1827">
        <ele>1221.3</ele>
        <time>2022-03-26T14:01:09Z</time>
      </trkpt>
      <trkpt lat="44.78311" lon="3.18279">
        <ele>1221.3</ele>
        <time>2022-03-26T14:01:14Z</time>
      </trkpt>
      <trkpt lat="44.78307" lon="3.1829">
        <ele>1221.3</ele>
        <time>2022-03-26T14:01:20Z</time>
      </trkpt>
      <trkpt lat="44.78304" lon="3.18299">
        <ele>1221.3</ele>
        <time>2022-03-26T14:01:25Z</time>
      </trkpt>
      <trkpt lat="44.78303" lon="3.1831">
        <ele>1221.2</ele>
        <time>2022-03-26T14:01:30Z</time>
      </trkpt>
      <trkpt lat="44.78302" lon="3.18321">
        <ele>1221.1</ele>
        <time>2022-03-26T14:01:35Z</time>
      </trkpt>
      <trkpt lat="44.78298" lon="3.18328">
        <ele>1221.1</ele>
        <time>2022-03-26T14:01:40Z</time>
      </trkpt>
      <trkpt lat="44.78296" lon="3.18337">
        <ele>1221</ele>
        <time>2022-03-26T14:01:45Z</time>
      </trkpt>
      <trkpt lat="44.7829" lon="3.18343">
        <ele>1220.9</ele>
        <time>2022-03-26T14:01:50Z</time>
      </trkpt>
      <trkpt lat="44.78287" lon="3.18353">
        <ele>1220.9</ele>
        <time>2022-03-26T14:01:56Z</time>
      </trkpt>
      <trkpt lat="44.78283" lon="3.18361">
        <ele>1220.9</ele>
        <time>2022-03-26T14:02:01Z</time>
      </trkpt>
      <trkpt lat="44.78278" lon="3.18367">
        <ele>1220.9</ele>
        <time>2022-03-26T14:02:06Z</time>
      </trkpt>
      <trkpt lat="44.78273" lon="3.18375">
        <ele>1220.9</ele>
        <time>2022-03-26T14:02:13Z</time>
      </trkpt>
      <trkpt lat="44.78266" lon="3.18381">
        <ele>1220.9</ele>
        <time>2022-03-26T14:02:18Z</time>
      </trkpt>
      <trkpt lat="44.78261" lon="3.18389">
        <ele>1220.9</ele>
        <time>2022-03-26T14:02:23Z</time>
      </trkpt>
      <trkpt lat="44.78256" lon="3.18397">
        <ele>1220.9</ele>
        <time>2022-03-26T14:02:28Z</time>
      </trkpt>
      <trkpt lat="44.78251" lon="3.18405">
        <ele>1221</ele>
        <time>2022-03-26T14:02:33Z</time>
      </trkpt>
      <trkpt lat="44.78245" lon="3.1841">
        <ele>1220.9</ele>
        <time>2022-03-26T14:02:38Z</time>
      </trkpt>
      <trkpt lat="44.78241" lon="3.18417">
        <ele>1220.9</ele>
        <time>2022-03-26T14:02:43Z</time>
      </trkpt>
      <trkpt lat="44.78237" lon="3.18427">
        <ele>1220.7</ele>
        <time>2022-03-26T14:02:49Z</time>
      </trkpt>
      <trkpt lat="44.78231" lon="3.18435">
        <ele>1220.6</ele>
        <time>2022-03-26T14:02:54Z</time>
      </trkpt>
      <trkpt lat="44.78227" lon="3.18443">
        <ele>1220.5</ele>
        <time>2022-03-26T14:02:59Z</time>
      </trkpt>
      <trkpt lat="44.78225" lon="3.18455">
        <ele>1220.4</ele>
        <time>2022-03-26T14:03:04Z</time>
      </trkpt>
      <trkpt lat="44.78224" lon="3.18466">
        <ele>1220.3</ele>
        <time>2022-03-26T14:03:10Z</time>
      </trkpt>
      <trkpt lat="44.78221" lon="3.18476">
        <ele>1220.2</ele>
        <time>2022-03-26T14:03:16Z</time>
      </trkpt>
      <trkpt lat="44.78215" lon="3.18483">
        <ele>1220.1</ele>
        <time>2022-03-26T14:03:21Z</time>
      </trkpt>
      <trkpt lat="44.7821" lon="3.1849">
        <ele>1220.1</ele>
        <time>2022-03-26T14:03:27Z</time>
      </trkpt>
      <trkpt lat="44.78207" lon="3.18499">
        <ele>1220</ele>
        <time>2022-03-26T14:03:32Z</time>
      </trkpt>
      <trkpt lat="44.78202" lon="3.18504">
        <ele>1219.9</ele>
        <time>2022-03-26T14:03:37Z</time>
      </trkpt>
      <trkpt lat="44.78196" lon="3.1851">
        <ele>1219.8</ele>
        <time>2022-03-26T14:03:43Z</time>
      </trkpt>
      <trkpt lat="44.78194" lon="3.18519">
        <ele>1219.7</ele>
        <time>2022-03-26T14:03:48Z</time>
      </trkpt>
      <trkpt lat="44.7819" lon="3.18529">
        <ele>1219.6</ele>
        <time>2022-03-26T14:03:53Z</time>
      </trkpt>
      <trkpt lat="44.78184" lon="3.18537">
        <ele>1219.5</ele>
        <time>2022-03-26T14:03:58Z</time>
      </trkpt>
      <trkpt lat="44.78178" lon="3.18541">
        <ele>1219.4</ele>
        <time>2022-03-26T14:04:04Z</time>
      </trkpt>
      <trkpt lat="44.78184" lon="3.18549">
        <ele>1219.3</ele>
        <time>2022-03-26T14:04:53Z</time>
      </trkpt>
      <trkpt lat="44.78176" lon="3.18543">
        <ele>1219.4</ele>
        <time>2022-03-26T14:05:27Z</time>
      </trkpt>
      <trkpt lat="44.78181" lon="3.18553">
        <ele>1219.3</ele>
        <time>2022-03-26T14:12:09Z</time>
      </trkpt>
      <trkpt lat="44.7818" lon="3.18563">
        <ele>1219.1</ele>
        <time>2022-03-26T14:14:35Z</time>
      </trkpt>
      <trkpt lat="44.78176" lon="3.1857">
        <ele>1219.1</ele>
        <time>2022-03-26T14:14:40Z</time>
      </trkpt>
      <trkpt lat="44.78173" lon="3.18579">
        <ele>1219</ele>
        <time>2022-03-26T14:14:45Z</time>
      </trkpt>
      <trkpt lat="44.78168" lon="3.18588">
        <ele>1219</ele>
        <time>2022-03-26T14:14:51Z</time>
      </trkpt>
      <trkpt lat="44.78163" lon="3.18597">
        <ele>1219.1</ele>
        <time>2022-03-26T14:14:56Z</time>
      </trkpt>
      <trkpt lat="44.7816" lon="3.18607">
        <ele>1219.3</ele>
        <time>2022-03-26T14:15:02Z</time>
      </trkpt>
      <trkpt lat="44.78155" lon="3.18614">
        <ele>1219.5</ele>
        <time>2022-03-26T14:15:07Z</time>
      </trkpt>
      <trkpt lat="44.78148" lon="3.1861">
        <ele>1219.7</ele>
        <time>2022-03-26T14:15:25Z</time>
      </trkpt>
      <trkpt lat="44.7815" lon="3.186">
        <ele>1219.6</ele>
        <time>2022-03-26T14:15:31Z</time>
      </trkpt>
      <trkpt lat="44.7815" lon="3.1859">
        <ele>1219.6</ele>
        <time>2022-03-26T14:15:39Z</time>
      </trkpt>
      <trkpt lat="44.78147" lon="3.18582">
        <ele>1219.7</ele>
        <time>2022-03-26T14:15:44Z</time>
      </trkpt>
      <trkpt lat="44.78144" lon="3.18568">
        <ele>1219.8</ele>
        <time>2022-03-26T14:15:49Z</time>
      </trkpt>
      <trkpt lat="44.78141" lon="3.1856">
        <ele>1219.9</ele>
        <time>2022-03-26T14:15:55Z</time>
      </trkpt>
      <trkpt lat="44.7814" lon="3.1855">
        <ele>1219.8</ele>
        <time>2022-03-26T14:16:00Z</time>
      </trkpt>
      <trkpt lat="44.78143" lon="3.18542">
        <ele>1219.8</ele>
        <time>2022-03-26T14:16:05Z</time>
      </trkpt>
      <trkpt lat="44.7814" lon="3.18532">
        <ele>1219.8</ele>
        <time>2022-03-26T14:16:11Z</time>
      </trkpt>
      <trkpt lat="44.78135" lon="3.18524">
        <ele>1219.8</ele>
        <time>2022-03-26T14:16:18Z</time>
      </trkpt>
      <trkpt lat="44.78135" lon="3.18515">
        <ele>1219.7</ele>
        <time>2022-03-26T14:16:26Z</time>
      </trkpt>
      <trkpt lat="44.78137" lon="3.18503">
        <ele>1219.7</ele>
        <time>2022-03-26T14:16:31Z</time>
      </trkpt>
      <trkpt lat="44.78136" lon="3.18493">
        <ele>1219.5</ele>
        <time>2022-03-26T14:16:36Z</time>
      </trkpt>
      <trkpt lat="44.78132" lon="3.18483">
        <ele>1219.2</ele>
        <time>2022-03-26T14:16:42Z</time>
      </trkpt>
      <trkpt lat="44.78133" lon="3.18471">
        <ele>1219</ele>
        <time>2022-03-26T14:16:48Z</time>
      </trkpt>
      <trkpt lat="44.7813" lon="3.1846">
        <ele>1218.7</ele>
        <time>2022-03-26T14:16:53Z</time>
      </trkpt>
      <trkpt lat="44.78124" lon="3.18465">
        <ele>1218.6</ele>
        <time>2022-03-26T14:17:01Z</time>
      </trkpt>
      <trkpt lat="44.78118" lon="3.18472">
        <ele>1218.6</ele>
        <time>2022-03-26T14:17:06Z</time>
      </trkpt>
      <trkpt lat="44.78114" lon="3.18482">
        <ele>1218.8</ele>
        <time>2022-03-26T14:17:11Z</time>
      </trkpt>
      <trkpt lat="44.78109" lon="3.18489">
        <ele>1218.9</ele>
        <time>2022-03-26T14:17:16Z</time>
      </trkpt>
      <trkpt lat="44.78102" lon="3.18497">
        <ele>1219.1</ele>
        <time>2022-03-26T14:17:21Z</time>
      </trkpt>
      <trkpt lat="44.78096" lon="3.18505">
        <ele>1219.3</ele>
        <time>2022-03-26T14:17:26Z</time>
      </trkpt>
      <trkpt lat="44.78093" lon="3.18515">
        <ele>1219.6</ele>
        <time>2022-03-26T14:17:31Z</time>
      </trkpt>
      <trkpt lat="44.78091" lon="3.18524">
        <ele>1219.9</ele>
        <time>2022-03-26T14:17:41Z</time>
      </trkpt>
      <trkpt lat="44.78084" lon="3.18519">
        <ele>1219.7</ele>
        <time>2022-03-26T14:18:37Z</time>
      </trkpt>
      <trkpt lat="44.78095" lon="3.18525">
        <ele>1219.9</ele>
        <time>2022-03-26T14:18:51Z</time>
      </trkpt>
      <trkpt lat="44.78086" lon="3.18521">
        <ele>1219.8</ele>
        <time>2022-03-26T14:19:11Z</time>
      </trkpt>
      <trkpt lat="44.78086" lon="3.18531">
        <ele>1220.1</ele>
        <time>2022-03-26T14:19:25Z</time>
      </trkpt>
      <trkpt lat="44.7808" lon="3.18539">
        <ele>1220.5</ele>
        <time>2022-03-26T14:19:30Z</time>
      </trkpt>
      <trkpt lat="44.78074" lon="3.18545">
        <ele>1220.8</ele>
        <time>2022-03-26T14:19:35Z</time>
      </trkpt>
      <trkpt lat="44.7807" lon="3.18554">
        <ele>1221.3</ele>
        <time>2022-03-26T14:19:41Z</time>
      </trkpt>
      <trkpt lat="44.78064" lon="3.18563">
        <ele>1221.7</ele>
        <time>2022-03-26T14:19:46Z</time>
      </trkpt>
      <trkpt lat="44.78056" lon="3.18568">
        <ele>1222.1</ele>
        <time>2022-03-26T14:19:51Z</time>
      </trkpt>
      <trkpt lat="44.78047" lon="3.18577">
        <ele>1222.6</ele>
        <time>2022-03-26T14:19:56Z</time>
      </trkpt>
      <trkpt lat="44.7804" lon="3.18581">
        <ele>1223</ele>
        <time>2022-03-26T14:20:01Z</time>
      </trkpt>
      <trkpt lat="44.78033" lon="3.18585">
        <ele>1223.3</ele>
        <time>2022-03-26T14:20:06Z</time>
      </trkpt>
      <trkpt lat="44.78025" lon="3.18588">
        <ele>1223.5</ele>
        <time>2022-03-26T14:20:11Z</time>
      </trkpt>
      <trkpt lat="44.78016" lon="3.18594">
        <ele>1224</ele>
        <time>2022-03-26T14:20:16Z</time>
      </trkpt>
      <trkpt lat="44.78008" lon="3.18596">
        <ele>1224.2</ele>
        <time>2022-03-26T14:20:21Z</time>
      </trkpt>
      <trkpt lat="44.78001" lon="3.18597">
        <ele>1224.5</ele>
        <time>2022-03-26T14:20:26Z</time>
      </trkpt>
      <trkpt lat="44.77994" lon="3.186">
        <ele>1224.7</ele>
        <time>2022-03-26T14:20:33Z</time>
      </trkpt>
      <trkpt lat="44.77982" lon="3.18602">
        <ele>1224.9</ele>
        <time>2022-03-26T14:20:38Z</time>
      </trkpt>
      <trkpt lat="44.77975" lon="3.18603">
        <ele>1225.1</ele>
        <time>2022-03-26T14:20:43Z</time>
      </trkpt>
      <trkpt lat="44.77967" lon="3.18611">
        <ele>1225.5</ele>
        <time>2022-03-26T14:20:48Z</time>
      </trkpt>
      <trkpt lat="44.7796" lon="3.18611">
        <ele>1225.6</ele>
        <time>2022-03-26T14:20:54Z</time>
      </trkpt>
      <trkpt lat="44.77952" lon="3.18613">
        <ele>1225.8</ele>
        <time>2022-03-26T14:20:59Z</time>
      </trkpt>
      <trkpt lat="44.77945" lon="3.18613">
        <ele>1226</ele>
        <time>2022-03-26T14:21:04Z</time>
      </trkpt>
      <trkpt lat="44.77939" lon="3.18615">
        <ele>1226.2</ele>
        <time>2022-03-26T14:21:10Z</time>
      </trkpt>
      <trkpt lat="44.77932" lon="3.18618">
        <ele>1226.4</ele>
        <time>2022-03-26T14:21:15Z</time>
      </trkpt>
      <trkpt lat="44.77923" lon="3.18618">
        <ele>1226.6</ele>
        <time>2022-03-26T14:21:20Z</time>
      </trkpt>
      <trkpt lat="44.77917" lon="3.1862">
        <ele>1226.8</ele>
        <time>2022-03-26T14:21:27Z</time>
      </trkpt>
      <trkpt lat="44.77911" lon="3.18623">
        <ele>1226.9</ele>
        <time>2022-03-26T14:21:32Z</time>
      </trkpt>
      <trkpt lat="44.77903" lon="3.18626">
        <ele>1227</ele>
        <time>2022-03-26T14:21:37Z</time>
      </trkpt>
      <trkpt lat="44.779" lon="3.18634">
        <ele>1227.3</ele>
        <time>2022-03-26T14:22:15Z</time>
      </trkpt>
      <trkpt lat="44.77891" lon="3.18632">
        <ele>1227.2</ele>
        <time>2022-03-26T14:22:21Z</time>
      </trkpt>
      <trkpt lat="44.77881" lon="3.18635">
        <ele>1227.2</ele>
        <time>2022-03-26T14:22:26Z</time>
      </trkpt>
      <trkpt lat="44.77874" lon="3.1864">
        <ele>1227.4</ele>
        <time>2022-03-26T14:22:31Z</time>
      </trkpt>
      <trkpt lat="44.77866" lon="3.18644">
        <ele>1227.5</ele>
        <time>2022-03-26T14:22:38Z</time>
      </trkpt>
      <trkpt lat="44.77858" lon="3.18649">
        <ele>1227.6</ele>
        <time>2022-03-26T14:22:43Z</time>
      </trkpt>
      <trkpt lat="44.7785" lon="3.18648">
        <ele>1227.5</ele>
        <time>2022-03-26T14:22:49Z</time>
      </trkpt>
      <trkpt lat="44.77844" lon="3.18657">
        <ele>1227.8</ele>
        <time>2022-03-26T14:22:54Z</time>
      </trkpt>
      <trkpt lat="44.77835" lon="3.18661">
        <ele>1227.8</ele>
        <time>2022-03-26T14:22:59Z</time>
      </trkpt>
      <trkpt lat="44.77829" lon="3.18669">
        <ele>1228</ele>
        <time>2022-03-26T14:23:05Z</time>
      </trkpt>
      <trkpt lat="44.77822" lon="3.18674">
        <ele>1228.2</ele>
        <time>2022-03-26T14:23:10Z</time>
      </trkpt>
      <trkpt lat="44.77815" lon="3.18678">
        <ele>1228.2</ele>
        <time>2022-03-26T14:23:15Z</time>
      </trkpt>
      <trkpt lat="44.77808" lon="3.18681">
        <ele>1228.2</ele>
        <time>2022-03-26T14:23:20Z</time>
      </trkpt>
      <trkpt lat="44.77799" lon="3.18684">
        <ele>1228.1</ele>
        <time>2022-03-26T14:23:25Z</time>
      </trkpt>
      <trkpt lat="44.77791" lon="3.18685">
        <ele>1228</ele>
        <time>2022-03-26T14:23:30Z</time>
      </trkpt>
      <trkpt lat="44.77785" lon="3.18689">
        <ele>1228</ele>
        <time>2022-03-26T14:23:35Z</time>
      </trkpt>
      <trkpt lat="44.77775" lon="3.18691">
        <ele>1227.9</ele>
        <time>2022-03-26T14:23:40Z</time>
      </trkpt>
      <trkpt lat="44.77767" lon="3.1869">
        <ele>1227.6</ele>
        <time>2022-03-26T14:23:45Z</time>
      </trkpt>
      <trkpt lat="44.77757" lon="3.1869">
        <ele>1227.3</ele>
        <time>2022-03-26T14:23:50Z</time>
      </trkpt>
      <trkpt lat="44.7775" lon="3.18695">
        <ele>1227.4</ele>
        <time>2022-03-26T14:23:57Z</time>
      </trkpt>
      <trkpt lat="44.77743" lon="3.18695">
        <ele>1227.6</ele>
        <time>2022-03-26T14:24:04Z</time>
      </trkpt>
      <trkpt lat="44.77735" lon="3.18699">
        <ele>1228.1</ele>
        <time>2022-03-26T14:24:09Z</time>
      </trkpt>
      <trkpt lat="44.77728" lon="3.18706">
        <ele>1228.6</ele>
        <time>2022-03-26T14:24:14Z</time>
      </trkpt>
      <trkpt lat="44.77723" lon="3.18714">
        <ele>1229</ele>
        <time>2022-03-26T14:24:19Z</time>
      </trkpt>
      <trkpt lat="44.77716" lon="3.18715">
        <ele>1229.2</ele>
        <time>2022-03-26T14:24:24Z</time>
      </trkpt>
      <trkpt lat="44.77707" lon="3.18718">
        <ele>1229.6</ele>
        <time>2022-03-26T14:24:29Z</time>
      </trkpt>
      <trkpt lat="44.77701" lon="3.18726">
        <ele>1229.9</ele>
        <time>2022-03-26T14:24:35Z</time>
      </trkpt>
      <trkpt lat="44.77693" lon="3.18731">
        <ele>1230.2</ele>
        <time>2022-03-26T14:24:40Z</time>
      </trkpt>
      <trkpt lat="44.77686" lon="3.18736">
        <ele>1230.5</ele>
        <time>2022-03-26T14:24:45Z</time>
      </trkpt>
      <trkpt lat="44.77681" lon="3.18745">
        <ele>1230.7</ele>
        <time>2022-03-26T14:24:52Z</time>
      </trkpt>
      <trkpt lat="44.77673" lon="3.18753">
        <ele>1231</ele>
        <time>2022-03-26T14:24:57Z</time>
      </trkpt>
      <trkpt lat="44.77669" lon="3.18761">
        <ele>1231.1</ele>
        <time>2022-03-26T14:25:02Z</time>
      </trkpt>
      <trkpt lat="44.77661" lon="3.18766">
        <ele>1231.4</ele>
        <time>2022-03-26T14:25:07Z</time>
      </trkpt>
      <trkpt lat="44.77655" lon="3.18779">
        <ele>1231.7</ele>
        <time>2022-03-26T14:25:12Z</time>
      </trkpt>
      <trkpt lat="44.77649" lon="3.18785">
        <ele>1231.9</ele>
        <time>2022-03-26T14:25:17Z</time>
      </trkpt>
      <trkpt lat="44.77643" lon="3.18793">
        <ele>1232.1</ele>
        <time>2022-03-26T14:25:22Z</time>
      </trkpt>
      <trkpt lat="44.77638" lon="3.188">
        <ele>1232.2</ele>
        <time>2022-03-26T14:25:30Z</time>
      </trkpt>
      <trkpt lat="44.77632" lon="3.18804">
        <ele>1232.4</ele>
        <time>2022-03-26T14:25:48Z</time>
      </trkpt>
      <trkpt lat="44.77625" lon="3.1881">
        <ele>1232.5</ele>
        <time>2022-03-26T14:25:53Z</time>
      </trkpt>
      <trkpt lat="44.7762" lon="3.18816">
        <ele>1232.6</ele>
        <time>2022-03-26T14:25:58Z</time>
      </trkpt>
      <trkpt lat="44.77613" lon="3.18817">
        <ele>1232.7</ele>
        <time>2022-03-26T14:26:03Z</time>
      </trkpt>
      <trkpt lat="44.77605" lon="3.18821">
        <ele>1232.8</ele>
        <time>2022-03-26T14:26:08Z</time>
      </trkpt>
      <trkpt lat="44.77597" lon="3.18821">
        <ele>1232.9</ele>
        <time>2022-03-26T14:26:13Z</time>
      </trkpt>
      <trkpt lat="44.7759" lon="3.1882">
        <ele>1233.1</ele>
        <time>2022-03-26T14:26:18Z</time>
      </trkpt>
      <trkpt lat="44.77582" lon="3.18817">
        <ele>1233.2</ele>
        <time>2022-03-26T14:26:23Z</time>
      </trkpt>
      <trkpt lat="44.77573" lon="3.18816">
        <ele>1233.1</ele>
        <time>2022-03-26T14:26:28Z</time>
      </trkpt>
      <trkpt lat="44.77566" lon="3.18819">
        <ele>1233</ele>
        <time>2022-03-26T14:26:33Z</time>
      </trkpt>
      <trkpt lat="44.77559" lon="3.1882">
        <ele>1232.9</ele>
        <time>2022-03-26T14:26:41Z</time>
      </trkpt>
      <trkpt lat="44.77552" lon="3.18823">
        <ele>1232.8</ele>
        <time>2022-03-26T14:26:47Z</time>
      </trkpt>
      <trkpt lat="44.77544" lon="3.18828">
        <ele>1232.6</ele>
        <time>2022-03-26T14:26:52Z</time>
      </trkpt>
      <trkpt lat="44.77535" lon="3.18833">
        <ele>1232.4</ele>
        <time>2022-03-26T14:27:00Z</time>
      </trkpt>
      <trkpt lat="44.77527" lon="3.18832">
        <ele>1232.4</ele>
        <time>2022-03-26T14:27:05Z</time>
      </trkpt>
      <trkpt lat="44.7752" lon="3.18836">
        <ele>1232.2</ele>
        <time>2022-03-26T14:27:18Z</time>
      </trkpt>
      <trkpt lat="44.77514" lon="3.1884">
        <ele>1232.1</ele>
        <time>2022-03-26T14:27:23Z</time>
      </trkpt>
      <trkpt lat="44.77505" lon="3.18839">
        <ele>1232</ele>
        <time>2022-03-26T14:27:28Z</time>
      </trkpt>
      <trkpt lat="44.77497" lon="3.18837">
        <ele>1232.1</ele>
        <time>2022-03-26T14:27:33Z</time>
      </trkpt>
      <trkpt lat="44.7749" lon="3.18838">
        <ele>1232.3</ele>
        <time>2022-03-26T14:27:40Z</time>
      </trkpt>
      <trkpt lat="44.77483" lon="3.18838">
        <ele>1232.6</ele>
        <time>2022-03-26T14:27:45Z</time>
      </trkpt>
      <trkpt lat="44.77475" lon="3.18841">
        <ele>1232.8</ele>
        <time>2022-03-26T14:28:02Z</time>
      </trkpt>
      <trkpt lat="44.77466" lon="3.18844">
        <ele>1233.1</ele>
        <time>2022-03-26T14:28:07Z</time>
      </trkpt>
      <trkpt lat="44.77457" lon="3.18839">
        <ele>1233.5</ele>
        <time>2022-03-26T14:28:12Z</time>
      </trkpt>
      <trkpt lat="44.7745" lon="3.18841">
        <ele>1233.7</ele>
        <time>2022-03-26T14:28:32Z</time>
      </trkpt>
      <trkpt lat="44.77443" lon="3.18844">
        <ele>1233.9</ele>
        <time>2022-03-26T14:28:38Z</time>
      </trkpt>
      <trkpt lat="44.77434" lon="3.18842">
        <ele>1234.3</ele>
        <time>2022-03-26T14:28:43Z</time>
      </trkpt>
      <trkpt lat="44.77426" lon="3.18842">
        <ele>1234.6</ele>
        <time>2022-03-26T14:28:48Z</time>
      </trkpt>
      <trkpt lat="44.77416" lon="3.18845">
        <ele>1234.9</ele>
        <time>2022-03-26T14:28:53Z</time>
      </trkpt>
      <trkpt lat="44.77409" lon="3.18847">
        <ele>1235.8</ele>
        <time>2022-03-26T14:28:58Z</time>
      </trkpt>
      <trkpt lat="44.77402" lon="3.18849">
        <ele>1236.6</ele>
        <time>2022-03-26T14:29:04Z</time>
      </trkpt>
      <trkpt lat="44.77394" lon="3.18853">
        <ele>1237.5</ele>
        <time>2022-03-26T14:29:09Z</time>
      </trkpt>
      <trkpt lat="44.77385" lon="3.18853">
        <ele>1238.6</ele>
        <time>2022-03-26T14:29:14Z</time>
      </trkpt>
      <trkpt lat="44.77378" lon="3.18855">
        <ele>1239.4</ele>
        <time>2022-03-26T14:29:21Z</time>
      </trkpt>
      <trkpt lat="44.77369" lon="3.18858">
        <ele>1240.4</ele>
        <time>2022-03-26T14:29:26Z</time>
      </trkpt>
      <trkpt lat="44.77363" lon="3.1886">
        <ele>1241.1</ele>
        <time>2022-03-26T14:29:31Z</time>
      </trkpt>
      <trkpt lat="44.77354" lon="3.18864">
        <ele>1242.2</ele>
        <time>2022-03-26T14:29:36Z</time>
      </trkpt>
      <trkpt lat="44.77346" lon="3.18865">
        <ele>1243.1</ele>
        <time>2022-03-26T14:29:41Z</time>
      </trkpt>
      <trkpt lat="44.77338" lon="3.18871">
        <ele>1244</ele>
        <time>2022-03-26T14:29:48Z</time>
      </trkpt>
      <trkpt lat="44.77331" lon="3.18876">
        <ele>1244.7</ele>
        <time>2022-03-26T14:29:53Z</time>
      </trkpt>
      <trkpt lat="44.77325" lon="3.18881">
        <ele>1245.1</ele>
        <time>2022-03-26T14:29:59Z</time>
      </trkpt>
      <trkpt lat="44.77318" lon="3.18885">
        <ele>1245.6</ele>
        <time>2022-03-26T14:30:05Z</time>
      </trkpt>
      <trkpt lat="44.77311" lon="3.18888">
        <ele>1246</ele>
        <time>2022-03-26T14:30:13Z</time>
      </trkpt>
      <trkpt lat="44.77304" lon="3.18895">
        <ele>1246.5</ele>
        <time>2022-03-26T14:30:19Z</time>
      </trkpt>
      <trkpt lat="44.77297" lon="3.18896">
        <ele>1247</ele>
        <time>2022-03-26T14:30:27Z</time>
      </trkpt>
      <trkpt lat="44.7729" lon="3.18905">
        <ele>1247.3</ele>
        <time>2022-03-26T14:30:32Z</time>
      </trkpt>
      <trkpt lat="44.77283" lon="3.18909">
        <ele>1247.8</ele>
        <time>2022-03-26T14:30:38Z</time>
      </trkpt>
      <trkpt lat="44.77276" lon="3.18912">
        <ele>1248.2</ele>
        <time>2022-03-26T14:30:46Z</time>
      </trkpt>
      <trkpt lat="44.7727" lon="3.18918">
        <ele>1248.6</ele>
        <time>2022-03-26T14:30:51Z</time>
      </trkpt>
      <trkpt lat="44.77263" lon="3.18919">
        <ele>1249.1</ele>
        <time>2022-03-26T14:30:57Z</time>
      </trkpt>
      <trkpt lat="44.77256" lon="3.18923">
        <ele>1249.7</ele>
        <time>2022-03-26T14:31:02Z</time>
      </trkpt>
      <trkpt lat="44.7725" lon="3.18926">
        <ele>1250.2</ele>
        <time>2022-03-26T14:31:10Z</time>
      </trkpt>
      <trkpt lat="44.77246" lon="3.18935">
        <ele>1250.6</ele>
        <time>2022-03-26T14:31:16Z</time>
      </trkpt>
      <trkpt lat="44.7724" lon="3.1894">
        <ele>1251</ele>
        <time>2022-03-26T14:31:23Z</time>
      </trkpt>
      <trkpt lat="44.77231" lon="3.1894">
        <ele>1251.4</ele>
        <time>2022-03-26T14:31:29Z</time>
      </trkpt>
      <trkpt lat="44.77226" lon="3.18947">
        <ele>1251.8</ele>
        <time>2022-03-26T14:31:36Z</time>
      </trkpt>
      <trkpt lat="44.77217" lon="3.18954">
        <ele>1252.3</ele>
        <time>2022-03-26T14:31:41Z</time>
      </trkpt>
      <trkpt lat="44.77211" lon="3.1896">
        <ele>1252.7</ele>
        <time>2022-03-26T14:31:54Z</time>
      </trkpt>
      <trkpt lat="44.77204" lon="3.18964">
        <ele>1253</ele>
        <time>2022-03-26T14:32:02Z</time>
      </trkpt>
      <trkpt lat="44.77198" lon="3.18968">
        <ele>1253.3</ele>
        <time>2022-03-26T14:32:07Z</time>
      </trkpt>
      <trkpt lat="44.7719" lon="3.1897">
        <ele>1253.7</ele>
        <time>2022-03-26T14:32:13Z</time>
      </trkpt>
      <trkpt lat="44.77186" lon="3.18976">
        <ele>1253.9</ele>
        <time>2022-03-26T14:32:20Z</time>
      </trkpt>
      <trkpt lat="44.77179" lon="3.18978">
        <ele>1254.3</ele>
        <time>2022-03-26T14:32:27Z</time>
      </trkpt>
      <trkpt lat="44.77173" lon="3.18983">
        <ele>1254.6</ele>
        <time>2022-03-26T14:32:32Z</time>
      </trkpt>
      <trkpt lat="44.77166" lon="3.18988">
        <ele>1254.9</ele>
        <time>2022-03-26T14:32:39Z</time>
      </trkpt>
      <trkpt lat="44.77162" lon="3.18995">
        <ele>1255.1</ele>
        <time>2022-03-26T14:32:47Z</time>
      </trkpt>
      <trkpt lat="44.77155" lon="3.19">
        <ele>1255.4</ele>
        <time>2022-03-26T14:32:54Z</time>
      </trkpt>
      <trkpt lat="44.77151" lon="3.19006">
        <ele>1255.7</ele>
        <time>2022-03-26T14:33:01Z</time>
      </trkpt>
      <trkpt lat="44.77145" lon="3.19011">
        <ele>1256</ele>
        <time>2022-03-26T14:33:07Z</time>
      </trkpt>
      <trkpt lat="44.7714" lon="3.19019">
        <ele>1256.3</ele>
        <time>2022-03-26T14:33:14Z</time>
      </trkpt>
      <trkpt lat="44.77136" lon="3.19026">
        <ele>1256.5</ele>
        <time>2022-03-26T14:33:19Z</time>
      </trkpt>
      <trkpt lat="44.7713" lon="3.19033">
        <ele>1256.8</ele>
        <time>2022-03-26T14:33:26Z</time>
      </trkpt>
      <trkpt lat="44.77125" lon="3.1904">
        <ele>1257</ele>
        <time>2022-03-26T14:33:32Z</time>
      </trkpt>
      <trkpt lat="44.77121" lon="3.19047">
        <ele>1257.2</ele>
        <time>2022-03-26T14:33:38Z</time>
      </trkpt>
      <trkpt lat="44.77114" lon="3.19054">
        <ele>1257.4</ele>
        <time>2022-03-26T14:33:44Z</time>
      </trkpt>
      <trkpt lat="44.77111" lon="3.19061">
        <ele>1257.5</ele>
        <time>2022-03-26T14:33:50Z</time>
      </trkpt>
      <trkpt lat="44.77107" lon="3.19069">
        <ele>1257.6</ele>
        <time>2022-03-26T14:33:56Z</time>
      </trkpt>
      <trkpt lat="44.77102" lon="3.19077">
        <ele>1257.7</ele>
        <time>2022-03-26T14:34:02Z</time>
      </trkpt>
      <trkpt lat="44.77099" lon="3.19086">
        <ele>1257.8</ele>
        <time>2022-03-26T14:34:09Z</time>
      </trkpt>
      <trkpt lat="44.77094" lon="3.19095">
        <ele>1258</ele>
        <time>2022-03-26T14:34:15Z</time>
      </trkpt>
      <trkpt lat="44.77092" lon="3.19104">
        <ele>1258</ele>
        <time>2022-03-26T14:34:20Z</time>
      </trkpt>
      <trkpt lat="44.7709" lon="3.19115">
        <ele>1258.1</ele>
        <time>2022-03-26T14:34:26Z</time>
      </trkpt>
      <trkpt lat="44.77085" lon="3.1912">
        <ele>1258</ele>
        <time>2022-03-26T14:34:32Z</time>
      </trkpt>
      <trkpt lat="44.77082" lon="3.1913">
        <ele>1258</ele>
        <time>2022-03-26T14:34:38Z</time>
      </trkpt>
      <trkpt lat="44.77079" lon="3.19139">
        <ele>1258</ele>
        <time>2022-03-26T14:34:43Z</time>
      </trkpt>
      <trkpt lat="44.77075" lon="3.19146">
        <ele>1257.9</ele>
        <time>2022-03-26T14:34:49Z</time>
      </trkpt>
      <trkpt lat="44.77072" lon="3.19155">
        <ele>1257.9</ele>
        <time>2022-03-26T14:34:54Z</time>
      </trkpt>
      <trkpt lat="44.77068" lon="3.19163">
        <ele>1257.8</ele>
        <time>2022-03-26T14:34:59Z</time>
      </trkpt>
      <trkpt lat="44.77064" lon="3.19171">
        <ele>1257.8</ele>
        <time>2022-03-26T14:35:04Z</time>
      </trkpt>
      <trkpt lat="44.7706" lon="3.19179">
        <ele>1257.8</ele>
        <time>2022-03-26T14:35:12Z</time>
      </trkpt>
      <trkpt lat="44.77056" lon="3.19186">
        <ele>1257.8</ele>
        <time>2022-03-26T14:35:36Z</time>
      </trkpt>
      <trkpt lat="44.77052" lon="3.19193">
        <ele>1257.7</ele>
        <time>2022-03-26T14:35:44Z</time>
      </trkpt>
      <trkpt lat="44.77047" lon="3.192">
        <ele>1257.6</ele>
        <time>2022-03-26T14:35:49Z</time>
      </trkpt>
      <trkpt lat="44.77044" lon="3.19208">
        <ele>1257.6</ele>
        <time>2022-03-26T14:36:33Z</time>
      </trkpt>
      <trkpt lat="44.77038" lon="3.19214">
        <ele>1257.4</ele>
        <time>2022-03-26T14:36:38Z</time>
      </trkpt>
      <trkpt lat="44.77033" lon="3.19222">
        <ele>1257.3</ele>
        <time>2022-03-26T14:36:44Z</time>
      </trkpt>
      <trkpt lat="44.77028" lon="3.1923">
        <ele>1257.1</ele>
        <time>2022-03-26T14:36:50Z</time>
      </trkpt>
      <trkpt lat="44.77024" lon="3.1924">
        <ele>1256.9</ele>
        <time>2022-03-26T14:36:55Z</time>
      </trkpt>
      <trkpt lat="44.7702" lon="3.19248">
        <ele>1256.7</ele>
        <time>2022-03-26T14:37:00Z</time>
      </trkpt>
      <trkpt lat="44.77014" lon="3.19257">
        <ele>1256.2</ele>
        <time>2022-03-26T14:37:05Z</time>
      </trkpt>
      <trkpt lat="44.7701" lon="3.19264">
        <ele>1255.8</ele>
        <time>2022-03-26T14:37:10Z</time>
      </trkpt>
      <trkpt lat="44.77003" lon="3.19272">
        <ele>1255.1</ele>
        <time>2022-03-26T14:37:15Z</time>
      </trkpt>
      <trkpt lat="44.76999" lon="3.19281">
        <ele>1254.5</ele>
        <time>2022-03-26T14:37:20Z</time>
      </trkpt>
      <trkpt lat="44.76993" lon="3.19286">
        <ele>1254</ele>
        <time>2022-03-26T14:37:25Z</time>
      </trkpt>
      <trkpt lat="44.76988" lon="3.19294">
        <ele>1253.4</ele>
        <time>2022-03-26T14:37:30Z</time>
      </trkpt>
      <trkpt lat="44.76984" lon="3.19302">
        <ele>1252.8</ele>
        <time>2022-03-26T14:37:35Z</time>
      </trkpt>
      <trkpt lat="44.76976" lon="3.19307">
        <ele>1252.2</ele>
        <time>2022-03-26T14:37:40Z</time>
      </trkpt>
      <trkpt lat="44.7697" lon="3.19315">
        <ele>1251.5</ele>
        <time>2022-03-26T14:37:45Z</time>
      </trkpt>
      <trkpt lat="44.76964" lon="3.19319">
        <ele>1251</ele>
        <time>2022-03-26T14:37:51Z</time>
      </trkpt>
      <trkpt lat="44.76957" lon="3.19324">
        <ele>1250.4</ele>
        <time>2022-03-26T14:37:59Z</time>
      </trkpt>
      <trkpt lat="44.76951" lon="3.19332">
        <ele>1249.7</ele>
        <time>2022-03-26T14:38:05Z</time>
      </trkpt>
      <trkpt lat="44.76945" lon="3.19339">
        <ele>1249.4</ele>
        <time>2022-03-26T14:38:10Z</time>
      </trkpt>
      <trkpt lat="44.76938" lon="3.19347">
        <ele>1249</ele>
        <time>2022-03-26T14:38:15Z</time>
      </trkpt>
      <trkpt lat="44.76934" lon="3.19354">
        <ele>1248.7</ele>
        <time>2022-03-26T14:38:20Z</time>
      </trkpt>
      <trkpt lat="44.76928" lon="3.19362">
        <ele>1248.3</ele>
        <time>2022-03-26T14:38:26Z</time>
      </trkpt>
      <trkpt lat="44.76923" lon="3.19368">
        <ele>1248</ele>
        <time>2022-03-26T14:38:32Z</time>
      </trkpt>
      <trkpt lat="44.76915" lon="3.19367">
        <ele>1247.5</ele>
        <time>2022-03-26T14:38:48Z</time>
      </trkpt>
      <trkpt lat="44.76911" lon="3.19377">
        <ele>1247.2</ele>
        <time>2022-03-26T14:38:55Z</time>
      </trkpt>
      <trkpt lat="44.76907" lon="3.19385">
        <ele>1246.9</ele>
        <time>2022-03-26T14:39:00Z</time>
      </trkpt>
      <trkpt lat="44.76902" lon="3.19394">
        <ele>1246.5</ele>
        <time>2022-03-26T14:39:05Z</time>
      </trkpt>
      <trkpt lat="44.76896" lon="3.19401">
        <ele>1246</ele>
        <time>2022-03-26T14:39:11Z</time>
      </trkpt>
      <trkpt lat="44.76892" lon="3.19411">
        <ele>1245.6</ele>
        <time>2022-03-26T14:39:16Z</time>
      </trkpt>
      <trkpt lat="44.76888" lon="3.1942">
        <ele>1245.3</ele>
        <time>2022-03-26T14:39:21Z</time>
      </trkpt>
      <trkpt lat="44.76887" lon="3.19431">
        <ele>1245.1</ele>
        <time>2022-03-26T14:39:26Z</time>
      </trkpt>
      <trkpt lat="44.76881" lon="3.19439">
        <ele>1244.6</ele>
        <time>2022-03-26T14:39:36Z</time>
      </trkpt>
      <trkpt lat="44.76874" lon="3.19437">
        <ele>1244.2</ele>
        <time>2022-03-26T14:40:28Z</time>
      </trkpt>
      <trkpt lat="44.76869" lon="3.19444">
        <ele>1243.8</ele>
        <time>2022-03-26T14:40:35Z</time>
      </trkpt>
      <trkpt lat="44.76868" lon="3.19458">
        <ele>1243.5</ele>
        <time>2022-03-26T14:40:40Z</time>
      </trkpt>
      <trkpt lat="44.76865" lon="3.19466">
        <ele>1243.2</ele>
        <time>2022-03-26T14:40:48Z</time>
      </trkpt>
      <trkpt lat="44.76863" lon="3.19476">
        <ele>1242.9</ele>
        <time>2022-03-26T14:40:54Z</time>
      </trkpt>
      <trkpt lat="44.7686" lon="3.19484">
        <ele>1242.5</ele>
        <time>2022-03-26T14:41:06Z</time>
      </trkpt>
      <trkpt lat="44.76857" lon="3.19494">
        <ele>1242.1</ele>
        <time>2022-03-26T14:41:11Z</time>
      </trkpt>
      <trkpt lat="44.76852" lon="3.19501">
        <ele>1241.6</ele>
        <time>2022-03-26T14:41:16Z</time>
      </trkpt>
      <trkpt lat="44.76847" lon="3.19511">
        <ele>1241.5</ele>
        <time>2022-03-26T14:41:21Z</time>
      </trkpt>
      <trkpt lat="44.76841" lon="3.19523">
        <ele>1241.4</ele>
        <time>2022-03-26T14:41:26Z</time>
      </trkpt>
      <trkpt lat="44.76834" lon="3.19531">
        <ele>1241.2</ele>
        <time>2022-03-26T14:41:31Z</time>
      </trkpt>
      <trkpt lat="44.7683" lon="3.19541">
        <ele>1241.4</ele>
        <time>2022-03-26T14:41:37Z</time>
      </trkpt>
      <trkpt lat="44.76826" lon="3.1955">
        <ele>1241.6</ele>
        <time>2022-03-26T14:41:42Z</time>
      </trkpt>
      <trkpt lat="44.76821" lon="3.19556">
        <ele>1241.7</ele>
        <time>2022-03-26T14:41:47Z</time>
      </trkpt>
      <trkpt lat="44.76818" lon="3.19566">
        <ele>1241.9</ele>
        <time>2022-03-26T14:41:52Z</time>
      </trkpt>
      <trkpt lat="44.76812" lon="3.19578">
        <ele>1242.1</ele>
        <time>2022-03-26T14:41:57Z</time>
      </trkpt>
      <trkpt lat="44.76808" lon="3.19587">
        <ele>1242</ele>
        <time>2022-03-26T14:42:03Z</time>
      </trkpt>
      <trkpt lat="44.76803" lon="3.19595">
        <ele>1241.8</ele>
        <time>2022-03-26T14:42:08Z</time>
      </trkpt>
      <trkpt lat="44.76798" lon="3.19605">
        <ele>1241.4</ele>
        <time>2022-03-26T14:42:13Z</time>
      </trkpt>
      <trkpt lat="44.76792" lon="3.19616">
        <ele>1240.9</ele>
        <time>2022-03-26T14:42:18Z</time>
      </trkpt>
      <trkpt lat="44.76787" lon="3.19625">
        <ele>1240.5</ele>
        <time>2022-03-26T14:42:23Z</time>
      </trkpt>
      <trkpt lat="44.76781" lon="3.19634">
        <ele>1240</ele>
        <time>2022-03-26T14:42:28Z</time>
      </trkpt>
      <trkpt lat="44.76774" lon="3.19641">
        <ele>1239.4</ele>
        <time>2022-03-26T14:42:33Z</time>
      </trkpt>
      <trkpt lat="44.76767" lon="3.19648">
        <ele>1238.8</ele>
        <time>2022-03-26T14:42:38Z</time>
      </trkpt>
      <trkpt lat="44.76763" lon="3.19658">
        <ele>1238.2</ele>
        <time>2022-03-26T14:42:44Z</time>
      </trkpt>
      <trkpt lat="44.76759" lon="3.19668">
        <ele>1237.6</ele>
        <time>2022-03-26T14:42:49Z</time>
      </trkpt>
      <trkpt lat="44.76754" lon="3.19678">
        <ele>1237.1</ele>
        <time>2022-03-26T14:42:54Z</time>
      </trkpt>
      <trkpt lat="44.76748" lon="3.19685">
        <ele>1236.7</ele>
        <time>2022-03-26T14:42:59Z</time>
      </trkpt>
      <trkpt lat="44.76744" lon="3.19693">
        <ele>1236.6</ele>
        <time>2022-03-26T14:43:04Z</time>
      </trkpt>
      <trkpt lat="44.76739" lon="3.19706">
        <ele>1236.4</ele>
        <time>2022-03-26T14:43:09Z</time>
      </trkpt>
      <trkpt lat="44.76734" lon="3.19717">
        <ele>1236.4</ele>
        <time>2022-03-26T14:43:14Z</time>
      </trkpt>
      <trkpt lat="44.76731" lon="3.19727">
        <ele>1236.4</ele>
        <time>2022-03-26T14:43:20Z</time>
      </trkpt>
      <trkpt lat="44.76727" lon="3.19735">
        <ele>1236.5</ele>
        <time>2022-03-26T14:43:25Z</time>
      </trkpt>
      <trkpt lat="44.76723" lon="3.19743">
        <ele>1236.6</ele>
        <time>2022-03-26T14:43:30Z</time>
      </trkpt>
      <trkpt lat="44.76723" lon="3.19753">
        <ele>1236.8</ele>
        <time>2022-03-26T14:43:35Z</time>
      </trkpt>
      <trkpt lat="44.76723" lon="3.19762">
        <ele>1237.2</ele>
        <time>2022-03-26T14:43:43Z</time>
      </trkpt>
      <trkpt lat="44.76719" lon="3.19771">
        <ele>1237.6</ele>
        <time>2022-03-26T14:44:02Z</time>
      </trkpt>
      <trkpt lat="44.76712" lon="3.19773">
        <ele>1237.8</ele>
        <time>2022-03-26T14:44:07Z</time>
      </trkpt>
      <trkpt lat="44.76707" lon="3.19782">
        <ele>1238.2</ele>
        <time>2022-03-26T14:44:14Z</time>
      </trkpt>
      <trkpt lat="44.76702" lon="3.1979">
        <ele>1238.4</ele>
        <time>2022-03-26T14:44:33Z</time>
      </trkpt>
      <trkpt lat="44.76698" lon="3.19797">
        <ele>1238.7</ele>
        <time>2022-03-26T14:44:38Z</time>
      </trkpt>
      <trkpt lat="44.76692" lon="3.19802">
        <ele>1238.8</ele>
        <time>2022-03-26T14:44:45Z</time>
      </trkpt>
      <trkpt lat="44.76685" lon="3.1981">
        <ele>1238.9</ele>
        <time>2022-03-26T14:44:50Z</time>
      </trkpt>
      <trkpt lat="44.7668" lon="3.19817">
        <ele>1239</ele>
        <time>2022-03-26T14:44:56Z</time>
      </trkpt>
      <trkpt lat="44.76674" lon="3.19825">
        <ele>1239</ele>
        <time>2022-03-26T14:45:01Z</time>
      </trkpt>
      <trkpt lat="44.76668" lon="3.19834">
        <ele>1239.1</ele>
        <time>2022-03-26T14:45:06Z</time>
      </trkpt>
      <trkpt lat="44.76662" lon="3.19841">
        <ele>1239.3</ele>
        <time>2022-03-26T14:45:12Z</time>
      </trkpt>
      <trkpt lat="44.76657" lon="3.19847">
        <ele>1239.5</ele>
        <time>2022-03-26T14:45:17Z</time>
      </trkpt>
      <trkpt lat="44.76652" lon="3.19854">
        <ele>1239.7</ele>
        <time>2022-03-26T14:45:22Z</time>
      </trkpt>
      <trkpt lat="44.76646" lon="3.1986">
        <ele>1239.8</ele>
        <time>2022-03-26T14:45:27Z</time>
      </trkpt>
      <trkpt lat="44.76641" lon="3.19866">
        <ele>1239.9</ele>
        <time>2022-03-26T14:45:32Z</time>
      </trkpt>
      <trkpt lat="44.76635" lon="3.19872">
        <ele>1239.9</ele>
        <time>2022-03-26T14:45:37Z</time>
      </trkpt>
      <trkpt lat="44.76629" lon="3.19878">
        <ele>1239.8</ele>
        <time>2022-03-26T14:45:43Z</time>
      </trkpt>
      <trkpt lat="44.76622" lon="3.19885">
        <ele>1239.7</ele>
        <time>2022-03-26T14:45:50Z</time>
      </trkpt>
      <trkpt lat="44.76616" lon="3.19894">
        <ele>1239.7</ele>
        <time>2022-03-26T14:45:57Z</time>
      </trkpt>
      <trkpt lat="44.76609" lon="3.19902">
        <ele>1239.5</ele>
        <time>2022-03-26T14:46:02Z</time>
      </trkpt>
      <trkpt lat="44.76603" lon="3.19909">
        <ele>1239.2</ele>
        <time>2022-03-26T14:46:07Z</time>
      </trkpt>
      <trkpt lat="44.76599" lon="3.19918">
        <ele>1239.2</ele>
        <time>2022-03-26T14:46:12Z</time>
      </trkpt>
      <trkpt lat="44.76596" lon="3.19928">
        <ele>1239.2</ele>
        <time>2022-03-26T14:46:17Z</time>
      </trkpt>
      <trkpt lat="44.7659" lon="3.19936">
        <ele>1238.9</ele>
        <time>2022-03-26T14:46:22Z</time>
      </trkpt>
      <trkpt lat="44.76584" lon="3.19945">
        <ele>1238.7</ele>
        <time>2022-03-26T14:46:27Z</time>
      </trkpt>
      <trkpt lat="44.76579" lon="3.19956">
        <ele>1238.8</ele>
        <time>2022-03-26T14:46:32Z</time>
      </trkpt>
      <trkpt lat="44.76574" lon="3.19965">
        <ele>1238.9</ele>
        <time>2022-03-26T14:46:37Z</time>
      </trkpt>
      <trkpt lat="44.76571" lon="3.19973">
        <ele>1239.1</ele>
        <time>2022-03-26T14:46:42Z</time>
      </trkpt>
      <trkpt lat="44.76566" lon="3.19983">
        <ele>1239.2</ele>
        <time>2022-03-26T14:46:47Z</time>
      </trkpt>
      <trkpt lat="44.76561" lon="3.19991">
        <ele>1239.2</ele>
        <time>2022-03-26T14:46:53Z</time>
      </trkpt>
      <trkpt lat="44.76555" lon="3.20002">
        <ele>1239.4</ele>
        <time>2022-03-26T14:46:58Z</time>
      </trkpt>
      <trkpt lat="44.7655" lon="3.20011">
        <ele>1239.8</ele>
        <time>2022-03-26T14:47:03Z</time>
      </trkpt>
      <trkpt lat="44.76545" lon="3.2002">
        <ele>1240.1</ele>
        <time>2022-03-26T14:47:08Z</time>
      </trkpt>
      <trkpt lat="44.76541" lon="3.20028">
        <ele>1240.3</ele>
        <time>2022-03-26T14:47:13Z</time>
      </trkpt>
      <trkpt lat="44.76534" lon="3.20036">
        <ele>1240.5</ele>
        <time>2022-03-26T14:47:18Z</time>
      </trkpt>
      <trkpt lat="44.76528" lon="3.20043">
        <ele>1240.6</ele>
        <time>2022-03-26T14:47:23Z</time>
      </trkpt>
      <trkpt lat="44.76522" lon="3.20048">
        <ele>1240.6</ele>
        <time>2022-03-26T14:47:28Z</time>
      </trkpt>
      <trkpt lat="44.76514" lon="3.20053">
        <ele>1240.5</ele>
        <time>2022-03-26T14:47:34Z</time>
      </trkpt>
      <trkpt lat="44.76508" lon="3.20056">
        <ele>1240.3</ele>
        <time>2022-03-26T14:47:39Z</time>
      </trkpt>
      <trkpt lat="44.76502" lon="3.20059">
        <ele>1240.2</ele>
        <time>2022-03-26T14:47:44Z</time>
      </trkpt>
      <trkpt lat="44.76493" lon="3.2006">
        <ele>1239.7</ele>
        <time>2022-03-26T14:47:51Z</time>
      </trkpt>
      <trkpt lat="44.76486" lon="3.20059">
        <ele>1239.3</ele>
        <time>2022-03-26T14:47:56Z</time>
      </trkpt>
      <trkpt lat="44.76478" lon="3.20061">
        <ele>1238.9</ele>
        <time>2022-03-26T14:48:01Z</time>
      </trkpt>
      <trkpt lat="44.76471" lon="3.20061">
        <ele>1238.5</ele>
        <time>2022-03-26T14:48:06Z</time>
      </trkpt>
      <trkpt lat="44.76462" lon="3.20064">
        <ele>1238</ele>
        <time>2022-03-26T14:48:11Z</time>
      </trkpt>
      <trkpt lat="44.76454" lon="3.20063">
        <ele>1237.5</ele>
        <time>2022-03-26T14:48:16Z</time>
      </trkpt>
      <trkpt lat="44.76445" lon="3.20063">
        <ele>1237</ele>
        <time>2022-03-26T14:48:21Z</time>
      </trkpt>
      <trkpt lat="44.76437" lon="3.20065">
        <ele>1236.6</ele>
        <time>2022-03-26T14:48:26Z</time>
      </trkpt>
      <trkpt lat="44.76427" lon="3.20066">
        <ele>1236</ele>
        <time>2022-03-26T14:48:31Z</time>
      </trkpt>
      <trkpt lat="44.76418" lon="3.20065">
        <ele>1235.4</ele>
        <time>2022-03-26T14:48:36Z</time>
      </trkpt>
      <trkpt lat="44.76411" lon="3.20065">
        <ele>1235.1</ele>
        <time>2022-03-26T14:48:42Z</time>
      </trkpt>
      <trkpt lat="44.76403" lon="3.20066">
        <ele>1234.8</ele>
        <time>2022-03-26T14:48:47Z</time>
      </trkpt>
      <trkpt lat="44.76394" lon="3.20066">
        <ele>1234.4</ele>
        <time>2022-03-26T14:48:52Z</time>
      </trkpt>
      <trkpt lat="44.76388" lon="3.20072">
        <ele>1234.4</ele>
        <time>2022-03-26T14:48:57Z</time>
      </trkpt>
      <trkpt lat="44.7638" lon="3.2007">
        <ele>1234</ele>
        <time>2022-03-26T14:49:02Z</time>
      </trkpt>
      <trkpt lat="44.76373" lon="3.20075">
        <ele>1234</ele>
        <time>2022-03-26T14:49:07Z</time>
      </trkpt>
      <trkpt lat="44.76364" lon="3.20077">
        <ele>1233.7</ele>
        <time>2022-03-26T14:49:12Z</time>
      </trkpt>
      <trkpt lat="44.76357" lon="3.2008">
        <ele>1233.6</ele>
        <time>2022-03-26T14:49:17Z</time>
      </trkpt>
      <trkpt lat="44.7635" lon="3.20083">
        <ele>1233.6</ele>
        <time>2022-03-26T14:49:22Z</time>
      </trkpt>
      <trkpt lat="44.76341" lon="3.20085">
        <ele>1233.3</ele>
        <time>2022-03-26T14:49:27Z</time>
      </trkpt>
      <trkpt lat="44.76334" lon="3.20086">
        <ele>1233.1</ele>
        <time>2022-03-26T14:49:33Z</time>
      </trkpt>
      <trkpt lat="44.76325" lon="3.2009">
        <ele>1232.2</ele>
        <time>2022-03-26T14:49:38Z</time>
      </trkpt>
      <trkpt lat="44.76316" lon="3.20096">
        <ele>1231.4</ele>
        <time>2022-03-26T14:49:43Z</time>
      </trkpt>
      <trkpt lat="44.76309" lon="3.20102">
        <ele>1230.8</ele>
        <time>2022-03-26T14:49:48Z</time>
      </trkpt>
      <trkpt lat="44.76302" lon="3.20106">
        <ele>1230.2</ele>
        <time>2022-03-26T14:49:53Z</time>
      </trkpt>
      <trkpt lat="44.76295" lon="3.20109">
        <ele>1229.6</ele>
        <time>2022-03-26T14:49:58Z</time>
      </trkpt>
      <trkpt lat="44.76288" lon="3.20114">
        <ele>1229.1</ele>
        <time>2022-03-26T14:50:03Z</time>
      </trkpt>
      <trkpt lat="44.7628" lon="3.20121">
        <ele>1228.7</ele>
        <time>2022-03-26T14:50:08Z</time>
      </trkpt>
      <trkpt lat="44.76273" lon="3.20122">
        <ele>1228</ele>
        <time>2022-03-26T14:50:13Z</time>
      </trkpt>
      <trkpt lat="44.76266" lon="3.20127">
        <ele>1227.7</ele>
        <time>2022-03-26T14:50:19Z</time>
      </trkpt>
      <trkpt lat="44.76257" lon="3.20134">
        <ele>1227.3</ele>
        <time>2022-03-26T14:50:25Z</time>
      </trkpt>
      <trkpt lat="44.76247" lon="3.20142">
        <ele>1227.1</ele>
        <time>2022-03-26T14:50:30Z</time>
      </trkpt>
      <trkpt lat="44.76241" lon="3.20147">
        <ele>1227.2</ele>
        <time>2022-03-26T14:50:35Z</time>
      </trkpt>
      <trkpt lat="44.76234" lon="3.2015">
        <ele>1227</ele>
        <time>2022-03-26T14:50:40Z</time>
      </trkpt>
      <trkpt lat="44.76227" lon="3.20158">
        <ele>1227.3</ele>
        <time>2022-03-26T14:50:45Z</time>
      </trkpt>
      <trkpt lat="44.76219" lon="3.20162">
        <ele>1227.2</ele>
        <time>2022-03-26T14:50:50Z</time>
      </trkpt>
      <trkpt lat="44.76213" lon="3.20166">
        <ele>1227.2</ele>
        <time>2022-03-26T14:50:55Z</time>
      </trkpt>
      <trkpt lat="44.76205" lon="3.20169">
        <ele>1227</ele>
        <time>2022-03-26T14:51:00Z</time>
      </trkpt>
      <trkpt lat="44.76199" lon="3.20173">
        <ele>1227</ele>
        <time>2022-03-26T14:51:05Z</time>
      </trkpt>
      <trkpt lat="44.76191" lon="3.20177">
        <ele>1226.8</ele>
        <time>2022-03-26T14:51:10Z</time>
      </trkpt>
      <trkpt lat="44.76182" lon="3.20183">
        <ele>1226.8</ele>
        <time>2022-03-26T14:51:15Z</time>
      </trkpt>
      <trkpt lat="44.76176" lon="3.20188">
        <ele>1226.8</ele>
        <time>2022-03-26T14:51:20Z</time>
      </trkpt>
      <trkpt lat="44.76169" lon="3.20192">
        <ele>1226.6</ele>
        <time>2022-03-26T14:51:25Z</time>
      </trkpt>
      <trkpt lat="44.76161" lon="3.20198">
        <ele>1226.8</ele>
        <time>2022-03-26T14:51:30Z</time>
      </trkpt>
      <trkpt lat="44.76155" lon="3.20202">
        <ele>1226.9</ele>
        <time>2022-03-26T14:51:35Z</time>
      </trkpt>
      <trkpt lat="44.76147" lon="3.20209">
        <ele>1227.1</ele>
        <time>2022-03-26T14:51:40Z</time>
      </trkpt>
      <trkpt lat="44.76141" lon="3.20217">
        <ele>1227.3</ele>
        <time>2022-03-26T14:51:45Z</time>
      </trkpt>
      <trkpt lat="44.76133" lon="3.2022">
        <ele>1227.3</ele>
        <time>2022-03-26T14:51:50Z</time>
      </trkpt>
      <trkpt lat="44.76127" lon="3.20223">
        <ele>1227.3</ele>
        <time>2022-03-26T14:51:55Z</time>
      </trkpt>
      <trkpt lat="44.7612" lon="3.20227">
        <ele>1227.2</ele>
        <time>2022-03-26T14:52:00Z</time>
      </trkpt>
      <trkpt lat="44.76112" lon="3.20234">
        <ele>1227.3</ele>
        <time>2022-03-26T14:52:05Z</time>
      </trkpt>
      <trkpt lat="44.76104" lon="3.20238">
        <ele>1227.2</ele>
        <time>2022-03-26T14:52:10Z</time>
      </trkpt>
      <trkpt lat="44.76097" lon="3.20243">
        <ele>1227.2</ele>
        <time>2022-03-26T14:52:15Z</time>
      </trkpt>
      <trkpt lat="44.76091" lon="3.20248">
        <ele>1227.2</ele>
        <time>2022-03-26T14:52:20Z</time>
      </trkpt>
      <trkpt lat="44.76085" lon="3.20251">
        <ele>1227.1</ele>
        <time>2022-03-26T14:52:26Z</time>
      </trkpt>
      <trkpt lat="44.76077" lon="3.20256">
        <ele>1226.8</ele>
        <time>2022-03-26T14:52:31Z</time>
      </trkpt>
      <trkpt lat="44.7607" lon="3.20263">
        <ele>1226.5</ele>
        <time>2022-03-26T14:52:36Z</time>
      </trkpt>
      <trkpt lat="44.76063" lon="3.2027">
        <ele>1226.3</ele>
        <time>2022-03-26T14:52:41Z</time>
      </trkpt>
      <trkpt lat="44.76055" lon="3.20275">
        <ele>1226</ele>
        <time>2022-03-26T14:52:46Z</time>
      </trkpt>
      <trkpt lat="44.76049" lon="3.20278">
        <ele>1225.8</ele>
        <time>2022-03-26T14:52:52Z</time>
      </trkpt>
      <trkpt lat="44.76042" lon="3.20278">
        <ele>1225.4</ele>
        <time>2022-03-26T14:52:58Z</time>
      </trkpt>
      <trkpt lat="44.76035" lon="3.20283">
        <ele>1225.1</ele>
        <time>2022-03-26T14:53:04Z</time>
      </trkpt>
      <trkpt lat="44.76029" lon="3.20287">
        <ele>1224.9</ele>
        <time>2022-03-26T14:53:12Z</time>
      </trkpt>
      <trkpt lat="44.76022" lon="3.20289">
        <ele>1224.6</ele>
        <time>2022-03-26T14:53:52Z</time>
      </trkpt>
      <trkpt lat="44.76014" lon="3.20294">
        <ele>1224.3</ele>
        <time>2022-03-26T14:53:57Z</time>
      </trkpt>
      <trkpt lat="44.76008" lon="3.203">
        <ele>1224.2</ele>
        <time>2022-03-26T14:54:02Z</time>
      </trkpt>
      <trkpt lat="44.76002" lon="3.20307">
        <ele>1224.2</ele>
        <time>2022-03-26T14:54:08Z</time>
      </trkpt>
      <trkpt lat="44.75996" lon="3.20312">
        <ele>1223.9</ele>
        <time>2022-03-26T14:54:13Z</time>
      </trkpt>
      <trkpt lat="44.7599" lon="3.20318">
        <ele>1223.7</ele>
        <time>2022-03-26T14:54:18Z</time>
      </trkpt>
      <trkpt lat="44.75985" lon="3.20323">
        <ele>1223.5</ele>
        <time>2022-03-26T14:54:24Z</time>
      </trkpt>
      <trkpt lat="44.75979" lon="3.20332">
        <ele>1223.4</ele>
        <time>2022-03-26T14:54:29Z</time>
      </trkpt>
      <trkpt lat="44.75972" lon="3.20339">
        <ele>1223.1</ele>
        <time>2022-03-26T14:54:35Z</time>
      </trkpt>
      <trkpt lat="44.75965" lon="3.20345">
        <ele>1222.7</ele>
        <time>2022-03-26T14:54:40Z</time>
      </trkpt>
      <trkpt lat="44.75959" lon="3.20351">
        <ele>1222.5</ele>
        <time>2022-03-26T14:54:45Z</time>
      </trkpt>
      <trkpt lat="44.75953" lon="3.20358">
        <ele>1222.2</ele>
        <time>2022-03-26T14:54:50Z</time>
      </trkpt>
      <trkpt lat="44.75947" lon="3.20363">
        <ele>1222</ele>
        <time>2022-03-26T14:54:55Z</time>
      </trkpt>
      <trkpt lat="44.7594" lon="3.20369">
        <ele>1221.7</ele>
        <time>2022-03-26T14:55:03Z</time>
      </trkpt>
      <trkpt lat="44.75932" lon="3.20377">
        <ele>1221.5</ele>
        <time>2022-03-26T14:55:08Z</time>
      </trkpt>
      <trkpt lat="44.75925" lon="3.2038">
        <ele>1221.2</ele>
        <time>2022-03-26T14:55:14Z</time>
      </trkpt>
      <trkpt lat="44.7592" lon="3.20385">
        <ele>1221.1</ele>
        <time>2022-03-26T14:55:19Z</time>
      </trkpt>
      <trkpt lat="44.75913" lon="3.20389">
        <ele>1220.7</ele>
        <time>2022-03-26T14:55:30Z</time>
      </trkpt>
      <trkpt lat="44.75908" lon="3.20395">
        <ele>1220.6</ele>
        <time>2022-03-26T14:55:35Z</time>
      </trkpt>
      <trkpt lat="44.75901" lon="3.20401">
        <ele>1220.4</ele>
        <time>2022-03-26T14:55:40Z</time>
      </trkpt>
      <trkpt lat="44.75893" lon="3.20402">
        <ele>1219.9</ele>
        <time>2022-03-26T14:55:45Z</time>
      </trkpt>
      <trkpt lat="44.75887" lon="3.20407">
        <ele>1219.7</ele>
        <time>2022-03-26T14:55:51Z</time>
      </trkpt>
      <trkpt lat="44.75881" lon="3.20406">
        <ele>1219.3</ele>
        <time>2022-03-26T14:56:20Z</time>
      </trkpt>
      <trkpt lat="44.75874" lon="3.20406">
        <ele>1218.8</ele>
        <time>2022-03-26T14:56:29Z</time>
      </trkpt>
      <trkpt lat="44.75867" lon="3.20412">
        <ele>1218.7</ele>
        <time>2022-03-26T14:56:34Z</time>
      </trkpt>
      <trkpt lat="44.75859" lon="3.20415">
        <ele>1218.4</ele>
        <time>2022-03-26T14:56:39Z</time>
      </trkpt>
      <trkpt lat="44.75851" lon="3.20417">
        <ele>1218.1</ele>
        <time>2022-03-26T14:56:44Z</time>
      </trkpt>
      <trkpt lat="44.75844" lon="3.20417">
        <ele>1217.7</ele>
        <time>2022-03-26T14:56:49Z</time>
      </trkpt>
      <trkpt lat="44.75836" lon="3.20418">
        <ele>1217.3</ele>
        <time>2022-03-26T14:56:54Z</time>
      </trkpt>
      <trkpt lat="44.75829" lon="3.2042">
        <ele>1217</ele>
        <time>2022-03-26T14:56:59Z</time>
      </trkpt>
      <trkpt lat="44.75821" lon="3.20422">
        <ele>1216.8</ele>
        <time>2022-03-26T14:57:04Z</time>
      </trkpt>
      <trkpt lat="44.75814" lon="3.20426">
        <ele>1216.7</ele>
        <time>2022-03-26T14:57:09Z</time>
      </trkpt>
      <trkpt lat="44.75807" lon="3.20427">
        <ele>1216.5</ele>
        <time>2022-03-26T14:57:15Z</time>
      </trkpt>
      <trkpt lat="44.758" lon="3.20426">
        <ele>1216.1</ele>
        <time>2022-03-26T14:57:20Z</time>
      </trkpt>
      <trkpt lat="44.75792" lon="3.2043">
        <ele>1216</ele>
        <time>2022-03-26T14:57:25Z</time>
      </trkpt>
      <trkpt lat="44.75786" lon="3.20433">
        <ele>1215.9</ele>
        <time>2022-03-26T14:57:31Z</time>
      </trkpt>
      <trkpt lat="44.75779" lon="3.20436">
        <ele>1215.8</ele>
        <time>2022-03-26T14:57:36Z</time>
      </trkpt>
      <trkpt lat="44.75772" lon="3.20437">
        <ele>1215.5</ele>
        <time>2022-03-26T14:57:41Z</time>
      </trkpt>
      <trkpt lat="44.75764" lon="3.2044">
        <ele>1215.4</ele>
        <time>2022-03-26T14:57:46Z</time>
      </trkpt>
      <trkpt lat="44.75757" lon="3.20443">
        <ele>1215.2</ele>
        <time>2022-03-26T14:57:53Z</time>
      </trkpt>
      <trkpt lat="44.7575" lon="3.20447">
        <ele>1215.2</ele>
        <time>2022-03-26T14:58:04Z</time>
      </trkpt>
      <trkpt lat="44.75744" lon="3.2045">
        <ele>1214.8</ele>
        <time>2022-03-26T14:58:09Z</time>
      </trkpt>
      <trkpt lat="44.75737" lon="3.20452">
        <ele>1214.2</ele>
        <time>2022-03-26T14:58:14Z</time>
      </trkpt>
      <trkpt lat="44.7573" lon="3.20457">
        <ele>1213.9</ele>
        <time>2022-03-26T14:58:19Z</time>
      </trkpt>
      <trkpt lat="44.75721" lon="3.20458">
        <ele>1213</ele>
        <time>2022-03-26T14:58:24Z</time>
      </trkpt>
      <trkpt lat="44.75714" lon="3.20457">
        <ele>1212.2</ele>
        <time>2022-03-26T14:58:29Z</time>
      </trkpt>
      <trkpt lat="44.75706" lon="3.20462">
        <ele>1211.8</ele>
        <time>2022-03-26T14:58:34Z</time>
      </trkpt>
      <trkpt lat="44.757" lon="3.20465">
        <ele>1211.3</ele>
        <time>2022-03-26T14:58:39Z</time>
      </trkpt>
      <trkpt lat="44.75692" lon="3.20464">
        <ele>1210.4</ele>
        <time>2022-03-26T14:58:44Z</time>
      </trkpt>
      <trkpt lat="44.75681" lon="3.20469">
        <ele>1209.6</ele>
        <time>2022-03-26T14:58:49Z</time>
      </trkpt>
      <trkpt lat="44.75673" lon="3.2047">
        <ele>1208.9</ele>
        <time>2022-03-26T14:58:55Z</time>
      </trkpt>
      <trkpt lat="44.75666" lon="3.20472">
        <ele>1208.3</ele>
        <time>2022-03-26T14:59:00Z</time>
      </trkpt>
      <trkpt lat="44.75659" lon="3.20475">
        <ele>1207.9</ele>
        <time>2022-03-26T14:59:05Z</time>
      </trkpt>
      <trkpt lat="44.75652" lon="3.20476">
        <ele>1207.4</ele>
        <time>2022-03-26T14:59:11Z</time>
      </trkpt>
      <trkpt lat="44.75645" lon="3.20477">
        <ele>1206.9</ele>
        <time>2022-03-26T14:59:18Z</time>
      </trkpt>
      <trkpt lat="44.75639" lon="3.20481">
        <ele>1206.6</ele>
        <time>2022-03-26T14:59:31Z</time>
      </trkpt>
      <trkpt lat="44.75632" lon="3.20479">
        <ele>1205.9</ele>
        <time>2022-03-26T15:00:36Z</time>
      </trkpt>
      <trkpt lat="44.75624" lon="3.20484">
        <ele>1205.6</ele>
        <time>2022-03-26T15:00:42Z</time>
      </trkpt>
      <trkpt lat="44.75618" lon="3.20488">
        <ele>1205.3</ele>
        <time>2022-03-26T15:00:47Z</time>
      </trkpt>
      <trkpt lat="44.75609" lon="3.2049">
        <ele>1204.6</ele>
        <time>2022-03-26T15:00:53Z</time>
      </trkpt>
      <trkpt lat="44.75603" lon="3.20493">
        <ele>1204.3</ele>
        <time>2022-03-26T15:00:58Z</time>
      </trkpt>
      <trkpt lat="44.75595" lon="3.20498">
        <ele>1203.9</ele>
        <time>2022-03-26T15:01:04Z</time>
      </trkpt>
      <trkpt lat="44.75589" lon="3.20501">
        <ele>1203.5</ele>
        <time>2022-03-26T15:01:09Z</time>
      </trkpt>
      <trkpt lat="44.7558" lon="3.20504">
        <ele>1202.9</ele>
        <time>2022-03-26T15:01:14Z</time>
      </trkpt>
      <trkpt lat="44.75573" lon="3.20508">
        <ele>1202.6</ele>
        <time>2022-03-26T15:01:20Z</time>
      </trkpt>
      <trkpt lat="44.75566" lon="3.20514">
        <ele>1202.3</ele>
        <time>2022-03-26T15:01:25Z</time>
      </trkpt>
      <trkpt lat="44.75559" lon="3.20517">
        <ele>1202</ele>
        <time>2022-03-26T15:01:30Z</time>
      </trkpt>
      <trkpt lat="44.75551" lon="3.20522">
        <ele>1201.7</ele>
        <time>2022-03-26T15:01:35Z</time>
      </trkpt>
      <trkpt lat="44.75543" lon="3.20525">
        <ele>1201.3</ele>
        <time>2022-03-26T15:01:40Z</time>
      </trkpt>
      <trkpt lat="44.75536" lon="3.20528">
        <ele>1201</ele>
        <time>2022-03-26T15:01:45Z</time>
      </trkpt>
      <trkpt lat="44.75529" lon="3.20531">
        <ele>1200.7</ele>
        <time>2022-03-26T15:01:51Z</time>
      </trkpt>
      <trkpt lat="44.75521" lon="3.20533">
        <ele>1200.3</ele>
        <time>2022-03-26T15:01:56Z</time>
      </trkpt>
      <trkpt lat="44.75513" lon="3.20537">
        <ele>1200</ele>
        <time>2022-03-26T15:02:01Z</time>
      </trkpt>
      <trkpt lat="44.75506" lon="3.20538">
        <ele>1199.7</ele>
        <time>2022-03-26T15:02:06Z</time>
      </trkpt>
      <trkpt lat="44.75498" lon="3.20541">
        <ele>1199.4</ele>
        <time>2022-03-26T15:02:11Z</time>
      </trkpt>
      <trkpt lat="44.7549" lon="3.20545">
        <ele>1199.1</ele>
        <time>2022-03-26T15:02:16Z</time>
      </trkpt>
      <trkpt lat="44.75483" lon="3.20548">
        <ele>1198.8</ele>
        <time>2022-03-26T15:02:21Z</time>
      </trkpt>
      <trkpt lat="44.75474" lon="3.20556">
        <ele>1198.6</ele>
        <time>2022-03-26T15:02:26Z</time>
      </trkpt>
      <trkpt lat="44.75466" lon="3.20561">
        <ele>1198.3</ele>
        <time>2022-03-26T15:02:31Z</time>
      </trkpt>
      <trkpt lat="44.75459" lon="3.20564">
        <ele>1198</ele>
        <time>2022-03-26T15:02:36Z</time>
      </trkpt>
      <trkpt lat="44.75453" lon="3.2057">
        <ele>1197.8</ele>
        <time>2022-03-26T15:02:41Z</time>
      </trkpt>
      <trkpt lat="44.75446" lon="3.20576">
        <ele>1197.6</ele>
        <time>2022-03-26T15:02:46Z</time>
      </trkpt>
      <trkpt lat="44.75439" lon="3.20579">
        <ele>1197.2</ele>
        <time>2022-03-26T15:02:52Z</time>
      </trkpt>
      <trkpt lat="44.75431" lon="3.20582">
        <ele>1196.8</ele>
        <time>2022-03-26T15:02:58Z</time>
      </trkpt>
      <trkpt lat="44.75424" lon="3.20586">
        <ele>1196.4</ele>
        <time>2022-03-26T15:03:03Z</time>
      </trkpt>
      <trkpt lat="44.75418" lon="3.2059">
        <ele>1196.1</ele>
        <time>2022-03-26T15:03:08Z</time>
      </trkpt>
      <trkpt lat="44.75411" lon="3.20588">
        <ele>1195.5</ele>
        <time>2022-03-26T15:03:49Z</time>
      </trkpt>
      <trkpt lat="44.75404" lon="3.20587">
        <ele>1194.9</ele>
        <time>2022-03-26T15:03:54Z</time>
      </trkpt>
      <trkpt lat="44.75395" lon="3.20587">
        <ele>1194.2</ele>
        <time>2022-03-26T15:03:59Z</time>
      </trkpt>
      <trkpt lat="44.75387" lon="3.20588">
        <ele>1193.5</ele>
        <time>2022-03-26T15:04:04Z</time>
      </trkpt>
      <trkpt lat="44.7538" lon="3.20584">
        <ele>1192.9</ele>
        <time>2022-03-26T15:04:09Z</time>
      </trkpt>
      <trkpt lat="44.75372" lon="3.20582">
        <ele>1192.2</ele>
        <time>2022-03-26T15:04:14Z</time>
      </trkpt>
      <trkpt lat="44.75364" lon="3.20581">
        <ele>1191.6</ele>
        <time>2022-03-26T15:04:19Z</time>
      </trkpt>
      <trkpt lat="44.75355" lon="3.20579">
        <ele>1190.8</ele>
        <time>2022-03-26T15:04:24Z</time>
      </trkpt>
      <trkpt lat="44.75348" lon="3.20578">
        <ele>1190.2</ele>
        <time>2022-03-26T15:04:30Z</time>
      </trkpt>
      <trkpt lat="44.75338" lon="3.20578">
        <ele>1189.4</ele>
        <time>2022-03-26T15:04:35Z</time>
      </trkpt>
      <trkpt lat="44.7533" lon="3.20582">
        <ele>1188.7</ele>
        <time>2022-03-26T15:04:40Z</time>
      </trkpt>
      <trkpt lat="44.75322" lon="3.20583">
        <ele>1187.9</ele>
        <time>2022-03-26T15:04:45Z</time>
      </trkpt>
      <trkpt lat="44.75315" lon="3.20581">
        <ele>1187.3</ele>
        <time>2022-03-26T15:04:51Z</time>
      </trkpt>
      <trkpt lat="44.75307" lon="3.20582">
        <ele>1186.5</ele>
        <time>2022-03-26T15:04:56Z</time>
      </trkpt>
      <trkpt lat="44.753" lon="3.20583">
        <ele>1185.8</ele>
        <time>2022-03-26T15:05:01Z</time>
      </trkpt>
      <trkpt lat="44.75292" lon="3.20581">
        <ele>1185.1</ele>
        <time>2022-03-26T15:05:06Z</time>
      </trkpt>
      <trkpt lat="44.75286" lon="3.20581">
        <ele>1184.5</ele>
        <time>2022-03-26T15:05:11Z</time>
      </trkpt>
      <trkpt lat="44.75275" lon="3.20583">
        <ele>1183.4</ele>
        <time>2022-03-26T15:05:16Z</time>
      </trkpt>
      <trkpt lat="44.75268" lon="3.20585">
        <ele>1182.7</ele>
        <time>2022-03-26T15:05:21Z</time>
      </trkpt>
      <trkpt lat="44.7526" lon="3.20587">
        <ele>1181.9</ele>
        <time>2022-03-26T15:05:26Z</time>
      </trkpt>
      <trkpt lat="44.75253" lon="3.20585">
        <ele>1181.3</ele>
        <time>2022-03-26T15:05:31Z</time>
      </trkpt>
      <trkpt lat="44.75244" lon="3.20587">
        <ele>1180.6</ele>
        <time>2022-03-26T15:05:36Z</time>
      </trkpt>
      <trkpt lat="44.75236" lon="3.20587">
        <ele>1180.1</ele>
        <time>2022-03-26T15:05:41Z</time>
      </trkpt>
      <trkpt lat="44.7523" lon="3.20587">
        <ele>1179.8</ele>
        <time>2022-03-26T15:05:46Z</time>
      </trkpt>
      <trkpt lat="44.75223" lon="3.2059">
        <ele>1179.3</ele>
        <time>2022-03-26T15:05:51Z</time>
      </trkpt>
      <trkpt lat="44.75214" lon="3.20589">
        <ele>1178.8</ele>
        <time>2022-03-26T15:05:56Z</time>
      </trkpt>
      <trkpt lat="44.75206" lon="3.20589">
        <ele>1178.3</ele>
        <time>2022-03-26T15:06:01Z</time>
      </trkpt>
      <trkpt lat="44.75198" lon="3.20593">
        <ele>1177.8</ele>
        <time>2022-03-26T15:06:06Z</time>
      </trkpt>
      <trkpt lat="44.75189" lon="3.20593">
        <ele>1177.2</ele>
        <time>2022-03-26T15:06:11Z</time>
      </trkpt>
      <trkpt lat="44.75182" lon="3.20595">
        <ele>1176.8</ele>
        <time>2022-03-26T15:06:17Z</time>
      </trkpt>
      <trkpt lat="44.75173" lon="3.20599">
        <ele>1176.2</ele>
        <time>2022-03-26T15:06:22Z</time>
      </trkpt>
      <trkpt lat="44.75165" lon="3.20603">
        <ele>1175.8</ele>
        <time>2022-03-26T15:06:27Z</time>
      </trkpt>
      <trkpt lat="44.75159" lon="3.2061">
        <ele>1175.6</ele>
        <time>2022-03-26T15:06:32Z</time>
      </trkpt>
      <trkpt lat="44.75156" lon="3.20621">
        <ele>1175.3</ele>
        <time>2022-03-26T15:06:37Z</time>
      </trkpt>
      <trkpt lat="44.75155" lon="3.20632">
        <ele>1175</ele>
        <time>2022-03-26T15:06:42Z</time>
      </trkpt>
      <trkpt lat="44.75157" lon="3.20641">
        <ele>1174.9</ele>
        <time>2022-03-26T15:06:47Z</time>
      </trkpt>
      <trkpt lat="44.75159" lon="3.20653">
        <ele>1174.7</ele>
        <time>2022-03-26T15:06:52Z</time>
      </trkpt>
      <trkpt lat="44.75159" lon="3.20664">
        <ele>1174.5</ele>
        <time>2022-03-26T15:06:57Z</time>
      </trkpt>
      <trkpt lat="44.75161" lon="3.20675">
        <ele>1174.7</ele>
        <time>2022-03-26T15:07:03Z</time>
      </trkpt>
      <trkpt lat="44.75162" lon="3.20687">
        <ele>1174.9</ele>
        <time>2022-03-26T15:07:08Z</time>
      </trkpt>
      <trkpt lat="44.75164" lon="3.20698">
        <ele>1175.1</ele>
        <time>2022-03-26T15:07:13Z</time>
      </trkpt>
      <trkpt lat="44.75164" lon="3.2071">
        <ele>1175.3</ele>
        <time>2022-03-26T15:07:18Z</time>
      </trkpt>
      <trkpt lat="44.75165" lon="3.20722">
        <ele>1175.5</ele>
        <time>2022-03-26T15:07:23Z</time>
      </trkpt>
      <trkpt lat="44.75164" lon="3.20732">
        <ele>1175.5</ele>
        <time>2022-03-26T15:07:29Z</time>
      </trkpt>
      <trkpt lat="44.75162" lon="3.20741">
        <ele>1175.4</ele>
        <time>2022-03-26T15:07:35Z</time>
      </trkpt>
      <trkpt lat="44.75161" lon="3.20751">
        <ele>1175.3</ele>
        <time>2022-03-26T15:07:40Z</time>
      </trkpt>
      <trkpt lat="44.75163" lon="3.2076">
        <ele>1175.8</ele>
        <time>2022-03-26T15:07:46Z</time>
      </trkpt>
      <trkpt lat="44.75167" lon="3.20766">
        <ele>1176.4</ele>
        <time>2022-03-26T15:07:51Z</time>
      </trkpt>
      <trkpt lat="44.75174" lon="3.20772">
        <ele>1176.9</ele>
        <time>2022-03-26T15:08:02Z</time>
      </trkpt>
      <trkpt lat="44.75178" lon="3.20783">
        <ele>1177.4</ele>
        <time>2022-03-26T15:08:07Z</time>
      </trkpt>
      <trkpt lat="44.75182" lon="3.2079">
        <ele>1177.8</ele>
        <time>2022-03-26T15:08:13Z</time>
      </trkpt>
      <trkpt lat="44.75186" lon="3.20799">
        <ele>1178.2</ele>
        <time>2022-03-26T15:08:18Z</time>
      </trkpt>
      <trkpt lat="44.75189" lon="3.20812">
        <ele>1178.6</ele>
        <time>2022-03-26T15:08:23Z</time>
      </trkpt>
      <trkpt lat="44.75193" lon="3.20821">
        <ele>1179</ele>
        <time>2022-03-26T15:08:28Z</time>
      </trkpt>
      <trkpt lat="44.75196" lon="3.20831">
        <ele>1179.4</ele>
        <time>2022-03-26T15:08:33Z</time>
      </trkpt>
      <trkpt lat="44.75199" lon="3.20841">
        <ele>1179.7</ele>
        <time>2022-03-26T15:08:38Z</time>
      </trkpt>
      <trkpt lat="44.75204" lon="3.20849">
        <ele>1180</ele>
        <time>2022-03-26T15:08:44Z</time>
      </trkpt>
      <trkpt lat="44.75206" lon="3.20862">
        <ele>1180.3</ele>
        <time>2022-03-26T15:08:49Z</time>
      </trkpt>
      <trkpt lat="44.75209" lon="3.20872">
        <ele>1180.5</ele>
        <time>2022-03-26T15:08:54Z</time>
      </trkpt>
      <trkpt lat="44.75213" lon="3.20881">
        <ele>1180.7</ele>
        <time>2022-03-26T15:08:59Z</time>
      </trkpt>
      <trkpt lat="44.75217" lon="3.20889">
        <ele>1180.9</ele>
        <time>2022-03-26T15:09:04Z</time>
      </trkpt>
      <trkpt lat="44.75223" lon="3.20897">
        <ele>1181.2</ele>
        <time>2022-03-26T15:09:10Z</time>
      </trkpt>
      <trkpt lat="44.7523" lon="3.20904">
        <ele>1181.4</ele>
        <time>2022-03-26T15:09:15Z</time>
      </trkpt>
      <trkpt lat="44.75237" lon="3.20908">
        <ele>1181.7</ele>
        <time>2022-03-26T15:09:20Z</time>
      </trkpt>
      <trkpt lat="44.75244" lon="3.2091">
        <ele>1181.8</ele>
        <time>2022-03-26T15:09:25Z</time>
      </trkpt>
      <trkpt lat="44.75251" lon="3.20914">
        <ele>1181.9</ele>
        <time>2022-03-26T15:09:30Z</time>
      </trkpt>
      <trkpt lat="44.75258" lon="3.20917">
        <ele>1181.4</ele>
        <time>2022-03-26T15:09:35Z</time>
      </trkpt>
      <trkpt lat="44.75266" lon="3.20919">
        <ele>1180.7</ele>
        <time>2022-03-26T15:09:40Z</time>
      </trkpt>
      <trkpt lat="44.75275" lon="3.2092">
        <ele>1180</ele>
        <time>2022-03-26T15:09:45Z</time>
      </trkpt>
      <trkpt lat="44.75283" lon="3.20924">
        <ele>1179.3</ele>
        <time>2022-03-26T15:09:50Z</time>
      </trkpt>
      <trkpt lat="44.7529" lon="3.20926">
        <ele>1178.7</ele>
        <time>2022-03-26T15:09:55Z</time>
      </trkpt>
      <trkpt lat="44.75297" lon="3.2093">
        <ele>1178</ele>
        <time>2022-03-26T15:10:01Z</time>
      </trkpt>
      <trkpt lat="44.75305" lon="3.20931">
        <ele>1177.4</ele>
        <time>2022-03-26T15:10:06Z</time>
      </trkpt>
      <trkpt lat="44.75313" lon="3.20936">
        <ele>1176.7</ele>
        <time>2022-03-26T15:10:11Z</time>
      </trkpt>
      <trkpt lat="44.75321" lon="3.2094">
        <ele>1176</ele>
        <time>2022-03-26T15:10:16Z</time>
      </trkpt>
      <trkpt lat="44.75328" lon="3.20943">
        <ele>1175.4</ele>
        <time>2022-03-26T15:10:21Z</time>
      </trkpt>
      <trkpt lat="44.75333" lon="3.20948">
        <ele>1174.9</ele>
        <time>2022-03-26T15:10:26Z</time>
      </trkpt>
      <trkpt lat="44.7534" lon="3.20953">
        <ele>1174.6</ele>
        <time>2022-03-26T15:10:31Z</time>
      </trkpt>
      <trkpt lat="44.75347" lon="3.20962">
        <ele>1174.1</ele>
        <time>2022-03-26T15:10:36Z</time>
      </trkpt>
      <trkpt lat="44.75353" lon="3.20967">
        <ele>1173.7</ele>
        <time>2022-03-26T15:10:41Z</time>
      </trkpt>
      <trkpt lat="44.7536" lon="3.20977">
        <ele>1173</ele>
        <time>2022-03-26T15:10:46Z</time>
      </trkpt>
      <trkpt lat="44.75364" lon="3.20987">
        <ele>1172.3</ele>
        <time>2022-03-26T15:10:51Z</time>
      </trkpt>
      <trkpt lat="44.75367" lon="3.20997">
        <ele>1171.6</ele>
        <time>2022-03-26T15:10:56Z</time>
      </trkpt>
      <trkpt lat="44.75371" lon="3.21008">
        <ele>1170.1</ele>
        <time>2022-03-26T15:11:01Z</time>
      </trkpt>
      <trkpt lat="44.75376" lon="3.21019">
        <ele>1168.4</ele>
        <time>2022-03-26T15:11:06Z</time>
      </trkpt>
      <trkpt lat="44.7538" lon="3.21027">
        <ele>1167.2</ele>
        <time>2022-03-26T15:11:12Z</time>
      </trkpt>
      <trkpt lat="44.75385" lon="3.21041">
        <ele>1165.2</ele>
        <time>2022-03-26T15:11:17Z</time>
      </trkpt>
      <trkpt lat="44.7539" lon="3.2105">
        <ele>1163.9</ele>
        <time>2022-03-26T15:11:22Z</time>
      </trkpt>
      <trkpt lat="44.75394" lon="3.2106">
        <ele>1162.5</ele>
        <time>2022-03-26T15:11:28Z</time>
      </trkpt>
      <trkpt lat="44.75397" lon="3.21071">
        <ele>1161</ele>
        <time>2022-03-26T15:11:33Z</time>
      </trkpt>
      <trkpt lat="44.75402" lon="3.2108">
        <ele>1159.8</ele>
        <time>2022-03-26T15:11:39Z</time>
      </trkpt>
      <trkpt lat="44.75406" lon="3.21091">
        <ele>1158.4</ele>
        <time>2022-03-26T15:11:44Z</time>
      </trkpt>
      <trkpt lat="44.7541" lon="3.21099">
        <ele>1157.5</ele>
        <time>2022-03-26T15:11:49Z</time>
      </trkpt>
      <trkpt lat="44.75419" lon="3.21103">
        <ele>1157.1</ele>
        <time>2022-03-26T15:11:54Z</time>
      </trkpt>
      <trkpt lat="44.75426" lon="3.21109">
        <ele>1157.3</ele>
        <time>2022-03-26T15:11:59Z</time>
      </trkpt>
      <trkpt lat="44.75424" lon="3.21125">
        <ele>1155.3</ele>
        <time>2022-03-26T15:12:04Z</time>
      </trkpt>
      <trkpt lat="44.75425" lon="3.21135">
        <ele>1154.3</ele>
        <time>2022-03-26T15:12:09Z</time>
      </trkpt>
      <trkpt lat="44.75423" lon="3.21144">
        <ele>1153.1</ele>
        <time>2022-03-26T15:12:14Z</time>
      </trkpt>
      <trkpt lat="44.75422" lon="3.21156">
        <ele>1151.7</ele>
        <time>2022-03-26T15:12:21Z</time>
      </trkpt>
      <trkpt lat="44.75421" lon="3.21167">
        <ele>1150.4</ele>
        <time>2022-03-26T15:12:26Z</time>
      </trkpt>
      <trkpt lat="44.75423" lon="3.21178">
        <ele>1148.7</ele>
        <time>2022-03-26T15:12:31Z</time>
      </trkpt>
      <trkpt lat="44.75414" lon="3.21178">
        <ele>1148.2</ele>
        <time>2022-03-26T15:12:36Z</time>
      </trkpt>
      <trkpt lat="44.75409" lon="3.21171">
        <ele>1149.6</ele>
        <time>2022-03-26T15:13:09Z</time>
      </trkpt>
      <trkpt lat="44.75402" lon="3.21174">
        <ele>1149.4</ele>
        <time>2022-03-26T15:13:28Z</time>
      </trkpt>
      <trkpt lat="44.75394" lon="3.2117">
        <ele>1150.3</ele>
        <time>2022-03-26T15:13:34Z</time>
      </trkpt>
      <trkpt lat="44.75385" lon="3.21172">
        <ele>1150.4</ele>
        <time>2022-03-26T15:13:39Z</time>
      </trkpt>
      <trkpt lat="44.75378" lon="3.21168">
        <ele>1151.2</ele>
        <time>2022-03-26T15:13:44Z</time>
      </trkpt>
      <trkpt lat="44.75372" lon="3.21163">
        <ele>1152</ele>
        <time>2022-03-26T15:13:49Z</time>
      </trkpt>
      <trkpt lat="44.75366" lon="3.21161">
        <ele>1152.4</ele>
        <time>2022-03-26T15:14:10Z</time>
      </trkpt>
      <trkpt lat="44.75359" lon="3.21162">
        <ele>1152.5</ele>
        <time>2022-03-26T15:14:15Z</time>
      </trkpt>
      <trkpt lat="44.75352" lon="3.21163">
        <ele>1152.7</ele>
        <time>2022-03-26T15:14:43Z</time>
      </trkpt>
      <trkpt lat="44.75345" lon="3.21166">
        <ele>1152.6</ele>
        <time>2022-03-26T15:14:50Z</time>
      </trkpt>
      <trkpt lat="44.75338" lon="3.21166">
        <ele>1152.9</ele>
        <time>2022-03-26T15:14:56Z</time>
      </trkpt>
      <trkpt lat="44.75332" lon="3.21171">
        <ele>1152.6</ele>
        <time>2022-03-26T15:15:01Z</time>
      </trkpt>
      <trkpt lat="44.75324" lon="3.21173">
        <ele>1153.2</ele>
        <time>2022-03-26T15:15:07Z</time>
      </trkpt>
      <trkpt lat="44.75317" lon="3.21174">
        <ele>1153.7</ele>
        <time>2022-03-26T15:15:14Z</time>
      </trkpt>
      <trkpt lat="44.75311" lon="3.2118">
        <ele>1153.7</ele>
        <time>2022-03-26T15:15:34Z</time>
      </trkpt>
      <trkpt lat="44.75305" lon="3.21183">
        <ele>1154.1</ele>
        <time>2022-03-26T15:15:39Z</time>
      </trkpt>
      <trkpt lat="44.75297" lon="3.21187">
        <ele>1154.6</ele>
        <time>2022-03-26T15:15:44Z</time>
      </trkpt>
      <trkpt lat="44.75292" lon="3.21195">
        <ele>1154.6</ele>
        <time>2022-03-26T15:15:49Z</time>
      </trkpt>
      <trkpt lat="44.75285" lon="3.21201">
        <ele>1155</ele>
        <time>2022-03-26T15:15:54Z</time>
      </trkpt>
      <trkpt lat="44.75278" lon="3.21206">
        <ele>1155.6</ele>
        <time>2022-03-26T15:15:59Z</time>
      </trkpt>
      <trkpt lat="44.75269" lon="3.21209">
        <ele>1156.6</ele>
        <time>2022-03-26T15:16:04Z</time>
      </trkpt>
      <trkpt lat="44.75262" lon="3.21214">
        <ele>1157.3</ele>
        <time>2022-03-26T15:16:09Z</time>
      </trkpt>
      <trkpt lat="44.75255" lon="3.21218">
        <ele>1158.1</ele>
        <time>2022-03-26T15:16:14Z</time>
      </trkpt>
      <trkpt lat="44.75249" lon="3.21226">
        <ele>1158.6</ele>
        <time>2022-03-26T15:16:19Z</time>
      </trkpt>
      <trkpt lat="44.75246" lon="3.21235">
        <ele>1158.5</ele>
        <time>2022-03-26T15:16:24Z</time>
      </trkpt>
      <trkpt lat="44.75243" lon="3.21245">
        <ele>1158.4</ele>
        <time>2022-03-26T15:16:43Z</time>
      </trkpt>
      <trkpt lat="44.75241" lon="3.21255">
        <ele>1158.6</ele>
        <time>2022-03-26T15:16:48Z</time>
      </trkpt>
      <trkpt lat="44.7524" lon="3.21266">
        <ele>1159.1</ele>
        <time>2022-03-26T15:16:53Z</time>
      </trkpt>
      <trkpt lat="44.75239" lon="3.21276">
        <ele>1159.6</ele>
        <time>2022-03-26T15:16:59Z</time>
      </trkpt>
      <trkpt lat="44.7524" lon="3.21286">
        <ele>1160</ele>
        <time>2022-03-26T15:17:04Z</time>
      </trkpt>
      <trkpt lat="44.7524" lon="3.21298">
        <ele>1160.5</ele>
        <time>2022-03-26T15:17:09Z</time>
      </trkpt>
      <trkpt lat="44.75244" lon="3.2131">
        <ele>1161</ele>
        <time>2022-03-26T15:17:14Z</time>
      </trkpt>
      <trkpt lat="44.75241" lon="3.21319">
        <ele>1161.5</ele>
        <time>2022-03-26T15:17:20Z</time>
      </trkpt>
      <trkpt lat="44.75245" lon="3.2133">
        <ele>1161.9</ele>
        <time>2022-03-26T15:17:45Z</time>
      </trkpt>
      <trkpt lat="44.75248" lon="3.2134">
        <ele>1162.3</ele>
        <time>2022-03-26T15:17:50Z</time>
      </trkpt>
      <trkpt lat="44.75252" lon="3.21351">
        <ele>1162.4</ele>
        <time>2022-03-26T15:17:55Z</time>
      </trkpt>
      <trkpt lat="44.75254" lon="3.21364">
        <ele>1162.7</ele>
        <time>2022-03-26T15:18:00Z</time>
      </trkpt>
      <trkpt lat="44.75254" lon="3.21374">
        <ele>1163.2</ele>
        <time>2022-03-26T15:18:42Z</time>
      </trkpt>
      <trkpt lat="44.75256" lon="3.21384">
        <ele>1163.3</ele>
        <time>2022-03-26T15:18:48Z</time>
      </trkpt>
      <trkpt lat="44.75263" lon="3.21393">
        <ele>1162.6</ele>
        <time>2022-03-26T15:18:53Z</time>
      </trkpt>
      <trkpt lat="44.75267" lon="3.21404">
        <ele>1162.6</ele>
        <time>2022-03-26T15:18:58Z</time>
      </trkpt>
      <trkpt lat="44.7527" lon="3.21413">
        <ele>1162.6</ele>
        <time>2022-03-26T15:19:03Z</time>
      </trkpt>
      <trkpt lat="44.75273" lon="3.21422">
        <ele>1162.3</ele>
        <time>2022-03-26T15:19:08Z</time>
      </trkpt>
      <trkpt lat="44.75272" lon="3.21434">
        <ele>1162.3</ele>
        <time>2022-03-26T15:19:13Z</time>
      </trkpt>
      <trkpt lat="44.75279" lon="3.21445">
        <ele>1161.2</ele>
        <time>2022-03-26T15:19:18Z</time>
      </trkpt>
      <trkpt lat="44.75281" lon="3.21455">
        <ele>1160.8</ele>
        <time>2022-03-26T15:19:23Z</time>
      </trkpt>
      <trkpt lat="44.75282" lon="3.21465">
        <ele>1160.5</ele>
        <time>2022-03-26T15:19:29Z</time>
      </trkpt>
      <trkpt lat="44.75285" lon="3.21477">
        <ele>1160</ele>
        <time>2022-03-26T15:19:34Z</time>
      </trkpt>
      <trkpt lat="44.75287" lon="3.21488">
        <ele>1159.7</ele>
        <time>2022-03-26T15:19:39Z</time>
      </trkpt>
      <trkpt lat="44.75288" lon="3.215">
        <ele>1159.4</ele>
        <time>2022-03-26T15:19:44Z</time>
      </trkpt>
      <trkpt lat="44.75288" lon="3.21514">
        <ele>1157.8</ele>
        <time>2022-03-26T15:19:49Z</time>
      </trkpt>
      <trkpt lat="44.7529" lon="3.21524">
        <ele>1156.3</ele>
        <time>2022-03-26T15:19:54Z</time>
      </trkpt>
      <trkpt lat="44.75288" lon="3.21537">
        <ele>1155.1</ele>
        <time>2022-03-26T15:19:59Z</time>
      </trkpt>
      <trkpt lat="44.75288" lon="3.2155">
        <ele>1153.5</ele>
        <time>2022-03-26T15:20:04Z</time>
      </trkpt>
      <trkpt lat="44.75287" lon="3.21569">
        <ele>1151.5</ele>
        <time>2022-03-26T15:20:09Z</time>
      </trkpt>
      <trkpt lat="44.75286" lon="3.21581">
        <ele>1150.2</ele>
        <time>2022-03-26T15:20:15Z</time>
      </trkpt>
      <trkpt lat="44.75285" lon="3.2159">
        <ele>1149.5</ele>
        <time>2022-03-26T15:20:20Z</time>
      </trkpt>
      <trkpt lat="44.75282" lon="3.21598">
        <ele>1149.3</ele>
        <time>2022-03-26T15:20:26Z</time>
      </trkpt>
      <trkpt lat="44.75281" lon="3.21607">
        <ele>1148.7</ele>
        <time>2022-03-26T15:20:35Z</time>
      </trkpt>
      <trkpt lat="44.75278" lon="3.21616">
        <ele>1148.4</ele>
        <time>2022-03-26T15:20:49Z</time>
      </trkpt>
      <trkpt lat="44.75273" lon="3.21625">
        <ele>1148.6</ele>
        <time>2022-03-26T15:20:55Z</time>
      </trkpt>
      <trkpt lat="44.75271" lon="3.21633">
        <ele>1148.3</ele>
        <time>2022-03-26T15:21:00Z</time>
      </trkpt>
      <trkpt lat="44.75266" lon="3.21641">
        <ele>1148.6</ele>
        <time>2022-03-26T15:21:05Z</time>
      </trkpt>
      <trkpt lat="44.75262" lon="3.2165">
        <ele>1148.7</ele>
        <time>2022-03-26T15:21:11Z</time>
      </trkpt>
      <trkpt lat="44.75257" lon="3.21656">
        <ele>1149.3</ele>
        <time>2022-03-26T15:21:20Z</time>
      </trkpt>
      <trkpt lat="44.7525" lon="3.21662">
        <ele>1150.3</ele>
        <time>2022-03-26T15:21:39Z</time>
      </trkpt>
      <trkpt lat="44.75245" lon="3.2167">
        <ele>1149.4</ele>
        <time>2022-03-26T15:21:45Z</time>
      </trkpt>
      <trkpt lat="44.75239" lon="3.21676">
        <ele>1148.3</ele>
        <time>2022-03-26T15:21:52Z</time>
      </trkpt>
      <trkpt lat="44.75234" lon="3.21683">
        <ele>1146.9</ele>
        <time>2022-03-26T15:21:57Z</time>
      </trkpt>
      <trkpt lat="44.75229" lon="3.21691">
        <ele>1145.4</ele>
        <time>2022-03-26T15:22:02Z</time>
      </trkpt>
      <trkpt lat="44.75223" lon="3.21697">
        <ele>1144.3</ele>
        <time>2022-03-26T15:22:07Z</time>
      </trkpt>
      <trkpt lat="44.75218" lon="3.21704">
        <ele>1143</ele>
        <time>2022-03-26T15:22:14Z</time>
      </trkpt>
      <trkpt lat="44.75212" lon="3.21713">
        <ele>1141.3</ele>
        <time>2022-03-26T15:22:19Z</time>
      </trkpt>
      <trkpt lat="44.75206" lon="3.21721">
        <ele>1139.9</ele>
        <time>2022-03-26T15:22:24Z</time>
      </trkpt>
      <trkpt lat="44.752" lon="3.21727">
        <ele>1138.9</ele>
        <time>2022-03-26T15:22:29Z</time>
      </trkpt>
      <trkpt lat="44.75195" lon="3.21734">
        <ele>1137.7</ele>
        <time>2022-03-26T15:22:34Z</time>
      </trkpt>
      <trkpt lat="44.75188" lon="3.21744">
        <ele>1136</ele>
        <time>2022-03-26T15:22:39Z</time>
      </trkpt>
      <trkpt lat="44.75181" lon="3.21755">
        <ele>1134.3</ele>
        <time>2022-03-26T15:22:44Z</time>
      </trkpt>
      <trkpt lat="44.75175" lon="3.21764">
        <ele>1133</ele>
        <time>2022-03-26T15:22:49Z</time>
      </trkpt>
      <trkpt lat="44.75168" lon="3.21776">
        <ele>1131.2</ele>
        <time>2022-03-26T15:22:54Z</time>
      </trkpt>
      <trkpt lat="44.75161" lon="3.21781">
        <ele>1131.1</ele>
        <time>2022-03-26T15:22:59Z</time>
      </trkpt>
      <trkpt lat="44.75156" lon="3.21787">
        <ele>1130.6</ele>
        <time>2022-03-26T15:23:05Z</time>
      </trkpt>
      <trkpt lat="44.75147" lon="3.21797">
        <ele>1130.1</ele>
        <time>2022-03-26T15:23:10Z</time>
      </trkpt>
      <trkpt lat="44.75139" lon="3.21809">
        <ele>1129.2</ele>
        <time>2022-03-26T15:23:15Z</time>
      </trkpt>
      <trkpt lat="44.75132" lon="3.21817">
        <ele>1128.9</ele>
        <time>2022-03-26T15:23:20Z</time>
      </trkpt>
      <trkpt lat="44.75126" lon="3.21823">
        <ele>1128.9</ele>
        <time>2022-03-26T15:23:25Z</time>
      </trkpt>
      <trkpt lat="44.75117" lon="3.21831">
        <ele>1129.1</ele>
        <time>2022-03-26T15:23:30Z</time>
      </trkpt>
      <trkpt lat="44.75113" lon="3.21837">
        <ele>1128.8</ele>
        <time>2022-03-26T15:23:35Z</time>
      </trkpt>
      <trkpt lat="44.75107" lon="3.21842">
        <ele>1128.8</ele>
        <time>2022-03-26T15:23:41Z</time>
      </trkpt>
      <trkpt lat="44.751" lon="3.21845">
        <ele>1129.3</ele>
        <time>2022-03-26T15:23:47Z</time>
      </trkpt>
      <trkpt lat="44.75093" lon="3.21852">
        <ele>1129.1</ele>
        <time>2022-03-26T15:23:53Z</time>
      </trkpt>
      <trkpt lat="44.75086" lon="3.21858">
        <ele>1128.9</ele>
        <time>2022-03-26T15:23:58Z</time>
      </trkpt>
      <trkpt lat="44.7508" lon="3.21865">
        <ele>1128.5</ele>
        <time>2022-03-26T15:24:03Z</time>
      </trkpt>
      <trkpt lat="44.75071" lon="3.2187">
        <ele>1129</ele>
        <time>2022-03-26T15:24:08Z</time>
      </trkpt>
      <trkpt lat="44.75065" lon="3.21877">
        <ele>1128.6</ele>
        <time>2022-03-26T15:24:14Z</time>
      </trkpt>
      <trkpt lat="44.75059" lon="3.21883">
        <ele>1128.4</ele>
        <time>2022-03-26T15:24:19Z</time>
      </trkpt>
      <trkpt lat="44.75049" lon="3.2189">
        <ele>1128.6</ele>
        <time>2022-03-26T15:24:24Z</time>
      </trkpt>
      <trkpt lat="44.75042" lon="3.21898">
        <ele>1128.1</ele>
        <time>2022-03-26T15:24:29Z</time>
      </trkpt>
      <trkpt lat="44.75034" lon="3.21903">
        <ele>1128.4</ele>
        <time>2022-03-26T15:24:34Z</time>
      </trkpt>
      <trkpt lat="44.75027" lon="3.21909">
        <ele>1128.3</ele>
        <time>2022-03-26T15:24:40Z</time>
      </trkpt>
      <trkpt lat="44.7502" lon="3.21917">
        <ele>1127.8</ele>
        <time>2022-03-26T15:24:45Z</time>
      </trkpt>
      <trkpt lat="44.75014" lon="3.21926">
        <ele>1126.7</ele>
        <time>2022-03-26T15:24:50Z</time>
      </trkpt>
      <trkpt lat="44.75007" lon="3.21932">
        <ele>1126.5</ele>
        <time>2022-03-26T15:24:55Z</time>
      </trkpt>
      <trkpt lat="44.75" lon="3.21939">
        <ele>1125.9</ele>
        <time>2022-03-26T15:25:17Z</time>
      </trkpt>
      <trkpt lat="44.74993" lon="3.21946">
        <ele>1125.1</ele>
        <time>2022-03-26T15:25:22Z</time>
      </trkpt>
      <trkpt lat="44.74987" lon="3.21955">
        <ele>1123.7</ele>
        <time>2022-03-26T15:25:27Z</time>
      </trkpt>
      <trkpt lat="44.74981" lon="3.2196">
        <ele>1123.2</ele>
        <time>2022-03-26T15:25:32Z</time>
      </trkpt>
      <trkpt lat="44.74975" lon="3.21968">
        <ele>1122</ele>
        <time>2022-03-26T15:25:37Z</time>
      </trkpt>
      <trkpt lat="44.74969" lon="3.21977">
        <ele>1120.6</ele>
        <time>2022-03-26T15:25:42Z</time>
      </trkpt>
      <trkpt lat="44.74968" lon="3.21987">
        <ele>1118.4</ele>
        <time>2022-03-26T15:25:49Z</time>
      </trkpt>
      <trkpt lat="44.74962" lon="3.2199">
        <ele>1118.4</ele>
        <time>2022-03-26T15:26:17Z</time>
      </trkpt>
      <trkpt lat="44.74953" lon="3.21999">
        <ele>1117.3</ele>
        <time>2022-03-26T15:26:22Z</time>
      </trkpt>
      <trkpt lat="44.74947" lon="3.22005">
        <ele>1117</ele>
        <time>2022-03-26T15:26:27Z</time>
      </trkpt>
      <trkpt lat="44.74941" lon="3.22012">
        <ele>1116.5</ele>
        <time>2022-03-26T15:26:32Z</time>
      </trkpt>
      <trkpt lat="44.74935" lon="3.2202">
        <ele>1115.9</ele>
        <time>2022-03-26T15:26:37Z</time>
      </trkpt>
      <trkpt lat="44.74928" lon="3.22029">
        <ele>1115.1</ele>
        <time>2022-03-26T15:26:42Z</time>
      </trkpt>
      <trkpt lat="44.74922" lon="3.22035">
        <ele>1114.7</ele>
        <time>2022-03-26T15:26:47Z</time>
      </trkpt>
      <trkpt lat="44.74917" lon="3.22043">
        <ele>1113.7</ele>
        <time>2022-03-26T15:26:52Z</time>
      </trkpt>
      <trkpt lat="44.74911" lon="3.22051">
        <ele>1113</ele>
        <time>2022-03-26T15:26:57Z</time>
      </trkpt>
      <trkpt lat="44.74904" lon="3.22056">
        <ele>1112.9</ele>
        <time>2022-03-26T15:27:02Z</time>
      </trkpt>
      <trkpt lat="44.74898" lon="3.22063">
        <ele>1112.4</ele>
        <time>2022-03-26T15:27:07Z</time>
      </trkpt>
      <trkpt lat="44.74894" lon="3.22072">
        <ele>1111.3</ele>
        <time>2022-03-26T15:27:12Z</time>
      </trkpt>
      <trkpt lat="44.74888" lon="3.22078">
        <ele>1111</ele>
        <time>2022-03-26T15:27:17Z</time>
      </trkpt>
      <trkpt lat="44.74884" lon="3.22085">
        <ele>1110.5</ele>
        <time>2022-03-26T15:27:22Z</time>
      </trkpt>
      <trkpt lat="44.74879" lon="3.22091">
        <ele>1110.8</ele>
        <time>2022-03-26T15:27:45Z</time>
      </trkpt>
      <trkpt lat="44.74873" lon="3.22098">
        <ele>1111.3</ele>
        <time>2022-03-26T15:27:50Z</time>
      </trkpt>
      <trkpt lat="44.74868" lon="3.22105">
        <ele>1111.6</ele>
        <time>2022-03-26T15:27:55Z</time>
      </trkpt>
      <trkpt lat="44.74862" lon="3.22111">
        <ele>1112</ele>
        <time>2022-03-26T15:28:00Z</time>
      </trkpt>
      <trkpt lat="44.74855" lon="3.22119">
        <ele>1112.5</ele>
        <time>2022-03-26T15:28:05Z</time>
      </trkpt>
      <trkpt lat="44.7485" lon="3.22126">
        <ele>1112.8</ele>
        <time>2022-03-26T15:28:11Z</time>
      </trkpt>
      <trkpt lat="44.74847" lon="3.22137">
        <ele>1112.7</ele>
        <time>2022-03-26T15:28:16Z</time>
      </trkpt>
      <trkpt lat="44.74843" lon="3.22149">
        <ele>1112.7</ele>
        <time>2022-03-26T15:28:21Z</time>
      </trkpt>
      <trkpt lat="44.7484" lon="3.22158">
        <ele>1112.7</ele>
        <time>2022-03-26T15:28:26Z</time>
      </trkpt>
      <trkpt lat="44.74837" lon="3.22169">
        <ele>1112.6</ele>
        <time>2022-03-26T15:28:31Z</time>
      </trkpt>
      <trkpt lat="44.74834" lon="3.2218">
        <ele>1112.5</ele>
        <time>2022-03-26T15:28:36Z</time>
      </trkpt>
      <trkpt lat="44.7483" lon="3.22189">
        <ele>1112.4</ele>
        <time>2022-03-26T15:28:43Z</time>
      </trkpt>
      <trkpt lat="44.74829" lon="3.22199">
        <ele>1112.2</ele>
        <time>2022-03-26T15:28:48Z</time>
      </trkpt>
      <trkpt lat="44.74828" lon="3.2221">
        <ele>1111.9</ele>
        <time>2022-03-26T15:28:53Z</time>
      </trkpt>
      <trkpt lat="44.74826" lon="3.22221">
        <ele>1111.6</ele>
        <time>2022-03-26T15:29:00Z</time>
      </trkpt>
      <trkpt lat="44.74825" lon="3.22231">
        <ele>1111.4</ele>
        <time>2022-03-26T15:29:05Z</time>
      </trkpt>
      <trkpt lat="44.74825" lon="3.2224">
        <ele>1111</ele>
        <time>2022-03-26T15:29:10Z</time>
      </trkpt>
      <trkpt lat="44.74823" lon="3.22251">
        <ele>1110.8</ele>
        <time>2022-03-26T15:29:16Z</time>
      </trkpt>
      <trkpt lat="44.74829" lon="3.22256">
        <ele>1110.2</ele>
        <time>2022-03-26T15:29:25Z</time>
      </trkpt>
      <trkpt lat="44.74828" lon="3.22266">
        <ele>1109.9</ele>
        <time>2022-03-26T15:29:52Z</time>
      </trkpt>
      <trkpt lat="44.74824" lon="3.22274">
        <ele>1110.1</ele>
        <time>2022-03-26T15:29:57Z</time>
      </trkpt>
      <trkpt lat="44.74815" lon="3.22274">
        <ele>1111.1</ele>
        <time>2022-03-26T15:30:27Z</time>
      </trkpt>
      <trkpt lat="44.74816" lon="3.22264">
        <ele>1111.2</ele>
        <time>2022-03-26T15:30:35Z</time>
      </trkpt>
      <trkpt lat="44.74809" lon="3.2226">
        <ele>1111.9</ele>
        <time>2022-03-26T15:30:40Z</time>
      </trkpt>
      <trkpt lat="44.74803" lon="3.22253">
        <ele>1112.5</ele>
        <time>2022-03-26T15:31:06Z</time>
      </trkpt>
      <trkpt lat="44.74798" lon="3.22249">
        <ele>1113</ele>
        <time>2022-03-26T15:31:30Z</time>
      </trkpt>
      <trkpt lat="44.74789" lon="3.22248">
        <ele>1113.8</ele>
        <time>2022-03-26T15:31:35Z</time>
      </trkpt>
      <trkpt lat="44.74781" lon="3.22248">
        <ele>1114.5</ele>
        <time>2022-03-26T15:31:40Z</time>
      </trkpt>
      <trkpt lat="44.74774" lon="3.22243">
        <ele>1115.2</ele>
        <time>2022-03-26T15:31:48Z</time>
      </trkpt>
      <trkpt lat="44.74767" lon="3.2225">
        <ele>1115.6</ele>
        <time>2022-03-26T15:32:16Z</time>
      </trkpt>
      <trkpt lat="44.7476" lon="3.22252">
        <ele>1116.2</ele>
        <time>2022-03-26T15:32:24Z</time>
      </trkpt>
      <trkpt lat="44.74754" lon="3.22252">
        <ele>1116.7</ele>
        <time>2022-03-26T15:32:29Z</time>
      </trkpt>
      <trkpt lat="44.74747" lon="3.22251">
        <ele>1117</ele>
        <time>2022-03-26T15:32:34Z</time>
      </trkpt>
      <trkpt lat="44.7474" lon="3.22254">
        <ele>1116.9</ele>
        <time>2022-03-26T15:32:39Z</time>
      </trkpt>
      <trkpt lat="44.74732" lon="3.22255">
        <ele>1116.8</ele>
        <time>2022-03-26T15:32:44Z</time>
      </trkpt>
      <trkpt lat="44.74725" lon="3.22255">
        <ele>1116.6</ele>
        <time>2022-03-26T15:32:49Z</time>
      </trkpt>
      <trkpt lat="44.74715" lon="3.22253">
        <ele>1116.3</ele>
        <time>2022-03-26T15:32:54Z</time>
      </trkpt>
      <trkpt lat="44.74708" lon="3.22252">
        <ele>1116.1</ele>
        <time>2022-03-26T15:33:00Z</time>
      </trkpt>
      <trkpt lat="44.74701" lon="3.22249">
        <ele>1115.8</ele>
        <time>2022-03-26T15:33:05Z</time>
      </trkpt>
      <trkpt lat="44.74695" lon="3.22248">
        <ele>1115.7</ele>
        <time>2022-03-26T15:33:10Z</time>
      </trkpt>
      <trkpt lat="44.74688" lon="3.22247">
        <ele>1115.6</ele>
        <time>2022-03-26T15:33:15Z</time>
      </trkpt>
      <trkpt lat="44.74681" lon="3.22242">
        <ele>1115.5</ele>
        <time>2022-03-26T15:33:21Z</time>
      </trkpt>
      <trkpt lat="44.74674" lon="3.22237">
        <ele>1115.3</ele>
        <time>2022-03-26T15:33:27Z</time>
      </trkpt>
      <trkpt lat="44.74668" lon="3.22235">
        <ele>1115.2</ele>
        <time>2022-03-26T15:33:33Z</time>
      </trkpt>
      <trkpt lat="44.74661" lon="3.22232">
        <ele>1114.9</ele>
        <time>2022-03-26T15:33:39Z</time>
      </trkpt>
      <trkpt lat="44.74655" lon="3.22229">
        <ele>1114.6</ele>
        <time>2022-03-26T15:33:44Z</time>
      </trkpt>
      <trkpt lat="44.74648" lon="3.22231">
        <ele>1114.2</ele>
        <time>2022-03-26T15:34:33Z</time>
      </trkpt>
      <trkpt lat="44.74641" lon="3.22231">
        <ele>1113.8</ele>
        <time>2022-03-26T15:35:14Z</time>
      </trkpt>
      <trkpt lat="44.74635" lon="3.22237">
        <ele>1113.3</ele>
        <time>2022-03-26T15:35:20Z</time>
      </trkpt>
      <trkpt lat="44.74629" lon="3.22242">
        <ele>1112.9</ele>
        <time>2022-03-26T15:35:25Z</time>
      </trkpt>
      <trkpt lat="44.74622" lon="3.22241">
        <ele>1112.5</ele>
        <time>2022-03-26T15:35:30Z</time>
      </trkpt>
      <trkpt lat="44.74614" lon="3.22242">
        <ele>1112</ele>
        <time>2022-03-26T15:35:35Z</time>
      </trkpt>
      <trkpt lat="44.74607" lon="3.22241">
        <ele>1111.6</ele>
        <time>2022-03-26T15:35:40Z</time>
      </trkpt>
      <trkpt lat="44.74599" lon="3.22246">
        <ele>1111</ele>
        <time>2022-03-26T15:35:45Z</time>
      </trkpt>
      <trkpt lat="44.74593" lon="3.2225">
        <ele>1110.6</ele>
        <time>2022-03-26T15:35:51Z</time>
      </trkpt>
      <trkpt lat="44.74585" lon="3.2225">
        <ele>1110.1</ele>
        <time>2022-03-26T15:36:05Z</time>
      </trkpt>
      <trkpt lat="44.7458" lon="3.22256">
        <ele>1109.8</ele>
        <time>2022-03-26T15:36:10Z</time>
      </trkpt>
      <trkpt lat="44.74573" lon="3.22258">
        <ele>1109.5</ele>
        <time>2022-03-26T15:36:16Z</time>
      </trkpt>
      <trkpt lat="44.74566" lon="3.22261">
        <ele>1109.1</ele>
        <time>2022-03-26T15:36:21Z</time>
      </trkpt>
      <trkpt lat="44.74556" lon="3.22263">
        <ele>1108.6</ele>
        <time>2022-03-26T15:36:26Z</time>
      </trkpt>
      <trkpt lat="44.74547" lon="3.22268">
        <ele>1108</ele>
        <time>2022-03-26T15:36:31Z</time>
      </trkpt>
      <trkpt lat="44.7454" lon="3.22271">
        <ele>1107.5</ele>
        <time>2022-03-26T15:36:36Z</time>
      </trkpt>
      <trkpt lat="44.74532" lon="3.22274">
        <ele>1107</ele>
        <time>2022-03-26T15:36:41Z</time>
      </trkpt>
      <trkpt lat="44.74525" lon="3.22278">
        <ele>1106.4</ele>
        <time>2022-03-26T15:36:46Z</time>
      </trkpt>
      <trkpt lat="44.74518" lon="3.2228">
        <ele>1105.9</ele>
        <time>2022-03-26T15:36:53Z</time>
      </trkpt>
      <trkpt lat="44.7451" lon="3.22282">
        <ele>1105.3</ele>
        <time>2022-03-26T15:36:58Z</time>
      </trkpt>
      <trkpt lat="44.74502" lon="3.22284">
        <ele>1104.7</ele>
        <time>2022-03-26T15:37:03Z</time>
      </trkpt>
      <trkpt lat="44.74494" lon="3.22284">
        <ele>1104</ele>
        <time>2022-03-26T15:37:08Z</time>
      </trkpt>
      <trkpt lat="44.74486" lon="3.22285">
        <ele>1103.3</ele>
        <time>2022-03-26T15:37:13Z</time>
      </trkpt>
      <trkpt lat="44.74477" lon="3.22285">
        <ele>1102.5</ele>
        <time>2022-03-26T15:37:18Z</time>
      </trkpt>
      <trkpt lat="44.74468" lon="3.22285">
        <ele>1101.8</ele>
        <time>2022-03-26T15:37:23Z</time>
      </trkpt>
      <trkpt lat="44.74461" lon="3.22284">
        <ele>1101.3</ele>
        <time>2022-03-26T15:37:28Z</time>
      </trkpt>
      <trkpt lat="44.74454" lon="3.22283">
        <ele>1100.8</ele>
        <time>2022-03-26T15:37:33Z</time>
      </trkpt>
      <trkpt lat="44.74445" lon="3.22284">
        <ele>1099.9</ele>
        <time>2022-03-26T15:37:38Z</time>
      </trkpt>
      <trkpt lat="44.74438" lon="3.22283">
        <ele>1099.4</ele>
        <time>2022-03-26T15:37:43Z</time>
      </trkpt>
      <trkpt lat="44.7443" lon="3.2228">
        <ele>1099</ele>
        <time>2022-03-26T15:37:48Z</time>
      </trkpt>
      <trkpt lat="44.74423" lon="3.22281">
        <ele>1098.3</ele>
        <time>2022-03-26T15:37:53Z</time>
      </trkpt>
      <trkpt lat="44.74412" lon="3.22278">
        <ele>1097.6</ele>
        <time>2022-03-26T15:37:58Z</time>
      </trkpt>
      <trkpt lat="44.74405" lon="3.22278">
        <ele>1097</ele>
        <time>2022-03-26T15:38:03Z</time>
      </trkpt>
      <trkpt lat="44.74397" lon="3.22278">
        <ele>1096.3</ele>
        <time>2022-03-26T15:38:08Z</time>
      </trkpt>
      <trkpt lat="44.74389" lon="3.22277">
        <ele>1095.6</ele>
        <time>2022-03-26T15:38:13Z</time>
      </trkpt>
      <trkpt lat="44.74379" lon="3.22277">
        <ele>1094.7</ele>
        <time>2022-03-26T15:38:18Z</time>
      </trkpt>
      <trkpt lat="44.74372" lon="3.22276">
        <ele>1094.2</ele>
        <time>2022-03-26T15:38:24Z</time>
      </trkpt>
      <trkpt lat="44.74365" lon="3.22276">
        <ele>1093.6</ele>
        <time>2022-03-26T15:38:39Z</time>
      </trkpt>
      <trkpt lat="44.74359" lon="3.22276">
        <ele>1093</ele>
        <time>2022-03-26T15:38:44Z</time>
      </trkpt>
      <trkpt lat="44.74352" lon="3.22278">
        <ele>1092.3</ele>
        <time>2022-03-26T15:38:49Z</time>
      </trkpt>
      <trkpt lat="44.74345" lon="3.22279">
        <ele>1091.6</ele>
        <time>2022-03-26T15:38:54Z</time>
      </trkpt>
      <trkpt lat="44.74336" lon="3.2228">
        <ele>1090.8</ele>
        <time>2022-03-26T15:38:59Z</time>
      </trkpt>
      <trkpt lat="44.74329" lon="3.22277">
        <ele>1090.3</ele>
        <time>2022-03-26T15:39:04Z</time>
      </trkpt>
      <trkpt lat="44.74322" lon="3.22278">
        <ele>1089.7</ele>
        <time>2022-03-26T15:39:09Z</time>
      </trkpt>
      <trkpt lat="44.74315" lon="3.22278">
        <ele>1089.1</ele>
        <time>2022-03-26T15:39:15Z</time>
      </trkpt>
      <trkpt lat="44.74307" lon="3.22278">
        <ele>1088.4</ele>
        <time>2022-03-26T15:39:20Z</time>
      </trkpt>
      <trkpt lat="44.74298" lon="3.22279">
        <ele>1087.7</ele>
        <time>2022-03-26T15:39:25Z</time>
      </trkpt>
      <trkpt lat="44.74289" lon="3.22278">
        <ele>1086.9</ele>
        <time>2022-03-26T15:39:30Z</time>
      </trkpt>
      <trkpt lat="44.74282" lon="3.22279">
        <ele>1086.3</ele>
        <time>2022-03-26T15:39:35Z</time>
      </trkpt>
      <trkpt lat="44.74273" lon="3.2228">
        <ele>1085.5</ele>
        <time>2022-03-26T15:39:40Z</time>
      </trkpt>
      <trkpt lat="44.74267" lon="3.22283">
        <ele>1085</ele>
        <time>2022-03-26T15:39:45Z</time>
      </trkpt>
      <trkpt lat="44.74261" lon="3.22288">
        <ele>1084.4</ele>
        <time>2022-03-26T15:39:55Z</time>
      </trkpt>
      <trkpt lat="44.74255" lon="3.22292">
        <ele>1083.9</ele>
        <time>2022-03-26T15:40:00Z</time>
      </trkpt>
      <trkpt lat="44.7425" lon="3.223">
        <ele>1083.4</ele>
        <time>2022-03-26T15:40:05Z</time>
      </trkpt>
      <trkpt lat="44.74248" lon="3.22311">
        <ele>1083.2</ele>
        <time>2022-03-26T15:40:10Z</time>
      </trkpt>
      <trkpt lat="44.74248" lon="3.22323">
        <ele>1083</ele>
        <time>2022-03-26T15:40:15Z</time>
      </trkpt>
      <trkpt lat="44.74249" lon="3.22337">
        <ele>1082.8</ele>
        <time>2022-03-26T15:40:20Z</time>
      </trkpt>
      <trkpt lat="44.74252" lon="3.22346">
        <ele>1082.5</ele>
        <time>2022-03-26T15:40:27Z</time>
      </trkpt>
      <trkpt lat="44.74256" lon="3.22354">
        <ele>1082.3</ele>
        <time>2022-03-26T15:40:32Z</time>
      </trkpt>
      <trkpt lat="44.74262" lon="3.2236">
        <ele>1082.3</ele>
        <time>2022-03-26T15:40:37Z</time>
      </trkpt>
      <trkpt lat="44.74268" lon="3.22366">
        <ele>1082.3</ele>
        <time>2022-03-26T15:40:42Z</time>
      </trkpt>
      <trkpt lat="44.74272" lon="3.22374">
        <ele>1082.1</ele>
        <time>2022-03-26T15:40:47Z</time>
      </trkpt>
      <trkpt lat="44.74279" lon="3.22383">
        <ele>1081.9</ele>
        <time>2022-03-26T15:40:52Z</time>
      </trkpt>
      <trkpt lat="44.74283" lon="3.22391">
        <ele>1081.7</ele>
        <time>2022-03-26T15:40:57Z</time>
      </trkpt>
      <trkpt lat="44.74289" lon="3.224">
        <ele>1081.4</ele>
        <time>2022-03-26T15:41:02Z</time>
      </trkpt>
      <trkpt lat="44.74293" lon="3.22407">
        <ele>1081.1</ele>
        <time>2022-03-26T15:41:07Z</time>
      </trkpt>
      <trkpt lat="44.74299" lon="3.22418">
        <ele>1080.6</ele>
        <time>2022-03-26T15:41:12Z</time>
      </trkpt>
      <trkpt lat="44.74302" lon="3.2243">
        <ele>1079.3</ele>
        <time>2022-03-26T15:41:18Z</time>
      </trkpt>
      <trkpt lat="44.74294" lon="3.22429">
        <ele>1079.1</ele>
        <time>2022-03-26T15:41:29Z</time>
      </trkpt>
      <trkpt lat="44.7429" lon="3.22421">
        <ele>1079.9</ele>
        <time>2022-03-26T15:41:34Z</time>
      </trkpt>
      <trkpt lat="44.74284" lon="3.22412">
        <ele>1080.5</ele>
        <time>2022-03-26T15:41:39Z</time>
      </trkpt>
      <trkpt lat="44.74276" lon="3.22408">
        <ele>1080.4</ele>
        <time>2022-03-26T15:41:44Z</time>
      </trkpt>
      <trkpt lat="44.74267" lon="3.2241">
        <ele>1080</ele>
        <time>2022-03-26T15:41:49Z</time>
      </trkpt>
      <trkpt lat="44.74259" lon="3.2241">
        <ele>1079.7</ele>
        <time>2022-03-26T15:41:54Z</time>
      </trkpt>
      <trkpt lat="44.74251" lon="3.2241">
        <ele>1079.4</ele>
        <time>2022-03-26T15:41:59Z</time>
      </trkpt>
      <trkpt lat="44.74244" lon="3.22414">
        <ele>1079.1</ele>
        <time>2022-03-26T15:42:04Z</time>
      </trkpt>
      <trkpt lat="44.74236" lon="3.22412">
        <ele>1079.2</ele>
        <time>2022-03-26T15:42:09Z</time>
      </trkpt>
      <trkpt lat="44.74229" lon="3.22409">
        <ele>1079.3</ele>
        <time>2022-03-26T15:42:14Z</time>
      </trkpt>
      <trkpt lat="44.74221" lon="3.22406">
        <ele>1079.3</ele>
        <time>2022-03-26T15:42:19Z</time>
      </trkpt>
      <trkpt lat="44.74215" lon="3.22402">
        <ele>1079.4</ele>
        <time>2022-03-26T15:42:25Z</time>
      </trkpt>
      <trkpt lat="44.74208" lon="3.22397">
        <ele>1079.5</ele>
        <time>2022-03-26T15:42:30Z</time>
      </trkpt>
      <trkpt lat="44.74201" lon="3.22394">
        <ele>1079.4</ele>
        <time>2022-03-26T15:42:35Z</time>
      </trkpt>
      <trkpt lat="44.74196" lon="3.22388">
        <ele>1079.5</ele>
        <time>2022-03-26T15:42:41Z</time>
      </trkpt>
      <trkpt lat="44.7419" lon="3.22381">
        <ele>1079.5</ele>
        <time>2022-03-26T15:42:46Z</time>
      </trkpt>
      <trkpt lat="44.74185" lon="3.22376">
        <ele>1079.4</ele>
        <time>2022-03-26T15:42:51Z</time>
      </trkpt>
      <trkpt lat="44.74179" lon="3.22369">
        <ele>1079.3</ele>
        <time>2022-03-26T15:42:56Z</time>
      </trkpt>
      <trkpt lat="44.74173" lon="3.22362">
        <ele>1079.2</ele>
        <time>2022-03-26T15:43:02Z</time>
      </trkpt>
      <trkpt lat="44.74166" lon="3.22352">
        <ele>1078.9</ele>
        <time>2022-03-26T15:43:07Z</time>
      </trkpt>
      <trkpt lat="44.7416" lon="3.22344">
        <ele>1078.4</ele>
        <time>2022-03-26T15:43:14Z</time>
      </trkpt>
      <trkpt lat="44.74153" lon="3.22337">
        <ele>1077.7</ele>
        <time>2022-03-26T15:43:19Z</time>
      </trkpt>
      <trkpt lat="44.74148" lon="3.22329">
        <ele>1077.2</ele>
        <time>2022-03-26T15:43:24Z</time>
      </trkpt>
      <trkpt lat="44.74142" lon="3.22321">
        <ele>1076.7</ele>
        <time>2022-03-26T15:43:29Z</time>
      </trkpt>
      <trkpt lat="44.74134" lon="3.22317">
        <ele>1075.9</ele>
        <time>2022-03-26T15:43:34Z</time>
      </trkpt>
      <trkpt lat="44.74124" lon="3.22313">
        <ele>1075</ele>
        <time>2022-03-26T15:43:39Z</time>
      </trkpt>
      <trkpt lat="44.74116" lon="3.22313">
        <ele>1074.3</ele>
        <time>2022-03-26T15:43:44Z</time>
      </trkpt>
      <trkpt lat="44.74108" lon="3.22313">
        <ele>1073.5</ele>
        <time>2022-03-26T15:43:49Z</time>
      </trkpt>
      <trkpt lat="44.74101" lon="3.22315">
        <ele>1072.9</ele>
        <time>2022-03-26T15:43:54Z</time>
      </trkpt>
      <trkpt lat="44.74091" lon="3.22315">
        <ele>1071.9</ele>
        <time>2022-03-26T15:43:59Z</time>
      </trkpt>
      <trkpt lat="44.74083" lon="3.22316">
        <ele>1071.2</ele>
        <time>2022-03-26T15:44:04Z</time>
      </trkpt>
      <trkpt lat="44.74076" lon="3.22319">
        <ele>1070.6</ele>
        <time>2022-03-26T15:44:09Z</time>
      </trkpt>
      <trkpt lat="44.74068" lon="3.2232">
        <ele>1069.9</ele>
        <time>2022-03-26T15:44:14Z</time>
      </trkpt>
      <trkpt lat="44.74059" lon="3.2232">
        <ele>1069.2</ele>
        <time>2022-03-26T15:44:19Z</time>
      </trkpt>
      <trkpt lat="44.7405" lon="3.22322">
        <ele>1068.4</ele>
        <time>2022-03-26T15:44:24Z</time>
      </trkpt>
      <trkpt lat="44.74043" lon="3.22325">
        <ele>1067.8</ele>
        <time>2022-03-26T15:44:29Z</time>
      </trkpt>
      <trkpt lat="44.74036" lon="3.22329">
        <ele>1067.1</ele>
        <time>2022-03-26T15:44:34Z</time>
      </trkpt>
      <trkpt lat="44.74028" lon="3.22334">
        <ele>1066.4</ele>
        <time>2022-03-26T15:44:39Z</time>
      </trkpt>
      <trkpt lat="44.74021" lon="3.22337">
        <ele>1065.8</ele>
        <time>2022-03-26T15:44:44Z</time>
      </trkpt>
      <trkpt lat="44.74013" lon="3.22337">
        <ele>1065.1</ele>
        <time>2022-03-26T15:44:50Z</time>
      </trkpt>
      <trkpt lat="44.74006" lon="3.22339">
        <ele>1064.5</ele>
        <time>2022-03-26T15:44:55Z</time>
      </trkpt>
      <trkpt lat="44.73998" lon="3.22344">
        <ele>1063.7</ele>
        <time>2022-03-26T15:45:00Z</time>
      </trkpt>
      <trkpt lat="44.7399" lon="3.22346">
        <ele>1063.2</ele>
        <time>2022-03-26T15:45:05Z</time>
      </trkpt>
      <trkpt lat="44.73981" lon="3.22348">
        <ele>1062.5</ele>
        <time>2022-03-26T15:45:10Z</time>
      </trkpt>
      <trkpt lat="44.73973" lon="3.22352">
        <ele>1062</ele>
        <time>2022-03-26T15:45:15Z</time>
      </trkpt>
      <trkpt lat="44.73966" lon="3.22358">
        <ele>1061.5</ele>
        <time>2022-03-26T15:45:20Z</time>
      </trkpt>
      <trkpt lat="44.73958" lon="3.22362">
        <ele>1061</ele>
        <time>2022-03-26T15:45:25Z</time>
      </trkpt>
      <trkpt lat="44.73951" lon="3.22369">
        <ele>1060.5</ele>
        <time>2022-03-26T15:45:30Z</time>
      </trkpt>
      <trkpt lat="44.73944" lon="3.22376">
        <ele>1060.1</ele>
        <time>2022-03-26T15:45:35Z</time>
      </trkpt>
      <trkpt lat="44.73937" lon="3.22382">
        <ele>1059.8</ele>
        <time>2022-03-26T15:45:40Z</time>
      </trkpt>
      <trkpt lat="44.7393" lon="3.2239">
        <ele>1059.4</ele>
        <time>2022-03-26T15:45:45Z</time>
      </trkpt>
      <trkpt lat="44.73924" lon="3.22397">
        <ele>1059.2</ele>
        <time>2022-03-26T15:45:50Z</time>
      </trkpt>
      <trkpt lat="44.73917" lon="3.22404">
        <ele>1058.9</ele>
        <time>2022-03-26T15:45:55Z</time>
      </trkpt>
      <trkpt lat="44.73911" lon="3.22412">
        <ele>1060</ele>
        <time>2022-03-26T15:46:01Z</time>
      </trkpt>
      <trkpt lat="44.73905" lon="3.22421">
        <ele>1061.3</ele>
        <time>2022-03-26T15:46:06Z</time>
      </trkpt>
      <trkpt lat="44.73898" lon="3.22429">
        <ele>1062.8</ele>
        <time>2022-03-26T15:46:17Z</time>
      </trkpt>
      <trkpt lat="44.73893" lon="3.22435">
        <ele>1064</ele>
        <time>2022-03-26T15:46:23Z</time>
      </trkpt>
      <trkpt lat="44.73887" lon="3.22442">
        <ele>1065.3</ele>
        <time>2022-03-26T15:46:28Z</time>
      </trkpt>
      <trkpt lat="44.73882" lon="3.22451">
        <ele>1066.6</ele>
        <time>2022-03-26T15:46:33Z</time>
      </trkpt>
      <trkpt lat="44.73876" lon="3.22457">
        <ele>1068</ele>
        <time>2022-03-26T15:46:39Z</time>
      </trkpt>
      <trkpt lat="44.73869" lon="3.22462">
        <ele>1069.6</ele>
        <time>2022-03-26T15:46:44Z</time>
      </trkpt>
      <trkpt lat="44.73862" lon="3.22467">
        <ele>1071.3</ele>
        <time>2022-03-26T15:46:49Z</time>
      </trkpt>
      <trkpt lat="44.73856" lon="3.22473">
        <ele>1072.8</ele>
        <time>2022-03-26T15:46:55Z</time>
      </trkpt>
      <trkpt lat="44.73851" lon="3.2248">
        <ele>1074.2</ele>
        <time>2022-03-26T15:47:00Z</time>
      </trkpt>
      <trkpt lat="44.73846" lon="3.22487">
        <ele>1075.6</ele>
        <time>2022-03-26T15:47:05Z</time>
      </trkpt>
      <trkpt lat="44.73841" lon="3.22495">
        <ele>1077</ele>
        <time>2022-03-26T15:47:11Z</time>
      </trkpt>
      <trkpt lat="44.73834" lon="3.22502">
        <ele>1079</ele>
        <time>2022-03-26T15:47:16Z</time>
      </trkpt>
      <trkpt lat="44.73845" lon="3.22498">
        <ele>1076.3</ele>
        <time>2022-03-26T15:47:38Z</time>
      </trkpt>
      <trkpt lat="44.73838" lon="3.22501">
        <ele>1078</ele>
        <time>2022-03-26T15:47:56Z</time>
      </trkpt>
      <trkpt lat="44.7383" lon="3.22506">
        <ele>1080.3</ele>
        <time>2022-03-26T15:48:02Z</time>
      </trkpt>
      <trkpt lat="44.73825" lon="3.22514">
        <ele>1082</ele>
        <time>2022-03-26T15:48:07Z</time>
      </trkpt>
      <trkpt lat="44.7383" lon="3.22522">
        <ele>1081.6</ele>
        <time>2022-03-26T15:48:44Z</time>
      </trkpt>
      <trkpt lat="44.73826" lon="3.2253">
        <ele>1083</ele>
        <time>2022-03-26T15:48:51Z</time>
      </trkpt>
      <trkpt lat="44.73824" lon="3.2254">
        <ele>1084.2</ele>
        <time>2022-03-26T15:48:58Z</time>
      </trkpt>
      <trkpt lat="44.73818" lon="3.22536">
        <ele>1085.1</ele>
        <time>2022-03-26T15:49:11Z</time>
      </trkpt>
      <trkpt lat="44.73809" lon="3.2253">
        <ele>1086.5</ele>
        <time>2022-03-26T15:49:16Z</time>
      </trkpt>
      <trkpt lat="44.73805" lon="3.22523">
        <ele>1087</ele>
        <time>2022-03-26T15:49:21Z</time>
      </trkpt>
      <trkpt lat="44.73801" lon="3.22515">
        <ele>1087.5</ele>
        <time>2022-03-26T15:49:28Z</time>
      </trkpt>
      <trkpt lat="44.73797" lon="3.22508">
        <ele>1088.1</ele>
        <time>2022-03-26T15:49:33Z</time>
      </trkpt>
      <trkpt lat="44.73792" lon="3.22501">
        <ele>1089</ele>
        <time>2022-03-26T15:49:39Z</time>
      </trkpt>
      <trkpt lat="44.73787" lon="3.22492">
        <ele>1089.6</ele>
        <time>2022-03-26T15:49:50Z</time>
      </trkpt>
      <trkpt lat="44.73781" lon="3.22487">
        <ele>1090.7</ele>
        <time>2022-03-26T15:49:58Z</time>
      </trkpt>
      <trkpt lat="44.73785" lon="3.22478">
        <ele>1089.2</ele>
        <time>2022-03-26T15:52:00Z</time>
      </trkpt>
    </trkseg>
  </trk>
</gpx>